<?xml version="1.0" encoding="UTF-8" standalone="no" ?>
<gpx xmlns="http://www.topografix.com/GPX/1/1" xmlns:xsi="http://www.w3.org/2001/XMLSchema-instance" xsi:schemaLocation="http://www.topografix.com/GPX/1/1 http://www.topografix.com/GPX/1/1/gpx.xsd" version="1.1" creator="VisuGPX - https://www.visugpx.com">
  <metadata>
    <name>Jour 10 : Fort Bloqué_Sainte Anne d'Auray</name>
  </metadata>
  <trk>
    <name><![CDATA[J_GTB 2022-Fort Bloqué_Sainte Anne d'Auray]]></name>
    <trkseg>
      <trkpt lat="47.73307" lon="-3.49818">
        <ele>7.689151</ele>
        <time>2021-11-10T14:10:59.999Z</time>
      </trkpt>
      <trkpt lat="47.73306" lon="-3.49818">
        <ele>7.689151</ele>
        <time>2021-11-10T14:11:00.224Z</time>
      </trkpt>
      <trkpt lat="47.73296" lon="-3.49811">
        <ele>7.689151</ele>
        <time>2021-11-10T14:11:02.200Z</time>
      </trkpt>
      <trkpt lat="47.73294" lon="-3.49797">
        <ele>7.689151</ele>
        <time>2021-11-10T14:11:03.886Z</time>
      </trkpt>
      <trkpt lat="47.73306" lon="-3.49786">
        <ele>7.689151</ele>
        <time>2021-11-10T14:11:06.338Z</time>
      </trkpt>
      <trkpt lat="47.73321" lon="-3.4977">
        <ele>7.689151</ele>
        <time>2021-11-10T14:11:09.581Z</time>
      </trkpt>
      <trkpt lat="47.73322" lon="-3.49768">
        <ele>7.689151</ele>
        <time>2021-11-10T14:11:09.818Z</time>
      </trkpt>
      <trkpt lat="47.73383" lon="-3.49784">
        <ele>7.6322</ele>
        <time>2021-11-10T14:11:21.093Z</time>
      </trkpt>
      <trkpt lat="47.7344" lon="-3.49802">
        <ele>7.517191</ele>
        <time>2021-11-10T14:11:31.532Z</time>
      </trkpt>
      <trkpt lat="47.73467" lon="-3.49813">
        <ele>7.461697</ele>
        <time>2021-11-10T14:11:36.584Z</time>
      </trkpt>
      <trkpt lat="47.73495" lon="-3.4982">
        <ele>7.407415</ele>
        <time>2021-11-10T14:11:41.542Z</time>
      </trkpt>
      <trkpt lat="47.73508" lon="-3.49824">
        <ele>7.380868</ele>
        <time>2021-11-10T14:11:43.951Z</time>
      </trkpt>
      <trkpt lat="47.73508" lon="-3.49824">
        <ele>7.380067</ele>
        <time>2021-11-10T14:11:44.030Z</time>
      </trkpt>
      <trkpt lat="47.73535" lon="-3.49705">
        <ele>7.512156</ele>
        <time>2021-11-10T14:11:58.935Z</time>
      </trkpt>
      <trkpt lat="47.73547" lon="-3.49652">
        <ele>7.62312</ele>
        <time>2021-11-10T14:12:06.187Z</time>
      </trkpt>
      <trkpt lat="47.73588" lon="-3.49601">
        <ele>7.7782</ele>
        <time>2021-11-10T14:12:16.785Z</time>
      </trkpt>
      <trkpt lat="47.73614" lon="-3.49543">
        <ele>7.96916</ele>
        <time>2021-11-10T14:12:26.297Z</time>
      </trkpt>
      <trkpt lat="47.73621" lon="-3.4953">
        <ele>8.031662</ele>
        <time>2021-11-10T14:12:28.485Z</time>
      </trkpt>
      <trkpt lat="47.73645" lon="-3.49509">
        <ele>8.188349</ele>
        <time>2021-11-10T14:12:34.089Z</time>
      </trkpt>
      <trkpt lat="47.73669" lon="-3.49504">
        <ele>8.327942</ele>
        <time>2021-11-10T14:12:39.055Z</time>
      </trkpt>
      <trkpt lat="47.7367" lon="-3.49477">
        <ele>8.429497</ele>
        <time>2021-11-10T14:12:42.654Z</time>
      </trkpt>
      <trkpt lat="47.73673" lon="-3.49446">
        <ele>8.548891</ele>
        <time>2021-11-10T14:12:49.449Z</time>
      </trkpt>
      <trkpt lat="47.737" lon="-3.49369">
        <ele>8.878862</ele>
        <time>2021-11-10T14:13:07.980Z</time>
      </trkpt>
      <trkpt lat="47.73763" lon="-3.49202">
        <ele>9.739009</ele>
        <time>2021-11-10T14:13:48.732Z</time>
      </trkpt>
      <trkpt lat="47.73798" lon="-3.49096">
        <ele>10.744519</ele>
        <time>2021-11-10T14:14:14.832Z</time>
      </trkpt>
      <trkpt lat="47.73839" lon="-3.49027">
        <ele>12.197062</ele>
        <time>2021-11-10T14:14:38.063Z</time>
      </trkpt>
      <trkpt lat="47.73865" lon="-3.49034">
        <ele>12.823192</ele>
        <time>2021-11-10T14:14:45.753Z</time>
      </trkpt>
      <trkpt lat="47.73868" lon="-3.48996">
        <ele>13.426705</ele>
        <time>2021-11-10T14:14:53.734Z</time>
      </trkpt>
      <trkpt lat="47.73856" lon="-3.48969">
        <ele>13.929766</ele>
        <time>2021-11-10T14:15:00.759Z</time>
      </trkpt>
      <trkpt lat="47.73709" lon="-3.48834">
        <ele>19.395926</ele>
        <time>2021-11-10T14:15:56.723Z</time>
      </trkpt>
      <trkpt lat="47.73673" lon="-3.48807">
        <ele>20.129016</ele>
        <time>2021-11-10T14:16:07.680Z</time>
      </trkpt>
      <trkpt lat="47.73671" lon="-3.48805">
        <ele>20.129104</ele>
        <time>2021-11-10T14:16:08.341Z</time>
      </trkpt>
      <trkpt lat="47.73639" lon="-3.48789">
        <ele>20.130468</ele>
        <time>2021-11-10T14:16:16.100Z</time>
      </trkpt>
      <trkpt lat="47.73589" lon="-3.48781">
        <ele>20.132549</ele>
        <time>2021-11-10T14:16:25.296Z</time>
      </trkpt>
      <trkpt lat="47.73555" lon="-3.48788">
        <ele>20.133949</ele>
        <time>2021-11-10T14:16:30.698Z</time>
      </trkpt>
      <trkpt lat="47.73497" lon="-3.48813">
        <ele>19.778097</ele>
        <time>2021-11-10T14:16:39.554Z</time>
      </trkpt>
      <trkpt lat="47.73472" lon="-3.48807">
        <ele>19.308018</ele>
        <time>2021-11-10T14:16:43.176Z</time>
      </trkpt>
      <trkpt lat="47.73432" lon="-3.48785">
        <ele>18.511997</ele>
        <time>2021-11-10T14:16:49.404Z</time>
      </trkpt>
      <trkpt lat="47.73386" lon="-3.48782">
        <ele>17.657775</ele>
        <time>2021-11-10T14:16:56.095Z</time>
      </trkpt>
      <trkpt lat="47.73365" lon="-3.48783">
        <ele>17.256092</ele>
        <time>2021-11-10T14:16:59.249Z</time>
      </trkpt>
      <trkpt lat="47.73322" lon="-3.48785">
        <ele>16.677494</ele>
        <time>2021-11-10T14:17:05.687Z</time>
      </trkpt>
      <trkpt lat="47.73309" lon="-3.48786">
        <ele>16.602485</ele>
        <time>2021-11-10T14:17:07.712Z</time>
      </trkpt>
      <trkpt lat="47.73209" lon="-3.48759">
        <ele>16.005764</ele>
        <time>2021-11-10T14:17:36.811Z</time>
      </trkpt>
      <trkpt lat="47.73199" lon="-3.4875">
        <ele>15.93909</ele>
        <time>2021-11-10T14:17:40.222Z</time>
      </trkpt>
      <trkpt lat="47.73173" lon="-3.48729">
        <ele>15.762335</ele>
        <time>2021-11-10T14:17:49.324Z</time>
      </trkpt>
      <trkpt lat="47.73142" lon="-3.48721">
        <ele>15.666428</ele>
        <time>2021-11-10T14:17:58.491Z</time>
      </trkpt>
      <trkpt lat="47.73126" lon="-3.48657">
        <ele>15.556482</ele>
        <time>2021-11-10T14:18:12.265Z</time>
      </trkpt>
      <trkpt lat="47.73102" lon="-3.48627">
        <ele>15.48318</ele>
        <time>2021-11-10T14:18:21.384Z</time>
      </trkpt>
      <trkpt lat="47.73074" lon="-3.48633">
        <ele>15.41528</ele>
        <time>2021-11-10T14:18:26.621Z</time>
      </trkpt>
      <trkpt lat="47.72989" lon="-3.48579">
        <ele>14.702835</ele>
        <time>2021-11-10T14:18:42.675Z</time>
      </trkpt>
      <trkpt lat="47.72869" lon="-3.48563">
        <ele>13.044944</ele>
        <time>2021-11-10T14:19:01.775Z</time>
      </trkpt>
      <trkpt lat="47.72895" lon="-3.48465">
        <ele>11.89821</ele>
        <time>2021-11-10T14:19:19.910Z</time>
      </trkpt>
      <trkpt lat="47.72905" lon="-3.48426">
        <ele>11.419337</ele>
        <time>2021-11-10T14:19:27.215Z</time>
      </trkpt>
      <trkpt lat="47.72952" lon="-3.48348">
        <ele>10.222839</ele>
        <time>2021-11-10T14:19:45.938Z</time>
      </trkpt>
      <trkpt lat="47.72975" lon="-3.4829">
        <ele>9.704792</ele>
        <time>2021-11-10T14:19:58.277Z</time>
      </trkpt>
      <trkpt lat="47.73017" lon="-3.4816">
        <ele>9.376211</ele>
        <time>2021-11-10T14:20:26.213Z</time>
      </trkpt>
      <trkpt lat="47.73026" lon="-3.48114">
        <ele>9.267612</ele>
        <time>2021-11-10T14:20:36.209Z</time>
      </trkpt>
      <trkpt lat="47.73032" lon="-3.47958">
        <ele>8.894677</ele>
        <time>2021-11-10T14:21:07.622Z</time>
      </trkpt>
      <trkpt lat="47.73027" lon="-3.47907">
        <ele>8.77016</ele>
        <time>2021-11-10T14:21:17.348Z</time>
      </trkpt>
      <trkpt lat="47.73007" lon="-3.4785">
        <ele>8.612683</ele>
        <time>2021-11-10T14:21:29.444Z</time>
      </trkpt>
      <trkpt lat="47.72991" lon="-3.47866">
        <ele>8.541138</ele>
        <time>2021-11-10T14:21:32.655Z</time>
      </trkpt>
      <trkpt lat="47.72961" lon="-3.47881">
        <ele>8.573161</ele>
        <time>2021-11-10T14:21:37.843Z</time>
      </trkpt>
      <trkpt lat="47.72881" lon="-3.4787">
        <ele>8.817489</ele>
        <time>2021-11-10T14:22:01.564Z</time>
      </trkpt>
      <trkpt lat="47.72881" lon="-3.4787">
        <ele>8.817694</ele>
        <time>2021-11-10T14:22:01.684Z</time>
      </trkpt>
      <trkpt lat="47.72881" lon="-3.4787">
        <ele>8.817899</ele>
        <time>2021-11-10T14:22:01.703Z</time>
      </trkpt>
      <trkpt lat="47.72899" lon="-3.4772">
        <ele>9.457617</ele>
        <time>2021-11-10T14:22:35.830Z</time>
      </trkpt>
      <trkpt lat="47.72881" lon="-3.47648">
        <ele>10.292114</ele>
        <time>2021-11-10T14:22:54.857Z</time>
      </trkpt>
      <trkpt lat="47.72878" lon="-3.47613">
        <ele>10.676717</ele>
        <time>2021-11-10T14:23:03.581Z</time>
      </trkpt>
      <trkpt lat="47.72888" lon="-3.4751">
        <ele>11.817967</ele>
        <time>2021-11-10T14:23:29.762Z</time>
      </trkpt>
      <trkpt lat="47.72922" lon="-3.47486">
        <ele>12.381192</ele>
        <time>2021-11-10T14:23:43.400Z</time>
      </trkpt>
      <trkpt lat="47.72922" lon="-3.47467">
        <ele>12.567472</ele>
        <time>2021-11-10T14:23:48.071Z</time>
      </trkpt>
      <trkpt lat="47.72912" lon="-3.47458">
        <ele>12.742212</ele>
        <time>2021-11-10T14:23:52.040Z</time>
      </trkpt>
      <trkpt lat="47.72842" lon="-3.47473">
        <ele>13.780168</ele>
        <time>2021-11-10T14:24:16.527Z</time>
      </trkpt>
      <trkpt lat="47.72793" lon="-3.47456">
        <ele>14.521072</ele>
        <time>2021-11-10T14:24:34.506Z</time>
      </trkpt>
      <trkpt lat="47.72748" lon="-3.47452">
        <ele>15.115953</ele>
        <time>2021-11-10T14:24:50.763Z</time>
      </trkpt>
      <trkpt lat="47.72741" lon="-3.47422">
        <ele>15.400329</ele>
        <time>2021-11-10T14:24:58.801Z</time>
      </trkpt>
      <trkpt lat="47.72739" lon="-3.4733">
        <ele>16.201884</ele>
        <time>2021-11-10T14:25:20.307Z</time>
      </trkpt>
      <trkpt lat="47.72739" lon="-3.4731">
        <ele>16.371099</ele>
        <time>2021-11-10T14:25:24.999Z</time>
      </trkpt>
      <trkpt lat="47.72734" lon="-3.47286">
        <ele>16.592314</ele>
        <time>2021-11-10T14:25:30.613Z</time>
      </trkpt>
      <trkpt lat="47.72705" lon="-3.47236">
        <ele>17.037686</ele>
        <time>2021-11-10T14:25:45.608Z</time>
      </trkpt>
      <trkpt lat="47.72678" lon="-3.47214">
        <ele>17.198489</ele>
        <time>2021-11-10T14:25:55.590Z</time>
      </trkpt>
      <trkpt lat="47.72675" lon="-3.47201">
        <ele>17.24909</ele>
        <time>2021-11-10T14:25:58.825Z</time>
      </trkpt>
      <trkpt lat="47.72612" lon="-3.47103">
        <ele>17.727578</ele>
        <time>2021-11-10T14:26:27.202Z</time>
      </trkpt>
      <trkpt lat="47.72572" lon="-3.46961">
        <ele>18.498093</ele>
        <time>2021-11-10T14:26:59.243Z</time>
      </trkpt>
      <trkpt lat="47.72527" lon="-3.46858">
        <ele>19.183135</ele>
        <time>2021-11-10T14:27:26.754Z</time>
      </trkpt>
      <trkpt lat="47.72518" lon="-3.46805">
        <ele>19.546117</ele>
        <time>2021-11-10T14:27:40.213Z</time>
      </trkpt>
      <trkpt lat="47.72516" lon="-3.46708">
        <ele>20.39207</ele>
        <time>2021-11-10T14:28:03.867Z</time>
      </trkpt>
      <trkpt lat="47.72525" lon="-3.46615">
        <ele>21.21125</ele>
        <time>2021-11-10T14:28:25.693Z</time>
      </trkpt>
      <trkpt lat="47.72521" lon="-3.46608">
        <ele>21.289403</ele>
        <time>2021-11-10T14:28:28.328Z</time>
      </trkpt>
      <trkpt lat="47.72503" lon="-3.46652">
        <ele>21.723328</ele>
        <time>2021-11-10T14:28:35.986Z</time>
      </trkpt>
      <trkpt lat="47.72487" lon="-3.46639">
        <ele>21.663538</ele>
        <time>2021-11-10T14:28:39.646Z</time>
      </trkpt>
      <trkpt lat="47.72475" lon="-3.466">
        <ele>21.569545</ele>
        <time>2021-11-10T14:28:45.776Z</time>
      </trkpt>
      <trkpt lat="47.72464" lon="-3.46604">
        <ele>21.531407</ele>
        <time>2021-11-10T14:28:47.695Z</time>
      </trkpt>
      <trkpt lat="47.72457" lon="-3.46625">
        <ele>21.480329</ele>
        <time>2021-11-10T14:28:50.986Z</time>
      </trkpt>
      <trkpt lat="47.72451" lon="-3.46629">
        <ele>21.459435</ele>
        <time>2021-11-10T14:28:52.083Z</time>
      </trkpt>
      <trkpt lat="47.72353" lon="-3.46634">
        <ele>21.133902</ele>
        <time>2021-11-10T14:29:07.778Z</time>
      </trkpt>
      <trkpt lat="47.72284" lon="-3.46707">
        <ele>19.791211</ele>
        <time>2021-11-10T14:29:20.654Z</time>
      </trkpt>
      <trkpt lat="47.72254" lon="-3.46731">
        <ele>19.24391</ele>
        <time>2021-11-10T14:29:25.870Z</time>
      </trkpt>
      <trkpt lat="47.72226" lon="-3.46744">
        <ele>18.794308</ele>
        <time>2021-11-10T14:29:30.147Z</time>
      </trkpt>
      <trkpt lat="47.72202" lon="-3.46743">
        <ele>18.40162</ele>
        <time>2021-11-10T14:29:33.909Z</time>
      </trkpt>
      <trkpt lat="47.72149" lon="-3.46716">
        <ele>17.318753</ele>
        <time>2021-11-10T14:29:42.079Z</time>
      </trkpt>
      <trkpt lat="47.72103" lon="-3.46727">
        <ele>16.375196</ele>
        <time>2021-11-10T14:29:48.936Z</time>
      </trkpt>
      <trkpt lat="47.72087" lon="-3.46747">
        <ele>15.968258</ele>
        <time>2021-11-10T14:29:51.911Z</time>
      </trkpt>
      <trkpt lat="47.72069" lon="-3.46785">
        <ele>15.344501</ele>
        <time>2021-11-10T14:29:56.457Z</time>
      </trkpt>
      <trkpt lat="47.72054" lon="-3.46794">
        <ele>15.020343</ele>
        <time>2021-11-10T14:29:58.742Z</time>
      </trkpt>
      <trkpt lat="47.7199" lon="-3.46779">
        <ele>14.003956</ele>
        <time>2021-11-10T14:30:08.246Z</time>
      </trkpt>
      <trkpt lat="47.71895" lon="-3.46736">
        <ele>12.587368</ele>
        <time>2021-11-10T14:30:23.337Z</time>
      </trkpt>
      <trkpt lat="47.71804" lon="-3.46721">
        <ele>12.02318</ele>
        <time>2021-11-10T14:30:38.614Z</time>
      </trkpt>
      <trkpt lat="47.71734" lon="-3.46676">
        <ele>11.887705</ele>
        <time>2021-11-10T14:30:52.332Z</time>
      </trkpt>
      <trkpt lat="47.71687" lon="-3.46632">
        <ele>11.797319</ele>
        <time>2021-11-10T14:31:02.816Z</time>
      </trkpt>
      <trkpt lat="47.71652" lon="-3.46656">
        <ele>11.753145</ele>
        <time>2021-11-10T14:31:09.930Z</time>
      </trkpt>
      <trkpt lat="47.71605" lon="-3.46815">
        <ele>11.619652</ele>
        <time>2021-11-10T14:31:30.101Z</time>
      </trkpt>
      <trkpt lat="47.71563" lon="-3.46803">
        <ele>11.412282</ele>
        <time>2021-11-10T14:31:37.318Z</time>
      </trkpt>
      <trkpt lat="47.71504" lon="-3.46775">
        <ele>11.010117</ele>
        <time>2021-11-10T14:31:47.848Z</time>
      </trkpt>
      <trkpt lat="47.71492" lon="-3.4677">
        <ele>10.929932</ele>
        <time>2021-11-10T14:31:49.892Z</time>
      </trkpt>
      <trkpt lat="47.71462" lon="-3.46756">
        <ele>10.721032</ele>
        <time>2021-11-10T14:31:55.335Z</time>
      </trkpt>
      <trkpt lat="47.714" lon="-3.46805">
        <ele>10.07484</ele>
        <time>2021-11-10T14:32:06.405Z</time>
      </trkpt>
      <trkpt lat="47.71362" lon="-3.46837">
        <ele>9.459665</ele>
        <time>2021-11-10T14:32:13.229Z</time>
      </trkpt>
      <trkpt lat="47.71353" lon="-3.46854">
        <ele>9.258544</ele>
        <time>2021-11-10T14:32:15.476Z</time>
      </trkpt>
      <trkpt lat="47.71345" lon="-3.4687">
        <ele>9.07088</ele>
        <time>2021-11-10T14:32:17.491Z</time>
      </trkpt>
      <trkpt lat="47.71314" lon="-3.46882">
        <ele>8.610839</ele>
        <time>2021-11-10T14:32:22.557Z</time>
      </trkpt>
      <trkpt lat="47.71252" lon="-3.46935">
        <ele>7.652601</ele>
        <time>2021-11-10T14:32:33.115Z</time>
      </trkpt>
      <trkpt lat="47.7124" lon="-3.46953">
        <ele>7.437146</ele>
        <time>2021-11-10T14:32:35.655Z</time>
      </trkpt>
      <trkpt lat="47.71231" lon="-3.46973">
        <ele>7.225147</ele>
        <time>2021-11-10T14:32:38.122Z</time>
      </trkpt>
      <trkpt lat="47.71212" lon="-3.47023">
        <ele>6.742368</ele>
        <time>2021-11-10T14:32:43.861Z</time>
      </trkpt>
      <trkpt lat="47.71202" lon="-3.47039">
        <ele>6.56305</ele>
        <time>2021-11-10T14:32:45.995Z</time>
      </trkpt>
      <trkpt lat="47.712" lon="-3.47036">
        <ele>6.522808</ele>
        <time>2021-11-10T14:32:46.495Z</time>
      </trkpt>
      <trkpt lat="47.71195" lon="-3.47037">
        <ele>6.461251</ele>
        <time>2021-11-10T14:32:47.201Z</time>
      </trkpt>
      <trkpt lat="47.71141" lon="-3.47136">
        <ele>5.831766</ele>
        <time>2021-11-10T14:33:01.509Z</time>
      </trkpt>
      <trkpt lat="47.71134" lon="-3.47142">
        <ele>5.891313</ele>
        <time>2021-11-10T14:33:02.891Z</time>
      </trkpt>
      <trkpt lat="47.71101" lon="-3.47078">
        <ele>6.304483</ele>
        <time>2021-11-10T14:33:14.189Z</time>
      </trkpt>
      <trkpt lat="47.71089" lon="-3.47054">
        <ele>6.456017</ele>
        <time>2021-11-10T14:33:18.369Z</time>
      </trkpt>
      <trkpt lat="47.71084" lon="-3.47046">
        <ele>6.509798</ele>
        <time>2021-11-10T14:33:20.169Z</time>
      </trkpt>
      <trkpt lat="47.71032" lon="-3.4695">
        <ele>7.186867</ele>
        <time>2021-11-10T14:33:39.632Z</time>
      </trkpt>
      <trkpt lat="47.71022" lon="-3.46961">
        <ele>7.314631</ele>
        <time>2021-11-10T14:33:42.400Z</time>
      </trkpt>
      <trkpt lat="47.71011" lon="-3.46949">
        <ele>7.459544</ele>
        <time>2021-11-10T14:33:46.234Z</time>
      </trkpt>
      <trkpt lat="47.70974" lon="-3.46881">
        <ele>8.087902</ele>
        <time>2021-11-10T14:34:01.253Z</time>
      </trkpt>
      <trkpt lat="47.70967" lon="-3.46848">
        <ele>8.337253</ele>
        <time>2021-11-10T14:34:07.216Z</time>
      </trkpt>
      <trkpt lat="47.70847" lon="-3.4662">
        <ele>9.000988</ele>
        <time>2021-11-10T14:34:48.027Z</time>
      </trkpt>
      <trkpt lat="47.70833" lon="-3.46596">
        <ele>9.009697</ele>
        <time>2021-11-10T14:34:52.143Z</time>
      </trkpt>
      <trkpt lat="47.70698" lon="-3.46363">
        <ele>7.671351</ele>
        <time>2021-11-10T14:35:29.248Z</time>
      </trkpt>
      <trkpt lat="47.7068" lon="-3.46332">
        <ele>7.703349</ele>
        <time>2021-11-10T14:35:34.452Z</time>
      </trkpt>
      <trkpt lat="47.70674" lon="-3.46328">
        <ele>7.711364</ele>
        <time>2021-11-10T14:35:36.022Z</time>
      </trkpt>
      <trkpt lat="47.70659" lon="-3.46335">
        <ele>7.729139</ele>
        <time>2021-11-10T14:35:39.208Z</time>
      </trkpt>
      <trkpt lat="47.70649" lon="-3.46322">
        <ele>7.744062</ele>
        <time>2021-11-10T14:35:41.567Z</time>
      </trkpt>
      <trkpt lat="47.70655" lon="-3.46287">
        <ele>7.771988</ele>
        <time>2021-11-10T14:35:46.887Z</time>
      </trkpt>
      <trkpt lat="47.70612" lon="-3.4621">
        <ele>7.848895</ele>
        <time>2021-11-10T14:36:01.097Z</time>
      </trkpt>
      <trkpt lat="47.70539" lon="-3.46081">
        <ele>8.171837</ele>
        <time>2021-11-10T14:36:27.036Z</time>
      </trkpt>
      <trkpt lat="47.7047" lon="-3.45964">
        <ele>8.312854</ele>
        <time>2021-11-10T14:36:47.901Z</time>
      </trkpt>
      <trkpt lat="47.70462" lon="-3.45947">
        <ele>8.216762</ele>
        <time>2021-11-10T14:36:50.462Z</time>
      </trkpt>
      <trkpt lat="47.70425" lon="-3.45873">
        <ele>7.787424</ele>
        <time>2021-11-10T14:37:01.547Z</time>
      </trkpt>
      <trkpt lat="47.7042" lon="-3.45864">
        <ele>7.734264</ele>
        <time>2021-11-10T14:37:02.968Z</time>
      </trkpt>
      <trkpt lat="47.70398" lon="-3.45859">
        <ele>7.578494</ele>
        <time>2021-11-10T14:37:06.525Z</time>
      </trkpt>
      <trkpt lat="47.70382" lon="-3.45856">
        <ele>7.466483</ele>
        <time>2021-11-10T14:37:09.119Z</time>
      </trkpt>
      <trkpt lat="47.70362" lon="-3.45857">
        <ele>7.328452</ele>
        <time>2021-11-10T14:37:12.286Z</time>
      </trkpt>
      <trkpt lat="47.70343" lon="-3.45863">
        <ele>7.190956</ele>
        <time>2021-11-10T14:37:15.906Z</time>
      </trkpt>
      <trkpt lat="47.70292" lon="-3.45866">
        <ele>6.861136</ele>
        <time>2021-11-10T14:37:25.350Z</time>
      </trkpt>
      <trkpt lat="47.7027" lon="-3.45858">
        <ele>6.717747</ele>
        <time>2021-11-10T14:37:29.507Z</time>
      </trkpt>
      <trkpt lat="47.70257" lon="-3.4587">
        <ele>6.615466</ele>
        <time>2021-11-10T14:37:32.474Z</time>
      </trkpt>
      <trkpt lat="47.70229" lon="-3.45872">
        <ele>6.434657</ele>
        <time>2021-11-10T14:37:37.642Z</time>
      </trkpt>
      <trkpt lat="47.70214" lon="-3.45874">
        <ele>6.337742</ele>
        <time>2021-11-10T14:37:40.438Z</time>
      </trkpt>
      <trkpt lat="47.70203" lon="-3.45874">
        <ele>6.267973</ele>
        <time>2021-11-10T14:37:42.324Z</time>
      </trkpt>
      <trkpt lat="47.70199" lon="-3.45856">
        <ele>6.185212</ele>
        <time>2021-11-10T14:37:44.443Z</time>
      </trkpt>
      <trkpt lat="47.70191" lon="-3.45849">
        <ele>6.122664</ele>
        <time>2021-11-10T14:37:46.151Z</time>
      </trkpt>
      <trkpt lat="47.70189" lon="-3.45853">
        <ele>6.100299</ele>
        <time>2021-11-10T14:37:46.738Z</time>
      </trkpt>
      <trkpt lat="47.70186" lon="-3.45859">
        <ele>6.068552</ele>
        <time>2021-11-10T14:37:47.531Z</time>
      </trkpt>
      <trkpt lat="47.70183" lon="-3.45866">
        <ele>6.036661</ele>
        <time>2021-11-10T14:37:48.464Z</time>
      </trkpt>
      <trkpt lat="47.70179" lon="-3.45872">
        <ele>6.031531</ele>
        <time>2021-11-10T14:37:49.352Z</time>
      </trkpt>
      <trkpt lat="47.70176" lon="-3.45875">
        <ele>6.028767</ele>
        <time>2021-11-10T14:37:49.839Z</time>
      </trkpt>
      <trkpt lat="47.70174" lon="-3.45877">
        <ele>6.025809</ele>
        <time>2021-11-10T14:37:50.358Z</time>
      </trkpt>
      <trkpt lat="47.70168" lon="-3.45882">
        <ele>6.019778</ele>
        <time>2021-11-10T14:37:51.422Z</time>
      </trkpt>
      <trkpt lat="47.70138" lon="-3.45886">
        <ele>5.992132</ele>
        <time>2021-11-10T14:37:56.366Z</time>
      </trkpt>
      <trkpt lat="47.70115" lon="-3.45901">
        <ele>5.968021</ele>
        <time>2021-11-10T14:38:00.936Z</time>
      </trkpt>
      <trkpt lat="47.70107" lon="-3.45907">
        <ele>5.959772</ele>
        <time>2021-11-10T14:38:02.523Z</time>
      </trkpt>
      <trkpt lat="47.70092" lon="-3.45907">
        <ele>5.945729</ele>
        <time>2021-11-10T14:38:05.412Z</time>
      </trkpt>
      <trkpt lat="47.70076" lon="-3.45903">
        <ele>5.930886</ele>
        <time>2021-11-10T14:38:08.451Z</time>
      </trkpt>
      <trkpt lat="47.70048" lon="-3.45874">
        <ele>5.899183</ele>
        <time>2021-11-10T14:38:15.402Z</time>
      </trkpt>
      <trkpt lat="47.70024" lon="-3.4588">
        <ele>5.876889</ele>
        <time>2021-11-10T14:38:20.504Z</time>
      </trkpt>
      <trkpt lat="47.70015" lon="-3.45831">
        <ele>6.407263</ele>
        <time>2021-11-10T14:38:32.029Z</time>
      </trkpt>
      <trkpt lat="47.70003" lon="-3.45809">
        <ele>6.765269</ele>
        <time>2021-11-10T14:38:38.292Z</time>
      </trkpt>
      <trkpt lat="47.69981" lon="-3.45769">
        <ele>7.43751</ele>
        <time>2021-11-10T14:38:50.743Z</time>
      </trkpt>
      <trkpt lat="47.69982" lon="-3.45757">
        <ele>7.601823</ele>
        <time>2021-11-10T14:38:54.053Z</time>
      </trkpt>
      <trkpt lat="47.69956" lon="-3.45549">
        <ele>10.337999</ele>
        <time>2021-11-10T14:39:51.781Z</time>
      </trkpt>
      <trkpt lat="47.69952" lon="-3.45498">
        <ele>10.993421</ele>
        <time>2021-11-10T14:40:04.999Z</time>
      </trkpt>
      <trkpt lat="47.69955" lon="-3.45432">
        <ele>11.848613</ele>
        <time>2021-11-10T14:40:21.087Z</time>
      </trkpt>
      <trkpt lat="47.69963" lon="-3.45381">
        <ele>12.516129</ele>
        <time>2021-11-10T14:40:29.116Z</time>
      </trkpt>
      <trkpt lat="47.69985" lon="-3.45278">
        <ele>13.125047</ele>
        <time>2021-11-10T14:40:45.568Z</time>
      </trkpt>
      <trkpt lat="47.69975" lon="-3.45208">
        <ele>13.407199</ele>
        <time>2021-11-10T14:40:55.351Z</time>
      </trkpt>
      <trkpt lat="47.69945" lon="-3.45148">
        <ele>13.701972</ele>
        <time>2021-11-10T14:41:04.704Z</time>
      </trkpt>
      <trkpt lat="47.6992" lon="-3.45102">
        <ele>13.669688</ele>
        <time>2021-11-10T14:41:11.849Z</time>
      </trkpt>
      <trkpt lat="47.69914" lon="-3.45073">
        <ele>13.488009</ele>
        <time>2021-11-10T14:41:15.500Z</time>
      </trkpt>
      <trkpt lat="47.69904" lon="-3.44864">
        <ele>12.205036</ele>
        <time>2021-11-10T14:41:38.073Z</time>
      </trkpt>
      <trkpt lat="47.69879" lon="-3.4487">
        <ele>11.544881</ele>
        <time>2021-11-10T14:41:43.023Z</time>
      </trkpt>
      <trkpt lat="47.6987" lon="-3.44836">
        <ele>10.887053</ele>
        <time>2021-11-10T14:41:47.746Z</time>
      </trkpt>
      <trkpt lat="47.69881" lon="-3.44818">
        <ele>10.452194</ele>
        <time>2021-11-10T14:41:50.834Z</time>
      </trkpt>
      <trkpt lat="47.699" lon="-3.44731">
        <ele>8.815413</ele>
        <time>2021-11-10T14:42:02.499Z</time>
      </trkpt>
      <trkpt lat="47.69905" lon="-3.44706">
        <ele>8.363831</ele>
        <time>2021-11-10T14:42:05.683Z</time>
      </trkpt>
      <trkpt lat="47.69916" lon="-3.44663">
        <ele>7.543454</ele>
        <time>2021-11-10T14:42:11.586Z</time>
      </trkpt>
      <trkpt lat="47.69944" lon="-3.44594">
        <ele>6.647576</ele>
        <time>2021-11-10T14:42:22.231Z</time>
      </trkpt>
      <trkpt lat="47.6995" lon="-3.44573">
        <ele>6.416159</ele>
        <time>2021-11-10T14:42:24.562Z</time>
      </trkpt>
      <trkpt lat="47.70001" lon="-3.44416">
        <ele>4.643753</ele>
        <time>2021-11-10T14:42:43.909Z</time>
      </trkpt>
      <trkpt lat="47.7" lon="-3.44382">
        <ele>4.585959</ele>
        <time>2021-11-10T14:42:47.972Z</time>
      </trkpt>
      <trkpt lat="47.69999" lon="-3.44365">
        <ele>4.55696</ele>
        <time>2021-11-10T14:42:50.237Z</time>
      </trkpt>
      <trkpt lat="47.6999" lon="-3.44345">
        <ele>4.514927</ele>
        <time>2021-11-10T14:42:53.373Z</time>
      </trkpt>
      <trkpt lat="47.69976" lon="-3.44322">
        <ele>4.462015</ele>
        <time>2021-11-10T14:42:57.463Z</time>
      </trkpt>
      <trkpt lat="47.69975" lon="-3.44308">
        <ele>4.438427</ele>
        <time>2021-11-10T14:42:58.939Z</time>
      </trkpt>
      <trkpt lat="47.70006" lon="-3.44268">
        <ele>4.334883</ele>
        <time>2021-11-10T14:43:06.315Z</time>
      </trkpt>
      <trkpt lat="47.69971" lon="-3.44217">
        <ele>4.211411</ele>
        <time>2021-11-10T14:43:14.824Z</time>
      </trkpt>
      <trkpt lat="47.69929" lon="-3.44188">
        <ele>4.078367</ele>
        <time>2021-11-10T14:43:22.752Z</time>
      </trkpt>
      <trkpt lat="47.69921" lon="-3.44173">
        <ele>4.042187</ele>
        <time>2021-11-10T14:43:24.841Z</time>
      </trkpt>
      <trkpt lat="47.69925" lon="-3.44111">
        <ele>3.921943</ele>
        <time>2021-11-10T14:43:32.263Z</time>
      </trkpt>
      <trkpt lat="47.69899" lon="-3.44058">
        <ele>3.795611</ele>
        <time>2021-11-10T14:43:39.362Z</time>
      </trkpt>
      <trkpt lat="47.69893" lon="-3.44021">
        <ele>3.722444</ele>
        <time>2021-11-10T14:43:43.507Z</time>
      </trkpt>
      <trkpt lat="47.69894" lon="-3.43943">
        <ele>3.814532</ele>
        <time>2021-11-10T14:43:53.538Z</time>
      </trkpt>
      <trkpt lat="47.69898" lon="-3.43931">
        <ele>3.8468</ele>
        <time>2021-11-10T14:43:55.421Z</time>
      </trkpt>
      <trkpt lat="47.69922" lon="-3.43913">
        <ele>3.945454</ele>
        <time>2021-11-10T14:44:01.023Z</time>
      </trkpt>
      <trkpt lat="47.69931" lon="-3.43897">
        <ele>3.996059</ele>
        <time>2021-11-10T14:44:03.749Z</time>
      </trkpt>
      <trkpt lat="47.6993" lon="-3.43884">
        <ele>4.028221</ele>
        <time>2021-11-10T14:44:05.434Z</time>
      </trkpt>
      <trkpt lat="47.69931" lon="-3.43869">
        <ele>4.064283</ele>
        <time>2021-11-10T14:44:07.526Z</time>
      </trkpt>
      <trkpt lat="47.6995" lon="-3.43831">
        <ele>4.180579</ele>
        <time>2021-11-10T14:44:13.735Z</time>
      </trkpt>
      <trkpt lat="47.69954" lon="-3.4381">
        <ele>4.233465</ele>
        <time>2021-11-10T14:44:16.522Z</time>
      </trkpt>
      <trkpt lat="47.69955" lon="-3.43792">
        <ele>4.279026</ele>
        <time>2021-11-10T14:44:19.017Z</time>
      </trkpt>
      <trkpt lat="47.69986" lon="-3.43743">
        <ele>4.304539</ele>
        <time>2021-11-10T14:44:27.779Z</time>
      </trkpt>
      <trkpt lat="47.69999" lon="-3.43684">
        <ele>4.254623</ele>
        <time>2021-11-10T14:44:40.147Z</time>
      </trkpt>
      <trkpt lat="47.70007" lon="-3.43668">
        <ele>4.238798</ele>
        <time>2021-11-10T14:44:43.922Z</time>
      </trkpt>
      <trkpt lat="47.70029" lon="-3.43658">
        <ele>4.211268</ele>
        <time>2021-11-10T14:44:50.736Z</time>
      </trkpt>
      <trkpt lat="47.70029" lon="-3.43658">
        <ele>4.211268</ele>
        <time>2021-11-10T14:44:50.736Z</time>
      </trkpt>
      <trkpt lat="47.7005" lon="-3.43652">
        <ele>4.185199</ele>
        <time>2021-11-10T14:44:57.329Z</time>
      </trkpt>
      <trkpt lat="47.7006" lon="-3.43636">
        <ele>4.16785</ele>
        <time>2021-11-10T14:45:01.456Z</time>
      </trkpt>
      <trkpt lat="47.70079" lon="-3.43611">
        <ele>4.13747</ele>
        <time>2021-11-10T14:45:05.703Z</time>
      </trkpt>
      <trkpt lat="47.70101" lon="-3.43548">
        <ele>4.054023</ele>
        <time>2021-11-10T14:45:13.421Z</time>
      </trkpt>
      <trkpt lat="47.70103" lon="-3.43537">
        <ele>4.040094</ele>
        <time>2021-11-10T14:45:14.620Z</time>
      </trkpt>
      <trkpt lat="47.70103" lon="-3.43537">
        <ele>4.040094</ele>
        <time>2021-11-10T14:45:14.620Z</time>
      </trkpt>
      <trkpt lat="47.70135" lon="-3.43473">
        <ele>3.937587</ele>
        <time>2021-11-10T14:45:24.401Z</time>
      </trkpt>
      <trkpt lat="47.7015" lon="-3.43424">
        <ele>3.86863</ele>
        <time>2021-11-10T14:45:31.211Z</time>
      </trkpt>
      <trkpt lat="47.70154" lon="-3.43382">
        <ele>3.814457</ele>
        <time>2021-11-10T14:45:36.443Z</time>
      </trkpt>
      <trkpt lat="47.70143" lon="-3.43278">
        <ele>3.956125</ele>
        <time>2021-11-10T14:45:50.299Z</time>
      </trkpt>
      <trkpt lat="47.70145" lon="-3.43232">
        <ele>4.060282</ele>
        <time>2021-11-10T14:45:56.249Z</time>
      </trkpt>
      <trkpt lat="47.7015" lon="-3.43209">
        <ele>4.113055</ele>
        <time>2021-11-10T14:45:59.224Z</time>
      </trkpt>
      <trkpt lat="47.70172" lon="-3.43208">
        <ele>4.184089</ele>
        <time>2021-11-10T14:46:03.494Z</time>
      </trkpt>
      <trkpt lat="47.70186" lon="-3.43207">
        <ele>4.230931</ele>
        <time>2021-11-10T14:46:06.281Z</time>
      </trkpt>
      <trkpt lat="47.70203" lon="-3.43208">
        <ele>4.287333</ele>
        <time>2021-11-10T14:46:09.902Z</time>
      </trkpt>
      <trkpt lat="47.70207" lon="-3.43174">
        <ele>4.363473</ele>
        <time>2021-11-10T14:46:14.572Z</time>
      </trkpt>
      <trkpt lat="47.70222" lon="-3.43152">
        <ele>4.456256</ele>
        <time>2021-11-10T14:46:19.082Z</time>
      </trkpt>
      <trkpt lat="47.70223" lon="-3.43151">
        <ele>4.459527</ele>
        <time>2021-11-10T14:46:19.202Z</time>
      </trkpt>
      <trkpt lat="47.70242" lon="-3.43145">
        <ele>4.55193</ele>
        <time>2021-11-10T14:46:23.520Z</time>
      </trkpt>
      <trkpt lat="47.70265" lon="-3.43157">
        <ele>4.662515</ele>
        <time>2021-11-10T14:46:28.320Z</time>
      </trkpt>
      <trkpt lat="47.70321" lon="-3.43197">
        <ele>4.946653</ele>
        <time>2021-11-10T14:46:40.211Z</time>
      </trkpt>
      <trkpt lat="47.70339" lon="-3.43211">
        <ele>5.039454</ele>
        <time>2021-11-10T14:46:44.219Z</time>
      </trkpt>
      <trkpt lat="47.70378" lon="-3.43228">
        <ele>5.195623</ele>
        <time>2021-11-10T14:46:52.350Z</time>
      </trkpt>
      <trkpt lat="47.70389" lon="-3.43233">
        <ele>5.182276</ele>
        <time>2021-11-10T14:46:54.543Z</time>
      </trkpt>
      <trkpt lat="47.70456" lon="-3.43262">
        <ele>5.100086</ele>
        <time>2021-11-10T14:47:07.152Z</time>
      </trkpt>
      <trkpt lat="47.70469" lon="-3.43201">
        <ele>5.049788</ele>
        <time>2021-11-10T14:47:14.312Z</time>
      </trkpt>
      <trkpt lat="47.70473" lon="-3.43169">
        <ele>5.02358</ele>
        <time>2021-11-10T14:47:18.001Z</time>
      </trkpt>
      <trkpt lat="47.7052" lon="-3.43182">
        <ele>4.992853</ele>
        <time>2021-11-10T14:47:26.020Z</time>
      </trkpt>
      <trkpt lat="47.70523" lon="-3.43175">
        <ele>4.99372</ele>
        <time>2021-11-10T14:47:26.937Z</time>
      </trkpt>
      <trkpt lat="47.70578" lon="-3.43095">
        <ele>5.005759</ele>
        <time>2021-11-10T14:47:40.288Z</time>
      </trkpt>
      <trkpt lat="47.70595" lon="-3.43066">
        <ele>5.009814</ele>
        <time>2021-11-10T14:47:45.018Z</time>
      </trkpt>
      <trkpt lat="47.70648" lon="-3.43035">
        <ele>5.066463</ele>
        <time>2021-11-10T14:47:56.128Z</time>
      </trkpt>
      <trkpt lat="47.70712" lon="-3.43038">
        <ele>5.681805</ele>
        <time>2021-11-10T14:48:09.958Z</time>
      </trkpt>
      <trkpt lat="47.70756" lon="-3.43066">
        <ele>6.135197</ele>
        <time>2021-11-10T14:48:20.617Z</time>
      </trkpt>
      <trkpt lat="47.70763" lon="-3.43071">
        <ele>6.215575</ele>
        <time>2021-11-10T14:48:22.410Z</time>
      </trkpt>
      <trkpt lat="47.70795" lon="-3.43092">
        <ele>6.551162</ele>
        <time>2021-11-10T14:48:30.088Z</time>
      </trkpt>
      <trkpt lat="47.70819" lon="-3.4309">
        <ele>6.767669</ele>
        <time>2021-11-10T14:48:35.312Z</time>
      </trkpt>
      <trkpt lat="47.70853" lon="-3.43116">
        <ele>7.014121</ele>
        <time>2021-11-10T14:48:43.748Z</time>
      </trkpt>
      <trkpt lat="47.70876" lon="-3.43025">
        <ele>7.438137</ele>
        <time>2021-11-10T14:48:58.297Z</time>
      </trkpt>
      <trkpt lat="47.70888" lon="-3.42978">
        <ele>7.657313</ele>
        <time>2021-11-10T14:49:05.422Z</time>
      </trkpt>
      <trkpt lat="47.70901" lon="-3.42937">
        <ele>7.854756</ele>
        <time>2021-11-10T14:49:11.364Z</time>
      </trkpt>
      <trkpt lat="47.70896" lon="-3.42927">
        <ele>7.905919</ele>
        <time>2021-11-10T14:49:12.788Z</time>
      </trkpt>
      <trkpt lat="47.70904" lon="-3.42861">
        <ele>7.573271</ele>
        <time>2021-11-10T14:49:20.669Z</time>
      </trkpt>
      <trkpt lat="47.70943" lon="-3.42768">
        <ele>7.008014</ele>
        <time>2021-11-10T14:49:33.110Z</time>
      </trkpt>
      <trkpt lat="47.70972" lon="-3.42715">
        <ele>6.655078</ele>
        <time>2021-11-10T14:49:45.591Z</time>
      </trkpt>
      <trkpt lat="47.70951" lon="-3.42691">
        <ele>6.430432</ele>
        <time>2021-11-10T14:49:52.799Z</time>
      </trkpt>
      <trkpt lat="47.70943" lon="-3.4269">
        <ele>6.357878</ele>
        <time>2021-11-10T14:49:54.793Z</time>
      </trkpt>
      <trkpt lat="47.70917" lon="-3.42694">
        <ele>6.100699</ele>
        <time>2021-11-10T14:49:59.381Z</time>
      </trkpt>
      <trkpt lat="47.70868" lon="-3.42671">
        <ele>5.597472</ele>
        <time>2021-11-10T14:50:08.273Z</time>
      </trkpt>
      <trkpt lat="47.70832" lon="-3.42672">
        <ele>5.245332</ele>
        <time>2021-11-10T14:50:14.621Z</time>
      </trkpt>
      <trkpt lat="47.70809" lon="-3.42671">
        <ele>5.02414</ele>
        <time>2021-11-10T14:50:18.752Z</time>
      </trkpt>
      <trkpt lat="47.70789" lon="-3.42686">
        <ele>4.798648</ele>
        <time>2021-11-10T14:50:23.140Z</time>
      </trkpt>
      <trkpt lat="47.70754" lon="-3.42681">
        <ele>4.855338</ele>
        <time>2021-11-10T14:50:33.339Z</time>
      </trkpt>
      <trkpt lat="47.70742" lon="-3.42698">
        <ele>4.900496</ele>
        <time>2021-11-10T14:50:38.233Z</time>
      </trkpt>
      <trkpt lat="47.70711" lon="-3.4262">
        <ele>5.066087</ele>
        <time>2021-11-10T14:50:57.169Z</time>
      </trkpt>
      <trkpt lat="47.70703" lon="-3.42575">
        <ele>5.150851</ele>
        <time>2021-11-10T14:51:07.014Z</time>
      </trkpt>
      <trkpt lat="47.70708" lon="-3.42511">
        <ele>5.293523</ele>
        <time>2021-11-10T14:51:16.490Z</time>
      </trkpt>
      <trkpt lat="47.70714" lon="-3.42439">
        <ele>5.788775</ele>
        <time>2021-11-10T14:51:27.863Z</time>
      </trkpt>
      <trkpt lat="47.70664" lon="-3.42406">
        <ele>6.339805</ele>
        <time>2021-11-10T14:51:40.512Z</time>
      </trkpt>
      <trkpt lat="47.70637" lon="-3.42389">
        <ele>6.636084</ele>
        <time>2021-11-10T14:51:47.493Z</time>
      </trkpt>
      <trkpt lat="47.70637" lon="-3.42373">
        <ele>6.744138</ele>
        <time>2021-11-10T14:51:50.000Z</time>
      </trkpt>
      <trkpt lat="47.70651" lon="-3.42307">
        <ele>7.153137</ele>
        <time>2021-11-10T14:52:00.678Z</time>
      </trkpt>
      <trkpt lat="47.70673" lon="-3.42192">
        <ele>7.607573</ele>
        <time>2021-11-10T14:52:16.417Z</time>
      </trkpt>
      <trkpt lat="47.7068" lon="-3.42161">
        <ele>7.733817</ele>
        <time>2021-11-10T14:52:20.789Z</time>
      </trkpt>
      <trkpt lat="47.70689" lon="-3.42124">
        <ele>7.882807</ele>
        <time>2021-11-10T14:52:25.662Z</time>
      </trkpt>
      <trkpt lat="47.70698" lon="-3.42112">
        <ele>7.953144</ele>
        <time>2021-11-10T14:52:28.241Z</time>
      </trkpt>
      <trkpt lat="47.70689" lon="-3.42096">
        <ele>8.033733</ele>
        <time>2021-11-10T14:52:30.853Z</time>
      </trkpt>
      <trkpt lat="47.70699" lon="-3.41975">
        <ele>8.555335</ele>
        <time>2021-11-10T14:52:47.110Z</time>
      </trkpt>
      <trkpt lat="47.70708" lon="-3.41904">
        <ele>8.865706</ele>
        <time>2021-11-10T14:52:56.576Z</time>
      </trkpt>
      <trkpt lat="47.70737" lon="-3.41784">
        <ele>9.713167</ele>
        <time>2021-11-10T14:53:14.628Z</time>
      </trkpt>
      <trkpt lat="47.70759" lon="-3.41709">
        <ele>10.693275</ele>
        <time>2021-11-10T14:53:35.536Z</time>
      </trkpt>
      <trkpt lat="47.70764" lon="-3.417">
        <ele>10.837403</ele>
        <time>2021-11-10T14:53:38.632Z</time>
      </trkpt>
      <trkpt lat="47.70778" lon="-3.41696">
        <ele>11.089146</ele>
        <time>2021-11-10T14:53:44.284Z</time>
      </trkpt>
      <trkpt lat="47.70776" lon="-3.41591">
        <ele>12.349699</ele>
        <time>2021-11-10T14:54:02.846Z</time>
      </trkpt>
      <trkpt lat="47.70775" lon="-3.415">
        <ele>12.910403</ele>
        <time>2021-11-10T14:54:17.385Z</time>
      </trkpt>
      <trkpt lat="47.70772" lon="-3.41481">
        <ele>13.021408</ele>
        <time>2021-11-10T14:54:20.473Z</time>
      </trkpt>
      <trkpt lat="47.70763" lon="-3.4146">
        <ele>13.160932</ele>
        <time>2021-11-10T14:54:24.389Z</time>
      </trkpt>
      <trkpt lat="47.70742" lon="-3.41421">
        <ele>13.434111</ele>
        <time>2021-11-10T14:54:30.989Z</time>
      </trkpt>
      <trkpt lat="47.70717" lon="-3.41429">
        <ele>13.646652</ele>
        <time>2021-11-10T14:54:36.252Z</time>
      </trkpt>
      <trkpt lat="47.70705" lon="-3.41431">
        <ele>13.745848</ele>
        <time>2021-11-10T14:54:38.521Z</time>
      </trkpt>
      <trkpt lat="47.70686" lon="-3.41434">
        <ele>13.9076</ele>
        <time>2021-11-10T14:54:42.245Z</time>
      </trkpt>
      <trkpt lat="47.70633" lon="-3.41442">
        <ele>13.283928</ele>
        <time>2021-11-10T14:54:51.464Z</time>
      </trkpt>
      <trkpt lat="47.70606" lon="-3.41438">
        <ele>12.91374</ele>
        <time>2021-11-10T14:54:55.943Z</time>
      </trkpt>
      <trkpt lat="47.706" lon="-3.41435">
        <ele>12.839199</ele>
        <time>2021-11-10T14:54:56.769Z</time>
      </trkpt>
      <trkpt lat="47.70518" lon="-3.41394">
        <ele>11.664902</ele>
        <time>2021-11-10T14:55:10.308Z</time>
      </trkpt>
      <trkpt lat="47.70486" lon="-3.41378">
        <ele>11.045951</ele>
        <time>2021-11-10T14:55:15.418Z</time>
      </trkpt>
      <trkpt lat="47.70465" lon="-3.41368">
        <ele>10.593148</ele>
        <time>2021-11-10T14:55:18.639Z</time>
      </trkpt>
      <trkpt lat="47.70405" lon="-3.41326">
        <ele>9.208762</ele>
        <time>2021-11-10T14:55:28.809Z</time>
      </trkpt>
      <trkpt lat="47.70372" lon="-3.41313">
        <ele>8.502001</ele>
        <time>2021-11-10T14:55:34.004Z</time>
      </trkpt>
      <trkpt lat="47.70333" lon="-3.41335">
        <ele>7.691922</ele>
        <time>2021-11-10T14:55:40.150Z</time>
      </trkpt>
      <trkpt lat="47.7032" lon="-3.4133">
        <ele>7.511667</ele>
        <time>2021-11-10T14:55:42.139Z</time>
      </trkpt>
      <trkpt lat="47.70318" lon="-3.4131">
        <ele>7.337321</ele>
        <time>2021-11-10T14:55:44.183Z</time>
      </trkpt>
      <trkpt lat="47.70342" lon="-3.41249">
        <ele>6.709546</ele>
        <time>2021-11-10T14:55:51.366Z</time>
      </trkpt>
      <trkpt lat="47.70342" lon="-3.41248">
        <ele>6.696246</ele>
        <time>2021-11-10T14:55:51.512Z</time>
      </trkpt>
      <trkpt lat="47.70336" lon="-3.41231">
        <ele>6.524755</ele>
        <time>2021-11-10T14:55:53.499Z</time>
      </trkpt>
      <trkpt lat="47.7031" lon="-3.41214">
        <ele>6.153138</ele>
        <time>2021-11-10T14:55:57.947Z</time>
      </trkpt>
      <trkpt lat="47.70324" lon="-3.41189">
        <ele>5.864232</ele>
        <time>2021-11-10T14:56:01.564Z</time>
      </trkpt>
      <trkpt lat="47.70332" lon="-3.41176">
        <ele>5.709919</ele>
        <time>2021-11-10T14:56:03.416Z</time>
      </trkpt>
      <trkpt lat="47.70278" lon="-3.41105">
        <ele>4.968484</ele>
        <time>2021-11-10T14:56:14.944Z</time>
      </trkpt>
      <trkpt lat="47.70309" lon="-3.4104">
        <ele>4.489045</ele>
        <time>2021-11-10T14:56:29.657Z</time>
      </trkpt>
      <trkpt lat="47.70312" lon="-3.41012">
        <ele>4.321542</ele>
        <time>2021-11-10T14:56:34.866Z</time>
      </trkpt>
      <trkpt lat="47.70282" lon="-3.40986">
        <ele>4.007482</ele>
        <time>2021-11-10T14:56:44.397Z</time>
      </trkpt>
      <trkpt lat="47.70267" lon="-3.4097">
        <ele>3.843475</ele>
        <time>2021-11-10T14:56:49.435Z</time>
      </trkpt>
      <trkpt lat="47.70265" lon="-3.40957">
        <ele>3.782422</ele>
        <time>2021-11-10T14:56:51.935Z</time>
      </trkpt>
      <trkpt lat="47.70267" lon="-3.40936">
        <ele>3.752605</ele>
        <time>2021-11-10T14:56:55.976Z</time>
      </trkpt>
      <trkpt lat="47.7027" lon="-3.40901">
        <ele>3.703181</ele>
        <time>2021-11-10T14:57:02.976Z</time>
      </trkpt>
      <trkpt lat="47.70284" lon="-3.40883">
        <ele>3.665337</ele>
        <time>2021-11-10T14:57:08.263Z</time>
      </trkpt>
      <trkpt lat="47.70324" lon="-3.40795">
        <ele>3.515557</ele>
        <time>2021-11-10T14:57:29.063Z</time>
      </trkpt>
      <trkpt lat="47.70331" lon="-3.40776">
        <ele>3.485515</ele>
        <time>2021-11-10T14:57:33.571Z</time>
      </trkpt>
      <trkpt lat="47.70333" lon="-3.4077">
        <ele>3.476771</ele>
        <time>2021-11-10T14:57:34.859Z</time>
      </trkpt>
      <trkpt lat="47.70338" lon="-3.40751">
        <ele>3.447857</ele>
        <time>2021-11-10T14:57:38.919Z</time>
      </trkpt>
      <trkpt lat="47.70353" lon="-3.40727">
        <ele>3.400496</ele>
        <time>2021-11-10T14:57:45.952Z</time>
      </trkpt>
      <trkpt lat="47.70369" lon="-3.40701">
        <ele>3.350139</ele>
        <time>2021-11-10T14:57:52.793Z</time>
      </trkpt>
      <trkpt lat="47.70374" lon="-3.40693">
        <ele>3.335073</ele>
        <time>2021-11-10T14:57:55.122Z</time>
      </trkpt>
      <trkpt lat="47.70377" lon="-3.40672">
        <ele>3.303519</ele>
        <time>2021-11-10T14:57:59.537Z</time>
      </trkpt>
      <trkpt lat="47.70377" lon="-3.40658">
        <ele>3.282703</ele>
        <time>2021-11-10T14:58:02.147Z</time>
      </trkpt>
      <trkpt lat="47.70363" lon="-3.40616">
        <ele>3.215631</ele>
        <time>2021-11-10T14:58:11.633Z</time>
      </trkpt>
      <trkpt lat="47.70344" lon="-3.40533">
        <ele>3.087595</ele>
        <time>2021-11-10T14:58:29.292Z</time>
      </trkpt>
      <trkpt lat="47.70343" lon="-3.40449">
        <ele>2.918685</ele>
        <time>2021-11-10T14:58:44.652Z</time>
      </trkpt>
      <trkpt lat="47.70339" lon="-3.40384">
        <ele>2.745884</ele>
        <time>2021-11-10T14:58:57.165Z</time>
      </trkpt>
      <trkpt lat="47.7035" lon="-3.40356">
        <ele>2.661617</ele>
        <time>2021-11-10T14:59:01.985Z</time>
      </trkpt>
      <trkpt lat="47.70354" lon="-3.40327">
        <ele>2.584228</ele>
        <time>2021-11-10T14:59:06.475Z</time>
      </trkpt>
      <trkpt lat="47.70346" lon="-3.40287">
        <ele>2.474551</ele>
        <time>2021-11-10T14:59:12.843Z</time>
      </trkpt>
      <trkpt lat="47.70344" lon="-3.4024">
        <ele>2.352292</ele>
        <time>2021-11-10T14:59:20.365Z</time>
      </trkpt>
      <trkpt lat="47.70351" lon="-3.40219">
        <ele>2.350731</ele>
        <time>2021-11-10T14:59:23.697Z</time>
      </trkpt>
      <trkpt lat="47.70361" lon="-3.4005">
        <ele>2.704678</ele>
        <time>2021-11-10T14:59:51.232Z</time>
      </trkpt>
      <trkpt lat="47.70356" lon="-3.4002">
        <ele>2.768679</ele>
        <time>2021-11-10T14:59:56.752Z</time>
      </trkpt>
      <trkpt lat="47.7035" lon="-3.39948">
        <ele>2.907549</ele>
        <time>2021-11-10T15:00:09.394Z</time>
      </trkpt>
      <trkpt lat="47.70339" lon="-3.39835">
        <ele>3.075094</ele>
        <time>2021-11-10T15:00:28.724Z</time>
      </trkpt>
      <trkpt lat="47.70371" lon="-3.39816">
        <ele>3.1501</ele>
        <time>2021-11-10T15:00:38.940Z</time>
      </trkpt>
      <trkpt lat="47.70373" lon="-3.39809">
        <ele>3.162044</ele>
        <time>2021-11-10T15:00:40.567Z</time>
      </trkpt>
      <trkpt lat="47.70395" lon="-3.39747">
        <ele>3.26303</ele>
        <time>2021-11-10T15:00:54.209Z</time>
      </trkpt>
      <trkpt lat="47.7039" lon="-3.39657">
        <ele>3.306192</ele>
        <time>2021-11-10T15:01:05.197Z</time>
      </trkpt>
      <trkpt lat="47.70387" lon="-3.39583">
        <ele>3.337577</ele>
        <time>2021-11-10T15:01:14.223Z</time>
      </trkpt>
      <trkpt lat="47.70394" lon="-3.39573">
        <ele>3.344035</ele>
        <time>2021-11-10T15:01:16.015Z</time>
      </trkpt>
      <trkpt lat="47.70403" lon="-3.39572">
        <ele>3.349246</ele>
        <time>2021-11-10T15:01:17.455Z</time>
      </trkpt>
      <trkpt lat="47.70403" lon="-3.39568">
        <ele>3.351086</ele>
        <time>2021-11-10T15:01:18.096Z</time>
      </trkpt>
      <trkpt lat="47.70403" lon="-3.39568">
        <ele>3.351086</ele>
        <time>2021-11-10T15:01:18.101Z</time>
      </trkpt>
      <trkpt lat="47.7041" lon="-3.39519">
        <ele>3.372038</ele>
        <time>2021-11-10T15:01:26.745Z</time>
      </trkpt>
      <trkpt lat="47.7041" lon="-3.39519">
        <ele>3.37208</ele>
        <time>2021-11-10T15:01:26.783Z</time>
      </trkpt>
      <trkpt lat="47.70417" lon="-3.39517">
        <ele>3.376712</ele>
        <time>2021-11-10T15:01:29.142Z</time>
      </trkpt>
      <trkpt lat="47.70427" lon="-3.39515">
        <ele>3.382615</ele>
        <time>2021-11-10T15:01:31.891Z</time>
      </trkpt>
      <trkpt lat="47.7043" lon="-3.39514">
        <ele>3.399535</ele>
        <time>2021-11-10T15:01:32.971Z</time>
      </trkpt>
      <trkpt lat="47.70432" lon="-3.39509">
        <ele>3.420923</ele>
        <time>2021-11-10T15:01:34.173Z</time>
      </trkpt>
      <trkpt lat="47.70448" lon="-3.39494">
        <ele>3.525995</ele>
        <time>2021-11-10T15:01:40.489Z</time>
      </trkpt>
      <trkpt lat="47.7046" lon="-3.39496">
        <ele>3.591238</ele>
        <time>2021-11-10T15:01:44.263Z</time>
      </trkpt>
      <trkpt lat="47.70465" lon="-3.39483">
        <ele>3.643735</ele>
        <time>2021-11-10T15:01:47.448Z</time>
      </trkpt>
      <trkpt lat="47.70495" lon="-3.39457">
        <ele>3.826504</ele>
        <time>2021-11-10T15:01:58.501Z</time>
      </trkpt>
      <trkpt lat="47.70526" lon="-3.39429">
        <ele>4.020966</ele>
        <time>2021-11-10T15:02:10.290Z</time>
      </trkpt>
      <trkpt lat="47.70526" lon="-3.39377">
        <ele>4.209457</ele>
        <time>2021-11-10T15:02:21.514Z</time>
      </trkpt>
      <trkpt lat="47.70557" lon="-3.39339">
        <ele>4.388515</ele>
        <time>2021-11-10T15:02:34.363Z</time>
      </trkpt>
      <trkpt lat="47.70582" lon="-3.39334">
        <ele>4.462945</ele>
        <time>2021-11-10T15:02:42.482Z</time>
      </trkpt>
      <trkpt lat="47.70601" lon="-3.39345">
        <ele>4.521835</ele>
        <time>2021-11-10T15:02:48.961Z</time>
      </trkpt>
      <trkpt lat="47.70589" lon="-3.39375">
        <ele>4.590484</ele>
        <time>2021-11-10T15:02:56.636Z</time>
      </trkpt>
      <trkpt lat="47.70591" lon="-3.39398">
        <ele>4.636075</ele>
        <time>2021-11-10T15:03:01.767Z</time>
      </trkpt>
      <trkpt lat="47.70603" lon="-3.39418">
        <ele>4.68802</ele>
        <time>2021-11-10T15:03:07.483Z</time>
      </trkpt>
      <trkpt lat="47.70648" lon="-3.39437">
        <ele>4.824202</ele>
        <time>2021-11-10T15:03:21.284Z</time>
      </trkpt>
      <trkpt lat="47.70684" lon="-3.39432">
        <ele>4.850701</ele>
        <time>2021-11-10T15:03:31.426Z</time>
      </trkpt>
      <trkpt lat="47.70707" lon="-3.39415">
        <ele>4.828765</ele>
        <time>2021-11-10T15:03:38.723Z</time>
      </trkpt>
      <trkpt lat="47.70734" lon="-3.39409">
        <ele>4.804845</ele>
        <time>2021-11-10T15:03:46.861Z</time>
      </trkpt>
      <trkpt lat="47.70724" lon="-3.39482">
        <ele>4.761648</ele>
        <time>2021-11-10T15:04:01.314Z</time>
      </trkpt>
      <trkpt lat="47.70734" lon="-3.39505">
        <ele>4.74566</ele>
        <time>2021-11-10T15:04:07.616Z</time>
      </trkpt>
      <trkpt lat="47.70748" lon="-3.39516">
        <ele>4.732571</ele>
        <time>2021-11-10T15:04:11.889Z</time>
      </trkpt>
      <trkpt lat="47.70782" lon="-3.39534">
        <ele>4.946524</ele>
        <time>2021-11-10T15:04:23.163Z</time>
      </trkpt>
      <trkpt lat="47.70795" lon="-3.39541">
        <ele>5.173222</ele>
        <time>2021-11-10T15:04:28.423Z</time>
      </trkpt>
      <trkpt lat="47.7081" lon="-3.3956">
        <ele>5.482292</ele>
        <time>2021-11-10T15:04:34.152Z</time>
      </trkpt>
      <trkpt lat="47.70819" lon="-3.39561">
        <ele>5.618037</ele>
        <time>2021-11-10T15:04:37.139Z</time>
      </trkpt>
      <trkpt lat="47.70827" lon="-3.39516">
        <ele>6.120056</ele>
        <time>2021-11-10T15:04:47.555Z</time>
      </trkpt>
      <trkpt lat="47.70835" lon="-3.39519">
        <ele>6.249083</ele>
        <time>2021-11-10T15:04:51.156Z</time>
      </trkpt>
      <trkpt lat="47.70878" lon="-3.39572">
        <ele>7.136126</ele>
        <time>2021-11-10T15:05:11.917Z</time>
      </trkpt>
      <trkpt lat="47.70902" lon="-3.39588">
        <ele>7.556662</ele>
        <time>2021-11-10T15:05:22.882Z</time>
      </trkpt>
      <trkpt lat="47.70918" lon="-3.39567">
        <ele>8.080862</ele>
        <time>2021-11-10T15:05:31.913Z</time>
      </trkpt>
      <trkpt lat="47.70931" lon="-3.3954">
        <ele>8.613641</ele>
        <time>2021-11-10T15:05:41.036Z</time>
      </trkpt>
      <trkpt lat="47.70944" lon="-3.39511">
        <ele>9.19139</ele>
        <time>2021-11-10T15:05:51.489Z</time>
      </trkpt>
      <trkpt lat="47.70981" lon="-3.39429">
        <ele>10.826518</ele>
        <time>2021-11-10T15:06:17.689Z</time>
      </trkpt>
      <trkpt lat="47.70994" lon="-3.39426">
        <ele>11.132645</ele>
        <time>2021-11-10T15:06:22.299Z</time>
      </trkpt>
      <trkpt lat="47.71019" lon="-3.39439">
        <ele>11.775603</ele>
        <time>2021-11-10T15:06:31.848Z</time>
      </trkpt>
      <trkpt lat="47.71035" lon="-3.39419">
        <ele>12.155874</ele>
        <time>2021-11-10T15:06:39.409Z</time>
      </trkpt>
      <trkpt lat="47.71043" lon="-3.39435">
        <ele>12.349306</ele>
        <time>2021-11-10T15:06:43.530Z</time>
      </trkpt>
      <trkpt lat="47.71069" lon="-3.39498">
        <ele>13.063671</ele>
        <time>2021-11-10T15:06:55.565Z</time>
      </trkpt>
      <trkpt lat="47.71094" lon="-3.39546">
        <ele>13.651805</ele>
        <time>2021-11-10T15:07:10.217Z</time>
      </trkpt>
      <trkpt lat="47.71112" lon="-3.39582">
        <ele>14.084085</ele>
        <time>2021-11-10T15:07:20.500Z</time>
      </trkpt>
      <trkpt lat="47.71119" lon="-3.39584">
        <ele>14.1906</ele>
        <time>2021-11-10T15:07:22.903Z</time>
      </trkpt>
      <trkpt lat="47.71125" lon="-3.3956">
        <ele>14.43078</ele>
        <time>2021-11-10T15:07:28.833Z</time>
      </trkpt>
      <trkpt lat="47.71139" lon="-3.39535">
        <ele>14.704047</ele>
        <time>2021-11-10T15:07:35.277Z</time>
      </trkpt>
      <trkpt lat="47.71154" lon="-3.39409">
        <ele>15.666732</ele>
        <time>2021-11-10T15:08:04.775Z</time>
      </trkpt>
      <trkpt lat="47.71159" lon="-3.39404">
        <ele>15.727019</ele>
        <time>2021-11-10T15:08:06.430Z</time>
      </trkpt>
      <trkpt lat="47.71218" lon="-3.39491">
        <ele>16.721906</ele>
        <time>2021-11-10T15:08:35.667Z</time>
      </trkpt>
      <trkpt lat="47.71245" lon="-3.39531">
        <ele>17.453242</ele>
        <time>2021-11-10T15:08:48.682Z</time>
      </trkpt>
      <trkpt lat="47.71279" lon="-3.39515">
        <ele>18.129075</ele>
        <time>2021-11-10T15:09:02.083Z</time>
      </trkpt>
      <trkpt lat="47.7133" lon="-3.39543">
        <ele>19.175748</ele>
        <time>2021-11-10T15:09:23.159Z</time>
      </trkpt>
      <trkpt lat="47.71324" lon="-3.39567">
        <ele>19.502544</ele>
        <time>2021-11-10T15:09:29.673Z</time>
      </trkpt>
      <trkpt lat="47.71331" lon="-3.39597">
        <ele>19.910598</ele>
        <time>2021-11-10T15:09:37.904Z</time>
      </trkpt>
      <trkpt lat="47.71349" lon="-3.3961">
        <ele>20.336373</ele>
        <time>2021-11-10T15:09:45.159Z</time>
      </trkpt>
      <trkpt lat="47.71367" lon="-3.39623">
        <ele>20.791151</ele>
        <time>2021-11-10T15:09:54.208Z</time>
      </trkpt>
      <trkpt lat="47.71389" lon="-3.39604">
        <ele>21.343955</ele>
        <time>2021-11-10T15:10:03.893Z</time>
      </trkpt>
      <trkpt lat="47.71422" lon="-3.39518">
        <ele>22.807394</ele>
        <time>2021-11-10T15:10:29.084Z</time>
      </trkpt>
      <trkpt lat="47.71437" lon="-3.39509">
        <ele>23.162297</ele>
        <time>2021-11-10T15:10:36.041Z</time>
      </trkpt>
      <trkpt lat="47.71455" lon="-3.39509">
        <ele>23.563914</ele>
        <time>2021-11-10T15:10:42.413Z</time>
      </trkpt>
      <trkpt lat="47.71461" lon="-3.39522">
        <ele>23.800681</ele>
        <time>2021-11-10T15:10:47.429Z</time>
      </trkpt>
      <trkpt lat="47.71481" lon="-3.39562">
        <ele>24.29184</ele>
        <time>2021-11-10T15:10:59.287Z</time>
      </trkpt>
      <trkpt lat="47.71513" lon="-3.39592">
        <ele>24.798028</ele>
        <time>2021-11-10T15:11:12.850Z</time>
      </trkpt>
      <trkpt lat="47.71579" lon="-3.39671">
        <ele>25.90526</ele>
        <time>2021-11-10T15:11:42.000Z</time>
      </trkpt>
      <trkpt lat="47.71675" lon="-3.39731">
        <ele>26.778492</ele>
        <time>2021-11-10T15:12:15.225Z</time>
      </trkpt>
      <trkpt lat="47.71754" lon="-3.39791">
        <ele>27.353498</ele>
        <time>2021-11-10T15:12:43.726Z</time>
      </trkpt>
      <trkpt lat="47.71754" lon="-3.39791">
        <ele>27.353498</ele>
        <time>2021-11-10T15:12:43.748Z</time>
      </trkpt>
      <trkpt lat="47.71753" lon="-3.3977">
        <ele>27.445315</ele>
        <time>2021-11-10T15:12:46.761Z</time>
      </trkpt>
      <trkpt lat="47.7176" lon="-3.39735">
        <ele>27.639168</ele>
        <time>2021-11-10T15:12:52.172Z</time>
      </trkpt>
      <trkpt lat="47.71802" lon="-3.39697">
        <ele>28.043388</ele>
        <time>2021-11-10T15:13:02.844Z</time>
      </trkpt>
      <trkpt lat="47.71813" lon="-3.3967">
        <ele>28.216346</ele>
        <time>2021-11-10T15:13:07.408Z</time>
      </trkpt>
      <trkpt lat="47.71851" lon="-3.39549">
        <ele>28.93968</ele>
        <time>2021-11-10T15:13:27.065Z</time>
      </trkpt>
      <trkpt lat="47.71878" lon="-3.39479">
        <ele>29.288488</ele>
        <time>2021-11-10T15:13:39.628Z</time>
      </trkpt>
      <trkpt lat="47.71894" lon="-3.39451">
        <ele>29.448064</ele>
        <time>2021-11-10T15:13:45.345Z</time>
      </trkpt>
      <trkpt lat="47.71908" lon="-3.39338">
        <ele>29.94381</ele>
        <time>2021-11-10T15:14:01.126Z</time>
      </trkpt>
      <trkpt lat="47.71938" lon="-3.3934">
        <ele>30.074641</ele>
        <time>2021-11-10T15:14:07.177Z</time>
      </trkpt>
      <trkpt lat="47.72008" lon="-3.39338">
        <ele>30.064304</ele>
        <time>2021-11-10T15:14:27.627Z</time>
      </trkpt>
      <trkpt lat="47.72034" lon="-3.39357">
        <ele>30.06005</ele>
        <time>2021-11-10T15:14:36.057Z</time>
      </trkpt>
      <trkpt lat="47.72058" lon="-3.39368">
        <ele>30.056274</ele>
        <time>2021-11-10T15:14:43.551Z</time>
      </trkpt>
      <trkpt lat="47.72084" lon="-3.39379">
        <ele>30.052265</ele>
        <time>2021-11-10T15:14:51.919Z</time>
      </trkpt>
      <trkpt lat="47.72099" lon="-3.39404">
        <ele>30.037707</ele>
        <time>2021-11-10T15:14:58.719Z</time>
      </trkpt>
      <trkpt lat="47.72099" lon="-3.39438">
        <ele>29.955062</ele>
        <time>2021-11-10T15:15:05.213Z</time>
      </trkpt>
      <trkpt lat="47.72068" lon="-3.3944">
        <ele>29.843852</ele>
        <time>2021-11-10T15:15:10.830Z</time>
      </trkpt>
      <trkpt lat="47.7207" lon="-3.39489">
        <ele>29.727813</ele>
        <time>2021-11-10T15:15:16.560Z</time>
      </trkpt>
      <trkpt lat="47.72063" lon="-3.39513">
        <ele>29.664943</ele>
        <time>2021-11-10T15:15:19.881Z</time>
      </trkpt>
      <trkpt lat="47.72102" lon="-3.39563">
        <ele>29.483807</ele>
        <time>2021-11-10T15:15:28.579Z</time>
      </trkpt>
      <trkpt lat="47.7214" lon="-3.39583">
        <ele>29.279685</ele>
        <time>2021-11-10T15:15:36.503Z</time>
      </trkpt>
      <trkpt lat="47.72218" lon="-3.39579">
        <ele>28.769883</ele>
        <time>2021-11-10T15:15:51.008Z</time>
      </trkpt>
      <trkpt lat="47.7222" lon="-3.39583">
        <ele>28.7483</ele>
        <time>2021-11-10T15:15:51.600Z</time>
      </trkpt>
      <trkpt lat="47.72264" lon="-3.39661">
        <ele>28.300286</ele>
        <time>2021-11-10T15:16:03.831Z</time>
      </trkpt>
      <trkpt lat="47.72278" lon="-3.39662">
        <ele>28.228976</ele>
        <time>2021-11-10T15:16:06.294Z</time>
      </trkpt>
      <trkpt lat="47.72284" lon="-3.39663">
        <ele>28.215452</ele>
        <time>2021-11-10T15:16:07.423Z</time>
      </trkpt>
      <trkpt lat="47.72355" lon="-3.39612">
        <ele>28.043826</ele>
        <time>2021-11-10T15:16:22.478Z</time>
      </trkpt>
      <trkpt lat="47.72417" lon="-3.39583">
        <ele>27.901424</ele>
        <time>2021-11-10T15:16:35.416Z</time>
      </trkpt>
      <trkpt lat="47.72457" lon="-3.39576">
        <ele>27.730204</ele>
        <time>2021-11-10T15:16:43.584Z</time>
      </trkpt>
      <trkpt lat="47.72516" lon="-3.39594">
        <ele>27.261665</ele>
        <time>2021-11-10T15:16:55.597Z</time>
      </trkpt>
      <trkpt lat="47.72558" lon="-3.39624">
        <ele>26.893045</ele>
        <time>2021-11-10T15:17:03.891Z</time>
      </trkpt>
      <trkpt lat="47.72581" lon="-3.39622">
        <ele>26.712499</ele>
        <time>2021-11-10T15:17:07.852Z</time>
      </trkpt>
      <trkpt lat="47.72603" lon="-3.39633">
        <ele>26.528231</ele>
        <time>2021-11-10T15:17:11.830Z</time>
      </trkpt>
      <trkpt lat="47.72624" lon="-3.39635">
        <ele>26.222692</ele>
        <time>2021-11-10T15:17:15.350Z</time>
      </trkpt>
      <trkpt lat="47.72663" lon="-3.39632">
        <ele>25.262938</ele>
        <time>2021-11-10T15:17:21.860Z</time>
      </trkpt>
      <trkpt lat="47.72686" lon="-3.39596">
        <ele>24.42175</ele>
        <time>2021-11-10T15:17:30.579Z</time>
      </trkpt>
      <trkpt lat="47.7271" lon="-3.39573">
        <ele>23.729973</ele>
        <time>2021-11-10T15:17:37.658Z</time>
      </trkpt>
      <trkpt lat="47.72716" lon="-3.39567">
        <ele>23.53085</ele>
        <time>2021-11-10T15:17:39.673Z</time>
      </trkpt>
      <trkpt lat="47.72721" lon="-3.3954">
        <ele>23.065099</ele>
        <time>2021-11-10T15:17:44.369Z</time>
      </trkpt>
      <trkpt lat="47.72714" lon="-3.3951">
        <ele>22.529572</ele>
        <time>2021-11-10T15:17:49.737Z</time>
      </trkpt>
      <trkpt lat="47.72706" lon="-3.39504">
        <ele>22.31202</ele>
        <time>2021-11-10T15:17:51.887Z</time>
      </trkpt>
      <trkpt lat="47.727" lon="-3.39515">
        <ele>22.076011</ele>
        <time>2021-11-10T15:17:54.215Z</time>
      </trkpt>
      <trkpt lat="47.72695" lon="-3.39507">
        <ele>21.864127</ele>
        <time>2021-11-10T15:17:56.107Z</time>
      </trkpt>
      <trkpt lat="47.72692" lon="-3.39474">
        <ele>21.172172</ele>
        <time>2021-11-10T15:18:01.629Z</time>
      </trkpt>
      <trkpt lat="47.72675" lon="-3.39412">
        <ele>19.803685</ele>
        <time>2021-11-10T15:18:12.442Z</time>
      </trkpt>
      <trkpt lat="47.72671" lon="-3.39297">
        <ele>17.421911</ele>
        <time>2021-11-10T15:18:31.709Z</time>
      </trkpt>
      <trkpt lat="47.72659" lon="-3.39261">
        <ele>16.593442</ele>
        <time>2021-11-10T15:18:38.444Z</time>
      </trkpt>
      <trkpt lat="47.72658" lon="-3.39218">
        <ele>15.743908</ele>
        <time>2021-11-10T15:18:45.583Z</time>
      </trkpt>
      <trkpt lat="47.72668" lon="-3.39212">
        <ele>15.42126</ele>
        <time>2021-11-10T15:18:47.255Z</time>
      </trkpt>
      <trkpt lat="47.72681" lon="-3.39212">
        <ele>15.045014</ele>
        <time>2021-11-10T15:18:49.139Z</time>
      </trkpt>
      <trkpt lat="47.72719" lon="-3.39206">
        <ele>13.935191</ele>
        <time>2021-11-10T15:19:15.611Z</time>
      </trkpt>
      <trkpt lat="47.72751" lon="-3.39209">
        <ele>13.016954</ele>
        <time>2021-11-10T15:19:37.486Z</time>
      </trkpt>
      <trkpt lat="47.72784" lon="-3.39231">
        <ele>11.946418</ele>
        <time>2021-11-10T15:20:03.036Z</time>
      </trkpt>
      <trkpt lat="47.72832" lon="-3.39121">
        <ele>9.532886</ele>
        <time>2021-11-10T15:20:25.244Z</time>
      </trkpt>
      <trkpt lat="47.72846" lon="-3.39118">
        <ele>9.15034</ele>
        <time>2021-11-10T15:20:35.224Z</time>
      </trkpt>
      <trkpt lat="47.72864" lon="-3.39092">
        <ele>8.493388</ele>
        <time>2021-11-10T15:20:52.349Z</time>
      </trkpt>
      <trkpt lat="47.72865" lon="-3.39082">
        <ele>8.306747</ele>
        <time>2021-11-10T15:20:57.242Z</time>
      </trkpt>
      <trkpt lat="47.72874" lon="-3.39019">
        <ele>7.149182</ele>
        <time>2021-11-10T15:21:27.403Z</time>
      </trkpt>
      <trkpt lat="47.72887" lon="-3.38918">
        <ele>6.090085</ele>
        <time>2021-11-10T15:22:15.396Z</time>
      </trkpt>
      <trkpt lat="47.7289" lon="-3.38861">
        <ele>5.790206</ele>
        <time>2021-11-10T15:22:42.359Z</time>
      </trkpt>
      <trkpt lat="47.72886" lon="-3.3885">
        <ele>5.727697</ele>
        <time>2021-11-10T15:22:47.996Z</time>
      </trkpt>
      <trkpt lat="47.72872" lon="-3.38839">
        <ele>5.601564</ele>
        <time>2021-11-10T15:22:59.321Z</time>
      </trkpt>
      <trkpt lat="47.7286" lon="-3.38844">
        <ele>5.509921</ele>
        <time>2021-11-10T15:23:07.538Z</time>
      </trkpt>
      <trkpt lat="47.72849" lon="-3.38849">
        <ele>5.415018</ele>
        <time>2021-11-10T15:23:16.073Z</time>
      </trkpt>
      <trkpt lat="47.72811" lon="-3.38877">
        <ele>5.088365</ele>
        <time>2021-11-10T15:23:45.411Z</time>
      </trkpt>
      <trkpt lat="47.72798" lon="-3.38888">
        <ele>5.052804</ele>
        <time>2021-11-10T15:23:55.821Z</time>
      </trkpt>
      <trkpt lat="47.72774" lon="-3.38879">
        <ele>5.196617</ele>
        <time>2021-11-10T15:24:12.835Z</time>
      </trkpt>
      <trkpt lat="47.72729" lon="-3.38896">
        <ele>5.471772</ele>
        <time>2021-11-10T15:24:45.353Z</time>
      </trkpt>
      <trkpt lat="47.72683" lon="-3.38898">
        <ele>5.740515</ele>
        <time>2021-11-10T15:25:17.122Z</time>
      </trkpt>
      <trkpt lat="47.72665" lon="-3.38888">
        <ele>5.851009</ele>
        <time>2021-11-10T15:25:30.188Z</time>
      </trkpt>
      <trkpt lat="47.7266" lon="-3.38885">
        <ele>5.882421</ele>
        <time>2021-11-10T15:25:33.895Z</time>
      </trkpt>
      <trkpt lat="47.72647" lon="-3.38841">
        <ele>6.072713</ele>
        <time>2021-11-10T15:25:56.379Z</time>
      </trkpt>
      <trkpt lat="47.72661" lon="-3.38818">
        <ele>6.162735</ele>
        <time>2021-11-10T15:26:10.941Z</time>
      </trkpt>
      <trkpt lat="47.72698" lon="-3.38758">
        <ele>6.396107</ele>
        <time>2021-11-10T15:26:49.148Z</time>
      </trkpt>
      <trkpt lat="47.72734" lon="-3.38686">
        <ele>6.65092</ele>
        <time>2021-11-10T15:27:30.801Z</time>
      </trkpt>
      <trkpt lat="47.72752" lon="-3.38668">
        <ele>6.746221</ele>
        <time>2021-11-10T15:27:46.424Z</time>
      </trkpt>
      <trkpt lat="47.7277" lon="-3.38667">
        <ele>6.82105</ele>
        <time>2021-11-10T15:27:58.639Z</time>
      </trkpt>
      <trkpt lat="47.72802" lon="-3.38688">
        <ele>6.870185</ele>
        <time>2021-11-10T15:28:23.079Z</time>
      </trkpt>
      <trkpt lat="47.72821" lon="-3.38717">
        <ele>6.897255</ele>
        <time>2021-11-10T15:28:42.025Z</time>
      </trkpt>
      <trkpt lat="47.72853" lon="-3.38743">
        <ele>6.93363</ele>
        <time>2021-11-10T15:28:52.908Z</time>
      </trkpt>
      <trkpt lat="47.72878" lon="-3.38754">
        <ele>6.95914</ele>
        <time>2021-11-10T15:29:00.702Z</time>
      </trkpt>
      <trkpt lat="47.72942" lon="-3.3879">
        <ele>6.989265</ele>
        <time>2021-11-10T15:29:48.099Z</time>
      </trkpt>
      <trkpt lat="47.7296" lon="-3.38793">
        <ele>6.930274</ele>
        <time>2021-11-10T15:30:00.572Z</time>
      </trkpt>
      <trkpt lat="47.72972" lon="-3.38788">
        <ele>6.887508</ele>
        <time>2021-11-10T15:30:09.703Z</time>
      </trkpt>
      <trkpt lat="47.72974" lon="-3.38786">
        <ele>6.879877</ele>
        <time>2021-11-10T15:30:11.310Z</time>
      </trkpt>
      <trkpt lat="47.7303" lon="-3.38718">
        <ele>6.6441</ele>
        <time>2021-11-10T15:31:01.332Z</time>
      </trkpt>
      <trkpt lat="47.73046" lon="-3.3867">
        <ele>6.527032</ele>
        <time>2021-11-10T15:31:26.174Z</time>
      </trkpt>
      <trkpt lat="47.73055" lon="-3.38627">
        <ele>6.426114</ele>
        <time>2021-11-10T15:31:47.367Z</time>
      </trkpt>
      <trkpt lat="47.73089" lon="-3.38633">
        <ele>6.245043</ele>
        <time>2021-11-10T15:31:52.984Z</time>
      </trkpt>
      <trkpt lat="47.73188" lon="-3.38631">
        <ele>5.728857</ele>
        <time>2021-11-10T15:32:09.315Z</time>
      </trkpt>
      <trkpt lat="47.73189" lon="-3.38631">
        <ele>5.721514</ele>
        <time>2021-11-10T15:32:09.618Z</time>
      </trkpt>
      <trkpt lat="47.73189" lon="-3.38622">
        <ele>5.690821</ele>
        <time>2021-11-10T15:32:10.726Z</time>
      </trkpt>
      <trkpt lat="47.73189" lon="-3.38611">
        <ele>5.650249</ele>
        <time>2021-11-10T15:32:12.125Z</time>
      </trkpt>
      <trkpt lat="47.73189" lon="-3.38601">
        <ele>5.616028</ele>
        <time>2021-11-10T15:32:13.225Z</time>
      </trkpt>
      <trkpt lat="47.73217" lon="-3.38593">
        <ele>5.502396</ele>
        <time>2021-11-10T15:32:18.220Z</time>
      </trkpt>
      <trkpt lat="47.7324" lon="-3.38581">
        <ele>5.61222</ele>
        <time>2021-11-10T15:32:22.455Z</time>
      </trkpt>
      <trkpt lat="47.73265" lon="-3.38554">
        <ele>5.753987</ele>
        <time>2021-11-10T15:32:28.377Z</time>
      </trkpt>
      <trkpt lat="47.73298" lon="-3.38516">
        <ele>5.94405</ele>
        <time>2021-11-10T15:32:37.015Z</time>
      </trkpt>
      <trkpt lat="47.73311" lon="-3.38488">
        <ele>6.045675</ele>
        <time>2021-11-10T15:32:42.163Z</time>
      </trkpt>
      <trkpt lat="47.73312" lon="-3.38485">
        <ele>6.056676</ele>
        <time>2021-11-10T15:32:42.695Z</time>
      </trkpt>
      <trkpt lat="47.73307" lon="-3.38434">
        <ele>6.212071</ele>
        <time>2021-11-10T15:32:50.153Z</time>
      </trkpt>
      <trkpt lat="47.73297" lon="-3.38303">
        <ele>5.947405</ele>
        <time>2021-11-10T15:33:06.844Z</time>
      </trkpt>
      <trkpt lat="47.73239" lon="-3.37976">
        <ele>3.841682</ele>
        <time>2021-11-10T15:33:42.662Z</time>
      </trkpt>
      <trkpt lat="47.73235" lon="-3.37948">
        <ele>3.579483</ele>
        <time>2021-11-10T15:33:45.636Z</time>
      </trkpt>
      <trkpt lat="47.73229" lon="-3.37907">
        <ele>3.208371</ele>
        <time>2021-11-10T15:33:49.752Z</time>
      </trkpt>
      <trkpt lat="47.73228" lon="-3.37868">
        <ele>2.877009</ele>
        <time>2021-11-10T15:33:53.765Z</time>
      </trkpt>
      <trkpt lat="47.73228" lon="-3.37837">
        <ele>2.642461</ele>
        <time>2021-11-10T15:33:56.834Z</time>
      </trkpt>
      <trkpt lat="47.73222" lon="-3.37824">
        <ele>2.522513</ele>
        <time>2021-11-10T15:33:58.441Z</time>
      </trkpt>
      <trkpt lat="47.73222" lon="-3.37807">
        <ele>2.392589</ele>
        <time>2021-11-10T15:34:00.136Z</time>
      </trkpt>
      <trkpt lat="47.73176" lon="-3.37708">
        <ele>1.466944</ele>
        <time>2021-11-10T15:34:12.483Z</time>
      </trkpt>
      <trkpt lat="47.7317" lon="-3.37684">
        <ele>1.275941</ele>
        <time>2021-11-10T15:34:15.294Z</time>
      </trkpt>
      <trkpt lat="47.73154" lon="-3.3768">
        <ele>1.08949</ele>
        <time>2021-11-10T15:34:26.678Z</time>
      </trkpt>
      <trkpt lat="47.73132" lon="-3.37617">
        <ele>1.164813</ele>
        <time>2021-11-10T15:34:36.522Z</time>
      </trkpt>
      <trkpt lat="47.7311" lon="-3.37581">
        <ele>1.36392</ele>
        <time>2021-11-10T15:34:43.657Z</time>
      </trkpt>
      <trkpt lat="47.73083" lon="-3.37545">
        <ele>1.5879</ele>
        <time>2021-11-10T15:34:52.122Z</time>
      </trkpt>
      <trkpt lat="47.73073" lon="-3.37521">
        <ele>1.704485</ele>
        <time>2021-11-10T15:34:56.574Z</time>
      </trkpt>
      <trkpt lat="47.73065" lon="-3.37516">
        <ele>1.761657</ele>
        <time>2021-11-10T15:34:58.878Z</time>
      </trkpt>
      <trkpt lat="47.73043" lon="-3.37483">
        <ele>1.953276</ele>
        <time>2021-11-10T15:35:09.250Z</time>
      </trkpt>
      <trkpt lat="47.73036" lon="-3.37473">
        <ele>2.010632</ele>
        <time>2021-11-10T15:35:12.489Z</time>
      </trkpt>
      <trkpt lat="47.73019" lon="-3.37445">
        <ele>2.150246</ele>
        <time>2021-11-10T15:35:20.916Z</time>
      </trkpt>
      <trkpt lat="47.73005" lon="-3.37421">
        <ele>2.261632</ele>
        <time>2021-11-10T15:35:28.137Z</time>
      </trkpt>
      <trkpt lat="47.72956" lon="-3.37325">
        <ele>2.689742</ele>
        <time>2021-11-10T15:35:54.904Z</time>
      </trkpt>
      <trkpt lat="47.72867" lon="-3.37144">
        <ele>3.570065</ele>
        <time>2021-11-10T15:36:38.964Z</time>
      </trkpt>
      <trkpt lat="47.72806" lon="-3.37018">
        <ele>4.252975</ele>
        <time>2021-11-10T15:37:16.125Z</time>
      </trkpt>
      <trkpt lat="47.72815" lon="-3.36994">
        <ele>4.398891</ele>
        <time>2021-11-10T15:37:28.598Z</time>
      </trkpt>
      <trkpt lat="47.72813" lon="-3.36981">
        <ele>4.475116</ele>
        <time>2021-11-10T15:37:35.146Z</time>
      </trkpt>
      <trkpt lat="47.7281" lon="-3.36955">
        <ele>4.619061</ele>
        <time>2021-11-10T15:37:47.486Z</time>
      </trkpt>
      <trkpt lat="47.72862" lon="-3.36877">
        <ele>5.218169</ele>
        <time>2021-11-10T15:38:38.753Z</time>
      </trkpt>
      <trkpt lat="47.72868" lon="-3.36874">
        <ele>5.267973</ele>
        <time>2021-11-10T15:38:40.168Z</time>
      </trkpt>
      <trkpt lat="47.72883" lon="-3.36868">
        <ele>5.39388</ele>
        <time>2021-11-10T15:38:43.301Z</time>
      </trkpt>
      <trkpt lat="47.72895" lon="-3.36858">
        <ele>5.509636</ele>
        <time>2021-11-10T15:38:46.523Z</time>
      </trkpt>
      <trkpt lat="47.72912" lon="-3.36766">
        <ele>5.237539</ele>
        <time>2021-11-10T15:39:30.709Z</time>
      </trkpt>
      <trkpt lat="47.73047" lon="-3.3683">
        <ele>4.429327</ele>
        <time>2021-11-10T15:39:53.716Z</time>
      </trkpt>
      <trkpt lat="47.73099" lon="-3.36854">
        <ele>4.268248</ele>
        <time>2021-11-10T15:40:03.505Z</time>
      </trkpt>
      <trkpt lat="47.73113" lon="-3.36871">
        <ele>4.215553</ele>
        <time>2021-11-10T15:40:06.800Z</time>
      </trkpt>
      <trkpt lat="47.73131" lon="-3.36906">
        <ele>4.12687</ele>
        <time>2021-11-10T15:40:12.270Z</time>
      </trkpt>
      <trkpt lat="47.73165" lon="-3.36973">
        <ele>3.961047</ele>
        <time>2021-11-10T15:40:22.638Z</time>
      </trkpt>
      <trkpt lat="47.73205" lon="-3.3704">
        <ele>4.02145</ele>
        <time>2021-11-10T15:40:34.273Z</time>
      </trkpt>
      <trkpt lat="47.73247" lon="-3.37077">
        <ele>4.084006</ele>
        <time>2021-11-10T15:40:43.781Z</time>
      </trkpt>
      <trkpt lat="47.73278" lon="-3.3709">
        <ele>4.124506</ele>
        <time>2021-11-10T15:40:49.749Z</time>
      </trkpt>
      <trkpt lat="47.73307" lon="-3.37092">
        <ele>4.161517</ele>
        <time>2021-11-10T15:40:55.153Z</time>
      </trkpt>
      <trkpt lat="47.73341" lon="-3.37084">
        <ele>4.272085</ele>
        <time>2021-11-10T15:41:01.704Z</time>
      </trkpt>
      <trkpt lat="47.73346" lon="-3.37082">
        <ele>4.295415</ele>
        <time>2021-11-10T15:41:02.763Z</time>
      </trkpt>
      <trkpt lat="47.73352" lon="-3.3708">
        <ele>4.321819</ele>
        <time>2021-11-10T15:41:03.940Z</time>
      </trkpt>
      <trkpt lat="47.73402" lon="-3.37037">
        <ele>4.575931</ele>
        <time>2021-11-10T15:41:15.020Z</time>
      </trkpt>
      <trkpt lat="47.73428" lon="-3.36988">
        <ele>4.760993</ele>
        <time>2021-11-10T15:41:23.311Z</time>
      </trkpt>
      <trkpt lat="47.73442" lon="-3.36945">
        <ele>4.903996</ele>
        <time>2021-11-10T15:41:29.725Z</time>
      </trkpt>
      <trkpt lat="47.73455" lon="-3.3688">
        <ele>5.264802</ele>
        <time>2021-11-10T15:41:39.214Z</time>
      </trkpt>
      <trkpt lat="47.73447" lon="-3.36809">
        <ele>5.732647</ele>
        <time>2021-11-10T15:41:49.932Z</time>
      </trkpt>
      <trkpt lat="47.73427" lon="-3.36743">
        <ele>6.203245</ele>
        <time>2021-11-10T15:42:01.157Z</time>
      </trkpt>
      <trkpt lat="47.73422" lon="-3.36732">
        <ele>6.289623</ele>
        <time>2021-11-10T15:42:03.221Z</time>
      </trkpt>
      <trkpt lat="47.7355" lon="-3.36642">
        <ele>6.979073</ele>
        <time>2021-11-10T15:42:33.103Z</time>
      </trkpt>
      <trkpt lat="47.73564" lon="-3.36631">
        <ele>7.02015</ele>
        <time>2021-11-10T15:42:35.844Z</time>
      </trkpt>
      <trkpt lat="47.73551" lon="-3.36619">
        <ele>7.05909</ele>
        <time>2021-11-10T15:42:38.499Z</time>
      </trkpt>
      <trkpt lat="47.7357" lon="-3.36563">
        <ele>7.173307</ele>
        <time>2021-11-10T15:42:45.791Z</time>
      </trkpt>
      <trkpt lat="47.7358" lon="-3.36551">
        <ele>7.153094</ele>
        <time>2021-11-10T15:42:47.784Z</time>
      </trkpt>
      <trkpt lat="47.73579" lon="-3.36524">
        <ele>6.915715</ele>
        <time>2021-11-10T15:42:50.752Z</time>
      </trkpt>
      <trkpt lat="47.73594" lon="-3.36507">
        <ele>6.680587</ele>
        <time>2021-11-10T15:42:53.574Z</time>
      </trkpt>
      <trkpt lat="47.73603" lon="-3.36509">
        <ele>6.562153</ele>
        <time>2021-11-10T15:42:54.988Z</time>
      </trkpt>
      <trkpt lat="47.73613" lon="-3.3652">
        <ele>6.398292</ele>
        <time>2021-11-10T15:42:56.951Z</time>
      </trkpt>
      <trkpt lat="47.73741" lon="-3.36349">
        <ele>4.361927</ele>
        <time>2021-11-10T15:43:23.058Z</time>
      </trkpt>
      <trkpt lat="47.73761" lon="-3.36317">
        <ele>4.086706</ele>
        <time>2021-11-10T15:43:27.718Z</time>
      </trkpt>
      <trkpt lat="47.73756" lon="-3.36298">
        <ele>3.960874</ele>
        <time>2021-11-10T15:43:29.837Z</time>
      </trkpt>
      <trkpt lat="47.73766" lon="-3.36286">
        <ele>3.834831</ele>
        <time>2021-11-10T15:43:32.003Z</time>
      </trkpt>
      <trkpt lat="47.73777" lon="-3.36297">
        <ele>3.709133</ele>
        <time>2021-11-10T15:43:34.204Z</time>
      </trkpt>
      <trkpt lat="47.73791" lon="-3.36289">
        <ele>3.572874</ele>
        <time>2021-11-10T15:43:36.545Z</time>
      </trkpt>
      <trkpt lat="47.73949" lon="-3.3609">
        <ele>3.045335</ele>
        <time>2021-11-10T15:44:12.815Z</time>
      </trkpt>
      <trkpt lat="47.73973" lon="-3.36077">
        <ele>3.068348</ele>
        <time>2021-11-10T15:44:17.502Z</time>
      </trkpt>
      <trkpt lat="47.74028" lon="-3.36049">
        <ele>3.253458</ele>
        <time>2021-11-10T15:44:28.659Z</time>
      </trkpt>
      <trkpt lat="47.74068" lon="-3.35999">
        <ele>3.417556</ele>
        <time>2021-11-10T15:44:38.809Z</time>
      </trkpt>
      <trkpt lat="47.74109" lon="-3.35873">
        <ele>3.701961</ele>
        <time>2021-11-10T15:44:56.919Z</time>
      </trkpt>
      <trkpt lat="47.74132" lon="-3.35842">
        <ele>3.788492</ele>
        <time>2021-11-10T15:45:02.965Z</time>
      </trkpt>
      <trkpt lat="47.7412" lon="-3.35825">
        <ele>3.834488</ele>
        <time>2021-11-10T15:45:06.111Z</time>
      </trkpt>
      <trkpt lat="47.74119" lon="-3.35806">
        <ele>3.87152</ele>
        <time>2021-11-10T15:45:08.694Z</time>
      </trkpt>
      <trkpt lat="47.74125" lon="-3.35787">
        <ele>3.910925</ele>
        <time>2021-11-10T15:45:11.305Z</time>
      </trkpt>
      <trkpt lat="47.74136" lon="-3.35776">
        <ele>3.948795</ele>
        <time>2021-11-10T15:45:13.982Z</time>
      </trkpt>
      <trkpt lat="47.74158" lon="-3.35785">
        <ele>4.010508</ele>
        <time>2021-11-10T15:45:18.128Z</time>
      </trkpt>
      <trkpt lat="47.74164" lon="-3.35803">
        <ele>4.047887</ele>
        <time>2021-11-10T15:45:20.681Z</time>
      </trkpt>
      <trkpt lat="47.74162" lon="-3.35826">
        <ele>4.092388</ele>
        <time>2021-11-10T15:45:23.521Z</time>
      </trkpt>
      <trkpt lat="47.74187" lon="-3.35841">
        <ele>4.159356</ele>
        <time>2021-11-10T15:45:28.265Z</time>
      </trkpt>
      <trkpt lat="47.74192" lon="-3.35836">
        <ele>4.173682</ele>
        <time>2021-11-10T15:45:29.254Z</time>
      </trkpt>
      <trkpt lat="47.74199" lon="-3.35841">
        <ele>4.192089</ele>
        <time>2021-11-10T15:45:30.567Z</time>
      </trkpt>
      <trkpt lat="47.74219" lon="-3.35823">
        <ele>4.248794</ele>
        <time>2021-11-10T15:45:34.676Z</time>
      </trkpt>
      <trkpt lat="47.74252" lon="-3.35795">
        <ele>4.340388</ele>
        <time>2021-11-10T15:45:41.586Z</time>
      </trkpt>
      <trkpt lat="47.74256" lon="-3.35791">
        <ele>4.351337</ele>
        <time>2021-11-10T15:45:42.442Z</time>
      </trkpt>
      <trkpt lat="47.74259" lon="-3.35788">
        <ele>4.360122</ele>
        <time>2021-11-10T15:45:43.174Z</time>
      </trkpt>
      <trkpt lat="47.74265" lon="-3.35784">
        <ele>4.376069</ele>
        <time>2021-11-10T15:45:44.452Z</time>
      </trkpt>
      <trkpt lat="47.74271" lon="-3.35779">
        <ele>4.392306</ele>
        <time>2021-11-10T15:45:45.788Z</time>
      </trkpt>
      <trkpt lat="47.74296" lon="-3.35757">
        <ele>4.462418</ele>
        <time>2021-11-10T15:45:51.855Z</time>
      </trkpt>
      <trkpt lat="47.74314" lon="-3.35741">
        <ele>4.514544</ele>
        <time>2021-11-10T15:45:56.199Z</time>
      </trkpt>
      <trkpt lat="47.74328" lon="-3.35729">
        <ele>4.534698</ele>
        <time>2021-11-10T15:45:59.411Z</time>
      </trkpt>
      <trkpt lat="47.74331" lon="-3.35726">
        <ele>4.531231</ele>
        <time>2021-11-10T15:46:00.163Z</time>
      </trkpt>
      <trkpt lat="47.74333" lon="-3.35724">
        <ele>4.529269</ele>
        <time>2021-11-10T15:46:00.596Z</time>
      </trkpt>
      <trkpt lat="47.74334" lon="-3.35724">
        <ele>4.528235</ele>
        <time>2021-11-10T15:46:00.819Z</time>
      </trkpt>
      <trkpt lat="47.74339" lon="-3.35735">
        <ele>4.520482</ele>
        <time>2021-11-10T15:46:02.562Z</time>
      </trkpt>
      <trkpt lat="47.74357" lon="-3.35777">
        <ele>4.490604</ele>
        <time>2021-11-10T15:46:08.745Z</time>
      </trkpt>
      <trkpt lat="47.74375" lon="-3.3582">
        <ele>4.460131</ele>
        <time>2021-11-10T15:46:14.495Z</time>
      </trkpt>
      <trkpt lat="47.74376" lon="-3.35824">
        <ele>4.457993</ele>
        <time>2021-11-10T15:46:14.909Z</time>
      </trkpt>
      <trkpt lat="47.74383" lon="-3.35843">
        <ele>4.444983</ele>
        <time>2021-11-10T15:46:17.401Z</time>
      </trkpt>
      <trkpt lat="47.74387" lon="-3.35851">
        <ele>4.439491</ele>
        <time>2021-11-10T15:46:18.453Z</time>
      </trkpt>
      <trkpt lat="47.74391" lon="-3.35861">
        <ele>4.432018</ele>
        <time>2021-11-10T15:46:19.856Z</time>
      </trkpt>
      <trkpt lat="47.74421" lon="-3.35938">
        <ele>4.371138</ele>
        <time>2021-11-10T15:46:30.342Z</time>
      </trkpt>
      <trkpt lat="47.74434" lon="-3.35926">
        <ele>4.258327</ele>
        <time>2021-11-10T15:46:33.096Z</time>
      </trkpt>
      <trkpt lat="47.74439" lon="-3.35922">
        <ele>4.216403</ele>
        <time>2021-11-10T15:46:34.099Z</time>
      </trkpt>
      <trkpt lat="47.74459" lon="-3.35904">
        <ele>4.051284</ele>
        <time>2021-11-10T15:46:37.992Z</time>
      </trkpt>
      <trkpt lat="47.74474" lon="-3.35891">
        <ele>3.931999</ele>
        <time>2021-11-10T15:46:40.771Z</time>
      </trkpt>
      <trkpt lat="47.74497" lon="-3.3587">
        <ele>3.735593</ele>
        <time>2021-11-10T15:46:45.295Z</time>
      </trkpt>
      <trkpt lat="47.74494" lon="-3.35862">
        <ele>3.690747</ele>
        <time>2021-11-10T15:46:46.611Z</time>
      </trkpt>
      <trkpt lat="47.7449" lon="-3.35853">
        <ele>3.637156</ele>
        <time>2021-11-10T15:46:48.221Z</time>
      </trkpt>
      <trkpt lat="47.74433" lon="-3.35706">
        <ele>2.862947</ele>
        <time>2021-11-10T15:47:06.421Z</time>
      </trkpt>
      <trkpt lat="47.74435" lon="-3.35663">
        <ele>2.685271</ele>
        <time>2021-11-10T15:47:11.283Z</time>
      </trkpt>
      <trkpt lat="47.74434" lon="-3.3566">
        <ele>2.672258</ele>
        <time>2021-11-10T15:47:11.670Z</time>
      </trkpt>
      <trkpt lat="47.74415" lon="-3.35596">
        <ele>2.38444</ele>
        <time>2021-11-10T15:47:20.446Z</time>
      </trkpt>
      <trkpt lat="47.7441" lon="-3.35509">
        <ele>2.02546</ele>
        <time>2021-11-10T15:47:31.434Z</time>
      </trkpt>
      <trkpt lat="47.74404" lon="-3.35506">
        <ele>2.000932</ele>
        <time>2021-11-10T15:47:32.619Z</time>
      </trkpt>
      <trkpt lat="47.74403" lon="-3.35493">
        <ele>2.010159</ele>
        <time>2021-11-10T15:47:34.243Z</time>
      </trkpt>
      <trkpt lat="47.74408" lon="-3.35487">
        <ele>2.016783</ele>
        <time>2021-11-10T15:47:35.403Z</time>
      </trkpt>
      <trkpt lat="47.74403" lon="-3.35412">
        <ele>2.071333</ele>
        <time>2021-11-10T15:47:44.993Z</time>
      </trkpt>
      <trkpt lat="47.744" lon="-3.35393">
        <ele>2.084777</ele>
        <time>2021-11-10T15:47:47.358Z</time>
      </trkpt>
      <trkpt lat="47.74373" lon="-3.35345">
        <ele>2.13045</ele>
        <time>2021-11-10T15:47:55.812Z</time>
      </trkpt>
      <trkpt lat="47.74363" lon="-3.35268">
        <ele>2.186578</ele>
        <time>2021-11-10T15:48:07.705Z</time>
      </trkpt>
      <trkpt lat="47.74354" lon="-3.3519">
        <ele>2.953516</ele>
        <time>2021-11-10T15:48:20.894Z</time>
      </trkpt>
      <trkpt lat="47.74389" lon="-3.3518">
        <ele>3.512669</ele>
        <time>2021-11-10T15:48:33.863Z</time>
      </trkpt>
      <trkpt lat="47.74416" lon="-3.35193">
        <ele>3.945461</ele>
        <time>2021-11-10T15:48:44.023Z</time>
      </trkpt>
      <trkpt lat="47.74426" lon="-3.35163">
        <ele>4.29539</ele>
        <time>2021-11-10T15:48:50.848Z</time>
      </trkpt>
      <trkpt lat="47.74457" lon="-3.35184">
        <ele>4.825106</ele>
        <time>2021-11-10T15:48:59.742Z</time>
      </trkpt>
      <trkpt lat="47.7448" lon="-3.35199">
        <ele>5.290608</ele>
        <time>2021-11-10T15:49:06.379Z</time>
      </trkpt>
      <trkpt lat="47.74523" lon="-3.35227">
        <ele>6.243567</ele>
        <time>2021-11-10T15:49:19.636Z</time>
      </trkpt>
      <trkpt lat="47.74511" lon="-3.35255">
        <ele>6.688571</ele>
        <time>2021-11-10T15:49:26.698Z</time>
      </trkpt>
      <trkpt lat="47.74496" lon="-3.35314">
        <ele>7.567672</ele>
        <time>2021-11-10T15:49:38.016Z</time>
      </trkpt>
      <trkpt lat="47.74497" lon="-3.35371">
        <ele>8.35496</ele>
        <time>2021-11-10T15:49:47.665Z</time>
      </trkpt>
      <trkpt lat="47.74502" lon="-3.35391">
        <ele>8.637125</ele>
        <time>2021-11-10T15:49:51.102Z</time>
      </trkpt>
      <trkpt lat="47.74508" lon="-3.35417">
        <ele>8.916715</ele>
        <time>2021-11-10T15:49:55.609Z</time>
      </trkpt>
      <trkpt lat="47.74521" lon="-3.35436">
        <ele>9.177018</ele>
        <time>2021-11-10T15:49:59.910Z</time>
      </trkpt>
      <trkpt lat="47.74554" lon="-3.35457">
        <ele>9.699244</ele>
        <time>2021-11-10T15:50:08.298Z</time>
      </trkpt>
      <trkpt lat="47.74588" lon="-3.3546">
        <ele>10.198884</ele>
        <time>2021-11-10T15:50:16.732Z</time>
      </trkpt>
      <trkpt lat="47.74589" lon="-3.35476">
        <ele>10.356066</ele>
        <time>2021-11-10T15:50:19.685Z</time>
      </trkpt>
      <trkpt lat="47.74592" lon="-3.35526">
        <ele>10.847122</ele>
        <time>2021-11-10T15:50:27.907Z</time>
      </trkpt>
      <trkpt lat="47.74595" lon="-3.35577">
        <ele>11.295291</ele>
        <time>2021-11-10T15:50:35.636Z</time>
      </trkpt>
      <trkpt lat="47.746" lon="-3.35622">
        <ele>11.487553</ele>
        <time>2021-11-10T15:50:42.420Z</time>
      </trkpt>
      <trkpt lat="47.74603" lon="-3.35635">
        <ele>11.544598</ele>
        <time>2021-11-10T15:50:44.724Z</time>
      </trkpt>
      <trkpt lat="47.74627" lon="-3.35633">
        <ele>11.695746</ele>
        <time>2021-11-10T15:50:49.887Z</time>
      </trkpt>
      <trkpt lat="47.74639" lon="-3.35641">
        <ele>11.775274</ele>
        <time>2021-11-10T15:50:52.820Z</time>
      </trkpt>
      <trkpt lat="47.74657" lon="-3.35602">
        <ele>11.971921</ele>
        <time>2021-11-10T15:50:59.288Z</time>
      </trkpt>
      <trkpt lat="47.74669" lon="-3.35588">
        <ele>12.067769</ele>
        <time>2021-11-10T15:51:02.387Z</time>
      </trkpt>
      <trkpt lat="47.74684" lon="-3.35584">
        <ele>12.164779</ele>
        <time>2021-11-10T15:51:05.187Z</time>
      </trkpt>
      <trkpt lat="47.74703" lon="-3.35586">
        <ele>12.284732</ele>
        <time>2021-11-10T15:51:08.956Z</time>
      </trkpt>
      <trkpt lat="47.74732" lon="-3.35604">
        <ele>12.135918</ele>
        <time>2021-11-10T15:51:14.441Z</time>
      </trkpt>
      <trkpt lat="47.74759" lon="-3.35622">
        <ele>11.701706</ele>
        <time>2021-11-10T15:51:19.241Z</time>
      </trkpt>
      <trkpt lat="47.74797" lon="-3.35647">
        <ele>11.076315</ele>
        <time>2021-11-10T15:51:25.634Z</time>
      </trkpt>
      <trkpt lat="47.74824" lon="-3.35665">
        <ele>10.632733</ele>
        <time>2021-11-10T15:51:30.040Z</time>
      </trkpt>
      <trkpt lat="47.7491" lon="-3.35722">
        <ele>9.071408</ele>
        <time>2021-11-10T15:51:43.604Z</time>
      </trkpt>
      <trkpt lat="47.74945" lon="-3.35746">
        <ele>8.314829</ele>
        <time>2021-11-10T15:51:48.966Z</time>
      </trkpt>
      <trkpt lat="47.74976" lon="-3.35767">
        <ele>7.62745</ele>
        <time>2021-11-10T15:51:53.932Z</time>
      </trkpt>
      <trkpt lat="47.74988" lon="-3.35775">
        <ele>7.361512</ele>
        <time>2021-11-10T15:51:55.909Z</time>
      </trkpt>
      <trkpt lat="47.75011" lon="-3.3579">
        <ele>6.865066</ele>
        <time>2021-11-10T15:51:59.540Z</time>
      </trkpt>
      <trkpt lat="47.75049" lon="-3.35816">
        <ele>6.083639</ele>
        <time>2021-11-10T15:52:05.825Z</time>
      </trkpt>
      <trkpt lat="47.7512" lon="-3.35865">
        <ele>5.564509</ele>
        <time>2021-11-10T15:52:18.720Z</time>
      </trkpt>
      <trkpt lat="47.75116" lon="-3.35805">
        <ele>5.297077</ele>
        <time>2021-11-10T15:52:25.636Z</time>
      </trkpt>
      <trkpt lat="47.75121" lon="-3.35802">
        <ele>5.259826</ele>
        <time>2021-11-10T15:52:26.630Z</time>
      </trkpt>
      <trkpt lat="47.75162" lon="-3.35784">
        <ele>4.980771</ele>
        <time>2021-11-10T15:52:34.166Z</time>
      </trkpt>
      <trkpt lat="47.75175" lon="-3.35777">
        <ele>4.895357</ele>
        <time>2021-11-10T15:52:37.426Z</time>
      </trkpt>
      <trkpt lat="47.75187" lon="-3.35743">
        <ele>4.769686</ele>
        <time>2021-11-10T15:52:43.237Z</time>
      </trkpt>
      <trkpt lat="47.75199" lon="-3.35711">
        <ele>4.648924</ele>
        <time>2021-11-10T15:52:48.771Z</time>
      </trkpt>
      <trkpt lat="47.75204" lon="-3.35695">
        <ele>4.590052</ele>
        <time>2021-11-10T15:52:51.494Z</time>
      </trkpt>
      <trkpt lat="47.7521" lon="-3.35679">
        <ele>4.530077</ele>
        <time>2021-11-10T15:52:54.226Z</time>
      </trkpt>
      <trkpt lat="47.75213" lon="-3.35669">
        <ele>4.4935</ele>
        <time>2021-11-10T15:52:55.908Z</time>
      </trkpt>
      <trkpt lat="47.75221" lon="-3.35647">
        <ele>4.41071</ele>
        <time>2021-11-10T15:52:59.816Z</time>
      </trkpt>
      <trkpt lat="47.75224" lon="-3.3564">
        <ele>4.38348</ele>
        <time>2021-11-10T15:53:01.101Z</time>
      </trkpt>
      <trkpt lat="47.75228" lon="-3.35628">
        <ele>4.34051</ele>
        <time>2021-11-10T15:53:03.109Z</time>
      </trkpt>
      <trkpt lat="47.75243" lon="-3.35585">
        <ele>4.182006</ele>
        <time>2021-11-10T15:53:10.318Z</time>
      </trkpt>
      <trkpt lat="47.75257" lon="-3.35545">
        <ele>4.014436</ele>
        <time>2021-11-10T15:53:16.942Z</time>
      </trkpt>
      <trkpt lat="47.75262" lon="-3.3553">
        <ele>3.893366</ele>
        <time>2021-11-10T15:53:19.234Z</time>
      </trkpt>
      <trkpt lat="47.75302" lon="-3.35417">
        <ele>2.928953</ele>
        <time>2021-11-10T15:53:37.378Z</time>
      </trkpt>
      <trkpt lat="47.75323" lon="-3.35365">
        <ele>2.467143</ele>
        <time>2021-11-10T15:54:05.934Z</time>
      </trkpt>
      <trkpt lat="47.75341" lon="-3.35297">
        <ele>1.947064</ele>
        <time>2021-11-10T15:54:40.186Z</time>
      </trkpt>
      <trkpt lat="47.75404" lon="-3.35329">
        <ele>1.44189</ele>
        <time>2021-11-10T15:55:26.524Z</time>
      </trkpt>
      <trkpt lat="47.75411" lon="-3.35337">
        <ele>1.378385</ele>
        <time>2021-11-10T15:55:32.361Z</time>
      </trkpt>
      <trkpt lat="47.75443" lon="-3.35374">
        <ele>1.069107</ele>
        <time>2021-11-10T15:56:00.755Z</time>
      </trkpt>
      <trkpt lat="47.75481" lon="-3.35397">
        <ele>0.758888</ele>
        <time>2021-11-10T15:56:29.236Z</time>
      </trkpt>
      <trkpt lat="47.75533" lon="-3.35445">
        <ele>0.570689</ele>
        <time>2021-11-10T15:57:11.469Z</time>
      </trkpt>
      <trkpt lat="47.75578" lon="-3.35472">
        <ele>0.481824</ele>
        <time>2021-11-10T15:57:45.446Z</time>
      </trkpt>
      <trkpt lat="47.75671" lon="-3.35483">
        <ele>0.337826</ele>
        <time>2021-11-10T15:58:01.811Z</time>
      </trkpt>
      <trkpt lat="47.75687" lon="-3.35485">
        <ele>0.351456</ele>
        <time>2021-11-10T15:58:04.547Z</time>
      </trkpt>
      <trkpt lat="47.75713" lon="-3.35493">
        <ele>0.375333</ele>
        <time>2021-11-10T15:58:09.425Z</time>
      </trkpt>
      <trkpt lat="47.75733" lon="-3.35501">
        <ele>0.393659</ele>
        <time>2021-11-10T15:58:13.153Z</time>
      </trkpt>
      <trkpt lat="47.75737" lon="-3.35495">
        <ele>0.398141</ele>
        <time>2021-11-10T15:58:14.108Z</time>
      </trkpt>
      <trkpt lat="47.75739" lon="-3.35493">
        <ele>0.399936</ele>
        <time>2021-11-10T15:58:14.485Z</time>
      </trkpt>
      <trkpt lat="47.75774" lon="-3.35451">
        <ele>0.440028</ele>
        <time>2021-11-10T15:58:23.046Z</time>
      </trkpt>
      <trkpt lat="47.75918" lon="-3.35279">
        <ele>1.041673</ele>
        <time>2021-11-10T15:58:59.689Z</time>
      </trkpt>
      <trkpt lat="47.75915" lon="-3.35263">
        <ele>1.087469</ele>
        <time>2021-11-10T15:59:03.185Z</time>
      </trkpt>
      <trkpt lat="47.75916" lon="-3.35257">
        <ele>1.104826</ele>
        <time>2021-11-10T15:59:04.535Z</time>
      </trkpt>
      <trkpt lat="47.75891" lon="-3.35235">
        <ele>1.23002</ele>
        <time>2021-11-10T15:59:10.535Z</time>
      </trkpt>
      <trkpt lat="47.7583" lon="-3.3518">
        <ele>1.614094</ele>
        <time>2021-11-10T15:59:24.966Z</time>
      </trkpt>
      <trkpt lat="47.75805" lon="-3.35158">
        <ele>1.771166</ele>
        <time>2021-11-10T15:59:30.698Z</time>
      </trkpt>
      <trkpt lat="47.75774" lon="-3.3514">
        <ele>1.952377</ele>
        <time>2021-11-10T15:59:37.530Z</time>
      </trkpt>
      <trkpt lat="47.75747" lon="-3.35135">
        <ele>2.098036</ele>
        <time>2021-11-10T15:59:42.879Z</time>
      </trkpt>
      <trkpt lat="47.75736" lon="-3.35119">
        <ele>2.18115</ele>
        <time>2021-11-10T15:59:46.006Z</time>
      </trkpt>
      <trkpt lat="47.75732" lon="-3.3512">
        <ele>2.204927</ele>
        <time>2021-11-10T15:59:47.305Z</time>
      </trkpt>
      <trkpt lat="47.75699" lon="-3.35103">
        <ele>2.556712</ele>
        <time>2021-11-10T15:59:58.373Z</time>
      </trkpt>
      <trkpt lat="47.75713" lon="-3.35076">
        <ele>2.807301</ele>
        <time>2021-11-10T16:00:05.796Z</time>
      </trkpt>
      <trkpt lat="47.7571" lon="-3.34928">
        <ele>3.884749</ele>
        <time>2021-11-10T16:00:38.978Z</time>
      </trkpt>
      <trkpt lat="47.75728" lon="-3.34835">
        <ele>5.121025</ele>
        <time>2021-11-10T16:01:04.035Z</time>
      </trkpt>
      <trkpt lat="47.75742" lon="-3.34761">
        <ele>6.403795</ele>
        <time>2021-11-10T16:01:24.955Z</time>
      </trkpt>
      <trkpt lat="47.7573" lon="-3.34709">
        <ele>7.31812</ele>
        <time>2021-11-10T16:01:40.037Z</time>
      </trkpt>
      <trkpt lat="47.75717" lon="-3.34683">
        <ele>7.863258</ele>
        <time>2021-11-10T16:01:49.156Z</time>
      </trkpt>
      <trkpt lat="47.75693" lon="-3.34674">
        <ele>8.466073</ele>
        <time>2021-11-10T16:01:58.934Z</time>
      </trkpt>
      <trkpt lat="47.75685" lon="-3.34637">
        <ele>8.921781</ele>
        <time>2021-11-10T16:02:09.585Z</time>
      </trkpt>
      <trkpt lat="47.75685" lon="-3.34635">
        <ele>8.940409</ele>
        <time>2021-11-10T16:02:09.962Z</time>
      </trkpt>
      <trkpt lat="47.75683" lon="-3.34627">
        <ele>9.026539</ele>
        <time>2021-11-10T16:02:11.713Z</time>
      </trkpt>
      <trkpt lat="47.75681" lon="-3.34618">
        <ele>9.11315</ele>
        <time>2021-11-10T16:02:13.482Z</time>
      </trkpt>
      <trkpt lat="47.75479" lon="-3.3455">
        <ele>11.054598</ele>
        <time>2021-11-10T16:03:00.503Z</time>
      </trkpt>
      <trkpt lat="47.75445" lon="-3.3454">
        <ele>10.954431</ele>
        <time>2021-11-10T16:03:06.381Z</time>
      </trkpt>
      <trkpt lat="47.75311" lon="-3.3451">
        <ele>10.266777</ele>
        <time>2021-11-10T16:03:28.881Z</time>
      </trkpt>
      <trkpt lat="47.75314" lon="-3.34484">
        <ele>10.104738</ele>
        <time>2021-11-10T16:03:31.844Z</time>
      </trkpt>
      <trkpt lat="47.75301" lon="-3.34481">
        <ele>9.988332</ele>
        <time>2021-11-10T16:03:33.974Z</time>
      </trkpt>
      <trkpt lat="47.75301" lon="-3.3447">
        <ele>9.917762</ele>
        <time>2021-11-10T16:03:35.663Z</time>
      </trkpt>
      <trkpt lat="47.75289" lon="-3.34457">
        <ele>9.784687</ele>
        <time>2021-11-10T16:03:38.137Z</time>
      </trkpt>
      <trkpt lat="47.75295" lon="-3.34436">
        <ele>9.651394</ele>
        <time>2021-11-10T16:03:40.630Z</time>
      </trkpt>
      <trkpt lat="47.75255" lon="-3.34324">
        <ele>8.956692</ele>
        <time>2021-11-10T16:03:55.176Z</time>
      </trkpt>
      <trkpt lat="47.75197" lon="-3.34255">
        <ele>8.517811</ele>
        <time>2021-11-10T16:04:08.025Z</time>
      </trkpt>
      <trkpt lat="47.75184" lon="-3.34232">
        <ele>8.394998</ele>
        <time>2021-11-10T16:04:11.622Z</time>
      </trkpt>
      <trkpt lat="47.75177" lon="-3.3422">
        <ele>8.33557</ele>
        <time>2021-11-10T16:04:13.328Z</time>
      </trkpt>
      <trkpt lat="47.75157" lon="-3.34177">
        <ele>8.122385</ele>
        <time>2021-11-10T16:04:19.560Z</time>
      </trkpt>
      <trkpt lat="47.75077" lon="-3.34102">
        <ele>8.280664</ele>
        <time>2021-11-10T16:04:35.971Z</time>
      </trkpt>
      <trkpt lat="47.75061" lon="-3.34078">
        <ele>8.353559</ele>
        <time>2021-11-10T16:04:40.159Z</time>
      </trkpt>
      <trkpt lat="47.75048" lon="-3.34025">
        <ele>8.47883</ele>
        <time>2021-11-10T16:04:48.197Z</time>
      </trkpt>
      <trkpt lat="47.75039" lon="-3.33901">
        <ele>9.594413</ele>
        <time>2021-11-10T16:05:09.088Z</time>
      </trkpt>
      <trkpt lat="47.75028" lon="-3.33732">
        <ele>12.241892</ele>
        <time>2021-11-10T16:05:41.245Z</time>
      </trkpt>
      <trkpt lat="47.75026" lon="-3.33688">
        <ele>12.965771</ele>
        <time>2021-11-10T16:05:50.432Z</time>
      </trkpt>
      <trkpt lat="47.75023" lon="-3.33566">
        <ele>15.236406</ele>
        <time>2021-11-10T16:06:17.231Z</time>
      </trkpt>
      <trkpt lat="47.75035" lon="-3.33486">
        <ele>16.763839</ele>
        <time>2021-11-10T16:06:32.963Z</time>
      </trkpt>
      <trkpt lat="47.75045" lon="-3.33451">
        <ele>17.465623</ele>
        <time>2021-11-10T16:06:39.942Z</time>
      </trkpt>
      <trkpt lat="47.75069" lon="-3.33368">
        <ele>18.323605</ele>
        <time>2021-11-10T16:06:55.690Z</time>
      </trkpt>
      <trkpt lat="47.75072" lon="-3.3336">
        <ele>18.387584</ele>
        <time>2021-11-10T16:06:57.116Z</time>
      </trkpt>
      <trkpt lat="47.75066" lon="-3.33352">
        <ele>18.474264</ele>
        <time>2021-11-10T16:06:59.025Z</time>
      </trkpt>
      <trkpt lat="47.75066" lon="-3.3334">
        <ele>18.561528</ele>
        <time>2021-11-10T16:07:00.799Z</time>
      </trkpt>
      <trkpt lat="47.7506" lon="-3.33336">
        <ele>18.636395</ele>
        <time>2021-11-10T16:07:02.512Z</time>
      </trkpt>
      <trkpt lat="47.75059" lon="-3.33336">
        <ele>18.651494</ele>
        <time>2021-11-10T16:07:02.871Z</time>
      </trkpt>
      <trkpt lat="47.75004" lon="-3.3333">
        <ele>19.265201</ele>
        <time>2021-11-10T16:07:15.647Z</time>
      </trkpt>
      <trkpt lat="47.74976" lon="-3.33328">
        <ele>19.568759</ele>
        <time>2021-11-10T16:07:21.073Z</time>
      </trkpt>
      <trkpt lat="47.74919" lon="-3.33317">
        <ele>19.322432</ele>
        <time>2021-11-10T16:07:31.474Z</time>
      </trkpt>
      <trkpt lat="47.74784" lon="-3.33315">
        <ele>17.817835</ele>
        <time>2021-11-10T16:07:53.532Z</time>
      </trkpt>
      <trkpt lat="47.74757" lon="-3.33322">
        <ele>16.998169</ele>
        <time>2021-11-10T16:07:57.699Z</time>
      </trkpt>
      <trkpt lat="47.74675" lon="-3.33343">
        <ele>14.245768</ele>
        <time>2021-11-10T16:08:09.730Z</time>
      </trkpt>
      <trkpt lat="47.7466" lon="-3.33354">
        <ele>13.696587</ele>
        <time>2021-11-10T16:08:12.688Z</time>
      </trkpt>
      <trkpt lat="47.74644" lon="-3.33346">
        <ele>13.1466</ele>
        <time>2021-11-10T16:08:15.789Z</time>
      </trkpt>
      <trkpt lat="47.74639" lon="-3.33272">
        <ele>11.37833</ele>
        <time>2021-11-10T16:08:24.705Z</time>
      </trkpt>
      <trkpt lat="47.74635" lon="-3.33217">
        <ele>9.743292</ele>
        <time>2021-11-10T16:08:31.235Z</time>
      </trkpt>
      <trkpt lat="47.74495" lon="-3.33219">
        <ele>3.750765</ele>
        <time>2021-11-10T16:08:50.307Z</time>
      </trkpt>
      <trkpt lat="47.74478" lon="-3.33214">
        <ele>3.400791</ele>
        <time>2021-11-10T16:08:52.747Z</time>
      </trkpt>
      <trkpt lat="47.74482" lon="-3.33189">
        <ele>3.060866</ele>
        <time>2021-11-10T16:08:56.874Z</time>
      </trkpt>
      <trkpt lat="47.74492" lon="-3.33171">
        <ele>2.739603</ele>
        <time>2021-11-10T16:09:00.818Z</time>
      </trkpt>
      <trkpt lat="47.74533" lon="-3.33102">
        <ele>1.483581</ele>
        <time>2021-11-10T16:09:16.861Z</time>
      </trkpt>
      <trkpt lat="47.74553" lon="-3.33068">
        <ele>0.861674</ele>
        <time>2021-11-10T16:09:25.253Z</time>
      </trkpt>
      <trkpt lat="47.74597" lon="-3.33011">
        <ele>0.507178</ele>
        <time>2021-11-10T16:09:42.280Z</time>
      </trkpt>
      <trkpt lat="47.74638" lon="-3.32932">
        <ele>1.113135</ele>
        <time>2021-11-10T16:10:03.954Z</time>
      </trkpt>
      <trkpt lat="47.74648" lon="-3.32904">
        <ele>1.31245</ele>
        <time>2021-11-10T16:10:11.476Z</time>
      </trkpt>
      <trkpt lat="47.74665" lon="-3.32838">
        <ele>1.739391</ele>
        <time>2021-11-10T16:10:28.072Z</time>
      </trkpt>
      <trkpt lat="47.74685" lon="-3.32746">
        <ele>2.718704</ele>
        <time>2021-11-10T16:10:53.295Z</time>
      </trkpt>
      <trkpt lat="47.74699" lon="-3.32728">
        <ele>3.040536</ele>
        <time>2021-11-10T16:10:59.963Z</time>
      </trkpt>
      <trkpt lat="47.74724" lon="-3.32716">
        <ele>3.491451</ele>
        <time>2021-11-10T16:11:10.494Z</time>
      </trkpt>
      <trkpt lat="47.74814" lon="-3.32727">
        <ele>4.974017</ele>
        <time>2021-11-10T16:11:32.578Z</time>
      </trkpt>
      <trkpt lat="47.7482" lon="-3.32728">
        <ele>4.990056</ele>
        <time>2021-11-10T16:11:35.140Z</time>
      </trkpt>
      <trkpt lat="47.74839" lon="-3.32449">
        <ele>5.151295</ele>
        <time>2021-11-10T16:12:10.365Z</time>
      </trkpt>
      <trkpt lat="47.74937" lon="-3.32465">
        <ele>3.969018</ele>
        <time>2021-11-10T16:12:26.139Z</time>
      </trkpt>
      <trkpt lat="47.74937" lon="-3.32465">
        <ele>3.969018</ele>
        <time>2021-11-10T16:12:26.166Z</time>
      </trkpt>
      <trkpt lat="47.7495" lon="-3.32305">
        <ele>2.926026</ele>
        <time>2021-11-10T16:12:43.870Z</time>
      </trkpt>
      <trkpt lat="47.74943" lon="-3.32297">
        <ele>2.872584</ele>
        <time>2021-11-10T16:12:45.243Z</time>
      </trkpt>
      <trkpt lat="47.74948" lon="-3.32289">
        <ele>2.826236</ele>
        <time>2021-11-10T16:12:47.391Z</time>
      </trkpt>
      <trkpt lat="47.74993" lon="-3.32282">
        <ele>2.531425</ele>
        <time>2021-11-10T16:12:59.843Z</time>
      </trkpt>
      <trkpt lat="47.75139" lon="-3.32304">
        <ele>2.247891</ele>
        <time>2021-11-10T16:13:44.072Z</time>
      </trkpt>
      <trkpt lat="47.75222" lon="-3.32317">
        <ele>2.454491</ele>
        <time>2021-11-10T16:14:10.251Z</time>
      </trkpt>
      <trkpt lat="47.75284" lon="-3.32327">
        <ele>2.46706</ele>
        <time>2021-11-10T16:14:29.478Z</time>
      </trkpt>
      <trkpt lat="47.75681" lon="-3.32433">
        <ele>1.862887</ele>
        <time>2021-11-10T16:16:26.586Z</time>
      </trkpt>
      <trkpt lat="47.75764" lon="-3.32474">
        <ele>1.898197</ele>
        <time>2021-11-10T16:16:53.354Z</time>
      </trkpt>
      <trkpt lat="47.75798" lon="-3.32499">
        <ele>2.100476</ele>
        <time>2021-11-10T16:17:05.389Z</time>
      </trkpt>
      <trkpt lat="47.75919" lon="-3.32615">
        <ele>3.057008</ele>
        <time>2021-11-10T16:17:51.128Z</time>
      </trkpt>
      <trkpt lat="47.75943" lon="-3.3262">
        <ele>3.324843</ele>
        <time>2021-11-10T16:17:59.754Z</time>
      </trkpt>
      <trkpt lat="47.7595" lon="-3.32566">
        <ele>3.792764</ele>
        <time>2021-11-10T16:18:08.892Z</time>
      </trkpt>
      <trkpt lat="47.75954" lon="-3.32541">
        <ele>4.005882</ele>
        <time>2021-11-10T16:18:12.857Z</time>
      </trkpt>
      <trkpt lat="47.75971" lon="-3.32474">
        <ele>4.603987</ele>
        <time>2021-11-10T16:18:24.441Z</time>
      </trkpt>
      <trkpt lat="47.75979" lon="-3.32476">
        <ele>4.707523</ele>
        <time>2021-11-10T16:18:26.567Z</time>
      </trkpt>
      <trkpt lat="47.75991" lon="-3.32466">
        <ele>4.885412</ele>
        <time>2021-11-10T16:18:29.597Z</time>
      </trkpt>
      <trkpt lat="47.75996" lon="-3.32436">
        <ele>5.143616</ele>
        <time>2021-11-10T16:18:34.815Z</time>
      </trkpt>
      <trkpt lat="47.76021" lon="-3.32407">
        <ele>5.363849</ele>
        <time>2021-11-10T16:18:42.120Z</time>
      </trkpt>
      <trkpt lat="47.76039" lon="-3.32373">
        <ele>5.39048</ele>
        <time>2021-11-10T16:18:49.281Z</time>
      </trkpt>
      <trkpt lat="47.76092" lon="-3.32382">
        <ele>5.43776</ele>
        <time>2021-11-10T16:19:00.832Z</time>
      </trkpt>
      <trkpt lat="47.76107" lon="-3.32384">
        <ele>5.45135</ele>
        <time>2021-11-10T16:19:03.626Z</time>
      </trkpt>
      <trkpt lat="47.7613" lon="-3.32329">
        <ele>5.491174</ele>
        <time>2021-11-10T16:19:12.013Z</time>
      </trkpt>
      <trkpt lat="47.76154" lon="-3.32326">
        <ele>5.50902</ele>
        <time>2021-11-10T16:19:16.258Z</time>
      </trkpt>
      <trkpt lat="47.76164" lon="-3.32334">
        <ele>5.444933</ele>
        <time>2021-11-10T16:19:18.267Z</time>
      </trkpt>
      <trkpt lat="47.76166" lon="-3.32423">
        <ele>5.099424</ele>
        <time>2021-11-10T16:19:28.638Z</time>
      </trkpt>
      <trkpt lat="47.76171" lon="-3.32446">
        <ele>5.006099</ele>
        <time>2021-11-10T16:19:31.626Z</time>
      </trkpt>
      <trkpt lat="47.7618" lon="-3.32457">
        <ele>4.937138</ele>
        <time>2021-11-10T16:19:33.814Z</time>
      </trkpt>
      <trkpt lat="47.76214" lon="-3.32461">
        <ele>4.744841</ele>
        <time>2021-11-10T16:19:40.098Z</time>
      </trkpt>
      <trkpt lat="47.76228" lon="-3.32472">
        <ele>4.650627</ele>
        <time>2021-11-10T16:19:43.225Z</time>
      </trkpt>
      <trkpt lat="47.7623" lon="-3.32518">
        <ele>4.479062</ele>
        <time>2021-11-10T16:19:49.317Z</time>
      </trkpt>
      <trkpt lat="47.76243" lon="-3.32532">
        <ele>4.537925</ele>
        <time>2021-11-10T16:19:52.814Z</time>
      </trkpt>
      <trkpt lat="47.76268" lon="-3.32539">
        <ele>4.629636</ele>
        <time>2021-11-10T16:19:58.578Z</time>
      </trkpt>
      <trkpt lat="47.76281" lon="-3.32536">
        <ele>4.675903</ele>
        <time>2021-11-10T16:20:01.557Z</time>
      </trkpt>
      <trkpt lat="47.76392" lon="-3.32463">
        <ele>5.121855</ele>
        <time>2021-11-10T16:20:28.277Z</time>
      </trkpt>
      <trkpt lat="47.76403" lon="-3.32461">
        <ele>5.099841</ele>
        <time>2021-11-10T16:20:30.488Z</time>
      </trkpt>
      <trkpt lat="47.76491" lon="-3.32474">
        <ele>4.722381</ele>
        <time>2021-11-10T16:20:47.171Z</time>
      </trkpt>
      <trkpt lat="47.76582" lon="-3.32455">
        <ele>4.398584</ele>
        <time>2021-11-10T16:21:03.713Z</time>
      </trkpt>
      <trkpt lat="47.76603" lon="-3.32467">
        <ele>4.490523</ele>
        <time>2021-11-10T16:21:07.709Z</time>
      </trkpt>
      <trkpt lat="47.76655" lon="-3.32516">
        <ele>4.748979</ele>
        <time>2021-11-10T16:21:21.738Z</time>
      </trkpt>
      <trkpt lat="47.76654" lon="-3.32534">
        <ele>4.802085</ele>
        <time>2021-11-10T16:21:25.446Z</time>
      </trkpt>
      <trkpt lat="47.76629" lon="-3.32627">
        <ele>5.084462</ele>
        <time>2021-11-10T16:21:39.490Z</time>
      </trkpt>
      <trkpt lat="47.76625" lon="-3.32644">
        <ele>5.145262</ele>
        <time>2021-11-10T16:21:42.685Z</time>
      </trkpt>
      <trkpt lat="47.76619" lon="-3.32667">
        <ele>5.255529</ele>
        <time>2021-11-10T16:21:46.404Z</time>
      </trkpt>
      <trkpt lat="47.76624" lon="-3.32672">
        <ele>5.295708</ele>
        <time>2021-11-10T16:21:50.585Z</time>
      </trkpt>
      <trkpt lat="47.76622" lon="-3.32684">
        <ele>5.351586</ele>
        <time>2021-11-10T16:21:52.706Z</time>
      </trkpt>
      <trkpt lat="47.76633" lon="-3.32695">
        <ele>5.439874</ele>
        <time>2021-11-10T16:21:56.803Z</time>
      </trkpt>
      <trkpt lat="47.76636" lon="-3.32682">
        <ele>5.498728</ele>
        <time>2021-11-10T16:21:59.446Z</time>
      </trkpt>
      <trkpt lat="47.76638" lon="-3.32674">
        <ele>5.537411</ele>
        <time>2021-11-10T16:22:01.084Z</time>
      </trkpt>
      <trkpt lat="47.76641" lon="-3.32663">
        <ele>5.594279</ele>
        <time>2021-11-10T16:22:04.191Z</time>
      </trkpt>
      <trkpt lat="47.76648" lon="-3.32641">
        <ele>5.701477</ele>
        <time>2021-11-10T16:22:15.376Z</time>
      </trkpt>
      <trkpt lat="47.76651" lon="-3.32631">
        <ele>5.750038</ele>
        <time>2021-11-10T16:22:20.435Z</time>
      </trkpt>
      <trkpt lat="47.7666" lon="-3.32622">
        <ele>5.826378</ele>
        <time>2021-11-10T16:22:28.400Z</time>
      </trkpt>
      <trkpt lat="47.76671" lon="-3.32572">
        <ele>6.059752</ele>
        <time>2021-11-10T16:22:52.698Z</time>
      </trkpt>
      <trkpt lat="47.76678" lon="-3.32559">
        <ele>6.135775</ele>
        <time>2021-11-10T16:23:00.595Z</time>
      </trkpt>
      <trkpt lat="47.76692" lon="-3.32561">
        <ele>6.229492</ele>
        <time>2021-11-10T16:23:04.850Z</time>
      </trkpt>
      <trkpt lat="47.76715" lon="-3.32586">
        <ele>6.370762</ele>
        <time>2021-11-10T16:23:12.956Z</time>
      </trkpt>
      <trkpt lat="47.76728" lon="-3.3259">
        <ele>6.417988</ele>
        <time>2021-11-10T16:23:16.593Z</time>
      </trkpt>
      <trkpt lat="47.76812" lon="-3.32565">
        <ele>6.716283</ele>
        <time>2021-11-10T16:23:42.898Z</time>
      </trkpt>
      <trkpt lat="47.76837" lon="-3.32542">
        <ele>6.817431</ele>
        <time>2021-11-10T16:23:52.423Z</time>
      </trkpt>
      <trkpt lat="47.76843" lon="-3.32521">
        <ele>6.870862</ele>
        <time>2021-11-10T16:23:57.212Z</time>
      </trkpt>
      <trkpt lat="47.76822" lon="-3.32421">
        <ele>7.574455</ele>
        <time>2021-11-10T16:24:20.411Z</time>
      </trkpt>
      <trkpt lat="47.76819" lon="-3.32406">
        <ele>7.705421</ele>
        <time>2021-11-10T16:24:24.293Z</time>
      </trkpt>
      <trkpt lat="47.76821" lon="-3.32354">
        <ele>8.156376</ele>
        <time>2021-11-10T16:24:36.167Z</time>
      </trkpt>
      <trkpt lat="47.76823" lon="-3.32338">
        <ele>8.295353</ele>
        <time>2021-11-10T16:24:39.747Z</time>
      </trkpt>
      <trkpt lat="47.76845" lon="-3.32321">
        <ele>8.607789</ele>
        <time>2021-11-10T16:24:48.612Z</time>
      </trkpt>
      <trkpt lat="47.76863" lon="-3.32275">
        <ele>9.057566</ele>
        <time>2021-11-10T16:25:01.632Z</time>
      </trkpt>
      <trkpt lat="47.76897" lon="-3.32252">
        <ele>9.740346</ele>
        <time>2021-11-10T16:25:15.908Z</time>
      </trkpt>
      <trkpt lat="47.76941" lon="-3.32256">
        <ele>10.650924</ele>
        <time>2021-11-10T16:25:27.457Z</time>
      </trkpt>
      <trkpt lat="47.76963" lon="-3.32075">
        <ele>13.349432</ele>
        <time>2021-11-10T16:26:02.639Z</time>
      </trkpt>
      <trkpt lat="47.76971" lon="-3.32057">
        <ele>13.780373</ele>
        <time>2021-11-10T16:26:07.233Z</time>
      </trkpt>
      <trkpt lat="47.77005" lon="-3.32018">
        <ele>15.04382</ele>
        <time>2021-11-10T16:26:20.898Z</time>
      </trkpt>
      <trkpt lat="47.77052" lon="-3.31558">
        <ele>24.52411</ele>
        <time>2021-11-10T16:28:01.845Z</time>
      </trkpt>
      <trkpt lat="47.7705" lon="-3.31538">
        <ele>24.889191</ele>
        <time>2021-11-10T16:28:06.526Z</time>
      </trkpt>
      <trkpt lat="47.77008" lon="-3.31407">
        <ele>27.50021</ele>
        <time>2021-11-10T16:28:37.476Z</time>
      </trkpt>
      <trkpt lat="47.76959" lon="-3.31251">
        <ele>28.844693</ele>
        <time>2021-11-10T16:29:08.713Z</time>
      </trkpt>
      <trkpt lat="47.76866" lon="-3.31332">
        <ele>28.981651</ele>
        <time>2021-11-10T16:29:26.048Z</time>
      </trkpt>
      <trkpt lat="47.7686" lon="-3.31337">
        <ele>28.949154</ele>
        <time>2021-11-10T16:29:27.063Z</time>
      </trkpt>
      <trkpt lat="47.76826" lon="-3.31378">
        <ele>28.49673</ele>
        <time>2021-11-10T16:29:33.706Z</time>
      </trkpt>
      <trkpt lat="47.76813" lon="-3.31403">
        <ele>28.275288</ele>
        <time>2021-11-10T16:29:36.899Z</time>
      </trkpt>
      <trkpt lat="47.76793" lon="-3.31441">
        <ele>27.937942</ele>
        <time>2021-11-10T16:29:41.855Z</time>
      </trkpt>
      <trkpt lat="47.76787" lon="-3.31447">
        <ele>27.869682</ele>
        <time>2021-11-10T16:29:42.939Z</time>
      </trkpt>
      <trkpt lat="47.76786" lon="-3.31466">
        <ele>27.737998</ele>
        <time>2021-11-10T16:29:44.935Z</time>
      </trkpt>
      <trkpt lat="47.76786" lon="-3.31468">
        <ele>27.720548</ele>
        <time>2021-11-10T16:29:45.164Z</time>
      </trkpt>
      <trkpt lat="47.76774" lon="-3.3148">
        <ele>27.570958</ele>
        <time>2021-11-10T16:29:47.396Z</time>
      </trkpt>
      <trkpt lat="47.76765" lon="-3.31477">
        <ele>27.480726</ele>
        <time>2021-11-10T16:29:48.882Z</time>
      </trkpt>
      <trkpt lat="47.76757" lon="-3.31463">
        <ele>27.348045</ele>
        <time>2021-11-10T16:29:50.886Z</time>
      </trkpt>
      <trkpt lat="47.76748" lon="-3.31468">
        <ele>27.257345</ele>
        <time>2021-11-10T16:29:52.296Z</time>
      </trkpt>
      <trkpt lat="47.76733" lon="-3.31478">
        <ele>27.171775</ele>
        <time>2021-11-10T16:29:55.155Z</time>
      </trkpt>
      <trkpt lat="47.7673" lon="-3.3148">
        <ele>27.211431</ele>
        <time>2021-11-10T16:29:55.919Z</time>
      </trkpt>
      <trkpt lat="47.76706" lon="-3.31503">
        <ele>27.490255</ele>
        <time>2021-11-10T16:30:01.506Z</time>
      </trkpt>
      <trkpt lat="47.76654" lon="-3.31562">
        <ele>28.129185</ele>
        <time>2021-11-10T16:30:16.945Z</time>
      </trkpt>
      <trkpt lat="47.76639" lon="-3.31579">
        <ele>28.318772</ele>
        <time>2021-11-10T16:30:22.097Z</time>
      </trkpt>
      <trkpt lat="47.766" lon="-3.31621">
        <ele>28.789776</ele>
        <time>2021-11-10T16:30:33.292Z</time>
      </trkpt>
      <trkpt lat="47.76592" lon="-3.31606">
        <ele>28.889235</ele>
        <time>2021-11-10T16:30:36.395Z</time>
      </trkpt>
      <trkpt lat="47.76545" lon="-3.31523">
        <ele>28.573629</ele>
        <time>2021-11-10T16:30:51.308Z</time>
      </trkpt>
      <trkpt lat="47.76527" lon="-3.3149">
        <ele>28.447719</ele>
        <time>2021-11-10T16:30:56.449Z</time>
      </trkpt>
      <trkpt lat="47.76521" lon="-3.31466">
        <ele>28.37346</ele>
        <time>2021-11-10T16:30:59.512Z</time>
      </trkpt>
      <trkpt lat="47.76533" lon="-3.31319">
        <ele>27.359122</ele>
        <time>2021-11-10T16:31:14.869Z</time>
      </trkpt>
      <trkpt lat="47.76538" lon="-3.31253">
        <ele>26.521817</ele>
        <time>2021-11-10T16:31:21.662Z</time>
      </trkpt>
      <trkpt lat="47.76541" lon="-3.31221">
        <ele>26.122788</ele>
        <time>2021-11-10T16:31:24.854Z</time>
      </trkpt>
      <trkpt lat="47.76536" lon="-3.31205">
        <ele>25.899739</ele>
        <time>2021-11-10T16:31:26.794Z</time>
      </trkpt>
      <trkpt lat="47.76497" lon="-3.31166">
        <ele>25.025732</ele>
        <time>2021-11-10T16:31:34.015Z</time>
      </trkpt>
      <trkpt lat="47.76541" lon="-3.31102">
        <ele>24.345548</ele>
        <time>2021-11-10T16:31:43.697Z</time>
      </trkpt>
      <trkpt lat="47.76608" lon="-3.31009">
        <ele>23.537834</ele>
        <time>2021-11-10T16:31:58.336Z</time>
      </trkpt>
      <trkpt lat="47.76635" lon="-3.30971">
        <ele>23.211706</ele>
        <time>2021-11-10T16:32:04.839Z</time>
      </trkpt>
      <trkpt lat="47.76642" lon="-3.30954">
        <ele>23.141936</ele>
        <time>2021-11-10T16:32:07.117Z</time>
      </trkpt>
      <trkpt lat="47.76644" lon="-3.30919">
        <ele>23.053681</ele>
        <time>2021-11-10T16:32:11.108Z</time>
      </trkpt>
      <trkpt lat="47.76632" lon="-3.30852">
        <ele>22.87829</ele>
        <time>2021-11-10T16:32:19.392Z</time>
      </trkpt>
      <trkpt lat="47.76618" lon="-3.3067">
        <ele>21.712398</ele>
        <time>2021-11-10T16:32:40.995Z</time>
      </trkpt>
      <trkpt lat="47.76618" lon="-3.30656">
        <ele>21.378785</ele>
        <time>2021-11-10T16:32:42.408Z</time>
      </trkpt>
      <trkpt lat="47.76624" lon="-3.30645">
        <ele>21.065027</ele>
        <time>2021-11-10T16:32:43.701Z</time>
      </trkpt>
      <trkpt lat="47.76624" lon="-3.30603">
        <ele>20.079349</ele>
        <time>2021-11-10T16:32:50.441Z</time>
      </trkpt>
      <trkpt lat="47.76609" lon="-3.30536">
        <ele>18.458561</ele>
        <time>2021-11-10T16:32:56.379Z</time>
      </trkpt>
      <trkpt lat="47.76569" lon="-3.30397">
        <ele>15.719842</ele>
        <time>2021-11-10T16:33:09.768Z</time>
      </trkpt>
      <trkpt lat="47.76559" lon="-3.3037">
        <ele>15.404893</ele>
        <time>2021-11-10T16:33:12.569Z</time>
      </trkpt>
      <trkpt lat="47.76507" lon="-3.30231">
        <ele>13.804725</ele>
        <time>2021-11-10T16:33:29.357Z</time>
      </trkpt>
      <trkpt lat="47.76485" lon="-3.30173">
        <ele>14.921156</ele>
        <time>2021-11-10T16:33:46.197Z</time>
      </trkpt>
      <trkpt lat="47.76442" lon="-3.30058">
        <ele>18.531177</ele>
        <time>2021-11-10T16:34:21.872Z</time>
      </trkpt>
      <trkpt lat="47.76435" lon="-3.30038">
        <ele>19.155076</ele>
        <time>2021-11-10T16:34:27.892Z</time>
      </trkpt>
      <trkpt lat="47.76407" lon="-3.29958">
        <ele>21.056764</ele>
        <time>2021-11-10T16:34:48.476Z</time>
      </trkpt>
      <trkpt lat="47.7643" lon="-3.30018">
        <ele>21.278262</ele>
        <time>2021-11-10T16:35:01.496Z</time>
      </trkpt>
      <trkpt lat="47.76415" lon="-3.30029">
        <ele>21.356157</ele>
        <time>2021-11-10T16:35:04.968Z</time>
      </trkpt>
      <trkpt lat="47.76399" lon="-3.3003">
        <ele>21.434148</ele>
        <time>2021-11-10T16:35:09.218Z</time>
      </trkpt>
      <trkpt lat="47.76389" lon="-3.30023">
        <ele>21.487935</ele>
        <time>2021-11-10T16:35:11.296Z</time>
      </trkpt>
      <trkpt lat="47.76372" lon="-3.29965">
        <ele>21.690115</ele>
        <time>2021-11-10T16:35:18.144Z</time>
      </trkpt>
      <trkpt lat="47.7634" lon="-3.29982">
        <ele>21.729988</ele>
        <time>2021-11-10T16:35:23.079Z</time>
      </trkpt>
      <trkpt lat="47.7632" lon="-3.30002">
        <ele>20.941205</ele>
        <time>2021-11-10T16:35:26.409Z</time>
      </trkpt>
      <trkpt lat="47.76245" lon="-3.30104">
        <ele>17.509532</ele>
        <time>2021-11-10T16:35:40.993Z</time>
      </trkpt>
      <trkpt lat="47.76223" lon="-3.30129">
        <ele>16.588753</ele>
        <time>2021-11-10T16:35:44.669Z</time>
      </trkpt>
      <trkpt lat="47.76213" lon="-3.30131">
        <ele>16.251968</ele>
        <time>2021-11-10T16:35:45.985Z</time>
      </trkpt>
      <trkpt lat="47.76129" lon="-3.30075">
        <ele>14.864777</ele>
        <time>2021-11-10T16:35:59.129Z</time>
      </trkpt>
      <trkpt lat="47.76123" lon="-3.30019">
        <ele>14.423521</ele>
        <time>2021-11-10T16:36:05.374Z</time>
      </trkpt>
      <trkpt lat="47.76142" lon="-3.29955">
        <ele>13.868623</ele>
        <time>2021-11-10T16:36:14.508Z</time>
      </trkpt>
      <trkpt lat="47.76144" lon="-3.2995">
        <ele>13.821501</ele>
        <time>2021-11-10T16:36:15.420Z</time>
      </trkpt>
      <trkpt lat="47.76244" lon="-3.29754">
        <ele>18.708356</ele>
        <time>2021-11-10T16:37:08.402Z</time>
      </trkpt>
      <trkpt lat="47.76231" lon="-3.29658">
        <ele>20.846116</ele>
        <time>2021-11-10T16:37:32.764Z</time>
      </trkpt>
      <trkpt lat="47.7617" lon="-3.29588">
        <ele>23.322205</ele>
        <time>2021-11-10T16:37:58.167Z</time>
      </trkpt>
      <trkpt lat="47.76042" lon="-3.29504">
        <ele>26.615443</ele>
        <time>2021-11-10T16:38:35.855Z</time>
      </trkpt>
      <trkpt lat="47.76039" lon="-3.29497">
        <ele>26.700852</ele>
        <time>2021-11-10T16:38:37.369Z</time>
      </trkpt>
      <trkpt lat="47.76013" lon="-3.29504">
        <ele>27.118802</ele>
        <time>2021-11-10T16:38:43.316Z</time>
      </trkpt>
      <trkpt lat="47.75978" lon="-3.2952">
        <ele>27.692794</ele>
        <time>2021-11-10T16:38:51.695Z</time>
      </trkpt>
      <trkpt lat="47.7596" lon="-3.29571">
        <ele>28.298627</ele>
        <time>2021-11-10T16:39:00.785Z</time>
      </trkpt>
      <trkpt lat="47.75957" lon="-3.29574">
        <ele>28.328729</ele>
        <time>2021-11-10T16:39:01.757Z</time>
      </trkpt>
      <trkpt lat="47.75943" lon="-3.29584">
        <ele>28.465914</ele>
        <time>2021-11-10T16:39:05.243Z</time>
      </trkpt>
      <trkpt lat="47.75914" lon="-3.29571">
        <ele>28.737088</ele>
        <time>2021-11-10T16:39:15.536Z</time>
      </trkpt>
      <trkpt lat="47.75866" lon="-3.29565">
        <ele>29.166572</ele>
        <time>2021-11-10T16:39:31.651Z</time>
      </trkpt>
      <trkpt lat="47.75791" lon="-3.29567">
        <ele>29.838257</ele>
        <time>2021-11-10T16:39:56.624Z</time>
      </trkpt>
      <trkpt lat="47.75723" lon="-3.29583">
        <ele>29.932133</ele>
        <time>2021-11-10T16:40:17.727Z</time>
      </trkpt>
      <trkpt lat="47.75588" lon="-3.29618">
        <ele>30.019565</ele>
        <time>2021-11-10T16:40:57.839Z</time>
      </trkpt>
      <trkpt lat="47.75382" lon="-3.2957">
        <ele>30.18266</ele>
        <time>2021-11-10T16:41:59.098Z</time>
      </trkpt>
      <trkpt lat="47.75284" lon="-3.29605">
        <ele>30.790848</ele>
        <time>2021-11-10T16:42:31.972Z</time>
      </trkpt>
      <trkpt lat="47.75274" lon="-3.29575">
        <ele>30.926581</ele>
        <time>2021-11-10T16:42:37.391Z</time>
      </trkpt>
      <trkpt lat="47.75272" lon="-3.29536">
        <ele>31.203247</ele>
        <time>2021-11-10T16:42:43.637Z</time>
      </trkpt>
      <trkpt lat="47.7527" lon="-3.29487">
        <ele>31.604456</ele>
        <time>2021-11-10T16:42:51.569Z</time>
      </trkpt>
      <trkpt lat="47.75271" lon="-3.29458">
        <ele>31.840586</ele>
        <time>2021-11-10T16:42:56.161Z</time>
      </trkpt>
      <trkpt lat="47.75259" lon="-3.29433">
        <ele>32.088099</ele>
        <time>2021-11-10T16:43:00.885Z</time>
      </trkpt>
      <trkpt lat="47.75223" lon="-3.2939">
        <ele>32.641533</ele>
        <time>2021-11-10T16:43:11.426Z</time>
      </trkpt>
      <trkpt lat="47.75218" lon="-3.29346">
        <ele>33.006562</ele>
        <time>2021-11-10T16:43:18.503Z</time>
      </trkpt>
      <trkpt lat="47.75212" lon="-3.29203">
        <ele>33.849068</ele>
        <time>2021-11-10T16:43:41.085Z</time>
      </trkpt>
      <trkpt lat="47.75205" lon="-3.29204">
        <ele>33.909437</ele>
        <time>2021-11-10T16:43:42.521Z</time>
      </trkpt>
      <trkpt lat="47.75188" lon="-3.29202">
        <ele>34.044727</ele>
        <time>2021-11-10T16:43:46.167Z</time>
      </trkpt>
      <trkpt lat="47.75181" lon="-3.29115">
        <ele>34.533596</ele>
        <time>2021-11-10T16:43:57.528Z</time>
      </trkpt>
      <trkpt lat="47.75175" lon="-3.29089">
        <ele>34.631022</ele>
        <time>2021-11-10T16:44:01.581Z</time>
      </trkpt>
      <trkpt lat="47.75157" lon="-3.29049">
        <ele>34.611267</ele>
        <time>2021-11-10T16:44:08.440Z</time>
      </trkpt>
      <trkpt lat="47.75148" lon="-3.29023">
        <ele>34.599755</ele>
        <time>2021-11-10T16:44:12.336Z</time>
      </trkpt>
      <trkpt lat="47.75151" lon="-3.28995">
        <ele>34.587878</ele>
        <time>2021-11-10T16:44:16.706Z</time>
      </trkpt>
      <trkpt lat="47.75147" lon="-3.28953">
        <ele>34.57061</ele>
        <time>2021-11-10T16:44:22.290Z</time>
      </trkpt>
      <trkpt lat="47.75155" lon="-3.28932">
        <ele>34.560862</ele>
        <time>2021-11-10T16:44:25.237Z</time>
      </trkpt>
      <trkpt lat="47.75151" lon="-3.28881">
        <ele>34.539852</ele>
        <time>2021-11-10T16:44:31.155Z</time>
      </trkpt>
      <trkpt lat="47.75151" lon="-3.28881">
        <ele>34.539852</ele>
        <time>2021-11-10T16:44:31.179Z</time>
      </trkpt>
      <trkpt lat="47.75133" lon="-3.28814">
        <ele>34.043136</ele>
        <time>2021-11-10T16:44:39.060Z</time>
      </trkpt>
      <trkpt lat="47.75127" lon="-3.28754">
        <ele>33.272617</ele>
        <time>2021-11-10T16:44:45.591Z</time>
      </trkpt>
      <trkpt lat="47.75106" lon="-3.28751">
        <ele>32.878363</ele>
        <time>2021-11-10T16:44:48.912Z</time>
      </trkpt>
      <trkpt lat="47.75081" lon="-3.28759">
        <ele>32.406458</ele>
        <time>2021-11-10T16:44:52.775Z</time>
      </trkpt>
      <trkpt lat="47.74788" lon="-3.28747">
        <ele>26.073454</ele>
        <time>2021-11-10T16:46:07.543Z</time>
      </trkpt>
      <trkpt lat="47.74571" lon="-3.28638">
        <ele>23.35374</ele>
        <time>2021-11-10T16:47:09.660Z</time>
      </trkpt>
      <trkpt lat="47.74419" lon="-3.28561">
        <ele>23.743708</ele>
        <time>2021-11-10T16:47:57.313Z</time>
      </trkpt>
      <trkpt lat="47.74415" lon="-3.28778">
        <ele>26.182252</ele>
        <time>2021-11-10T16:48:52.476Z</time>
      </trkpt>
      <trkpt lat="47.74414" lon="-3.28818">
        <ele>26.926098</ele>
        <time>2021-11-10T16:49:01.078Z</time>
      </trkpt>
      <trkpt lat="47.74411" lon="-3.29047">
        <ele>31.108314</ele>
        <time>2021-11-10T16:49:48.305Z</time>
      </trkpt>
      <trkpt lat="47.74419" lon="-3.29192">
        <ele>33.638026</ele>
        <time>2021-11-10T16:50:17.016Z</time>
      </trkpt>
      <trkpt lat="47.74435" lon="-3.29461">
        <ele>36.962555</ele>
        <time>2021-11-10T16:51:04.137Z</time>
      </trkpt>
      <trkpt lat="47.74427" lon="-3.29578">
        <ele>37.604595</ele>
        <time>2021-11-10T16:51:21.711Z</time>
      </trkpt>
      <trkpt lat="47.74387" lon="-3.29579">
        <ele>37.649539</ele>
        <time>2021-11-10T16:51:29.628Z</time>
      </trkpt>
      <trkpt lat="47.74345" lon="-3.2957">
        <ele>37.697417</ele>
        <time>2021-11-10T16:51:37.378Z</time>
      </trkpt>
      <trkpt lat="47.74329" lon="-3.29567">
        <ele>37.715701</ele>
        <time>2021-11-10T16:51:40.222Z</time>
      </trkpt>
      <trkpt lat="47.74242" lon="-3.2953">
        <ele>37.233508</ele>
        <time>2021-11-10T16:51:54.938Z</time>
      </trkpt>
      <trkpt lat="47.74191" lon="-3.29514">
        <ele>36.695558</ele>
        <time>2021-11-10T16:52:03.306Z</time>
      </trkpt>
      <trkpt lat="47.74155" lon="-3.29522">
        <ele>36.326568</ele>
        <time>2021-11-10T16:52:09.000Z</time>
      </trkpt>
      <trkpt lat="47.74151" lon="-3.29523">
        <ele>36.280913</ele>
        <time>2021-11-10T16:52:09.694Z</time>
      </trkpt>
      <trkpt lat="47.74025" lon="-3.29547">
        <ele>34.356208</ele>
        <time>2021-11-10T16:52:29.221Z</time>
      </trkpt>
      <trkpt lat="47.7399" lon="-3.2955">
        <ele>33.755425</ele>
        <time>2021-11-10T16:52:34.490Z</time>
      </trkpt>
      <trkpt lat="47.73979" lon="-3.29545">
        <ele>33.562247</ele>
        <time>2021-11-10T16:52:36.150Z</time>
      </trkpt>
      <trkpt lat="47.73983" lon="-3.29624">
        <ele>32.509771</ele>
        <time>2021-11-10T16:52:43.881Z</time>
      </trkpt>
      <trkpt lat="47.73979" lon="-3.29676">
        <ele>31.438695</ele>
        <time>2021-11-10T16:52:48.828Z</time>
      </trkpt>
      <trkpt lat="47.73957" lon="-3.29828">
        <ele>28.264769</ele>
        <time>2021-11-10T16:53:02.931Z</time>
      </trkpt>
      <trkpt lat="47.73966" lon="-3.29992">
        <ele>25.746557</ele>
        <time>2021-11-10T16:53:18.199Z</time>
      </trkpt>
      <trkpt lat="47.7386" lon="-3.29985">
        <ele>23.803141</ele>
        <time>2021-11-10T16:53:46.716Z</time>
      </trkpt>
      <trkpt lat="47.73834" lon="-3.29984">
        <ele>23.898032</ele>
        <time>2021-11-10T16:53:54.303Z</time>
      </trkpt>
      <trkpt lat="47.73701" lon="-3.30003">
        <ele>24.390318</ele>
        <time>2021-11-10T16:54:38.101Z</time>
      </trkpt>
      <trkpt lat="47.73638" lon="-3.29994">
        <ele>24.41393</ele>
        <time>2021-11-10T16:54:58.583Z</time>
      </trkpt>
      <trkpt lat="47.73615" lon="-3.29991">
        <ele>24.402697</ele>
        <time>2021-11-10T16:55:03.155Z</time>
      </trkpt>
      <trkpt lat="47.73571" lon="-3.29985">
        <ele>24.382053</ele>
        <time>2021-11-10T16:55:11.038Z</time>
      </trkpt>
      <trkpt lat="47.73512" lon="-3.29982">
        <ele>24.354551</ele>
        <time>2021-11-10T16:55:20.882Z</time>
      </trkpt>
      <trkpt lat="47.73404" lon="-3.30055">
        <ele>22.579694</ele>
        <time>2021-11-10T16:55:52.686Z</time>
      </trkpt>
      <trkpt lat="47.73157" lon="-3.30276">
        <ele>17.623392</ele>
        <time>2021-11-10T16:57:07.685Z</time>
      </trkpt>
      <trkpt lat="47.73066" lon="-3.30365">
        <ele>16.539</ele>
        <time>2021-11-10T16:57:38.149Z</time>
      </trkpt>
      <trkpt lat="47.72954" lon="-3.30482">
        <ele>15.834012</ele>
        <time>2021-11-10T16:58:17.775Z</time>
      </trkpt>
      <trkpt lat="47.72928" lon="-3.30509">
        <ele>15.706532</ele>
        <time>2021-11-10T16:58:26.978Z</time>
      </trkpt>
      <trkpt lat="47.72851" lon="-3.30648">
        <ele>15.469222</ele>
        <time>2021-11-10T16:59:01.676Z</time>
      </trkpt>
      <trkpt lat="47.72672" lon="-3.31089">
        <ele>16.007075</ele>
        <time>2021-11-10T17:00:46.568Z</time>
      </trkpt>
      <trkpt lat="47.72643" lon="-3.31166">
        <ele>16.282053</ele>
        <time>2021-11-10T17:01:06.009Z</time>
      </trkpt>
      <trkpt lat="47.72551" lon="-3.31415">
        <ele>17.121456</ele>
        <time>2021-11-10T17:02:07.290Z</time>
      </trkpt>
      <trkpt lat="47.72467" lon="-3.31714">
        <ele>16.826532</ele>
        <time>2021-11-10T17:03:11.305Z</time>
      </trkpt>
      <trkpt lat="47.72459" lon="-3.31741">
        <ele>16.582764</ele>
        <time>2021-11-10T17:03:16.850Z</time>
      </trkpt>
      <trkpt lat="47.72459" lon="-3.31741">
        <ele>16.582764</ele>
        <time>2021-11-10T17:03:16.883Z</time>
      </trkpt>
      <trkpt lat="47.72459" lon="-3.31741">
        <ele>16.582764</ele>
        <time>2021-11-10T17:03:16.888Z</time>
      </trkpt>
      <trkpt lat="47.72356" lon="-3.3164">
        <ele>14.987611</ele>
        <time>2021-11-10T17:03:36.528Z</time>
      </trkpt>
      <trkpt lat="47.72266" lon="-3.31584">
        <ele>14.236721</ele>
        <time>2021-11-10T17:03:52.147Z</time>
      </trkpt>
      <trkpt lat="47.72201" lon="-3.31211">
        <ele>13.804644</ele>
        <time>2021-11-10T17:04:41.049Z</time>
      </trkpt>
      <trkpt lat="47.72197" lon="-3.31151">
        <ele>13.837049</ele>
        <time>2021-11-10T17:04:48.707Z</time>
      </trkpt>
      <trkpt lat="47.72199" lon="-3.31119">
        <ele>13.796091</ele>
        <time>2021-11-10T17:04:52.735Z</time>
      </trkpt>
      <trkpt lat="47.72194" lon="-3.31016">
        <ele>13.663776</ele>
        <time>2021-11-10T17:05:05.423Z</time>
      </trkpt>
      <trkpt lat="47.72193" lon="-3.31011">
        <ele>13.656746</ele>
        <time>2021-11-10T17:05:06.096Z</time>
      </trkpt>
      <trkpt lat="47.72192" lon="-3.3094">
        <ele>13.565513</ele>
        <time>2021-11-10T17:05:19.919Z</time>
      </trkpt>
      <trkpt lat="47.72199" lon="-3.30866">
        <ele>13.388448</ele>
        <time>2021-11-10T17:05:34.363Z</time>
      </trkpt>
      <trkpt lat="47.72195" lon="-3.30798">
        <ele>13.00554</ele>
        <time>2021-11-10T17:05:47.468Z</time>
      </trkpt>
      <trkpt lat="47.72199" lon="-3.30731">
        <ele>12.630784</ele>
        <time>2021-11-10T17:06:00.132Z</time>
      </trkpt>
      <trkpt lat="47.72148" lon="-3.30681">
        <ele>12.122315</ele>
        <time>2021-11-10T17:06:16.857Z</time>
      </trkpt>
      <trkpt lat="47.72102" lon="-3.3054">
        <ele>11.177223</ele>
        <time>2021-11-10T17:06:45.482Z</time>
      </trkpt>
      <trkpt lat="47.72079" lon="-3.30508">
        <ele>10.889746</ele>
        <time>2021-11-10T17:06:54.209Z</time>
      </trkpt>
      <trkpt lat="47.72039" lon="-3.30503">
        <ele>10.525753</ele>
        <time>2021-11-10T17:07:05.390Z</time>
      </trkpt>
      <trkpt lat="47.72016" lon="-3.30491">
        <ele>10.386275</ele>
        <time>2021-11-10T17:07:12.612Z</time>
      </trkpt>
      <trkpt lat="47.72021" lon="-3.30396">
        <ele>10.619142</ele>
        <time>2021-11-10T17:07:31.598Z</time>
      </trkpt>
      <trkpt lat="47.72022" lon="-3.30378">
        <ele>10.664568</ele>
        <time>2021-11-10T17:07:35.485Z</time>
      </trkpt>
      <trkpt lat="47.72019" lon="-3.30273">
        <ele>10.92221</ele>
        <time>2021-11-10T17:07:58.503Z</time>
      </trkpt>
      <trkpt lat="47.72016" lon="-3.30135">
        <ele>11.613871</ele>
        <time>2021-11-10T17:08:29.879Z</time>
      </trkpt>
      <trkpt lat="47.71986" lon="-3.29928">
        <ele>12.728072</ele>
        <time>2021-11-10T17:09:16.888Z</time>
      </trkpt>
      <trkpt lat="47.71979" lon="-3.2985">
        <ele>12.920432</ele>
        <time>2021-11-10T17:09:33.874Z</time>
      </trkpt>
      <trkpt lat="47.71951" lon="-3.2977">
        <ele>13.137758</ele>
        <time>2021-11-10T17:09:52.455Z</time>
      </trkpt>
      <trkpt lat="47.71976" lon="-3.29708">
        <ele>13.314219</ele>
        <time>2021-11-10T17:10:01.053Z</time>
      </trkpt>
      <trkpt lat="47.71983" lon="-3.29656">
        <ele>13.447169</ele>
        <time>2021-11-10T17:10:11.404Z</time>
      </trkpt>
      <trkpt lat="47.72019" lon="-3.29527">
        <ele>13.796791</ele>
        <time>2021-11-10T17:10:40.194Z</time>
      </trkpt>
      <trkpt lat="47.72027" lon="-3.29497">
        <ele>13.878495</ele>
        <time>2021-11-10T17:10:47.645Z</time>
      </trkpt>
      <trkpt lat="47.72041" lon="-3.2943">
        <ele>14.21035</ele>
        <time>2021-11-10T17:11:03.684Z</time>
      </trkpt>
      <trkpt lat="47.72041" lon="-3.29376">
        <ele>14.52868</ele>
        <time>2021-11-10T17:11:15.927Z</time>
      </trkpt>
      <trkpt lat="47.72058" lon="-3.29309">
        <ele>14.950414</ele>
        <time>2021-11-10T17:11:32.041Z</time>
      </trkpt>
      <trkpt lat="47.72063" lon="-3.29218">
        <ele>15.490889</ele>
        <time>2021-11-10T17:11:52.289Z</time>
      </trkpt>
      <trkpt lat="47.72075" lon="-3.29172">
        <ele>15.740727</ele>
        <time>2021-11-10T17:12:03.063Z</time>
      </trkpt>
      <trkpt lat="47.72093" lon="-3.2913">
        <ele>15.991532</ele>
        <time>2021-11-10T17:12:13.973Z</time>
      </trkpt>
      <trkpt lat="47.72193" lon="-3.29028">
        <ele>16.947375</ele>
        <time>2021-11-10T17:12:53.163Z</time>
      </trkpt>
      <trkpt lat="47.72202" lon="-3.28999">
        <ele>17.310647</ele>
        <time>2021-11-10T17:13:00.430Z</time>
      </trkpt>
      <trkpt lat="47.72202" lon="-3.28992">
        <ele>17.393895</ele>
        <time>2021-11-10T17:13:02.091Z</time>
      </trkpt>
      <trkpt lat="47.72217" lon="-3.2893">
        <ele>18.136525</ele>
        <time>2021-11-10T17:13:17.059Z</time>
      </trkpt>
      <trkpt lat="47.72228" lon="-3.2885">
        <ele>19.053942</ele>
        <time>2021-11-10T17:13:36.982Z</time>
      </trkpt>
      <trkpt lat="47.72178" lon="-3.28874">
        <ele>19.977418</ele>
        <time>2021-11-10T17:13:57.845Z</time>
      </trkpt>
      <trkpt lat="47.72154" lon="-3.28872">
        <ele>20.598676</ele>
        <time>2021-11-10T17:14:08.318Z</time>
      </trkpt>
      <trkpt lat="47.72128" lon="-3.28869">
        <ele>21.248397</ele>
        <time>2021-11-10T17:14:18.530Z</time>
      </trkpt>
      <trkpt lat="47.72108" lon="-3.28861">
        <ele>21.792054</ele>
        <time>2021-11-10T17:14:27.418Z</time>
      </trkpt>
      <trkpt lat="47.72097" lon="-3.28928">
        <ele>22.996031</ele>
        <time>2021-11-10T17:14:45.977Z</time>
      </trkpt>
      <trkpt lat="47.72092" lon="-3.28938">
        <ele>23.212898</ele>
        <time>2021-11-10T17:14:49.627Z</time>
      </trkpt>
      <trkpt lat="47.72078" lon="-3.28964">
        <ele>23.794256</ele>
        <time>2021-11-10T17:14:58.195Z</time>
      </trkpt>
      <trkpt lat="47.72057" lon="-3.28971">
        <ele>24.339518</ele>
        <time>2021-11-10T17:15:06.916Z</time>
      </trkpt>
      <trkpt lat="47.72043" lon="-3.28986">
        <ele>24.634196</ele>
        <time>2021-11-10T17:15:13.072Z</time>
      </trkpt>
      <trkpt lat="47.72022" lon="-3.28989">
        <ele>24.858268</ele>
        <time>2021-11-10T17:15:21.802Z</time>
      </trkpt>
      <trkpt lat="47.71982" lon="-3.29023">
        <ele>25.338176</ele>
        <time>2021-11-10T17:15:38.360Z</time>
      </trkpt>
      <trkpt lat="47.71962" lon="-3.29047">
        <ele>25.612251</ele>
        <time>2021-11-10T17:15:47.931Z</time>
      </trkpt>
      <trkpt lat="47.71909" lon="-3.29069">
        <ele>26.192043</ele>
        <time>2021-11-10T17:16:04.893Z</time>
      </trkpt>
      <trkpt lat="47.71868" lon="-3.29087">
        <ele>26.272321</ele>
        <time>2021-11-10T17:16:16.945Z</time>
      </trkpt>
      <trkpt lat="47.71813" lon="-3.29098">
        <ele>25.878291</ele>
        <time>2021-11-10T17:16:32.077Z</time>
      </trkpt>
      <trkpt lat="47.7178" lon="-3.29096">
        <ele>25.641022</ele>
        <time>2021-11-10T17:16:41.159Z</time>
      </trkpt>
      <trkpt lat="47.71751" lon="-3.29103">
        <ele>25.422937</ele>
        <time>2021-11-10T17:16:49.537Z</time>
      </trkpt>
      <trkpt lat="47.71669" lon="-3.29096">
        <ele>25.453846</ele>
        <time>2021-11-10T17:17:03.268Z</time>
      </trkpt>
      <trkpt lat="47.71572" lon="-3.29104">
        <ele>26.20728</ele>
        <time>2021-11-10T17:17:23.693Z</time>
      </trkpt>
      <trkpt lat="47.71571" lon="-3.29022">
        <ele>26.813605</ele>
        <time>2021-11-10T17:17:37.355Z</time>
      </trkpt>
      <trkpt lat="47.71581" lon="-3.28971">
        <ele>27.575999</ele>
        <time>2021-11-10T17:17:47.081Z</time>
      </trkpt>
      <trkpt lat="47.71565" lon="-3.28906">
        <ele>28.567265</ele>
        <time>2021-11-10T17:17:59.731Z</time>
      </trkpt>
      <trkpt lat="47.71564" lon="-3.28899">
        <ele>28.668897</ele>
        <time>2021-11-10T17:18:01.233Z</time>
      </trkpt>
      <trkpt lat="47.71563" lon="-3.28819">
        <ele>29.814186</ele>
        <time>2021-11-10T17:18:15.675Z</time>
      </trkpt>
      <trkpt lat="47.71559" lon="-3.28769">
        <ele>30.483938</ele>
        <time>2021-11-10T17:18:28.261Z</time>
      </trkpt>
      <trkpt lat="47.71549" lon="-3.28743">
        <ele>30.789853</ele>
        <time>2021-11-10T17:18:35.769Z</time>
      </trkpt>
      <trkpt lat="47.715" lon="-3.28664">
        <ele>31.894653</ele>
        <time>2021-11-10T17:19:02.338Z</time>
      </trkpt>
      <trkpt lat="47.71538" lon="-3.28587">
        <ele>32.879651</ele>
        <time>2021-11-10T17:19:25.048Z</time>
      </trkpt>
      <trkpt lat="47.71538" lon="-3.28557">
        <ele>33.116144</ele>
        <time>2021-11-10T17:19:31.747Z</time>
      </trkpt>
      <trkpt lat="47.7155" lon="-3.28517">
        <ele>33.153002</ele>
        <time>2021-11-10T17:19:41.418Z</time>
      </trkpt>
      <trkpt lat="47.71567" lon="-3.2848">
        <ele>33.190258</ele>
        <time>2021-11-10T17:19:50.941Z</time>
      </trkpt>
      <trkpt lat="47.71551" lon="-3.28457">
        <ele>33.218714</ele>
        <time>2021-11-10T17:19:57.926Z</time>
      </trkpt>
      <trkpt lat="47.71557" lon="-3.28442">
        <ele>33.233488</ele>
        <time>2021-11-10T17:20:01.534Z</time>
      </trkpt>
      <trkpt lat="47.71573" lon="-3.28403">
        <ele>33.272228</ele>
        <time>2021-11-10T17:20:10.720Z</time>
      </trkpt>
      <trkpt lat="47.71605" lon="-3.28349">
        <ele>33.332253</ele>
        <time>2021-11-10T17:20:24.564Z</time>
      </trkpt>
      <trkpt lat="47.71603" lon="-3.28291">
        <ele>32.80859</ele>
        <time>2021-11-10T17:20:35.207Z</time>
      </trkpt>
      <trkpt lat="47.71562" lon="-3.28224">
        <ele>31.952104</ele>
        <time>2021-11-10T17:20:51.392Z</time>
      </trkpt>
      <trkpt lat="47.71515" lon="-3.28186">
        <ele>31.214235</ele>
        <time>2021-11-10T17:21:05.540Z</time>
      </trkpt>
      <trkpt lat="47.71512" lon="-3.2817">
        <ele>31.047812</ele>
        <time>2021-11-10T17:21:08.589Z</time>
      </trkpt>
      <trkpt lat="47.7152" lon="-3.28141">
        <ele>30.759004</ele>
        <time>2021-11-10T17:21:14.274Z</time>
      </trkpt>
      <trkpt lat="47.71563" lon="-3.28118">
        <ele>30.156659</ele>
        <time>2021-11-10T17:21:26.480Z</time>
      </trkpt>
      <trkpt lat="47.71584" lon="-3.2808">
        <ele>29.710976</ele>
        <time>2021-11-10T17:21:35.517Z</time>
      </trkpt>
      <trkpt lat="47.71608" lon="-3.28051">
        <ele>29.297346</ele>
        <time>2021-11-10T17:21:43.937Z</time>
      </trkpt>
      <trkpt lat="47.71627" lon="-3.28011">
        <ele>28.859989</ele>
        <time>2021-11-10T17:21:52.767Z</time>
      </trkpt>
      <trkpt lat="47.7165" lon="-3.2799">
        <ele>28.503833</ele>
        <time>2021-11-10T17:22:00.240Z</time>
      </trkpt>
      <trkpt lat="47.7166" lon="-3.27963">
        <ele>28.311583</ele>
        <time>2021-11-10T17:22:06.000Z</time>
      </trkpt>
      <trkpt lat="47.7166" lon="-3.27963">
        <ele>28.311583</ele>
        <time>2021-11-10T17:22:06.034Z</time>
      </trkpt>
      <trkpt lat="47.7166" lon="-3.27963">
        <ele>28.311583</ele>
        <time>2021-11-10T17:22:06.037Z</time>
      </trkpt>
      <trkpt lat="47.71531" lon="-3.27912">
        <ele>27.249527</ele>
        <time>2021-11-10T17:22:27.679Z</time>
      </trkpt>
      <trkpt lat="47.71447" lon="-3.27962">
        <ele>26.711454</ele>
        <time>2021-11-10T17:22:53.664Z</time>
      </trkpt>
      <trkpt lat="47.71375" lon="-3.28022">
        <ele>26.305616</ele>
        <time>2021-11-10T17:23:17.427Z</time>
      </trkpt>
      <trkpt lat="47.71346" lon="-3.2812">
        <ele>25.601124</ele>
        <time>2021-11-10T17:23:37.685Z</time>
      </trkpt>
      <trkpt lat="47.7132" lon="-3.28255">
        <ele>24.1819</ele>
        <time>2021-11-10T17:24:02.859Z</time>
      </trkpt>
      <trkpt lat="47.71281" lon="-3.28266">
        <ele>23.584753</ele>
        <time>2021-11-10T17:24:13.277Z</time>
      </trkpt>
      <trkpt lat="47.71256" lon="-3.28297">
        <ele>23.073136</ele>
        <time>2021-11-10T17:24:21.778Z</time>
      </trkpt>
      <trkpt lat="47.71238" lon="-3.28291">
        <ele>22.791539</ele>
        <time>2021-11-10T17:24:26.381Z</time>
      </trkpt>
      <trkpt lat="47.7117" lon="-3.28292">
        <ele>21.716962</ele>
        <time>2021-11-10T17:24:44.408Z</time>
      </trkpt>
      <trkpt lat="47.71155" lon="-3.28287">
        <ele>21.474174</ele>
        <time>2021-11-10T17:24:48.500Z</time>
      </trkpt>
      <trkpt lat="47.7113" lon="-3.28264">
        <ele>21.01047</ele>
        <time>2021-11-10T17:24:56.292Z</time>
      </trkpt>
      <trkpt lat="47.71004" lon="-3.28225">
        <ele>19.80831</ele>
        <time>2021-11-10T17:25:32.517Z</time>
      </trkpt>
      <trkpt lat="47.70981" lon="-3.28218">
        <ele>19.630868</ele>
        <time>2021-11-10T17:25:39.142Z</time>
      </trkpt>
      <trkpt lat="47.70959" lon="-3.28089">
        <ele>18.88775</ele>
        <time>2021-11-10T17:25:54.061Z</time>
      </trkpt>
      <trkpt lat="47.70899" lon="-3.27799">
        <ele>16.964763</ele>
        <time>2021-11-10T17:26:26.315Z</time>
      </trkpt>
      <trkpt lat="47.70858" lon="-3.27814">
        <ele>16.562502</ele>
        <time>2021-11-10T17:26:33.110Z</time>
      </trkpt>
      <trkpt lat="47.7076" lon="-3.27822">
        <ele>15.887967</ele>
        <time>2021-11-10T17:26:49.754Z</time>
      </trkpt>
      <trkpt lat="47.70742" lon="-3.2782">
        <ele>15.954804</ele>
        <time>2021-11-10T17:26:53.172Z</time>
      </trkpt>
      <trkpt lat="47.70718" lon="-3.27806">
        <ele>16.043802</ele>
        <time>2021-11-10T17:26:57.848Z</time>
      </trkpt>
      <trkpt lat="47.70664" lon="-3.27761">
        <ele>16.264351</ele>
        <time>2021-11-10T17:27:10.514Z</time>
      </trkpt>
      <trkpt lat="47.70647" lon="-3.27756">
        <ele>16.324019</ele>
        <time>2021-11-10T17:27:14.213Z</time>
      </trkpt>
      <trkpt lat="47.70568" lon="-3.27779">
        <ele>16.728636</ele>
        <time>2021-11-10T17:27:33.274Z</time>
      </trkpt>
      <trkpt lat="47.70546" lon="-3.2778">
        <ele>16.861112</ele>
        <time>2021-11-10T17:27:38.450Z</time>
      </trkpt>
      <trkpt lat="47.70475" lon="-3.27754">
        <ele>17.312899</ele>
        <time>2021-11-10T17:27:54.511Z</time>
      </trkpt>
      <trkpt lat="47.70388" lon="-3.27749">
        <ele>17.000594</ele>
        <time>2021-11-10T17:28:09.853Z</time>
      </trkpt>
      <trkpt lat="47.70404" lon="-3.28015">
        <ele>15.496627</ele>
        <time>2021-11-10T17:28:57.569Z</time>
      </trkpt>
      <trkpt lat="47.70349" lon="-3.28198">
        <ele>15.813541</ele>
        <time>2021-11-10T17:29:40.439Z</time>
      </trkpt>
      <trkpt lat="47.7029" lon="-3.28227">
        <ele>17.116935</ele>
        <time>2021-11-10T17:30:06.081Z</time>
      </trkpt>
      <trkpt lat="47.70183" lon="-3.2828">
        <ele>19.482544</ele>
        <time>2021-11-10T17:30:51.190Z</time>
      </trkpt>
      <trkpt lat="47.70128" lon="-3.28307">
        <ele>18.88021</ele>
        <time>2021-11-10T17:31:09.985Z</time>
      </trkpt>
      <trkpt lat="47.70134" lon="-3.28323">
        <ele>18.731634</ele>
        <time>2021-11-10T17:31:12.306Z</time>
      </trkpt>
      <trkpt lat="47.70156" lon="-3.28382">
        <ele>18.188959</ele>
        <time>2021-11-10T17:31:19.763Z</time>
      </trkpt>
      <trkpt lat="47.70201" lon="-3.28652">
        <ele>12.996566</ele>
        <time>2021-11-10T17:31:46.031Z</time>
      </trkpt>
      <trkpt lat="47.70107" lon="-3.28699">
        <ele>9.944719</ele>
        <time>2021-11-10T17:32:09.869Z</time>
      </trkpt>
      <trkpt lat="47.70032" lon="-3.28737">
        <ele>8.218286</ele>
        <time>2021-11-10T17:32:30.077Z</time>
      </trkpt>
      <trkpt lat="47.70017" lon="-3.28701">
        <ele>7.601835</ele>
        <time>2021-11-10T17:32:37.717Z</time>
      </trkpt>
      <trkpt lat="47.70009" lon="-3.28698">
        <ele>7.432847</ele>
        <time>2021-11-10T17:32:39.740Z</time>
      </trkpt>
      <trkpt lat="47.69989" lon="-3.28659">
        <ele>6.920687</ele>
        <time>2021-11-10T17:32:49.046Z</time>
      </trkpt>
      <trkpt lat="47.69899" lon="-3.2864">
        <ele>7.36788</ele>
        <time>2021-11-10T17:33:17.348Z</time>
      </trkpt>
      <trkpt lat="47.69882" lon="-3.2863">
        <ele>7.457197</ele>
        <time>2021-11-10T17:33:23.837Z</time>
      </trkpt>
      <trkpt lat="47.69878" lon="-3.28616">
        <ele>7.506094</ele>
        <time>2021-11-10T17:33:27.076Z</time>
      </trkpt>
      <trkpt lat="47.6988" lon="-3.28598">
        <ele>7.564726</ele>
        <time>2021-11-10T17:33:31.099Z</time>
      </trkpt>
      <trkpt lat="47.69872" lon="-3.28573">
        <ele>7.658591</ele>
        <time>2021-11-10T17:33:37.549Z</time>
      </trkpt>
      <trkpt lat="47.69891" lon="-3.28526">
        <ele>8.049294</ele>
        <time>2021-11-10T17:33:49.975Z</time>
      </trkpt>
      <trkpt lat="47.69886" lon="-3.28508">
        <ele>8.287172</ele>
        <time>2021-11-10T17:33:54.282Z</time>
      </trkpt>
      <trkpt lat="47.69881" lon="-3.28496">
        <ele>8.465219</ele>
        <time>2021-11-10T17:33:57.828Z</time>
      </trkpt>
      <trkpt lat="47.69825" lon="-3.2838">
        <ele>10.255361</ele>
        <time>2021-11-10T17:34:33.697Z</time>
      </trkpt>
      <trkpt lat="47.69814" lon="-3.28294">
        <ele>11.332547</ele>
        <time>2021-11-10T17:34:57.115Z</time>
      </trkpt>
      <trkpt lat="47.69925" lon="-3.28237">
        <ele>13.481716</ele>
        <time>2021-11-10T17:35:28.989Z</time>
      </trkpt>
      <trkpt lat="47.69771" lon="-3.27828">
        <ele>16.356765</ele>
        <time>2021-11-10T17:37:13.974Z</time>
      </trkpt>
      <trkpt lat="47.69717" lon="-3.27684">
        <ele>16.503769</ele>
        <time>2021-11-10T17:37:46.399Z</time>
      </trkpt>
      <trkpt lat="47.69622" lon="-3.27434">
        <ele>15.312821</ele>
        <time>2021-11-10T17:38:40.042Z</time>
      </trkpt>
      <trkpt lat="47.69614" lon="-3.27425">
        <ele>15.316839</ele>
        <time>2021-11-10T17:38:42.879Z</time>
      </trkpt>
      <trkpt lat="47.69614" lon="-3.27386">
        <ele>15.327555</ele>
        <time>2021-11-10T17:38:47.570Z</time>
      </trkpt>
      <trkpt lat="47.69599" lon="-3.27304">
        <ele>15.35076</ele>
        <time>2021-11-10T17:38:58.416Z</time>
      </trkpt>
      <trkpt lat="47.6963" lon="-3.27068">
        <ele>16.294957</ele>
        <time>2021-11-10T17:39:33.585Z</time>
      </trkpt>
      <trkpt lat="47.69581" lon="-3.26912">
        <ele>17.194757</ele>
        <time>2021-11-10T17:39:59.709Z</time>
      </trkpt>
      <trkpt lat="47.69561" lon="-3.26707">
        <ele>18.042705</ele>
        <time>2021-11-10T17:40:28.845Z</time>
      </trkpt>
      <trkpt lat="47.69544" lon="-3.26705">
        <ele>17.905322</ele>
        <time>2021-11-10T17:40:32.268Z</time>
      </trkpt>
      <trkpt lat="47.69541" lon="-3.26718">
        <ele>17.831891</ele>
        <time>2021-11-10T17:40:34.070Z</time>
      </trkpt>
      <trkpt lat="47.69462" lon="-3.26773">
        <ele>17.151255</ele>
        <time>2021-11-10T17:40:58.900Z</time>
      </trkpt>
      <trkpt lat="47.69409" lon="-3.26809">
        <ele>16.700852</ele>
        <time>2021-11-10T17:41:14.347Z</time>
      </trkpt>
      <trkpt lat="47.69196" lon="-3.26963">
        <ele>12.005423</ele>
        <time>2021-11-10T17:42:15.166Z</time>
      </trkpt>
      <trkpt lat="47.69118" lon="-3.26992">
        <ele>10.800858</ele>
        <time>2021-11-10T17:42:36.374Z</time>
      </trkpt>
      <trkpt lat="47.691" lon="-3.26993">
        <ele>10.533391</ele>
        <time>2021-11-10T17:42:41.749Z</time>
      </trkpt>
      <trkpt lat="47.69087" lon="-3.26979">
        <ele>10.290136</ele>
        <time>2021-11-10T17:42:46.072Z</time>
      </trkpt>
      <trkpt lat="47.691" lon="-3.2697">
        <ele>10.070477</ele>
        <time>2021-11-10T17:42:49.080Z</time>
      </trkpt>
      <trkpt lat="47.69119" lon="-3.26946">
        <ele>10.273249</ele>
        <time>2021-11-10T17:42:53.442Z</time>
      </trkpt>
      <trkpt lat="47.69126" lon="-3.26925">
        <ele>10.415043</ele>
        <time>2021-11-10T17:42:57.024Z</time>
      </trkpt>
      <trkpt lat="47.69132" lon="-3.26881">
        <ele>10.684005</ele>
        <time>2021-11-10T17:43:02.752Z</time>
      </trkpt>
      <trkpt lat="47.69137" lon="-3.26846">
        <ele>10.903994</ele>
        <time>2021-11-10T17:43:07.386Z</time>
      </trkpt>
      <trkpt lat="47.69141" lon="-3.26817">
        <ele>11.080912</ele>
        <time>2021-11-10T17:43:12.788Z</time>
      </trkpt>
      <trkpt lat="47.69196" lon="-3.26652">
        <ele>12.325428</ele>
        <time>2021-11-10T17:43:45.015Z</time>
      </trkpt>
      <trkpt lat="47.69205" lon="-3.26626">
        <ele>12.548104</ele>
        <time>2021-11-10T17:43:50.465Z</time>
      </trkpt>
      <trkpt lat="47.6925" lon="-3.26568">
        <ele>13.2186</ele>
        <time>2021-11-10T17:44:03.732Z</time>
      </trkpt>
      <trkpt lat="47.69053" lon="-3.26445">
        <ele>14.070979</ele>
        <time>2021-11-10T17:44:44.005Z</time>
      </trkpt>
      <trkpt lat="47.69049" lon="-3.26442">
        <ele>14.080593</ele>
        <time>2021-11-10T17:44:44.809Z</time>
      </trkpt>
      <trkpt lat="47.69047" lon="-3.26427">
        <ele>14.120631</ele>
        <time>2021-11-10T17:44:47.623Z</time>
      </trkpt>
      <trkpt lat="47.69018" lon="-3.2622">
        <ele>14.773726</ele>
        <time>2021-11-10T17:45:17.336Z</time>
      </trkpt>
      <trkpt lat="47.68999" lon="-3.26086">
        <ele>14.681111</ele>
        <time>2021-11-10T17:45:34.869Z</time>
      </trkpt>
      <trkpt lat="47.68983" lon="-3.26081">
        <ele>14.617889</ele>
        <time>2021-11-10T17:45:37.805Z</time>
      </trkpt>
      <trkpt lat="47.68971" lon="-3.26022">
        <ele>14.458357</ele>
        <time>2021-11-10T17:45:45.168Z</time>
      </trkpt>
      <trkpt lat="47.68904" lon="-3.25736">
        <ele>12.513893</ele>
        <time>2021-11-10T17:46:18.944Z</time>
      </trkpt>
      <trkpt lat="47.68823" lon="-3.25752">
        <ele>11.515992</ele>
        <time>2021-11-10T17:46:31.252Z</time>
      </trkpt>
      <trkpt lat="47.68803" lon="-3.25719">
        <ele>11.144888</ele>
        <time>2021-11-10T17:46:36.309Z</time>
      </trkpt>
      <trkpt lat="47.68648" lon="-3.2547">
        <ele>8.844897</ele>
        <time>2021-11-10T17:47:17.039Z</time>
      </trkpt>
      <trkpt lat="47.68533" lon="-3.25283">
        <ele>7.921387</ele>
        <time>2021-11-10T17:47:49.068Z</time>
      </trkpt>
      <trkpt lat="47.68505" lon="-3.25237">
        <ele>7.74999</ele>
        <time>2021-11-10T17:47:57.060Z</time>
      </trkpt>
      <trkpt lat="47.68472" lon="-3.25237">
        <ele>7.607834</ele>
        <time>2021-11-10T17:48:02.688Z</time>
      </trkpt>
      <trkpt lat="47.68487" lon="-3.2513">
        <ele>7.230754</ele>
        <time>2021-11-10T17:48:15.315Z</time>
      </trkpt>
      <trkpt lat="47.68461" lon="-3.24967">
        <ele>6.612611</ele>
        <time>2021-11-10T17:48:33.865Z</time>
      </trkpt>
      <trkpt lat="47.68443" lon="-3.24968">
        <ele>6.468862</ele>
        <time>2021-11-10T17:48:36.618Z</time>
      </trkpt>
      <trkpt lat="47.68318" lon="-3.25027">
        <ele>5.401382</ele>
        <time>2021-11-10T17:48:57.687Z</time>
      </trkpt>
      <trkpt lat="47.68275" lon="-3.25033">
        <ele>5.468863</ele>
        <time>2021-11-10T17:49:04.761Z</time>
      </trkpt>
      <trkpt lat="47.68264" lon="-3.25035">
        <ele>5.546875</ele>
        <time>2021-11-10T17:49:06.623Z</time>
      </trkpt>
      <trkpt lat="47.6824" lon="-3.25033">
        <ele>5.721051</ele>
        <time>2021-11-10T17:49:10.848Z</time>
      </trkpt>
      <trkpt lat="47.68226" lon="-3.25029">
        <ele>5.819603</ele>
        <time>2021-11-10T17:49:13.475Z</time>
      </trkpt>
      <trkpt lat="47.68207" lon="-3.25054">
        <ele>6.000817</ele>
        <time>2021-11-10T17:49:22.000Z</time>
      </trkpt>
      <trkpt lat="47.6811" lon="-3.25135">
        <ele>6.983188</ele>
        <time>2021-11-10T17:50:02.812Z</time>
      </trkpt>
      <trkpt lat="47.68092" lon="-3.25156">
        <ele>7.282161</ele>
        <time>2021-11-10T17:50:11.597Z</time>
      </trkpt>
      <trkpt lat="47.68075" lon="-3.25153">
        <ele>7.502791</ele>
        <time>2021-11-10T17:50:18.054Z</time>
      </trkpt>
      <trkpt lat="47.67969" lon="-3.25138">
        <ele>8.863633</ele>
        <time>2021-11-10T17:50:54.488Z</time>
      </trkpt>
      <trkpt lat="47.67819" lon="-3.25116">
        <ele>8.564689</ele>
        <time>2021-11-10T17:51:38.433Z</time>
      </trkpt>
      <trkpt lat="47.67798" lon="-3.2512">
        <ele>8.522665</ele>
        <time>2021-11-10T17:51:44.267Z</time>
      </trkpt>
      <trkpt lat="47.67734" lon="-3.25109">
        <ele>8.231777</ele>
        <time>2021-11-10T17:52:02.239Z</time>
      </trkpt>
      <trkpt lat="47.67681" lon="-3.25109">
        <ele>7.971837</ele>
        <time>2021-11-10T17:52:17.385Z</time>
      </trkpt>
      <trkpt lat="47.67679" lon="-3.25087">
        <ele>7.899363</ele>
        <time>2021-11-10T17:52:21.696Z</time>
      </trkpt>
      <trkpt lat="47.67607" lon="-3.25107">
        <ele>7.585385</ele>
        <time>2021-11-10T17:53:12.813Z</time>
      </trkpt>
      <trkpt lat="47.67601" lon="-3.25099">
        <ele>7.566117</ele>
        <time>2021-11-10T17:53:18.206Z</time>
      </trkpt>
      <trkpt lat="47.67582" lon="-3.25104">
        <ele>7.51755</ele>
        <time>2021-11-10T17:53:31.787Z</time>
      </trkpt>
      <trkpt lat="47.67565" lon="-3.25094">
        <ele>7.473327</ele>
        <time>2021-11-10T17:53:44.127Z</time>
      </trkpt>
      <trkpt lat="47.67554" lon="-3.25109">
        <ele>7.437171</ele>
        <time>2021-11-10T17:53:54.280Z</time>
      </trkpt>
      <trkpt lat="47.67548" lon="-3.25113">
        <ele>7.418891</ele>
        <time>2021-11-10T17:53:59.361Z</time>
      </trkpt>
      <trkpt lat="47.67529" lon="-3.25126">
        <ele>7.368816</ele>
        <time>2021-11-10T17:54:13.377Z</time>
      </trkpt>
      <trkpt lat="47.67517" lon="-3.25128">
        <ele>7.338073</ele>
        <time>2021-11-10T17:54:21.960Z</time>
      </trkpt>
      <trkpt lat="47.67503" lon="-3.25123">
        <ele>7.303435</ele>
        <time>2021-11-10T17:54:31.643Z</time>
      </trkpt>
      <trkpt lat="47.67488" lon="-3.25106">
        <ele>7.254931</ele>
        <time>2021-11-10T17:54:45.178Z</time>
      </trkpt>
      <trkpt lat="47.67464" lon="-3.2507">
        <ele>7.155904</ele>
        <time>2021-11-10T17:55:08.740Z</time>
      </trkpt>
      <trkpt lat="47.67468" lon="-3.25039">
        <ele>7.044041</ele>
        <time>2021-11-10T17:55:23.753Z</time>
      </trkpt>
      <trkpt lat="47.67465" lon="-3.25032">
        <ele>7.017722</ele>
        <time>2021-11-10T17:55:27.277Z</time>
      </trkpt>
      <trkpt lat="47.67465" lon="-3.25032">
        <ele>7.017722</ele>
        <time>2021-11-10T17:55:27.388Z</time>
      </trkpt>
      <trkpt lat="47.67465" lon="-3.25032">
        <ele>7.017722</ele>
        <time>2021-11-10T17:55:27.399Z</time>
      </trkpt>
      <trkpt lat="47.67428" lon="-3.25074">
        <ele>6.778129</ele>
        <time>2021-11-10T17:55:35.412Z</time>
      </trkpt>
      <trkpt lat="47.67361" lon="-3.25089">
        <ele>6.428481</ele>
        <time>2021-11-10T17:55:47.193Z</time>
      </trkpt>
      <trkpt lat="47.67336" lon="-3.25092">
        <ele>6.297318</ele>
        <time>2021-11-10T17:55:51.516Z</time>
      </trkpt>
      <trkpt lat="47.67276" lon="-3.25097">
        <ele>6.078623</ele>
        <time>2021-11-10T17:56:01.956Z</time>
      </trkpt>
      <trkpt lat="47.67201" lon="-3.25067">
        <ele>5.81922</ele>
        <time>2021-11-10T17:56:15.672Z</time>
      </trkpt>
      <trkpt lat="47.67052" lon="-3.24924">
        <ele>5.715388</ele>
        <time>2021-11-10T17:56:48.246Z</time>
      </trkpt>
      <trkpt lat="47.66983" lon="-3.2487">
        <ele>5.946183</ele>
        <time>2021-11-10T17:57:03.800Z</time>
      </trkpt>
      <trkpt lat="47.66932" lon="-3.2485">
        <ele>6.357005</ele>
        <time>2021-11-10T17:57:14.832Z</time>
      </trkpt>
      <trkpt lat="47.66915" lon="-3.24862">
        <ele>6.505572</ele>
        <time>2021-11-10T17:57:20.943Z</time>
      </trkpt>
      <trkpt lat="47.66892" lon="-3.24854">
        <ele>6.6929</ele>
        <time>2021-11-10T17:57:28.905Z</time>
      </trkpt>
      <trkpt lat="47.66876" lon="-3.24825">
        <ele>6.891913</ele>
        <time>2021-11-10T17:57:37.507Z</time>
      </trkpt>
      <trkpt lat="47.66877" lon="-3.24783">
        <ele>7.115595</ele>
        <time>2021-11-10T17:57:47.146Z</time>
      </trkpt>
      <trkpt lat="47.66877" lon="-3.24781">
        <ele>7.122908</ele>
        <time>2021-11-10T17:57:47.537Z</time>
      </trkpt>
      <trkpt lat="47.66869" lon="-3.24745">
        <ele>7.388298</ele>
        <time>2021-11-10T17:57:56.502Z</time>
      </trkpt>
      <trkpt lat="47.66775" lon="-3.24579">
        <ele>8.954585</ele>
        <time>2021-11-10T17:58:46.168Z</time>
      </trkpt>
      <trkpt lat="47.66747" lon="-3.24547">
        <ele>9.181795</ele>
        <time>2021-11-10T17:58:58.010Z</time>
      </trkpt>
      <trkpt lat="47.66712" lon="-3.24517">
        <ele>9.330171</ele>
        <time>2021-11-10T17:59:11.144Z</time>
      </trkpt>
      <trkpt lat="47.667" lon="-3.24486">
        <ele>9.418916</ele>
        <time>2021-11-10T17:59:18.810Z</time>
      </trkpt>
      <trkpt lat="47.66696" lon="-3.24422">
        <ele>9.578081</ele>
        <time>2021-11-10T17:59:32.036Z</time>
      </trkpt>
      <trkpt lat="47.66675" lon="-3.24422">
        <ele>9.652568</ele>
        <time>2021-11-10T17:59:38.207Z</time>
      </trkpt>
      <trkpt lat="47.66661" lon="-3.2441">
        <ele>9.714996</ele>
        <time>2021-11-10T17:59:43.062Z</time>
      </trkpt>
      <trkpt lat="47.6665" lon="-3.2438">
        <ele>9.721241</ele>
        <time>2021-11-10T17:59:49.813Z</time>
      </trkpt>
      <trkpt lat="47.66635" lon="-3.24221">
        <ele>9.274266</ele>
        <time>2021-11-10T18:00:20.756Z</time>
      </trkpt>
      <trkpt lat="47.66634" lon="-3.24218">
        <ele>9.263438</ele>
        <time>2021-11-10T18:00:21.438Z</time>
      </trkpt>
      <trkpt lat="47.66621" lon="-3.24154">
        <ele>9.077463</ele>
        <time>2021-11-10T18:00:34.169Z</time>
      </trkpt>
      <trkpt lat="47.66582" lon="-3.241">
        <ele>8.967019</ele>
        <time>2021-11-10T18:00:49.365Z</time>
      </trkpt>
      <trkpt lat="47.66497" lon="-3.24137">
        <ele>8.849463</ele>
        <time>2021-11-10T18:01:15.398Z</time>
      </trkpt>
      <trkpt lat="47.66484" lon="-3.24137">
        <ele>8.83241</ele>
        <time>2021-11-10T18:01:19.191Z</time>
      </trkpt>
      <trkpt lat="47.66475" lon="-3.24117">
        <ele>8.810987</ele>
        <time>2021-11-10T18:01:24.113Z</time>
      </trkpt>
      <trkpt lat="47.66465" lon="-3.23983">
        <ele>8.853557</ele>
        <time>2021-11-10T18:01:51.761Z</time>
      </trkpt>
      <trkpt lat="47.66462" lon="-3.23937">
        <ele>8.887768</ele>
        <time>2021-11-10T18:02:01.240Z</time>
      </trkpt>
      <trkpt lat="47.66465" lon="-3.23838">
        <ele>8.96068</ele>
        <time>2021-11-10T18:02:21.203Z</time>
      </trkpt>
      <trkpt lat="47.66472" lon="-3.23775">
        <ele>8.972624</ele>
        <time>2021-11-10T18:02:34.053Z</time>
      </trkpt>
      <trkpt lat="47.66489" lon="-3.23693">
        <ele>8.964404</ele>
        <time>2021-11-10T18:02:51.110Z</time>
      </trkpt>
      <trkpt lat="47.66499" lon="-3.23668">
        <ele>8.961598</ele>
        <time>2021-11-10T18:02:56.922Z</time>
      </trkpt>
      <trkpt lat="47.66548" lon="-3.23579">
        <ele>8.956269</ele>
        <time>2021-11-10T18:03:19.650Z</time>
      </trkpt>
      <trkpt lat="47.66588" lon="-3.23442">
        <ele>9.121596</ele>
        <time>2021-11-10T18:03:50.019Z</time>
      </trkpt>
      <trkpt lat="47.66605" lon="-3.2342">
        <ele>9.159067</ele>
        <time>2021-11-10T18:03:57.052Z</time>
      </trkpt>
      <trkpt lat="47.66691" lon="-3.23312">
        <ele>9.539775</ele>
        <time>2021-11-10T18:04:31.811Z</time>
      </trkpt>
      <trkpt lat="47.66832" lon="-3.2314">
        <ele>10.721944</ele>
        <time>2021-11-10T18:05:30.227Z</time>
      </trkpt>
      <trkpt lat="47.66794" lon="-3.22902">
        <ele>12.646633</ele>
        <time>2021-11-10T18:06:07.681Z</time>
      </trkpt>
      <trkpt lat="47.66849" lon="-3.22681">
        <ele>15.478707</ele>
        <time>2021-11-10T18:06:49.559Z</time>
      </trkpt>
      <trkpt lat="47.66874" lon="-3.22597">
        <ele>16.703041</ele>
        <time>2021-11-10T18:07:07.488Z</time>
      </trkpt>
      <trkpt lat="47.66905" lon="-3.22576">
        <ele>17.365855</ele>
        <time>2021-11-10T18:07:16.673Z</time>
      </trkpt>
      <trkpt lat="47.66932" lon="-3.22519">
        <ele>18.295676</ele>
        <time>2021-11-10T18:07:28.812Z</time>
      </trkpt>
      <trkpt lat="47.66961" lon="-3.22539">
        <ele>18.521285</ele>
        <time>2021-11-10T18:07:36.338Z</time>
      </trkpt>
      <trkpt lat="47.67005" lon="-3.22534">
        <ele>18.502986</ele>
        <time>2021-11-10T18:07:45.844Z</time>
      </trkpt>
      <trkpt lat="47.67163" lon="-3.22504">
        <ele>18.009267</ele>
        <time>2021-11-10T18:08:30.830Z</time>
      </trkpt>
      <trkpt lat="47.67163" lon="-3.22504">
        <ele>18.008586</ele>
        <time>2021-11-10T18:08:30.852Z</time>
      </trkpt>
      <trkpt lat="47.67139" lon="-3.22217">
        <ele>15.979301</ele>
        <time>2021-11-10T18:09:24.312Z</time>
      </trkpt>
      <trkpt lat="47.6711" lon="-3.22144">
        <ele>15.343917</ele>
        <time>2021-11-10T18:09:40.078Z</time>
      </trkpt>
      <trkpt lat="47.67106" lon="-3.22114">
        <ele>15.109233</ele>
        <time>2021-11-10T18:09:43.553Z</time>
      </trkpt>
      <trkpt lat="47.67103" lon="-3.22114">
        <ele>15.075785</ele>
        <time>2021-11-10T18:09:44.039Z</time>
      </trkpt>
      <trkpt lat="47.67112" lon="-3.2203">
        <ele>14.325878</ele>
        <time>2021-11-10T18:09:53.409Z</time>
      </trkpt>
      <trkpt lat="47.67097" lon="-3.21949">
        <ele>13.347409</ele>
        <time>2021-11-10T18:10:02.340Z</time>
      </trkpt>
      <trkpt lat="47.67095" lon="-3.21942">
        <ele>13.251173</ele>
        <time>2021-11-10T18:10:03.212Z</time>
      </trkpt>
      <trkpt lat="47.67169" lon="-3.21911">
        <ele>11.904674</ele>
        <time>2021-11-10T18:10:15.136Z</time>
      </trkpt>
      <trkpt lat="47.67353" lon="-3.21856">
        <ele>8.305861</ele>
        <time>2021-11-10T18:10:43.848Z</time>
      </trkpt>
      <trkpt lat="47.6738" lon="-3.21847">
        <ele>7.927672</ele>
        <time>2021-11-10T18:10:48.095Z</time>
      </trkpt>
      <trkpt lat="47.67442" lon="-3.21827">
        <ele>7.508462</ele>
        <time>2021-11-10T18:10:58.470Z</time>
      </trkpt>
      <trkpt lat="47.67439" lon="-3.21736">
        <ele>7.104652</ele>
        <time>2021-11-10T18:11:09.003Z</time>
      </trkpt>
      <trkpt lat="47.67436" lon="-3.21672">
        <ele>6.819409</ele>
        <time>2021-11-10T18:11:17.434Z</time>
      </trkpt>
      <trkpt lat="47.67435" lon="-3.21578">
        <ele>7.483844</ele>
        <time>2021-11-10T18:11:31.749Z</time>
      </trkpt>
      <trkpt lat="47.67434" lon="-3.2154">
        <ele>7.748504</ele>
        <time>2021-11-10T18:11:37.686Z</time>
      </trkpt>
      <trkpt lat="47.67431" lon="-3.2153">
        <ele>7.82839</ele>
        <time>2021-11-10T18:11:39.521Z</time>
      </trkpt>
      <trkpt lat="47.67435" lon="-3.21528">
        <ele>7.867076</ele>
        <time>2021-11-10T18:11:40.434Z</time>
      </trkpt>
      <trkpt lat="47.67458" lon="-3.21417">
        <ele>8.685948</ele>
        <time>2021-11-10T18:11:58.997Z</time>
      </trkpt>
      <trkpt lat="47.6747" lon="-3.21355">
        <ele>8.994159</ele>
        <time>2021-11-10T18:12:09.232Z</time>
      </trkpt>
      <trkpt lat="47.6747" lon="-3.21224">
        <ele>9.603101</ele>
        <time>2021-11-10T18:12:28.553Z</time>
      </trkpt>
      <trkpt lat="47.6747" lon="-3.2118">
        <ele>9.805312</ele>
        <time>2021-11-10T18:12:34.342Z</time>
      </trkpt>
      <trkpt lat="47.67434" lon="-3.21175">
        <ele>9.766965</ele>
        <time>2021-11-10T18:12:40.961Z</time>
      </trkpt>
      <trkpt lat="47.67366" lon="-3.21153">
        <ele>8.964278</ele>
        <time>2021-11-10T18:12:53.137Z</time>
      </trkpt>
      <trkpt lat="47.67348" lon="-3.21147">
        <ele>8.746226</ele>
        <time>2021-11-10T18:12:56.159Z</time>
      </trkpt>
      <trkpt lat="47.67333" lon="-3.21138">
        <ele>8.560113</ele>
        <time>2021-11-10T18:12:58.759Z</time>
      </trkpt>
      <trkpt lat="47.67306" lon="-3.21105">
        <ele>8.159999</ele>
        <time>2021-11-10T18:13:04.070Z</time>
      </trkpt>
      <trkpt lat="47.67287" lon="-3.2107">
        <ele>7.794177</ele>
        <time>2021-11-10T18:13:08.567Z</time>
      </trkpt>
      <trkpt lat="47.67274" lon="-3.21058">
        <ele>7.57487</ele>
        <time>2021-11-10T18:13:10.811Z</time>
      </trkpt>
      <trkpt lat="47.67163" lon="-3.20949">
        <ele>5.630467</ele>
        <time>2021-11-10T18:13:31.613Z</time>
      </trkpt>
      <trkpt lat="47.67168" lon="-3.20932">
        <ele>5.449827</ele>
        <time>2021-11-10T18:13:34.013Z</time>
      </trkpt>
      <trkpt lat="47.67168" lon="-3.20915">
        <ele>5.286614</ele>
        <time>2021-11-10T18:13:35.905Z</time>
      </trkpt>
      <trkpt lat="47.67167" lon="-3.20914">
        <ele>5.26986</ele>
        <time>2021-11-10T18:13:36.091Z</time>
      </trkpt>
      <trkpt lat="47.67168" lon="-3.20904">
        <ele>5.317313</ele>
        <time>2021-11-10T18:13:37.234Z</time>
      </trkpt>
      <trkpt lat="47.67172" lon="-3.20901">
        <ele>5.372027</ele>
        <time>2021-11-10T18:13:38.063Z</time>
      </trkpt>
      <trkpt lat="47.67216" lon="-3.20891">
        <ele>5.9016</ele>
        <time>2021-11-10T18:13:47.693Z</time>
      </trkpt>
      <trkpt lat="47.67222" lon="-3.20909">
        <ele>6.059904</ele>
        <time>2021-11-10T18:13:50.719Z</time>
      </trkpt>
      <trkpt lat="47.67234" lon="-3.20918">
        <ele>6.222274</ele>
        <time>2021-11-10T18:13:53.596Z</time>
      </trkpt>
      <trkpt lat="47.67246" lon="-3.20917">
        <ele>6.364791</ele>
        <time>2021-11-10T18:13:56.981Z</time>
      </trkpt>
      <trkpt lat="47.67263" lon="-3.20957">
        <ele>6.748623</ele>
        <time>2021-11-10T18:14:05.324Z</time>
      </trkpt>
      <trkpt lat="47.67285" lon="-3.21036">
        <ele>7.427708</ele>
        <time>2021-11-10T18:14:21.125Z</time>
      </trkpt>
      <trkpt lat="47.67314" lon="-3.2103">
        <ele>7.727797</ele>
        <time>2021-11-10T18:14:28.900Z</time>
      </trkpt>
      <trkpt lat="47.67434" lon="-3.21023">
        <ele>8.958213</ele>
        <time>2021-11-10T18:14:55.708Z</time>
      </trkpt>
      <trkpt lat="47.67502" lon="-3.2102">
        <ele>9.502839</ele>
        <time>2021-11-10T18:15:08.320Z</time>
      </trkpt>
      <trkpt lat="47.67533" lon="-3.21152">
        <ele>10.129828</ele>
        <time>2021-11-10T18:15:27.797Z</time>
      </trkpt>
      <trkpt lat="47.67549" lon="-3.21178">
        <ele>10.291366</ele>
        <time>2021-11-10T18:15:33.182Z</time>
      </trkpt>
      <trkpt lat="47.67609" lon="-3.21199">
        <ele>10.976199</ele>
        <time>2021-11-10T18:15:47.943Z</time>
      </trkpt>
      <trkpt lat="47.67669" lon="-3.21249">
        <ele>11.907015</ele>
        <time>2021-11-10T18:16:05.424Z</time>
      </trkpt>
      <trkpt lat="47.67724" lon="-3.2124">
        <ele>12.665568</ele>
        <time>2021-11-10T18:16:18.847Z</time>
      </trkpt>
      <trkpt lat="47.67759" lon="-3.21235">
        <ele>12.913099</ele>
        <time>2021-11-10T18:16:26.539Z</time>
      </trkpt>
      <trkpt lat="47.67771" lon="-3.2122">
        <ele>12.944915</ele>
        <time>2021-11-10T18:16:30.052Z</time>
      </trkpt>
      <trkpt lat="47.67807" lon="-3.21208">
        <ele>13.0162</ele>
        <time>2021-11-10T18:16:37.628Z</time>
      </trkpt>
      <trkpt lat="47.67858" lon="-3.21194">
        <ele>13.118144</ele>
        <time>2021-11-10T18:16:47.767Z</time>
      </trkpt>
      <trkpt lat="47.6793" lon="-3.2119">
        <ele>13.008747</ele>
        <time>2021-11-10T18:17:00.442Z</time>
      </trkpt>
      <trkpt lat="47.67983" lon="-3.21193">
        <ele>12.288374</ele>
        <time>2021-11-10T18:17:09.024Z</time>
      </trkpt>
      <trkpt lat="47.68011" lon="-3.21189">
        <ele>11.892014</ele>
        <time>2021-11-10T18:17:13.551Z</time>
      </trkpt>
      <trkpt lat="47.68085" lon="-3.21108">
        <ele>10.669379</ele>
        <time>2021-11-10T18:17:27.790Z</time>
      </trkpt>
      <trkpt lat="47.68128" lon="-3.21073">
        <ele>10.215656</ele>
        <time>2021-11-10T18:17:35.676Z</time>
      </trkpt>
      <trkpt lat="47.68171" lon="-3.21028">
        <ele>9.72857</ele>
        <time>2021-11-10T18:17:44.377Z</time>
      </trkpt>
      <trkpt lat="47.68172" lon="-3.2101">
        <ele>9.62195</ele>
        <time>2021-11-10T18:17:46.275Z</time>
      </trkpt>
      <trkpt lat="47.68145" lon="-3.20962">
        <ele>9.228783</ele>
        <time>2021-11-10T18:17:53.237Z</time>
      </trkpt>
      <trkpt lat="47.68001" lon="-3.20771">
        <ele>9.690156</ele>
        <time>2021-11-10T18:18:31.829Z</time>
      </trkpt>
      <trkpt lat="47.67914" lon="-3.20658">
        <ele>8.682017</ele>
        <time>2021-11-10T18:18:51.529Z</time>
      </trkpt>
      <trkpt lat="47.6791" lon="-3.20652">
        <ele>8.636154</ele>
        <time>2021-11-10T18:18:52.366Z</time>
      </trkpt>
      <trkpt lat="47.67831" lon="-3.20548">
        <ele>6.900897</ele>
        <time>2021-11-10T18:19:07.831Z</time>
      </trkpt>
      <trkpt lat="47.67751" lon="-3.2044">
        <ele>4.012432</ele>
        <time>2021-11-10T18:19:22.659Z</time>
      </trkpt>
      <trkpt lat="47.6772" lon="-3.20401">
        <ele>3.129223</ele>
        <time>2021-11-10T18:19:28.344Z</time>
      </trkpt>
      <trkpt lat="47.67704" lon="-3.2038">
        <ele>2.852289</ele>
        <time>2021-11-10T18:19:31.395Z</time>
      </trkpt>
      <trkpt lat="47.67602" lon="-3.2024">
        <ele>1.064798</ele>
        <time>2021-11-10T18:19:53.004Z</time>
      </trkpt>
      <trkpt lat="47.6759" lon="-3.20202">
        <ele>1.276106</ele>
        <time>2021-11-10T18:19:58.854Z</time>
      </trkpt>
      <trkpt lat="47.67589" lon="-3.2015">
        <ele>1.701952</ele>
        <time>2021-11-10T18:20:06.598Z</time>
      </trkpt>
      <trkpt lat="47.67588" lon="-3.19894">
        <ele>3.888018</ele>
        <time>2021-11-10T18:20:49.289Z</time>
      </trkpt>
      <trkpt lat="47.67586" lon="-3.19737">
        <ele>5.32678</ele>
        <time>2021-11-10T18:21:13.382Z</time>
      </trkpt>
      <trkpt lat="47.67569" lon="-3.1974">
        <ele>5.556887</ele>
        <time>2021-11-10T18:21:17.167Z</time>
      </trkpt>
      <trkpt lat="47.67552" lon="-3.19748">
        <ele>5.797339</ele>
        <time>2021-11-10T18:21:21.144Z</time>
      </trkpt>
      <trkpt lat="47.67446" lon="-3.19796">
        <ele>7.265191</ele>
        <time>2021-11-10T18:21:45.624Z</time>
      </trkpt>
      <trkpt lat="47.6744" lon="-3.19791">
        <ele>7.353729</ele>
        <time>2021-11-10T18:21:47.081Z</time>
      </trkpt>
      <trkpt lat="47.67428" lon="-3.19764">
        <ele>7.645861</ele>
        <time>2021-11-10T18:21:52.289Z</time>
      </trkpt>
      <trkpt lat="47.67381" lon="-3.1975">
        <ele>8.460607</ele>
        <time>2021-11-10T18:22:04.892Z</time>
      </trkpt>
      <trkpt lat="47.67367" lon="-3.19746">
        <ele>8.79153</ele>
        <time>2021-11-10T18:22:09.426Z</time>
      </trkpt>
      <trkpt lat="47.67334" lon="-3.19737">
        <ele>9.565852</ele>
        <time>2021-11-10T18:22:19.505Z</time>
      </trkpt>
      <trkpt lat="47.67311" lon="-3.19786">
        <ele>10.502088</ele>
        <time>2021-11-10T18:22:32.138Z</time>
      </trkpt>
      <trkpt lat="47.67331" lon="-3.19722">
        <ele>11.599835</ele>
        <time>2021-11-10T18:22:45.284Z</time>
      </trkpt>
      <trkpt lat="47.67312" lon="-3.19708">
        <ele>12.088119</ele>
        <time>2021-11-10T18:22:51.553Z</time>
      </trkpt>
      <trkpt lat="47.67264" lon="-3.19672">
        <ele>12.902914</ele>
        <time>2021-11-10T18:23:06.106Z</time>
      </trkpt>
      <trkpt lat="47.67288" lon="-3.19569">
        <ele>13.953345</ele>
        <time>2021-11-10T18:23:24.511Z</time>
      </trkpt>
      <trkpt lat="47.67279" lon="-3.19496">
        <ele>14.675654</ele>
        <time>2021-11-10T18:23:35.766Z</time>
      </trkpt>
      <trkpt lat="47.67243" lon="-3.19505">
        <ele>14.6858</ele>
        <time>2021-11-10T18:23:43.176Z</time>
      </trkpt>
      <trkpt lat="47.67213" lon="-3.19505">
        <ele>14.606252</ele>
        <time>2021-11-10T18:23:49.022Z</time>
      </trkpt>
      <trkpt lat="47.67181" lon="-3.19506">
        <ele>14.52353</ele>
        <time>2021-11-10T18:23:54.506Z</time>
      </trkpt>
      <trkpt lat="47.67145" lon="-3.19508">
        <ele>14.429034</ele>
        <time>2021-11-10T18:24:00.743Z</time>
      </trkpt>
      <trkpt lat="47.67114" lon="-3.19527">
        <ele>14.342452</ele>
        <time>2021-11-10T18:24:06.495Z</time>
      </trkpt>
      <trkpt lat="47.67089" lon="-3.19556">
        <ele>14.05204</ele>
        <time>2021-11-10T18:24:11.999Z</time>
      </trkpt>
      <trkpt lat="47.67082" lon="-3.19547">
        <ele>13.892658</ele>
        <time>2021-11-10T18:24:14.623Z</time>
      </trkpt>
      <trkpt lat="47.67065" lon="-3.19523">
        <ele>13.49508</ele>
        <time>2021-11-10T18:24:20.700Z</time>
      </trkpt>
      <trkpt lat="47.67042" lon="-3.19516">
        <ele>13.083262</ele>
        <time>2021-11-10T18:24:27.028Z</time>
      </trkpt>
      <trkpt lat="47.67034" lon="-3.19507">
        <ele>12.910454</ele>
        <time>2021-11-10T18:24:29.606Z</time>
      </trkpt>
      <trkpt lat="47.67029" lon="-3.19502">
        <ele>12.814975</ele>
        <time>2021-11-10T18:24:31.083Z</time>
      </trkpt>
      <trkpt lat="47.67009" lon="-3.1945">
        <ele>12.104719</ele>
        <time>2021-11-10T18:24:41.771Z</time>
      </trkpt>
      <trkpt lat="47.67003" lon="-3.19411">
        <ele>11.645903</ele>
        <time>2021-11-10T18:24:48.465Z</time>
      </trkpt>
      <trkpt lat="47.66967" lon="-3.19381">
        <ele>10.901323</ele>
        <time>2021-11-10T18:24:59.011Z</time>
      </trkpt>
      <trkpt lat="47.66944" lon="-3.19354">
        <ele>10.344833</ele>
        <time>2021-11-10T18:25:06.556Z</time>
      </trkpt>
      <trkpt lat="47.66902" lon="-3.19302">
        <ele>9.286751</ele>
        <time>2021-11-10T18:25:20.875Z</time>
      </trkpt>
      <trkpt lat="47.66884" lon="-3.1929">
        <ele>8.905039</ele>
        <time>2021-11-10T18:25:26.012Z</time>
      </trkpt>
      <trkpt lat="47.66873" lon="-3.19292">
        <ele>8.695506</ele>
        <time>2021-11-10T18:25:28.867Z</time>
      </trkpt>
      <trkpt lat="47.66845" lon="-3.19314">
        <ele>8.081983</ele>
        <time>2021-11-10T18:25:37.203Z</time>
      </trkpt>
      <trkpt lat="47.66761" lon="-3.19286">
        <ele>7.246548</ele>
        <time>2021-11-10T18:26:00.429Z</time>
      </trkpt>
      <trkpt lat="47.66745" lon="-3.19289">
        <ele>7.133928</ele>
        <time>2021-11-10T18:26:04.876Z</time>
      </trkpt>
      <trkpt lat="47.66713" lon="-3.19314">
        <ele>6.87988</ele>
        <time>2021-11-10T18:26:15.242Z</time>
      </trkpt>
      <trkpt lat="47.66629" lon="-3.19326">
        <ele>6.445567</ele>
        <time>2021-11-10T18:26:40.147Z</time>
      </trkpt>
      <trkpt lat="47.66607" lon="-3.19326">
        <ele>6.43682</ele>
        <time>2021-11-10T18:26:46.909Z</time>
      </trkpt>
      <trkpt lat="47.66504" lon="-3.19296">
        <ele>6.395277</ele>
        <time>2021-11-10T18:27:18.820Z</time>
      </trkpt>
      <trkpt lat="47.6647" lon="-3.19248">
        <ele>6.214296</ele>
        <time>2021-11-10T18:27:32.362Z</time>
      </trkpt>
      <trkpt lat="47.66426" lon="-3.19202">
        <ele>5.674512</ele>
        <time>2021-11-10T18:27:47.214Z</time>
      </trkpt>
      <trkpt lat="47.66403" lon="-3.19179">
        <ele>5.407784</ele>
        <time>2021-11-10T18:27:54.448Z</time>
      </trkpt>
      <trkpt lat="47.66317" lon="-3.19123">
        <ele>4.611909</ele>
        <time>2021-11-10T18:28:20.169Z</time>
      </trkpt>
      <trkpt lat="47.66306" lon="-3.19104">
        <ele>4.616731</ele>
        <time>2021-11-10T18:28:24.949Z</time>
      </trkpt>
      <trkpt lat="47.66302" lon="-3.1909">
        <ele>4.619512</ele>
        <time>2021-11-10T18:28:27.960Z</time>
      </trkpt>
      <trkpt lat="47.66299" lon="-3.19077">
        <ele>4.621943</ele>
        <time>2021-11-10T18:28:30.506Z</time>
      </trkpt>
      <trkpt lat="47.66291" lon="-3.19078">
        <ele>4.624149</ele>
        <time>2021-11-10T18:28:36.097Z</time>
      </trkpt>
      <trkpt lat="47.66279" lon="-3.19029">
        <ele>4.633876</ele>
        <time>2021-11-10T18:29:00.650Z</time>
      </trkpt>
      <trkpt lat="47.66279" lon="-3.19009">
        <ele>4.637552</ele>
        <time>2021-11-10T18:29:09.900Z</time>
      </trkpt>
      <trkpt lat="47.6624" lon="-3.18884">
        <ele>4.784922</ele>
        <time>2021-11-10T18:29:30.101Z</time>
      </trkpt>
      <trkpt lat="47.66188" lon="-3.18726">
        <ele>5.617001</ele>
        <time>2021-11-10T18:29:56.463Z</time>
      </trkpt>
      <trkpt lat="47.66149" lon="-3.18729">
        <ele>5.890448</ele>
        <time>2021-11-10T18:30:04.106Z</time>
      </trkpt>
      <trkpt lat="47.66138" lon="-3.18725">
        <ele>5.928656</ele>
        <time>2021-11-10T18:30:06.428Z</time>
      </trkpt>
      <trkpt lat="47.66121" lon="-3.18706">
        <ele>5.947789</ele>
        <time>2021-11-10T18:30:10.247Z</time>
      </trkpt>
      <trkpt lat="47.66112" lon="-3.18696">
        <ele>5.957933</ele>
        <time>2021-11-10T18:30:13.463Z</time>
      </trkpt>
      <trkpt lat="47.66108" lon="-3.187">
        <ele>5.962935</ele>
        <time>2021-11-10T18:30:15.146Z</time>
      </trkpt>
      <trkpt lat="47.66089" lon="-3.18727">
        <ele>5.986662</ele>
        <time>2021-11-10T18:30:22.820Z</time>
      </trkpt>
      <trkpt lat="47.66069" lon="-3.18755">
        <ele>6.012611</ele>
        <time>2021-11-10T18:30:31.079Z</time>
      </trkpt>
      <trkpt lat="47.66062" lon="-3.18756">
        <ele>6.019301</ele>
        <time>2021-11-10T18:30:32.412Z</time>
      </trkpt>
      <trkpt lat="47.66038" lon="-3.18737">
        <ele>6.044063</ele>
        <time>2021-11-10T18:30:37.221Z</time>
      </trkpt>
      <trkpt lat="47.66021" lon="-3.18738">
        <ele>6.060322</ele>
        <time>2021-11-10T18:30:40.446Z</time>
      </trkpt>
      <trkpt lat="47.65989" lon="-3.18765">
        <ele>6.122962</ele>
        <time>2021-11-10T18:30:47.395Z</time>
      </trkpt>
      <trkpt lat="47.65976" lon="-3.18769">
        <ele>6.196698</ele>
        <time>2021-11-10T18:30:50.174Z</time>
      </trkpt>
      <trkpt lat="47.65938" lon="-3.18761">
        <ele>6.401012</ele>
        <time>2021-11-10T18:30:57.729Z</time>
      </trkpt>
      <trkpt lat="47.65925" lon="-3.18743">
        <ele>6.500113</ele>
        <time>2021-11-10T18:31:03.520Z</time>
      </trkpt>
      <trkpt lat="47.65841" lon="-3.1867">
        <ele>7.026066</ele>
        <time>2021-11-10T18:31:35.075Z</time>
      </trkpt>
      <trkpt lat="47.65807" lon="-3.18674">
        <ele>7.206544</ele>
        <time>2021-11-10T18:31:46.221Z</time>
      </trkpt>
      <trkpt lat="47.65759" lon="-3.18668">
        <ele>7.458248</ele>
        <time>2021-11-10T18:32:01.777Z</time>
      </trkpt>
      <trkpt lat="47.65744" lon="-3.18667">
        <ele>7.53846</ele>
        <time>2021-11-10T18:32:06.690Z</time>
      </trkpt>
      <trkpt lat="47.6565" lon="-3.18705">
        <ele>8.009206</ele>
        <time>2021-11-10T18:32:37.294Z</time>
      </trkpt>
      <trkpt lat="47.65583" lon="-3.18593">
        <ele>8.011709</ele>
        <time>2021-11-10T18:33:07.182Z</time>
      </trkpt>
      <trkpt lat="47.65527" lon="-3.1861">
        <ele>8.013133</ele>
        <time>2021-11-10T18:33:23.709Z</time>
      </trkpt>
      <trkpt lat="47.65377" lon="-3.18684">
        <ele>8.289514</ele>
        <time>2021-11-10T18:34:10.292Z</time>
      </trkpt>
      <trkpt lat="47.65371" lon="-3.18687">
        <ele>8.301483</ele>
        <time>2021-11-10T18:34:11.689Z</time>
      </trkpt>
      <trkpt lat="47.65354" lon="-3.18696">
        <ele>8.33618</ele>
        <time>2021-11-10T18:34:15.878Z</time>
      </trkpt>
      <trkpt lat="47.65319" lon="-3.18698">
        <ele>8.690641</ele>
        <time>2021-11-10T18:34:23.955Z</time>
      </trkpt>
      <trkpt lat="47.6531" lon="-3.18703">
        <ele>8.839561</ele>
        <time>2021-11-10T18:34:26.428Z</time>
      </trkpt>
      <trkpt lat="47.6529" lon="-3.18711">
        <ele>9.123007</ele>
        <time>2021-11-10T18:34:31.164Z</time>
      </trkpt>
      <trkpt lat="47.65252" lon="-3.18807">
        <ele>10.202468</ele>
        <time>2021-11-10T18:34:50.133Z</time>
      </trkpt>
      <trkpt lat="47.65152" lon="-3.19003">
        <ele>12.194064</ele>
        <time>2021-11-10T18:35:31.692Z</time>
      </trkpt>
      <trkpt lat="47.65084" lon="-3.19179">
        <ele>12.678468</ele>
        <time>2021-11-10T18:35:57.789Z</time>
      </trkpt>
      <trkpt lat="47.65078" lon="-3.19194">
        <ele>12.639386</ele>
        <time>2021-11-10T18:35:59.869Z</time>
      </trkpt>
      <trkpt lat="47.6506" lon="-3.19227">
        <ele>12.545523</ele>
        <time>2021-11-10T18:36:04.982Z</time>
      </trkpt>
      <trkpt lat="47.65062" lon="-3.19236">
        <ele>12.523769</ele>
        <time>2021-11-10T18:36:06.827Z</time>
      </trkpt>
      <trkpt lat="47.65102" lon="-3.19244">
        <ele>12.390752</ele>
        <time>2021-11-10T18:36:18.410Z</time>
      </trkpt>
      <trkpt lat="47.65178" lon="-3.19283">
        <ele>11.55934</ele>
        <time>2021-11-10T18:36:40.414Z</time>
      </trkpt>
      <trkpt lat="47.65242" lon="-3.19281">
        <ele>10.733089</ele>
        <time>2021-11-10T18:36:57.718Z</time>
      </trkpt>
      <trkpt lat="47.65248" lon="-3.19288">
        <ele>10.627664</ele>
        <time>2021-11-10T18:36:59.962Z</time>
      </trkpt>
      <trkpt lat="47.65226" lon="-3.19372">
        <ele>9.846026</ele>
        <time>2021-11-10T18:37:16.066Z</time>
      </trkpt>
      <trkpt lat="47.65233" lon="-3.19441">
        <ele>9.243967</ele>
        <time>2021-11-10T18:37:28.768Z</time>
      </trkpt>
      <trkpt lat="47.65232" lon="-3.19452">
        <ele>9.154285</ele>
        <time>2021-11-10T18:37:30.528Z</time>
      </trkpt>
      <trkpt lat="47.65226" lon="-3.19504">
        <ele>8.695482</ele>
        <time>2021-11-10T18:37:40.221Z</time>
      </trkpt>
      <trkpt lat="47.65226" lon="-3.19573">
        <ele>8.105547</ele>
        <time>2021-11-10T18:37:47.748Z</time>
      </trkpt>
      <trkpt lat="47.65144" lon="-3.19583">
        <ele>7.725454</ele>
        <time>2021-11-10T18:38:01.783Z</time>
      </trkpt>
      <trkpt lat="47.65045" lon="-3.19572">
        <ele>7.745466</ele>
        <time>2021-11-10T18:38:21.619Z</time>
      </trkpt>
      <trkpt lat="47.6502" lon="-3.19565">
        <ele>7.750697</ele>
        <time>2021-11-10T18:38:26.920Z</time>
      </trkpt>
      <trkpt lat="47.6499" lon="-3.19547">
        <ele>7.901681</ele>
        <time>2021-11-10T18:38:33.358Z</time>
      </trkpt>
      <trkpt lat="47.64986" lon="-3.19556">
        <ele>7.940522</ele>
        <time>2021-11-10T18:38:35.791Z</time>
      </trkpt>
      <trkpt lat="47.64921" lon="-3.19534">
        <ele>8.285643</ele>
        <time>2021-11-10T18:38:56.785Z</time>
      </trkpt>
      <trkpt lat="47.64908" lon="-3.19588">
        <ele>8.487262</ele>
        <time>2021-11-10T18:39:09.491Z</time>
      </trkpt>
      <trkpt lat="47.64903" lon="-3.19622">
        <ele>8.609324</ele>
        <time>2021-11-10T18:39:16.898Z</time>
      </trkpt>
      <trkpt lat="47.64894" lon="-3.19681">
        <ele>8.757028</ele>
        <time>2021-11-10T18:39:29.517Z</time>
      </trkpt>
      <trkpt lat="47.64854" lon="-3.19771">
        <ele>8.952958</ele>
        <time>2021-11-10T18:39:51.519Z</time>
      </trkpt>
      <trkpt lat="47.64846" lon="-3.19769">
        <ele>8.975008</ele>
        <time>2021-11-10T18:39:53.149Z</time>
      </trkpt>
      <trkpt lat="47.64836" lon="-3.19834">
        <ele>9.097529</ele>
        <time>2021-11-10T18:40:07.044Z</time>
      </trkpt>
      <trkpt lat="47.64832" lon="-3.19863">
        <ele>9.152496</ele>
        <time>2021-11-10T18:40:13.231Z</time>
      </trkpt>
      <trkpt lat="47.64821" lon="-3.19898">
        <ele>9.163283</ele>
        <time>2021-11-10T18:40:19.577Z</time>
      </trkpt>
      <trkpt lat="47.64814" lon="-3.19938">
        <ele>9.143001</ele>
        <time>2021-11-10T18:40:24.957Z</time>
      </trkpt>
      <trkpt lat="47.64809" lon="-3.19964">
        <ele>9.129858</ele>
        <time>2021-11-10T18:40:28.389Z</time>
      </trkpt>
      <trkpt lat="47.64766" lon="-3.19966">
        <ele>9.097997</ele>
        <time>2021-11-10T18:40:41.469Z</time>
      </trkpt>
      <trkpt lat="47.64756" lon="-3.2">
        <ele>9.079842</ele>
        <time>2021-11-10T18:40:48.754Z</time>
      </trkpt>
      <trkpt lat="47.64745" lon="-3.20013">
        <ele>9.069364</ele>
        <time>2021-11-10T18:40:52.924Z</time>
      </trkpt>
      <trkpt lat="47.64714" lon="-3.20143">
        <ele>8.727445</ele>
        <time>2021-11-10T18:41:19.016Z</time>
      </trkpt>
      <trkpt lat="47.64722" lon="-3.20163">
        <ele>8.64238</ele>
        <time>2021-11-10T18:41:23.340Z</time>
      </trkpt>
      <trkpt lat="47.64722" lon="-3.20195">
        <ele>8.523605</ele>
        <time>2021-11-10T18:41:29.466Z</time>
      </trkpt>
      <trkpt lat="47.64721" lon="-3.20259">
        <ele>8.290465</ele>
        <time>2021-11-10T18:41:41.573Z</time>
      </trkpt>
      <trkpt lat="47.6472" lon="-3.20317">
        <ele>8.076818</ele>
        <time>2021-11-10T18:41:52.820Z</time>
      </trkpt>
      <trkpt lat="47.64617" lon="-3.20371">
        <ele>7.919233</ele>
        <time>2021-11-10T18:42:12.722Z</time>
      </trkpt>
      <trkpt lat="47.64566" lon="-3.20424">
        <ele>7.836057</ele>
        <time>2021-11-10T18:42:24.806Z</time>
      </trkpt>
      <trkpt lat="47.64513" lon="-3.20505">
        <ele>7.240499</ele>
        <time>2021-11-10T18:42:38.231Z</time>
      </trkpt>
      <trkpt lat="47.64446" lon="-3.20638">
        <ele>6.237063</ele>
        <time>2021-11-10T18:42:56.478Z</time>
      </trkpt>
      <trkpt lat="47.64411" lon="-3.20696">
        <ele>5.689163</ele>
        <time>2021-11-10T18:43:04.847Z</time>
      </trkpt>
      <trkpt lat="47.64372" lon="-3.20688">
        <ele>5.280249</ele>
        <time>2021-11-10T18:43:15.421Z</time>
      </trkpt>
      <trkpt lat="47.64356" lon="-3.20673">
        <ele>5.081682</ele>
        <time>2021-11-10T18:43:20.738Z</time>
      </trkpt>
      <trkpt lat="47.64311" lon="-3.20618">
        <ele>4.471439</ele>
        <time>2021-11-10T18:43:36.777Z</time>
      </trkpt>
      <trkpt lat="47.64187" lon="-3.20468">
        <ele>4.104011</ele>
        <time>2021-11-10T18:44:23.612Z</time>
      </trkpt>
      <trkpt lat="47.64096" lon="-3.20379">
        <ele>4.305237</ele>
        <time>2021-11-10T18:44:56.631Z</time>
      </trkpt>
      <trkpt lat="47.64005" lon="-3.20327">
        <ele>4.63129</ele>
        <time>2021-11-10T18:45:27.446Z</time>
      </trkpt>
      <trkpt lat="47.6398" lon="-3.20303">
        <ele>4.741926</ele>
        <time>2021-11-10T18:45:36.913Z</time>
      </trkpt>
      <trkpt lat="47.63941" lon="-3.20299">
        <ele>4.894052</ele>
        <time>2021-11-10T18:45:49.390Z</time>
      </trkpt>
      <trkpt lat="47.6389" lon="-3.20271">
        <ele>5.106518</ele>
        <time>2021-11-10T18:46:06.203Z</time>
      </trkpt>
      <trkpt lat="47.63856" lon="-3.2024">
        <ele>5.263187</ele>
        <time>2021-11-10T18:46:18.570Z</time>
      </trkpt>
      <trkpt lat="47.63836" lon="-3.20237">
        <ele>5.344583</ele>
        <time>2021-11-10T18:46:25.004Z</time>
      </trkpt>
      <trkpt lat="47.63771" lon="-3.20286">
        <ele>5.407582</ele>
        <time>2021-11-10T18:46:47.066Z</time>
      </trkpt>
      <trkpt lat="47.63756" lon="-3.20319">
        <ele>5.426914</ele>
        <time>2021-11-10T18:46:54.897Z</time>
      </trkpt>
      <trkpt lat="47.63736" lon="-3.20345">
        <ele>5.446776</ele>
        <time>2021-11-10T18:47:02.870Z</time>
      </trkpt>
      <trkpt lat="47.63711" lon="-3.20342">
        <ele>5.464962</ele>
        <time>2021-11-10T18:47:10.116Z</time>
      </trkpt>
      <trkpt lat="47.63408" lon="-3.20091">
        <ele>5.444737</ele>
        <time>2021-11-10T18:48:52.819Z</time>
      </trkpt>
      <trkpt lat="47.63369" lon="-3.20039">
        <ele>5.464084</ele>
        <time>2021-11-10T18:49:08.564Z</time>
      </trkpt>
      <trkpt lat="47.63342" lon="-3.20046">
        <ele>5.522095</ele>
        <time>2021-11-10T18:49:16.666Z</time>
      </trkpt>
      <trkpt lat="47.63319" lon="-3.20038">
        <ele>5.572798</ele>
        <time>2021-11-10T18:49:23.810Z</time>
      </trkpt>
      <trkpt lat="47.63232" lon="-3.19925">
        <ele>5.820452</ele>
        <time>2021-11-10T18:49:59.167Z</time>
      </trkpt>
      <trkpt lat="47.63126" lon="-3.19839">
        <ele>6.219978</ele>
        <time>2021-11-10T18:50:36.928Z</time>
      </trkpt>
      <trkpt lat="47.63037" lon="-3.19783">
        <ele>6.463431</ele>
        <time>2021-11-10T18:51:07.124Z</time>
      </trkpt>
      <trkpt lat="47.62913" lon="-3.19679">
        <ele>6.582964</ele>
        <time>2021-11-10T18:51:49.604Z</time>
      </trkpt>
      <trkpt lat="47.62836" lon="-3.19676">
        <ele>6.290204</ele>
        <time>2021-11-10T18:52:11.766Z</time>
      </trkpt>
      <trkpt lat="47.62437" lon="-3.19675">
        <ele>4.914624</ele>
        <time>2021-11-10T18:54:05.961Z</time>
      </trkpt>
      <trkpt lat="47.62425" lon="-3.19668">
        <ele>4.892004</ele>
        <time>2021-11-10T18:54:10.109Z</time>
      </trkpt>
      <trkpt lat="47.62313" lon="-3.19453">
        <ele>5.045961</ele>
        <time>2021-11-10T18:55:06.727Z</time>
      </trkpt>
      <trkpt lat="47.62283" lon="-3.19366">
        <ele>5.178446</ele>
        <time>2021-11-10T18:55:26.073Z</time>
      </trkpt>
      <trkpt lat="47.62249" lon="-3.19274">
        <ele>5.335785</ele>
        <time>2021-11-10T18:55:47.362Z</time>
      </trkpt>
      <trkpt lat="47.62247" lon="-3.19252">
        <ele>5.36851</ele>
        <time>2021-11-10T18:55:51.571Z</time>
      </trkpt>
      <trkpt lat="47.62256" lon="-3.19157">
        <ele>5.512517</ele>
        <time>2021-11-10T18:56:03.819Z</time>
      </trkpt>
      <trkpt lat="47.62259" lon="-3.19136">
        <ele>5.543419</ele>
        <time>2021-11-10T18:56:06.415Z</time>
      </trkpt>
      <trkpt lat="47.62262" lon="-3.19109">
        <ele>5.746914</ele>
        <time>2021-11-10T18:56:10.442Z</time>
      </trkpt>
      <trkpt lat="47.62279" lon="-3.18979">
        <ele>6.804288</ele>
        <time>2021-11-10T18:56:31.383Z</time>
      </trkpt>
      <trkpt lat="47.62279" lon="-3.18938">
        <ele>7.133411</ele>
        <time>2021-11-10T18:56:38.184Z</time>
      </trkpt>
      <trkpt lat="47.6224" lon="-3.18814">
        <ele>7.891126</ele>
        <time>2021-11-10T18:56:58.771Z</time>
      </trkpt>
      <trkpt lat="47.62233" lon="-3.1875">
        <ele>8.087491</ele>
        <time>2021-11-10T18:57:07.666Z</time>
      </trkpt>
      <trkpt lat="47.62237" lon="-3.18681">
        <ele>8.299295</ele>
        <time>2021-11-10T18:57:16.535Z</time>
      </trkpt>
      <trkpt lat="47.62248" lon="-3.18615">
        <ele>8.485652</ele>
        <time>2021-11-10T18:57:24.486Z</time>
      </trkpt>
      <trkpt lat="47.62279" lon="-3.1846">
        <ele>8.047171</ele>
        <time>2021-11-10T18:57:42.555Z</time>
      </trkpt>
      <trkpt lat="47.62294" lon="-3.1837">
        <ele>7.793335</ele>
        <time>2021-11-10T18:57:53.113Z</time>
      </trkpt>
      <trkpt lat="47.62276" lon="-3.18261">
        <ele>7.93547</ele>
        <time>2021-11-10T18:58:06.376Z</time>
      </trkpt>
      <trkpt lat="47.62282" lon="-3.18107">
        <ele>8.18478</ele>
        <time>2021-11-10T18:58:27.183Z</time>
      </trkpt>
      <trkpt lat="47.62292" lon="-3.1806">
        <ele>8.207691</ele>
        <time>2021-11-10T18:58:33.786Z</time>
      </trkpt>
      <trkpt lat="47.62334" lon="-3.1802">
        <ele>8.221751</ele>
        <time>2021-11-10T18:58:43.290Z</time>
      </trkpt>
      <trkpt lat="47.62336" lon="-3.17986">
        <ele>8.228312</ele>
        <time>2021-11-10T18:58:47.554Z</time>
      </trkpt>
      <trkpt lat="47.62318" lon="-3.17979">
        <ele>8.233563</ele>
        <time>2021-11-10T18:58:50.770Z</time>
      </trkpt>
      <trkpt lat="47.62301" lon="-3.17981">
        <ele>8.238582</ele>
        <time>2021-11-10T18:58:53.877Z</time>
      </trkpt>
      <trkpt lat="47.62211" lon="-3.18002">
        <ele>8.049397</ele>
        <time>2021-11-10T18:59:09.036Z</time>
      </trkpt>
      <trkpt lat="47.62186" lon="-3.18001">
        <ele>7.939718</ele>
        <time>2021-11-10T18:59:13.023Z</time>
      </trkpt>
      <trkpt lat="47.62119" lon="-3.17933">
        <ele>7.583874</ele>
        <time>2021-11-10T18:59:26.255Z</time>
      </trkpt>
      <trkpt lat="47.6211" lon="-3.17921">
        <ele>7.530214</ele>
        <time>2021-11-10T18:59:28.367Z</time>
      </trkpt>
      <trkpt lat="47.62099" lon="-3.17905">
        <ele>7.466155</ele>
        <time>2021-11-10T18:59:31.350Z</time>
      </trkpt>
      <trkpt lat="47.62078" lon="-3.17865">
        <ele>7.83713</ele>
        <time>2021-11-10T18:59:38.022Z</time>
      </trkpt>
      <trkpt lat="47.62056" lon="-3.17847">
        <ele>8.109411</ele>
        <time>2021-11-10T18:59:43.351Z</time>
      </trkpt>
      <trkpt lat="47.61995" lon="-3.17819">
        <ele>8.802635</ele>
        <time>2021-11-10T18:59:58.431Z</time>
      </trkpt>
      <trkpt lat="47.61921" lon="-3.17747">
        <ele>9.551162</ele>
        <time>2021-11-10T19:00:19.581Z</time>
      </trkpt>
      <trkpt lat="47.61894" lon="-3.17718">
        <ele>9.691958</ele>
        <time>2021-11-10T19:00:27.549Z</time>
      </trkpt>
      <trkpt lat="47.61883" lon="-3.17707">
        <ele>9.746137</ele>
        <time>2021-11-10T19:00:30.396Z</time>
      </trkpt>
      <trkpt lat="47.61851" lon="-3.17655">
        <ele>9.94575</ele>
        <time>2021-11-10T19:00:39.990Z</time>
      </trkpt>
      <trkpt lat="47.61824" lon="-3.17629">
        <ele>10.077012</ele>
        <time>2021-11-10T19:00:45.392Z</time>
      </trkpt>
      <trkpt lat="47.61747" lon="-3.17599">
        <ele>9.140849</ele>
        <time>2021-11-10T19:00:57.623Z</time>
      </trkpt>
      <trkpt lat="47.61676" lon="-3.17591">
        <ele>7.887142</ele>
        <time>2021-11-10T19:01:07.937Z</time>
      </trkpt>
      <trkpt lat="47.61651" lon="-3.17586">
        <ele>7.434709</ele>
        <time>2021-11-10T19:01:11.608Z</time>
      </trkpt>
      <trkpt lat="47.61531" lon="-3.17605">
        <ele>5.79886</ele>
        <time>2021-11-10T19:01:29.483Z</time>
      </trkpt>
      <trkpt lat="47.61521" lon="-3.17597">
        <ele>5.661091</ele>
        <time>2021-11-10T19:01:31.132Z</time>
      </trkpt>
      <trkpt lat="47.6149" lon="-3.17534">
        <ele>5.001574</ele>
        <time>2021-11-10T19:01:39.886Z</time>
      </trkpt>
      <trkpt lat="47.61479" lon="-3.17489">
        <ele>4.755573</ele>
        <time>2021-11-10T19:01:45.498Z</time>
      </trkpt>
      <trkpt lat="47.61475" lon="-3.1744">
        <ele>4.798087</ele>
        <time>2021-11-10T19:01:51.307Z</time>
      </trkpt>
      <trkpt lat="47.61482" lon="-3.17338">
        <ele>4.887362</ele>
        <time>2021-11-10T19:02:04.136Z</time>
      </trkpt>
      <trkpt lat="47.61511" lon="-3.17285">
        <ele>4.94684</ele>
        <time>2021-11-10T19:02:13.190Z</time>
      </trkpt>
      <trkpt lat="47.61521" lon="-3.17245">
        <ele>4.980938</ele>
        <time>2021-11-10T19:02:18.785Z</time>
      </trkpt>
      <trkpt lat="47.61522" lon="-3.17231">
        <ele>4.990174</ele>
        <time>2021-11-10T19:02:20.574Z</time>
      </trkpt>
      <trkpt lat="47.61509" lon="-3.17215">
        <ele>5.006158</ele>
        <time>2021-11-10T19:02:24.637Z</time>
      </trkpt>
      <trkpt lat="47.61452" lon="-3.17171">
        <ele>5.067526</ele>
        <time>2021-11-10T19:02:39.656Z</time>
      </trkpt>
      <trkpt lat="47.61449" lon="-3.17167">
        <ele>5.071414</ele>
        <time>2021-11-10T19:02:40.598Z</time>
      </trkpt>
      <trkpt lat="47.61426" lon="-3.17127">
        <ele>5.105401</ele>
        <time>2021-11-10T19:02:48.841Z</time>
      </trkpt>
      <trkpt lat="47.61411" lon="-3.17078">
        <ele>5.139917</ele>
        <time>2021-11-10T19:02:57.250Z</time>
      </trkpt>
      <trkpt lat="47.61396" lon="-3.17059">
        <ele>5.229836</ele>
        <time>2021-11-10T19:03:02.011Z</time>
      </trkpt>
      <trkpt lat="47.61362" lon="-3.17025">
        <ele>5.465712</ele>
        <time>2021-11-10T19:03:11.866Z</time>
      </trkpt>
      <trkpt lat="47.61368" lon="-3.17017">
        <ele>5.515479</ele>
        <time>2021-11-10T19:03:13.951Z</time>
      </trkpt>
      <trkpt lat="47.6126" lon="-3.16802">
        <ele>6.920193</ele>
        <time>2021-11-10T19:04:02.273Z</time>
      </trkpt>
      <trkpt lat="47.61265" lon="-3.16793">
        <ele>7.009409</ele>
        <time>2021-11-10T19:04:04.824Z</time>
      </trkpt>
      <trkpt lat="47.61317" lon="-3.16749">
        <ele>7.695232</ele>
        <time>2021-11-10T19:04:19.569Z</time>
      </trkpt>
      <trkpt lat="47.6138" lon="-3.16704">
        <ele>8.371863</ele>
        <time>2021-11-10T19:04:37.086Z</time>
      </trkpt>
      <trkpt lat="47.61426" lon="-3.16678">
        <ele>8.689279</ele>
        <time>2021-11-10T19:04:48.839Z</time>
      </trkpt>
      <trkpt lat="47.61431" lon="-3.16638">
        <ele>8.867504</ele>
        <time>2021-11-10T19:04:54.956Z</time>
      </trkpt>
      <trkpt lat="47.61466" lon="-3.16568">
        <ele>9.244415</ele>
        <time>2021-11-10T19:05:07.333Z</time>
      </trkpt>
      <trkpt lat="47.61479" lon="-3.16479">
        <ele>9.345967</ele>
        <time>2021-11-10T19:05:19.438Z</time>
      </trkpt>
      <trkpt lat="47.61489" lon="-3.16453">
        <ele>9.328432</ele>
        <time>2021-11-10T19:05:23.335Z</time>
      </trkpt>
      <trkpt lat="47.61514" lon="-3.16415">
        <ele>9.297115</ele>
        <time>2021-11-10T19:05:30.113Z</time>
      </trkpt>
      <trkpt lat="47.6152" lon="-3.16389">
        <ele>9.281003</ele>
        <time>2021-11-10T19:05:33.573Z</time>
      </trkpt>
      <trkpt lat="47.6152" lon="-3.16326">
        <ele>9.243093</ele>
        <time>2021-11-10T19:05:41.903Z</time>
      </trkpt>
      <trkpt lat="47.61529" lon="-3.16253">
        <ele>9.282218</ele>
        <time>2021-11-10T19:05:51.727Z</time>
      </trkpt>
      <trkpt lat="47.61566" lon="-3.16153">
        <ele>9.449886</ele>
        <time>2021-11-10T19:06:07.391Z</time>
      </trkpt>
      <trkpt lat="47.6158" lon="-3.16135">
        <ele>9.491328</ele>
        <time>2021-11-10T19:06:12.168Z</time>
      </trkpt>
      <trkpt lat="47.61632" lon="-3.16069">
        <ele>9.654955</ele>
        <time>2021-11-10T19:06:29.235Z</time>
      </trkpt>
      <trkpt lat="47.61631" lon="-3.16047">
        <ele>9.703841</ele>
        <time>2021-11-10T19:06:32.033Z</time>
      </trkpt>
      <trkpt lat="47.61624" lon="-3.15918">
        <ele>9.995941</ele>
        <time>2021-11-10T19:06:49.505Z</time>
      </trkpt>
      <trkpt lat="47.61624" lon="-3.15913">
        <ele>10.005928</ele>
        <time>2021-11-10T19:06:50.064Z</time>
      </trkpt>
      <trkpt lat="47.61618" lon="-3.15853">
        <ele>10.14205</ele>
        <time>2021-11-10T19:06:57.711Z</time>
      </trkpt>
      <trkpt lat="47.61604" lon="-3.15771">
        <ele>10.222845</ele>
        <time>2021-11-10T19:07:07.855Z</time>
      </trkpt>
      <trkpt lat="47.61586" lon="-3.15675">
        <ele>10.230641</ele>
        <time>2021-11-10T19:07:19.646Z</time>
      </trkpt>
      <trkpt lat="47.61581" lon="-3.15655">
        <ele>10.232267</ele>
        <time>2021-11-10T19:07:22.219Z</time>
      </trkpt>
      <trkpt lat="47.61556" lon="-3.15527">
        <ele>10.321048</ele>
        <time>2021-11-10T19:07:38.532Z</time>
      </trkpt>
      <trkpt lat="47.6154" lon="-3.15445">
        <ele>10.500483</ele>
        <time>2021-11-10T19:07:49.231Z</time>
      </trkpt>
      <trkpt lat="47.61514" lon="-3.15314">
        <ele>10.788375</ele>
        <time>2021-11-10T19:08:07.154Z</time>
      </trkpt>
      <trkpt lat="47.6151" lon="-3.15295">
        <ele>10.812068</ele>
        <time>2021-11-10T19:08:09.792Z</time>
      </trkpt>
      <trkpt lat="47.61505" lon="-3.15271">
        <ele>10.831408</ele>
        <time>2021-11-10T19:08:13.251Z</time>
      </trkpt>
      <trkpt lat="47.61487" lon="-3.15173">
        <ele>10.909446</ele>
        <time>2021-11-10T19:08:26.470Z</time>
      </trkpt>
      <trkpt lat="47.61445" lon="-3.14981">
        <ele>10.940623</ele>
        <time>2021-11-10T19:08:50.180Z</time>
      </trkpt>
      <trkpt lat="47.61425" lon="-3.14898">
        <ele>10.864627</ele>
        <time>2021-11-10T19:09:00.182Z</time>
      </trkpt>
      <trkpt lat="47.61387" lon="-3.14736">
        <ele>10.887074</ele>
        <time>2021-11-10T19:09:20.836Z</time>
      </trkpt>
      <trkpt lat="47.61385" lon="-3.14709">
        <ele>10.932639</ele>
        <time>2021-11-10T19:09:24.461Z</time>
      </trkpt>
      <trkpt lat="47.61392" lon="-3.14646">
        <ele>11.039792</ele>
        <time>2021-11-10T19:09:33.021Z</time>
      </trkpt>
      <trkpt lat="47.6131" lon="-3.14701">
        <ele>11.189146</ele>
        <time>2021-11-10T19:10:00.371Z</time>
      </trkpt>
      <trkpt lat="47.61285" lon="-3.14727">
        <ele>11.129945</ele>
        <time>2021-11-10T19:10:09.609Z</time>
      </trkpt>
      <trkpt lat="47.61274" lon="-3.14728">
        <ele>11.107561</ele>
        <time>2021-11-10T19:10:12.860Z</time>
      </trkpt>
      <trkpt lat="47.61234" lon="-3.1466">
        <ele>10.990131</ele>
        <time>2021-11-10T19:10:30.571Z</time>
      </trkpt>
      <trkpt lat="47.61231" lon="-3.14653">
        <ele>10.979292</ele>
        <time>2021-11-10T19:10:32.089Z</time>
      </trkpt>
      <trkpt lat="47.61211" lon="-3.14596">
        <ele>10.895098</ele>
        <time>2021-11-10T19:10:40.206Z</time>
      </trkpt>
      <trkpt lat="47.61201" lon="-3.14566">
        <ele>10.863564</ele>
        <time>2021-11-10T19:10:44.499Z</time>
      </trkpt>
      <trkpt lat="47.61147" lon="-3.14469">
        <ele>10.792016</ele>
        <time>2021-11-10T19:11:00.550Z</time>
      </trkpt>
      <trkpt lat="47.61068" lon="-3.14271">
        <ele>11.064057</ele>
        <time>2021-11-10T19:11:33.111Z</time>
      </trkpt>
      <trkpt lat="47.6102" lon="-3.14164">
        <ele>11.479608</ele>
        <time>2021-11-10T19:11:52.038Z</time>
      </trkpt>
      <trkpt lat="47.60994" lon="-3.14088">
        <ele>11.901554</ele>
        <time>2021-11-10T19:12:04.841Z</time>
      </trkpt>
      <trkpt lat="47.60925" lon="-3.13941">
        <ele>12.982149</ele>
        <time>2021-11-10T19:12:33.213Z</time>
      </trkpt>
      <trkpt lat="47.60912" lon="-3.13912">
        <ele>13.188375</ele>
        <time>2021-11-10T19:12:39.902Z</time>
      </trkpt>
      <trkpt lat="47.60852" lon="-3.13763">
        <ele>14.308852</ele>
        <time>2021-11-10T19:13:12.127Z</time>
      </trkpt>
      <trkpt lat="47.60852" lon="-3.13755">
        <ele>14.359539</ele>
        <time>2021-11-10T19:13:13.798Z</time>
      </trkpt>
      <trkpt lat="47.60848" lon="-3.13708">
        <ele>14.669942</ele>
        <time>2021-11-10T19:13:22.335Z</time>
      </trkpt>
      <trkpt lat="47.60792" lon="-3.13701">
        <ele>14.834836</ele>
        <time>2021-11-10T19:13:34.349Z</time>
      </trkpt>
      <trkpt lat="47.60746" lon="-3.13692">
        <ele>14.706137</ele>
        <time>2021-11-10T19:13:44.249Z</time>
      </trkpt>
      <trkpt lat="47.60746" lon="-3.13688">
        <ele>14.70037</ele>
        <time>2021-11-10T19:13:45.200Z</time>
      </trkpt>
      <trkpt lat="47.60748" lon="-3.13651">
        <ele>14.63005</ele>
        <time>2021-11-10T19:13:51.617Z</time>
      </trkpt>
      <trkpt lat="47.60721" lon="-3.13627">
        <ele>14.544288</ele>
        <time>2021-11-10T19:13:58.785Z</time>
      </trkpt>
      <trkpt lat="47.6072" lon="-3.13626">
        <ele>14.540975</ele>
        <time>2021-11-10T19:13:59.024Z</time>
      </trkpt>
      <trkpt lat="47.60716" lon="-3.13615">
        <ele>14.517145</ele>
        <time>2021-11-10T19:14:00.685Z</time>
      </trkpt>
      <trkpt lat="47.60724" lon="-3.13582">
        <ele>14.451963</ele>
        <time>2021-11-10T19:14:05.339Z</time>
      </trkpt>
      <trkpt lat="47.60726" lon="-3.13571">
        <ele>14.430451</ele>
        <time>2021-11-10T19:14:06.866Z</time>
      </trkpt>
      <trkpt lat="47.60736" lon="-3.13526">
        <ele>13.64624</ele>
        <time>2021-11-10T19:14:13.060Z</time>
      </trkpt>
      <trkpt lat="47.60732" lon="-3.13528">
        <ele>13.538049</ele>
        <time>2021-11-10T19:14:13.616Z</time>
      </trkpt>
      <trkpt lat="47.60697" lon="-3.13545">
        <ele>12.565981</ele>
        <time>2021-11-10T19:14:18.972Z</time>
      </trkpt>
      <trkpt lat="47.60694" lon="-3.13546">
        <ele>12.469107</ele>
        <time>2021-11-10T19:14:19.515Z</time>
      </trkpt>
      <trkpt lat="47.60663" lon="-3.1354">
        <ele>11.64866</ele>
        <time>2021-11-10T19:14:23.866Z</time>
      </trkpt>
      <trkpt lat="47.60652" lon="-3.13538">
        <ele>11.351931</ele>
        <time>2021-11-10T19:14:25.584Z</time>
      </trkpt>
      <trkpt lat="47.60649" lon="-3.13537">
        <ele>11.283038</ele>
        <time>2021-11-10T19:14:26.007Z</time>
      </trkpt>
      <trkpt lat="47.60639" lon="-3.13548">
        <ele>10.957011</ele>
        <time>2021-11-10T19:14:27.803Z</time>
      </trkpt>
      <trkpt lat="47.60613" lon="-3.1356">
        <ele>10.238281</ele>
        <time>2021-11-10T19:14:32.109Z</time>
      </trkpt>
      <trkpt lat="47.6059" lon="-3.13558">
        <ele>9.661017</ele>
        <time>2021-11-10T19:14:35.571Z</time>
      </trkpt>
      <trkpt lat="47.60529" lon="-3.1353">
        <ele>8.869183</ele>
        <time>2021-11-10T19:14:45.508Z</time>
      </trkpt>
      <trkpt lat="47.60503" lon="-3.13501">
        <ele>8.470687</ele>
        <time>2021-11-10T19:14:50.929Z</time>
      </trkpt>
      <trkpt lat="47.60496" lon="-3.13497">
        <ele>8.371913</ele>
        <time>2021-11-10T19:14:52.414Z</time>
      </trkpt>
      <trkpt lat="47.60483" lon="-3.13492">
        <ele>8.205087</ele>
        <time>2021-11-10T19:14:55.020Z</time>
      </trkpt>
      <trkpt lat="47.60477" lon="-3.13383">
        <ele>7.681076</ele>
        <time>2021-11-10T19:15:18.938Z</time>
      </trkpt>
      <trkpt lat="47.60469" lon="-3.13341">
        <ele>8.153149</ele>
        <time>2021-11-10T19:15:29.119Z</time>
      </trkpt>
      <trkpt lat="47.60455" lon="-3.13313">
        <ele>8.525895</ele>
        <time>2021-11-10T19:15:37.859Z</time>
      </trkpt>
      <trkpt lat="47.60381" lon="-3.13227">
        <ele>10.029612</ele>
        <time>2021-11-10T19:16:12.132Z</time>
      </trkpt>
      <trkpt lat="47.60331" lon="-3.13219">
        <ele>10.924964</ele>
        <time>2021-11-10T19:16:32.123Z</time>
      </trkpt>
      <trkpt lat="47.60296" lon="-3.13213">
        <ele>11.582502</ele>
        <time>2021-11-10T19:16:44.938Z</time>
      </trkpt>
      <trkpt lat="47.60263" lon="-3.13184">
        <ele>12.318704</ele>
        <time>2021-11-10T19:16:59.385Z</time>
      </trkpt>
      <trkpt lat="47.60253" lon="-3.13168">
        <ele>12.583502</ele>
        <time>2021-11-10T19:17:04.560Z</time>
      </trkpt>
      <trkpt lat="47.60249" lon="-3.13136">
        <ele>13.002941</ele>
        <time>2021-11-10T19:17:12.821Z</time>
      </trkpt>
      <trkpt lat="47.60237" lon="-3.13105">
        <ele>13.453676</ele>
        <time>2021-11-10T19:17:21.725Z</time>
      </trkpt>
      <trkpt lat="47.60205" lon="-3.13049">
        <ele>14.177789</ele>
        <time>2021-11-10T19:17:39.365Z</time>
      </trkpt>
      <trkpt lat="47.60187" lon="-3.13018">
        <ele>14.534574</ele>
        <time>2021-11-10T19:17:49.671Z</time>
      </trkpt>
      <trkpt lat="47.60186" lon="-3.12959">
        <ele>15.050071</ele>
        <time>2021-11-10T19:18:04.290Z</time>
      </trkpt>
      <trkpt lat="47.60189" lon="-3.12955">
        <ele>15.101453</ele>
        <time>2021-11-10T19:18:05.655Z</time>
      </trkpt>
      <trkpt lat="47.60156" lon="-3.12925">
        <ele>15.603854</ele>
        <time>2021-11-10T19:18:19.060Z</time>
      </trkpt>
      <trkpt lat="47.60149" lon="-3.12896">
        <ele>15.870144</ele>
        <time>2021-11-10T19:18:25.938Z</time>
      </trkpt>
      <trkpt lat="47.60169" lon="-3.12796">
        <ele>15.847358</ele>
        <time>2021-11-10T19:18:39.408Z</time>
      </trkpt>
      <trkpt lat="47.60169" lon="-3.12741">
        <ele>15.710953</ele>
        <time>2021-11-10T19:18:45.833Z</time>
      </trkpt>
      <trkpt lat="47.60169" lon="-3.12732">
        <ele>15.688126</ele>
        <time>2021-11-10T19:18:46.845Z</time>
      </trkpt>
      <trkpt lat="47.60171" lon="-3.12642">
        <ele>15.464077</ele>
        <time>2021-11-10T19:18:57.165Z</time>
      </trkpt>
      <trkpt lat="47.60144" lon="-3.12644">
        <ele>15.380207</ele>
        <time>2021-11-10T19:19:01.517Z</time>
      </trkpt>
      <trkpt lat="47.60118" lon="-3.12554">
        <ele>15.26395</ele>
        <time>2021-11-10T19:19:20.174Z</time>
      </trkpt>
      <trkpt lat="47.60116" lon="-3.12471">
        <ele>15.164853</ele>
        <time>2021-11-10T19:19:36.690Z</time>
      </trkpt>
      <trkpt lat="47.60116" lon="-3.12466">
        <ele>15.158815</ele>
        <time>2021-11-10T19:19:37.646Z</time>
      </trkpt>
      <trkpt lat="47.60101" lon="-3.12393">
        <ele>15.100147</ele>
        <time>2021-11-10T19:19:53.742Z</time>
      </trkpt>
      <trkpt lat="47.60132" lon="-3.12366">
        <ele>15.297556</ele>
        <time>2021-11-10T19:20:02.190Z</time>
      </trkpt>
      <trkpt lat="47.60157" lon="-3.12331">
        <ele>15.485016</ele>
        <time>2021-11-10T19:20:10.046Z</time>
      </trkpt>
      <trkpt lat="47.60192" lon="-3.12282">
        <ele>15.74565</ele>
        <time>2021-11-10T19:20:20.161Z</time>
      </trkpt>
      <trkpt lat="47.60176" lon="-3.12244">
        <ele>15.91238</ele>
        <time>2021-11-10T19:20:26.459Z</time>
      </trkpt>
      <trkpt lat="47.60163" lon="-3.12218">
        <ele>16.031611</ele>
        <time>2021-11-10T19:20:30.714Z</time>
      </trkpt>
      <trkpt lat="47.60143" lon="-3.12236">
        <ele>15.966652</ele>
        <time>2021-11-10T19:20:34.899Z</time>
      </trkpt>
      <trkpt lat="47.60112" lon="-3.12282">
        <ele>15.747162</ele>
        <time>2021-11-10T19:20:42.558Z</time>
      </trkpt>
      <trkpt lat="47.60076" lon="-3.12312">
        <ele>15.545758</ele>
        <time>2021-11-10T19:20:49.512Z</time>
      </trkpt>
      <trkpt lat="47.60056" lon="-3.12337">
        <ele>15.413724</ele>
        <time>2021-11-10T19:20:53.935Z</time>
      </trkpt>
      <trkpt lat="47.60036" lon="-3.12362">
        <ele>15.280879</ele>
        <time>2021-11-10T19:20:58.507Z</time>
      </trkpt>
      <trkpt lat="47.60019" lon="-3.12374">
        <ele>15.189482</ele>
        <time>2021-11-10T19:21:01.709Z</time>
      </trkpt>
      <trkpt lat="47.59991" lon="-3.12376">
        <ele>15.017979</ele>
        <time>2021-11-10T19:21:06.509Z</time>
      </trkpt>
      <trkpt lat="47.59972" lon="-3.12354">
        <ele>14.859825</ele>
        <time>2021-11-10T19:21:13.646Z</time>
      </trkpt>
      <trkpt lat="47.59947" lon="-3.12285">
        <ele>14.513685</ele>
        <time>2021-11-10T19:21:28.612Z</time>
      </trkpt>
      <trkpt lat="47.59931" lon="-3.12206">
        <ele>14.153376</ele>
        <time>2021-11-10T19:21:43.970Z</time>
      </trkpt>
      <trkpt lat="47.5991" lon="-3.12149">
        <ele>13.870836</ele>
        <time>2021-11-10T19:21:53.609Z</time>
      </trkpt>
      <trkpt lat="47.59908" lon="-3.12143">
        <ele>13.841468</ele>
        <time>2021-11-10T19:21:54.625Z</time>
      </trkpt>
      <trkpt lat="47.59904" lon="-3.12125">
        <ele>13.762813</ele>
        <time>2021-11-10T19:21:56.869Z</time>
      </trkpt>
      <trkpt lat="47.59897" lon="-3.12086">
        <ele>13.59174</ele>
        <time>2021-11-10T19:22:01.794Z</time>
      </trkpt>
      <trkpt lat="47.59869" lon="-3.1204">
        <ele>13.330528</ele>
        <time>2021-11-10T19:22:09.539Z</time>
      </trkpt>
      <trkpt lat="47.59865" lon="-3.12033">
        <ele>13.292568</ele>
        <time>2021-11-10T19:22:10.394Z</time>
      </trkpt>
      <trkpt lat="47.59865" lon="-3.11999">
        <ele>13.148352</ele>
        <time>2021-11-10T19:22:14.317Z</time>
      </trkpt>
      <trkpt lat="47.59872" lon="-3.11957">
        <ele>12.966237</ele>
        <time>2021-11-10T19:22:19.111Z</time>
      </trkpt>
      <trkpt lat="47.59872" lon="-3.11953">
        <ele>12.94978</ele>
        <time>2021-11-10T19:22:19.456Z</time>
      </trkpt>
      <trkpt lat="47.59873" lon="-3.11939">
        <ele>12.892932</ele>
        <time>2021-11-10T19:22:21.836Z</time>
      </trkpt>
      <trkpt lat="47.59874" lon="-3.11849">
        <ele>12.886277</ele>
        <time>2021-11-10T19:22:32.021Z</time>
      </trkpt>
      <trkpt lat="47.59874" lon="-3.11849">
        <ele>12.886277</ele>
        <time>2021-11-10T19:22:32.064Z</time>
      </trkpt>
      <trkpt lat="47.59874" lon="-3.11849">
        <ele>12.886277</ele>
        <time>2021-11-10T19:22:32.064Z</time>
      </trkpt>
      <trkpt lat="47.59874" lon="-3.11849">
        <ele>12.886311</ele>
        <time>2021-11-10T19:22:32.090Z</time>
      </trkpt>
      <trkpt lat="47.59861" lon="-3.1184">
        <ele>12.891164</ele>
        <time>2021-11-10T19:22:35.771Z</time>
      </trkpt>
      <trkpt lat="47.59861" lon="-3.1184">
        <ele>12.891164</ele>
        <time>2021-11-10T19:22:35.771Z</time>
      </trkpt>
      <trkpt lat="47.59843" lon="-3.11843">
        <ele>12.897625</ele>
        <time>2021-11-10T19:22:40.669Z</time>
      </trkpt>
      <trkpt lat="47.59843" lon="-3.11843">
        <ele>12.897625</ele>
        <time>2021-11-10T19:22:40.669Z</time>
      </trkpt>
      <trkpt lat="47.59824" lon="-3.11846">
        <ele>12.903901</ele>
        <time>2021-11-10T19:22:45.426Z</time>
      </trkpt>
      <trkpt lat="47.59824" lon="-3.11846">
        <ele>12.903901</ele>
        <time>2021-11-10T19:22:45.426Z</time>
      </trkpt>
      <trkpt lat="47.59803" lon="-3.11856">
        <ele>12.911407</ele>
        <time>2021-11-10T19:22:51.116Z</time>
      </trkpt>
      <trkpt lat="47.59803" lon="-3.11856">
        <ele>12.911407</ele>
        <time>2021-11-10T19:22:51.120Z</time>
      </trkpt>
      <trkpt lat="47.59784" lon="-3.11895">
        <ele>12.922558</ele>
        <time>2021-11-10T19:22:59.571Z</time>
      </trkpt>
      <trkpt lat="47.59765" lon="-3.11893">
        <ele>12.961777</ele>
        <time>2021-11-10T19:23:05.426Z</time>
      </trkpt>
      <trkpt lat="47.59752" lon="-3.11892">
        <ele>13.114211</ele>
        <time>2021-11-10T19:23:09.991Z</time>
      </trkpt>
      <trkpt lat="47.59746" lon="-3.11885">
        <ele>13.206963</ele>
        <time>2021-11-10T19:23:11.853Z</time>
      </trkpt>
      <trkpt lat="47.59746" lon="-3.11882">
        <ele>13.231258</ele>
        <time>2021-11-10T19:23:12.773Z</time>
      </trkpt>
      <trkpt lat="47.59739" lon="-3.11849">
        <ele>13.516951</ele>
        <time>2021-11-10T19:23:19.076Z</time>
      </trkpt>
      <trkpt lat="47.59749" lon="-3.11833">
        <ele>13.694663</ele>
        <time>2021-11-10T19:23:22.020Z</time>
      </trkpt>
      <trkpt lat="47.59734" lon="-3.11807">
        <ele>13.972238</ele>
        <time>2021-11-10T19:23:26.722Z</time>
      </trkpt>
      <trkpt lat="47.59702" lon="-3.11787">
        <ele>14.398874</ele>
        <time>2021-11-10T19:23:34.736Z</time>
      </trkpt>
      <trkpt lat="47.597" lon="-3.11772">
        <ele>14.524649</ele>
        <time>2021-11-10T19:23:37.143Z</time>
      </trkpt>
      <trkpt lat="47.59686" lon="-3.11766">
        <ele>14.707577</ele>
        <time>2021-11-10T19:23:40.977Z</time>
      </trkpt>
      <trkpt lat="47.59651" lon="-3.11764">
        <ele>15.142263</ele>
        <time>2021-11-10T19:23:50.620Z</time>
      </trkpt>
      <trkpt lat="47.59645" lon="-3.11753">
        <ele>15.375572</ele>
        <time>2021-11-10T19:23:53.556Z</time>
      </trkpt>
      <trkpt lat="47.59641" lon="-3.11736">
        <ele>15.658524</ele>
        <time>2021-11-10T19:23:56.856Z</time>
      </trkpt>
      <trkpt lat="47.59626" lon="-3.11678">
        <ele>16.651696</ele>
        <time>2021-11-10T19:24:08.637Z</time>
      </trkpt>
      <trkpt lat="47.59619" lon="-3.11632">
        <ele>17.400665</ele>
        <time>2021-11-10T19:24:17.765Z</time>
      </trkpt>
      <trkpt lat="47.59621" lon="-3.11618">
        <ele>17.628571</ele>
        <time>2021-11-10T19:24:20.560Z</time>
      </trkpt>
      <trkpt lat="47.59643" lon="-3.11468">
        <ele>19.796671</ele>
        <time>2021-11-10T19:24:49.882Z</time>
      </trkpt>
      <trkpt lat="47.59648" lon="-3.11457">
        <ele>19.923606</ele>
        <time>2021-11-10T19:24:52.423Z</time>
      </trkpt>
      <trkpt lat="47.59643" lon="-3.1145">
        <ele>20.020573</ele>
        <time>2021-11-10T19:24:54.209Z</time>
      </trkpt>
      <trkpt lat="47.5964" lon="-3.11431">
        <ele>20.205642</ele>
        <time>2021-11-10T19:24:57.591Z</time>
      </trkpt>
      <trkpt lat="47.59637" lon="-3.11387">
        <ele>20.620275</ele>
        <time>2021-11-10T19:25:05.168Z</time>
      </trkpt>
      <trkpt lat="47.59634" lon="-3.1137">
        <ele>20.781231</ele>
        <time>2021-11-10T19:25:07.980Z</time>
      </trkpt>
      <trkpt lat="47.5963" lon="-3.11339">
        <ele>21.081429</ele>
        <time>2021-11-10T19:25:13.101Z</time>
      </trkpt>
      <trkpt lat="47.5963" lon="-3.1132">
        <ele>21.257028</ele>
        <time>2021-11-10T19:25:15.828Z</time>
      </trkpt>
      <trkpt lat="47.5963" lon="-3.11287">
        <ele>21.56876</ele>
        <time>2021-11-10T19:25:20.618Z</time>
      </trkpt>
      <trkpt lat="47.5963" lon="-3.11265">
        <ele>21.774387</ele>
        <time>2021-11-10T19:25:23.597Z</time>
      </trkpt>
      <trkpt lat="47.59682" lon="-3.11241">
        <ele>21.783918</ele>
        <time>2021-11-10T19:25:33.865Z</time>
      </trkpt>
      <trkpt lat="47.59725" lon="-3.11237">
        <ele>21.680493</ele>
        <time>2021-11-10T19:25:41.592Z</time>
      </trkpt>
      <trkpt lat="47.59727" lon="-3.11204">
        <ele>21.625157</ele>
        <time>2021-11-10T19:25:45.669Z</time>
      </trkpt>
      <trkpt lat="47.59726" lon="-3.11196">
        <ele>21.612908</ele>
        <time>2021-11-10T19:25:46.569Z</time>
      </trkpt>
      <trkpt lat="47.59726" lon="-3.11149">
        <ele>21.534948</ele>
        <time>2021-11-10T19:25:52.219Z</time>
      </trkpt>
      <trkpt lat="47.59726" lon="-3.11113">
        <ele>21.476438</ele>
        <time>2021-11-10T19:25:56.430Z</time>
      </trkpt>
      <trkpt lat="47.59699" lon="-3.11103">
        <ele>21.198685</ele>
        <time>2021-11-10T19:26:01.082Z</time>
      </trkpt>
      <trkpt lat="47.59649" lon="-3.11105">
        <ele>20.548853</ele>
        <time>2021-11-10T19:26:09.352Z</time>
      </trkpt>
      <trkpt lat="47.59602" lon="-3.11101">
        <ele>19.940904</ele>
        <time>2021-11-10T19:26:16.917Z</time>
      </trkpt>
      <trkpt lat="47.59537" lon="-3.11037">
        <ele>18.8937</ele>
        <time>2021-11-10T19:26:29.178Z</time>
      </trkpt>
      <trkpt lat="47.59503" lon="-3.11014">
        <ele>18.299481</ele>
        <time>2021-11-10T19:26:35.059Z</time>
      </trkpt>
      <trkpt lat="47.59394" lon="-3.10938">
        <ele>16.422133</ele>
        <time>2021-11-10T19:26:53.971Z</time>
      </trkpt>
      <trkpt lat="47.59234" lon="-3.10813">
        <ele>15.031273</ele>
        <time>2021-11-10T19:27:24.744Z</time>
      </trkpt>
      <trkpt lat="47.59131" lon="-3.1069">
        <ele>15.135989</ele>
        <time>2021-11-10T19:27:50.070Z</time>
      </trkpt>
      <trkpt lat="47.59119" lon="-3.10676">
        <ele>15.153639</ele>
        <time>2021-11-10T19:27:53.210Z</time>
      </trkpt>
      <trkpt lat="47.59056" lon="-3.10582">
        <ele>15.049964</ele>
        <time>2021-11-10T19:28:11.180Z</time>
      </trkpt>
      <trkpt lat="47.59015" lon="-3.10498">
        <ele>14.851143</ele>
        <time>2021-11-10T19:28:23.632Z</time>
      </trkpt>
      <trkpt lat="47.58986" lon="-3.10466">
        <ele>14.749755</ele>
        <time>2021-11-10T19:28:29.789Z</time>
      </trkpt>
      <trkpt lat="47.58973" lon="-3.10464">
        <ele>14.71319</ele>
        <time>2021-11-10T19:28:31.993Z</time>
      </trkpt>
      <trkpt lat="47.58893" lon="-3.10468">
        <ele>13.375485</ele>
        <time>2021-11-10T19:28:45.192Z</time>
      </trkpt>
      <trkpt lat="47.58834" lon="-3.10517">
        <ele>12.128584</ele>
        <time>2021-11-10T19:28:55.596Z</time>
      </trkpt>
      <trkpt lat="47.58762" lon="-3.10493">
        <ele>10.337537</ele>
        <time>2021-11-10T19:29:06.517Z</time>
      </trkpt>
      <trkpt lat="47.58646" lon="-3.10497">
        <ele>6.713218</ele>
        <time>2021-11-10T19:29:22.773Z</time>
      </trkpt>
      <trkpt lat="47.58548" lon="-3.10487">
        <ele>4.546086</ele>
        <time>2021-11-10T19:29:37.229Z</time>
      </trkpt>
      <trkpt lat="47.58534" lon="-3.10479">
        <ele>4.284953</ele>
        <time>2021-11-10T19:29:39.461Z</time>
      </trkpt>
      <trkpt lat="47.58526" lon="-3.10417">
        <ele>3.539</ele>
        <time>2021-11-10T19:29:46.161Z</time>
      </trkpt>
      <trkpt lat="47.58517" lon="-3.10395">
        <ele>3.242063</ele>
        <time>2021-11-10T19:29:48.954Z</time>
      </trkpt>
      <trkpt lat="47.58489" lon="-3.10348">
        <ele>2.567027</ele>
        <time>2021-11-10T19:29:56.151Z</time>
      </trkpt>
      <trkpt lat="47.5847" lon="-3.10328">
        <ele>2.644937</ele>
        <time>2021-11-10T19:30:00.617Z</time>
      </trkpt>
      <trkpt lat="47.58453" lon="-3.10319">
        <ele>2.706555</ele>
        <time>2021-11-10T19:30:04.050Z</time>
      </trkpt>
      <trkpt lat="47.58381" lon="-3.10304">
        <ele>2.94852</ele>
        <time>2021-11-10T19:30:20.503Z</time>
      </trkpt>
      <trkpt lat="47.5832" lon="-3.10295">
        <ele>3.154272</ele>
        <time>2021-11-10T19:30:32.763Z</time>
      </trkpt>
      <trkpt lat="47.58232" lon="-3.10251">
        <ele>3.023625</ele>
        <time>2021-11-10T19:30:49.861Z</time>
      </trkpt>
      <trkpt lat="47.58213" lon="-3.1025">
        <ele>2.99573</ele>
        <time>2021-11-10T19:30:53.656Z</time>
      </trkpt>
      <trkpt lat="47.58184" lon="-3.1028">
        <ele>2.943059</ele>
        <time>2021-11-10T19:31:00.044Z</time>
      </trkpt>
      <trkpt lat="47.58141" lon="-3.10345">
        <ele>2.755147</ele>
        <time>2021-11-10T19:31:10.458Z</time>
      </trkpt>
      <trkpt lat="47.58123" lon="-3.10352">
        <ele>2.661488</ele>
        <time>2021-11-10T19:31:13.757Z</time>
      </trkpt>
      <trkpt lat="47.58117" lon="-3.10349">
        <ele>2.62758</ele>
        <time>2021-11-10T19:31:14.777Z</time>
      </trkpt>
      <trkpt lat="47.58103" lon="-3.1029">
        <ele>2.41655</ele>
        <time>2021-11-10T19:31:22.006Z</time>
      </trkpt>
      <trkpt lat="47.58078" lon="-3.10287">
        <ele>2.291557</ele>
        <time>2021-11-10T19:31:26.420Z</time>
      </trkpt>
      <trkpt lat="47.58051" lon="-3.10234">
        <ele>2.064688</ele>
        <time>2021-11-10T19:31:34.241Z</time>
      </trkpt>
      <trkpt lat="47.58035" lon="-3.1021">
        <ele>2.016856</ele>
        <time>2021-11-10T19:31:38.441Z</time>
      </trkpt>
      <trkpt lat="47.58025" lon="-3.10187">
        <ele>2.08744</ele>
        <time>2021-11-10T19:31:41.541Z</time>
      </trkpt>
      <trkpt lat="47.58023" lon="-3.10139">
        <ele>2.214028</ele>
        <time>2021-11-10T19:31:47.878Z</time>
      </trkpt>
      <trkpt lat="47.58026" lon="-3.10116">
        <ele>2.274414</ele>
        <time>2021-11-10T19:31:51.032Z</time>
      </trkpt>
      <trkpt lat="47.58033" lon="-3.10054">
        <ele>2.43833</ele>
        <time>2021-11-10T19:32:00.049Z</time>
      </trkpt>
      <trkpt lat="47.58061" lon="-3.09985">
        <ele>2.647173</ele>
        <time>2021-11-10T19:32:11.606Z</time>
      </trkpt>
      <trkpt lat="47.58108" lon="-3.09897">
        <ele>3.157538</ele>
        <time>2021-11-10T19:32:27.583Z</time>
      </trkpt>
      <trkpt lat="47.58114" lon="-3.09883">
        <ele>3.235747</ele>
        <time>2021-11-10T19:32:29.891Z</time>
      </trkpt>
      <trkpt lat="47.58149" lon="-3.09797">
        <ele>3.717143</ele>
        <time>2021-11-10T19:32:43.602Z</time>
      </trkpt>
      <trkpt lat="47.58208" lon="-3.09634">
        <ele>5.454168</ele>
        <time>2021-11-10T19:33:09.252Z</time>
      </trkpt>
      <trkpt lat="47.58249" lon="-3.09552">
        <ele>6.598652</ele>
        <time>2021-11-10T19:33:27.280Z</time>
      </trkpt>
      <trkpt lat="47.58299" lon="-3.09431">
        <ele>9.741986</ele>
        <time>2021-11-10T19:33:57.828Z</time>
      </trkpt>
      <trkpt lat="47.5838" lon="-3.09321">
        <ele>13.77087</ele>
        <time>2021-11-10T19:34:36.043Z</time>
      </trkpt>
      <trkpt lat="47.58384" lon="-3.09326">
        <ele>13.902926</ele>
        <time>2021-11-10T19:34:37.852Z</time>
      </trkpt>
      <trkpt lat="47.58466" lon="-3.09323">
        <ele>15.831473</ele>
        <time>2021-11-10T19:35:03.111Z</time>
      </trkpt>
      <trkpt lat="47.58529" lon="-3.09315">
        <ele>17.332873</ele>
        <time>2021-11-10T19:35:26.803Z</time>
      </trkpt>
      <trkpt lat="47.58582" lon="-3.093">
        <ele>17.819107</ele>
        <time>2021-11-10T19:35:43.775Z</time>
      </trkpt>
      <trkpt lat="47.58602" lon="-3.09294">
        <ele>17.77226</ele>
        <time>2021-11-10T19:35:50.034Z</time>
      </trkpt>
      <trkpt lat="47.58618" lon="-3.09296">
        <ele>17.736655</ele>
        <time>2021-11-10T19:35:54.610Z</time>
      </trkpt>
      <trkpt lat="47.58643" lon="-3.09279">
        <ele>17.672909</ele>
        <time>2021-11-10T19:36:02.824Z</time>
      </trkpt>
      <trkpt lat="47.58643" lon="-3.09233">
        <ele>17.602971</ele>
        <time>2021-11-10T19:36:08.134Z</time>
      </trkpt>
      <trkpt lat="47.58635" lon="-3.09181">
        <ele>17.519609</ele>
        <time>2021-11-10T19:36:14.263Z</time>
      </trkpt>
      <trkpt lat="47.5864" lon="-3.09175">
        <ele>17.503527</ele>
        <time>2021-11-10T19:36:15.450Z</time>
      </trkpt>
      <trkpt lat="47.5869" lon="-3.09156">
        <ele>17.262719</ele>
        <time>2021-11-10T19:36:23.963Z</time>
      </trkpt>
      <trkpt lat="47.58717" lon="-3.09138">
        <ele>17.106025</ele>
        <time>2021-11-10T19:36:28.858Z</time>
      </trkpt>
      <trkpt lat="47.58755" lon="-3.0907">
        <ele>16.789913</ele>
        <time>2021-11-10T19:36:39.042Z</time>
      </trkpt>
      <trkpt lat="47.58762" lon="-3.09055">
        <ele>16.723825</ele>
        <time>2021-11-10T19:36:41.312Z</time>
      </trkpt>
      <trkpt lat="47.58779" lon="-3.09032">
        <ele>16.600382</ele>
        <time>2021-11-10T19:36:45.633Z</time>
      </trkpt>
      <trkpt lat="47.58788" lon="-3.09027">
        <ele>16.551126</ele>
        <time>2021-11-10T19:36:47.364Z</time>
      </trkpt>
      <trkpt lat="47.58786" lon="-3.09012">
        <ele>16.543183</ele>
        <time>2021-11-10T19:36:49.367Z</time>
      </trkpt>
      <trkpt lat="47.58793" lon="-3.09001">
        <ele>16.601591</ele>
        <time>2021-11-10T19:36:51.310Z</time>
      </trkpt>
      <trkpt lat="47.58806" lon="-3.09002">
        <ele>16.680031</ele>
        <time>2021-11-10T19:36:53.756Z</time>
      </trkpt>
      <trkpt lat="47.5881" lon="-3.08992">
        <ele>16.728668</ele>
        <time>2021-11-10T19:36:55.540Z</time>
      </trkpt>
      <trkpt lat="47.58833" lon="-3.08951">
        <ele>16.935</ele>
        <time>2021-11-10T19:37:02.716Z</time>
      </trkpt>
      <trkpt lat="47.58874" lon="-3.08913">
        <ele>17.21231</ele>
        <time>2021-11-10T19:37:12.971Z</time>
      </trkpt>
      <trkpt lat="47.58891" lon="-3.08861">
        <ele>17.437116</ele>
        <time>2021-11-10T19:37:21.606Z</time>
      </trkpt>
      <trkpt lat="47.58922" lon="-3.08824">
        <ele>17.696766</ele>
        <time>2021-11-10T19:37:30.290Z</time>
      </trkpt>
      <trkpt lat="47.58952" lon="-3.08801">
        <ele>17.952045</ele>
        <time>2021-11-10T19:37:37.906Z</time>
      </trkpt>
      <trkpt lat="47.58963" lon="-3.08785">
        <ele>18.071332</ele>
        <time>2021-11-10T19:37:41.403Z</time>
      </trkpt>
      <trkpt lat="47.58976" lon="-3.08769">
        <ele>18.197016</ele>
        <time>2021-11-10T19:37:45.160Z</time>
      </trkpt>
      <trkpt lat="47.58985" lon="-3.08741">
        <ele>18.354312</ele>
        <time>2021-11-10T19:37:49.715Z</time>
      </trkpt>
      <trkpt lat="47.58998" lon="-3.08659">
        <ele>18.779505</ele>
        <time>2021-11-10T19:38:01.797Z</time>
      </trkpt>
      <trkpt lat="47.59026" lon="-3.0864">
        <ele>18.929995</ele>
        <time>2021-11-10T19:38:07.606Z</time>
      </trkpt>
      <trkpt lat="47.59054" lon="-3.08627">
        <ele>18.977699</ele>
        <time>2021-11-10T19:38:13.390Z</time>
      </trkpt>
      <trkpt lat="47.59096" lon="-3.08634">
        <ele>19.043253</ele>
        <time>2021-11-10T19:38:21.310Z</time>
      </trkpt>
      <trkpt lat="47.59102" lon="-3.0862">
        <ele>19.060596</ele>
        <time>2021-11-10T19:38:23.445Z</time>
      </trkpt>
      <trkpt lat="47.5913" lon="-3.08601">
        <ele>19.108557</ele>
        <time>2021-11-10T19:38:29.005Z</time>
      </trkpt>
      <trkpt lat="47.59138" lon="-3.08558">
        <ele>19.155843</ele>
        <time>2021-11-10T19:38:34.328Z</time>
      </trkpt>
      <trkpt lat="47.59185" lon="-3.08555">
        <ele>19.154089</ele>
        <time>2021-11-10T19:38:42.369Z</time>
      </trkpt>
      <trkpt lat="47.59185" lon="-3.08555">
        <ele>19.154089</ele>
        <time>2021-11-10T19:38:42.392Z</time>
      </trkpt>
      <trkpt lat="47.59185" lon="-3.08555">
        <ele>19.154089</ele>
        <time>2021-11-10T19:38:42.414Z</time>
      </trkpt>
      <trkpt lat="47.59138" lon="-3.08558">
        <ele>19.072965</ele>
        <time>2021-11-10T19:38:50.260Z</time>
      </trkpt>
      <trkpt lat="47.59133" lon="-3.08538">
        <ele>19.048181</ele>
        <time>2021-11-10T19:38:52.651Z</time>
      </trkpt>
      <trkpt lat="47.59126" lon="-3.08526">
        <ele>19.028509</ele>
        <time>2021-11-10T19:38:54.561Z</time>
      </trkpt>
      <trkpt lat="47.59047" lon="-3.08509">
        <ele>18.890732</ele>
        <time>2021-11-10T19:39:08.422Z</time>
      </trkpt>
      <trkpt lat="47.59031" lon="-3.085">
        <ele>18.938947</ele>
        <time>2021-11-10T19:39:11.620Z</time>
      </trkpt>
      <trkpt lat="47.59025" lon="-3.08504">
        <ele>18.972408</ele>
        <time>2021-11-10T19:39:12.901Z</time>
      </trkpt>
      <trkpt lat="47.5902" lon="-3.08493">
        <ele>19.015079</ele>
        <time>2021-11-10T19:39:14.553Z</time>
      </trkpt>
      <trkpt lat="47.59021" lon="-3.08489">
        <ele>19.028871</ele>
        <time>2021-11-10T19:39:15.093Z</time>
      </trkpt>
      <trkpt lat="47.59023" lon="-3.08487">
        <ele>19.039127</ele>
        <time>2021-11-10T19:39:15.496Z</time>
      </trkpt>
      <trkpt lat="47.59031" lon="-3.0849">
        <ele>19.081298</ele>
        <time>2021-11-10T19:39:17.164Z</time>
      </trkpt>
      <trkpt lat="47.59034" lon="-3.08489">
        <ele>19.093927</ele>
        <time>2021-11-10T19:39:17.685Z</time>
      </trkpt>
      <trkpt lat="47.59073" lon="-3.08464">
        <ele>19.298604</ele>
        <time>2021-11-10T19:39:26.015Z</time>
      </trkpt>
      <trkpt lat="47.59119" lon="-3.08399">
        <ele>19.604175</ele>
        <time>2021-11-10T19:39:39.088Z</time>
      </trkpt>
      <trkpt lat="47.59158" lon="-3.08337">
        <ele>19.854191</ele>
        <time>2021-11-10T19:39:51.051Z</time>
      </trkpt>
      <trkpt lat="47.59169" lon="-3.0832">
        <ele>19.918318</ele>
        <time>2021-11-10T19:39:54.311Z</time>
      </trkpt>
      <trkpt lat="47.59181" lon="-3.08299">
        <ele>19.993238</ele>
        <time>2021-11-10T19:39:58.117Z</time>
      </trkpt>
      <trkpt lat="47.59207" lon="-3.08258">
        <ele>20.14468</ele>
        <time>2021-11-10T19:40:05.533Z</time>
      </trkpt>
      <trkpt lat="47.5923" lon="-3.08198">
        <ele>20.329698</ele>
        <time>2021-11-10T19:40:14.307Z</time>
      </trkpt>
      <trkpt lat="47.59255" lon="-3.08106">
        <ele>20.440749</ele>
        <time>2021-11-10T19:40:26.462Z</time>
      </trkpt>
      <trkpt lat="47.59266" lon="-3.0805">
        <ele>20.416009</ele>
        <time>2021-11-10T19:40:33.454Z</time>
      </trkpt>
      <trkpt lat="47.59269" lon="-3.08028">
        <ele>20.406734</ele>
        <time>2021-11-10T19:40:36.067Z</time>
      </trkpt>
      <trkpt lat="47.59329" lon="-3.07842">
        <ele>20.139703</ele>
        <time>2021-11-10T19:41:00.342Z</time>
      </trkpt>
      <trkpt lat="47.59366" lon="-3.0768">
        <ele>19.628215</ele>
        <time>2021-11-10T19:41:19.749Z</time>
      </trkpt>
      <trkpt lat="47.59391" lon="-3.07583">
        <ele>19.158556</ele>
        <time>2021-11-10T19:41:31.094Z</time>
      </trkpt>
      <trkpt lat="47.59396" lon="-3.07555">
        <ele>19.011469</ele>
        <time>2021-11-10T19:41:34.316Z</time>
      </trkpt>
      <trkpt lat="47.59392" lon="-3.07548">
        <ele>18.96165</ele>
        <time>2021-11-10T19:41:35.416Z</time>
      </trkpt>
      <trkpt lat="47.59398" lon="-3.07539">
        <ele>18.896501</ele>
        <time>2021-11-10T19:41:36.818Z</time>
      </trkpt>
      <trkpt lat="47.59401" lon="-3.07542">
        <ele>18.874114</ele>
        <time>2021-11-10T19:41:37.315Z</time>
      </trkpt>
      <trkpt lat="47.59428" lon="-3.07522">
        <ele>18.647273</ele>
        <time>2021-11-10T19:41:42.278Z</time>
      </trkpt>
      <trkpt lat="47.59426" lon="-3.07515">
        <ele>18.60975</ele>
        <time>2021-11-10T19:41:43.663Z</time>
      </trkpt>
      <trkpt lat="47.59437" lon="-3.07496">
        <ele>18.487025</ele>
        <time>2021-11-10T19:41:48.263Z</time>
      </trkpt>
      <trkpt lat="47.59435" lon="-3.07461">
        <ele>18.30923</ele>
        <time>2021-11-10T19:41:54.874Z</time>
      </trkpt>
      <trkpt lat="47.59447" lon="-3.07432">
        <ele>18.111559</ele>
        <time>2021-11-10T19:42:01.196Z</time>
      </trkpt>
      <trkpt lat="47.59413" lon="-3.07362">
        <ele>17.496508</ele>
        <time>2021-11-10T19:42:17.175Z</time>
      </trkpt>
      <trkpt lat="47.59399" lon="-3.07353">
        <ele>17.329171</ele>
        <time>2021-11-10T19:42:21.482Z</time>
      </trkpt>
      <trkpt lat="47.5938" lon="-3.07342">
        <ele>17.113574</ele>
        <time>2021-11-10T19:42:27.147Z</time>
      </trkpt>
      <trkpt lat="47.59361" lon="-3.07334">
        <ele>16.907977</ele>
        <time>2021-11-10T19:42:32.470Z</time>
      </trkpt>
      <trkpt lat="47.59326" lon="-3.07299">
        <ele>16.45959</ele>
        <time>2021-11-10T19:42:44.075Z</time>
      </trkpt>
      <trkpt lat="47.59297" lon="-3.07273">
        <ele>16.068793</ele>
        <time>2021-11-10T19:42:53.186Z</time>
      </trkpt>
      <trkpt lat="47.59217" lon="-3.07248">
        <ele>15.056446</ele>
        <time>2021-11-10T19:43:15.189Z</time>
      </trkpt>
      <trkpt lat="47.59184" lon="-3.07217">
        <ele>14.574211</ele>
        <time>2021-11-10T19:43:25.754Z</time>
      </trkpt>
      <trkpt lat="47.59155" lon="-3.07173">
        <ele>14.084001</ele>
        <time>2021-11-10T19:43:37.076Z</time>
      </trkpt>
      <trkpt lat="47.59112" lon="-3.07125">
        <ele>13.91573</ele>
        <time>2021-11-10T19:43:52.467Z</time>
      </trkpt>
      <trkpt lat="47.59045" lon="-3.07074">
        <ele>13.678306</ele>
        <time>2021-11-10T19:44:14.482Z</time>
      </trkpt>
      <trkpt lat="47.59009" lon="-3.07085">
        <ele>13.564698</ele>
        <time>2021-11-10T19:44:25.446Z</time>
      </trkpt>
      <trkpt lat="47.58979" lon="-3.07072">
        <ele>13.391193</ele>
        <time>2021-11-10T19:44:35.288Z</time>
      </trkpt>
      <trkpt lat="47.58942" lon="-3.07069">
        <ele>13.138858</ele>
        <time>2021-11-10T19:44:46.102Z</time>
      </trkpt>
      <trkpt lat="47.58931" lon="-3.0708">
        <ele>13.047415</ele>
        <time>2021-11-10T19:44:49.981Z</time>
      </trkpt>
      <trkpt lat="47.58915" lon="-3.07064">
        <ele>12.91692</ele>
        <time>2021-11-10T19:44:55.336Z</time>
      </trkpt>
      <trkpt lat="47.58894" lon="-3.07019">
        <ele>12.666999</ele>
        <time>2021-11-10T19:45:05.408Z</time>
      </trkpt>
      <trkpt lat="47.58878" lon="-3.07002">
        <ele>12.530089</ele>
        <time>2021-11-10T19:45:10.806Z</time>
      </trkpt>
      <trkpt lat="47.58859" lon="-3.06985">
        <ele>12.37655</ele>
        <time>2021-11-10T19:45:16.895Z</time>
      </trkpt>
      <trkpt lat="47.58835" lon="-3.06976">
        <ele>12.213372</ele>
        <time>2021-11-10T19:45:23.490Z</time>
      </trkpt>
      <trkpt lat="47.58817" lon="-3.06973">
        <ele>12.09632</ele>
        <time>2021-11-10T19:45:27.361Z</time>
      </trkpt>
      <trkpt lat="47.58821" lon="-3.06864">
        <ele>11.62512</ele>
        <time>2021-11-10T19:45:47.569Z</time>
      </trkpt>
      <trkpt lat="47.58823" lon="-3.06697">
        <ele>11.500058</ele>
        <time>2021-11-10T19:46:20.688Z</time>
      </trkpt>
      <trkpt lat="47.58816" lon="-3.06623">
        <ele>11.988515</ele>
        <time>2021-11-10T19:46:37.988Z</time>
      </trkpt>
      <trkpt lat="47.58833" lon="-3.0653">
        <ele>12.624095</ele>
        <time>2021-11-10T19:47:01.274Z</time>
      </trkpt>
      <trkpt lat="47.58839" lon="-3.06446">
        <ele>12.943841</ele>
        <time>2021-11-10T19:47:21.246Z</time>
      </trkpt>
      <trkpt lat="47.58823" lon="-3.06382">
        <ele>13.023205</ele>
        <time>2021-11-10T19:47:36.064Z</time>
      </trkpt>
      <trkpt lat="47.58826" lon="-3.06339">
        <ele>13.073376</ele>
        <time>2021-11-10T19:47:44.707Z</time>
      </trkpt>
      <trkpt lat="47.58827" lon="-3.0632">
        <ele>13.096135</ele>
        <time>2021-11-10T19:47:48.550Z</time>
      </trkpt>
      <trkpt lat="47.58804" lon="-3.06227">
        <ele>13.149585</ele>
        <time>2021-11-10T19:48:07.459Z</time>
      </trkpt>
      <trkpt lat="47.588" lon="-3.0617">
        <ele>12.649312</ele>
        <time>2021-11-10T19:48:18.319Z</time>
      </trkpt>
      <trkpt lat="47.58774" lon="-3.06079">
        <ele>11.799121</ele>
        <time>2021-11-10T19:48:36.489Z</time>
      </trkpt>
      <trkpt lat="47.58766" lon="-3.06003">
        <ele>11.140335</ele>
        <time>2021-11-10T19:48:50.103Z</time>
      </trkpt>
      <trkpt lat="47.58767" lon="-3.05956">
        <ele>10.672063</ele>
        <time>2021-11-10T19:48:58.417Z</time>
      </trkpt>
      <trkpt lat="47.58761" lon="-3.0595">
        <ele>10.54585</ele>
        <time>2021-11-10T19:48:59.543Z</time>
      </trkpt>
      <trkpt lat="47.58759" lon="-3.05939">
        <ele>10.419212</ele>
        <time>2021-11-10T19:49:00.667Z</time>
      </trkpt>
      <trkpt lat="47.58763" lon="-3.0593">
        <ele>10.289864</ele>
        <time>2021-11-10T19:49:01.780Z</time>
      </trkpt>
      <trkpt lat="47.58771" lon="-3.05927">
        <ele>10.161764</ele>
        <time>2021-11-10T19:49:02.904Z</time>
      </trkpt>
      <trkpt lat="47.58777" lon="-3.05933">
        <ele>10.032857</ele>
        <time>2021-11-10T19:49:04.083Z</time>
      </trkpt>
      <trkpt lat="47.58784" lon="-3.05925">
        <ele>9.87113</ele>
        <time>2021-11-10T19:49:05.520Z</time>
      </trkpt>
      <trkpt lat="47.58816" lon="-3.05884">
        <ele>9.160181</ele>
        <time>2021-11-10T19:49:11.777Z</time>
      </trkpt>
      <trkpt lat="47.58825" lon="-3.05873">
        <ele>8.960741</ele>
        <time>2021-11-10T19:49:13.478Z</time>
      </trkpt>
      <trkpt lat="47.58854" lon="-3.05846">
        <ele>8.365963</ele>
        <time>2021-11-10T19:49:18.696Z</time>
      </trkpt>
      <trkpt lat="47.58925" lon="-3.05669">
        <ele>6.037822</ele>
        <time>2021-11-10T19:49:40.355Z</time>
      </trkpt>
      <trkpt lat="47.58988" lon="-3.0551">
        <ele>4.886842</ele>
        <time>2021-11-10T19:50:13.486Z</time>
      </trkpt>
      <trkpt lat="47.58993" lon="-3.0546">
        <ele>4.922127</ele>
        <time>2021-11-10T19:50:23.109Z</time>
      </trkpt>
      <trkpt lat="47.59008" lon="-3.05406">
        <ele>4.963523</ele>
        <time>2021-11-10T19:50:35.518Z</time>
      </trkpt>
      <trkpt lat="47.59032" lon="-3.0535">
        <ele>5.010082</ele>
        <time>2021-11-10T19:50:51.284Z</time>
      </trkpt>
      <trkpt lat="47.59059" lon="-3.05294">
        <ele>5.877246</ele>
        <time>2021-11-10T19:51:09.133Z</time>
      </trkpt>
      <trkpt lat="47.59064" lon="-3.05266">
        <ele>6.34383</ele>
        <time>2021-11-10T19:51:17.121Z</time>
      </trkpt>
      <trkpt lat="47.5906" lon="-3.05193">
        <ele>7.508993</ele>
        <time>2021-11-10T19:51:37.856Z</time>
      </trkpt>
      <trkpt lat="47.59069" lon="-3.05138">
        <ele>8.415494</ele>
        <time>2021-11-10T19:51:53.552Z</time>
      </trkpt>
      <trkpt lat="47.59088" lon="-3.05074">
        <ele>9.249956</ele>
        <time>2021-11-10T19:52:06.365Z</time>
      </trkpt>
      <trkpt lat="47.5909" lon="-3.04999">
        <ele>9.120999</ele>
        <time>2021-11-10T19:52:17.579Z</time>
      </trkpt>
      <trkpt lat="47.59104" lon="-3.04907">
        <ele>8.957008</ele>
        <time>2021-11-10T19:52:28.769Z</time>
      </trkpt>
      <trkpt lat="47.59105" lon="-3.04889">
        <ele>8.926882</ele>
        <time>2021-11-10T19:52:30.637Z</time>
      </trkpt>
      <trkpt lat="47.59112" lon="-3.04796">
        <ele>8.616671</ele>
        <time>2021-11-10T19:52:47.088Z</time>
      </trkpt>
      <trkpt lat="47.59119" lon="-3.04748">
        <ele>8.283844</ele>
        <time>2021-11-10T19:52:55.771Z</time>
      </trkpt>
      <trkpt lat="47.59124" lon="-3.04718">
        <ele>8.082241</ele>
        <time>2021-11-10T19:53:01.146Z</time>
      </trkpt>
      <trkpt lat="47.59117" lon="-3.04649">
        <ele>7.617242</ele>
        <time>2021-11-10T19:53:13.728Z</time>
      </trkpt>
      <trkpt lat="47.59105" lon="-3.04478">
        <ele>8.294899</ele>
        <time>2021-11-10T19:53:49.589Z</time>
      </trkpt>
      <trkpt lat="47.59097" lon="-3.04232">
        <ele>12.655999</ele>
        <time>2021-11-10T19:54:59.960Z</time>
      </trkpt>
      <trkpt lat="47.59079" lon="-3.04207">
        <ele>13.584897</ele>
        <time>2021-11-10T19:55:11.402Z</time>
      </trkpt>
      <trkpt lat="47.59068" lon="-3.04196">
        <ele>14.092674</ele>
        <time>2021-11-10T19:55:17.253Z</time>
      </trkpt>
      <trkpt lat="47.59058" lon="-3.04176">
        <ele>14.719985</ele>
        <time>2021-11-10T19:55:25.032Z</time>
      </trkpt>
      <trkpt lat="47.59056" lon="-3.04131">
        <ele>15.886918</ele>
        <time>2021-11-10T19:55:35.941Z</time>
      </trkpt>
      <trkpt lat="47.59059" lon="-3.04077">
        <ele>17.26972</ele>
        <time>2021-11-10T19:55:49.013Z</time>
      </trkpt>
      <trkpt lat="47.59075" lon="-3.03977">
        <ele>18.785486</ele>
        <time>2021-11-10T19:56:12.149Z</time>
      </trkpt>
      <trkpt lat="47.59079" lon="-3.03883">
        <ele>19.919311</ele>
        <time>2021-11-10T19:56:28.571Z</time>
      </trkpt>
      <trkpt lat="47.59075" lon="-3.0388">
        <ele>19.992428</ele>
        <time>2021-11-10T19:56:29.362Z</time>
      </trkpt>
      <trkpt lat="47.59081" lon="-3.03851">
        <ele>20.35199</ele>
        <time>2021-11-10T19:56:34.548Z</time>
      </trkpt>
      <trkpt lat="47.59088" lon="-3.03833">
        <ele>20.605481</ele>
        <time>2021-11-10T19:56:38.020Z</time>
      </trkpt>
      <trkpt lat="47.59099" lon="-3.03804">
        <ele>21.004212</ele>
        <time>2021-11-10T19:56:43.252Z</time>
      </trkpt>
      <trkpt lat="47.5916" lon="-3.03828">
        <ele>20.176859</ele>
        <time>2021-11-10T19:56:56.918Z</time>
      </trkpt>
      <trkpt lat="47.592" lon="-3.03822">
        <ele>19.65048</ele>
        <time>2021-11-10T19:57:05.133Z</time>
      </trkpt>
      <trkpt lat="47.59261" lon="-3.03837">
        <ele>18.846065</ele>
        <time>2021-11-10T19:57:14.569Z</time>
      </trkpt>
      <trkpt lat="47.59303" lon="-3.03836">
        <ele>18.701918</ele>
        <time>2021-11-10T19:57:21.130Z</time>
      </trkpt>
      <trkpt lat="47.59321" lon="-3.03829">
        <ele>18.732296</ele>
        <time>2021-11-10T19:57:24.012Z</time>
      </trkpt>
      <trkpt lat="47.59302" lon="-3.0374">
        <ele>18.83784</ele>
        <time>2021-11-10T19:57:42.747Z</time>
      </trkpt>
      <trkpt lat="47.59279" lon="-3.0363">
        <ele>19.036561</ele>
        <time>2021-11-10T19:58:11.315Z</time>
      </trkpt>
      <trkpt lat="47.59286" lon="-3.03582">
        <ele>19.414313</ele>
        <time>2021-11-10T19:58:19.098Z</time>
      </trkpt>
      <trkpt lat="47.59288" lon="-3.03574">
        <ele>19.486601</ele>
        <time>2021-11-10T19:58:20.784Z</time>
      </trkpt>
      <trkpt lat="47.59289" lon="-3.03567">
        <ele>19.540564</ele>
        <time>2021-11-10T19:58:22.110Z</time>
      </trkpt>
      <trkpt lat="47.59312" lon="-3.03459">
        <ele>20.418651</ele>
        <time>2021-11-10T19:58:39.907Z</time>
      </trkpt>
      <trkpt lat="47.59338" lon="-3.03426">
        <ele>20.816089</ele>
        <time>2021-11-10T19:58:47.749Z</time>
      </trkpt>
      <trkpt lat="47.59351" lon="-3.03411">
        <ele>21.009888</ele>
        <time>2021-11-10T19:58:51.682Z</time>
      </trkpt>
      <trkpt lat="47.59353" lon="-3.03411">
        <ele>21.032311</ele>
        <time>2021-11-10T19:58:52.093Z</time>
      </trkpt>
      <trkpt lat="47.59353" lon="-3.03411">
        <ele>21.032311</ele>
        <time>2021-11-10T19:58:52.126Z</time>
      </trkpt>
      <trkpt lat="47.59353" lon="-3.03411">
        <ele>21.032311</ele>
        <time>2021-11-10T19:58:52.126Z</time>
      </trkpt>
      <trkpt lat="47.5942" lon="-3.03432">
        <ele>20.52269</ele>
        <time>2021-11-10T19:59:09.718Z</time>
      </trkpt>
      <trkpt lat="47.59417" lon="-3.03402">
        <ele>20.370048</ele>
        <time>2021-11-10T19:59:13.123Z</time>
      </trkpt>
      <trkpt lat="47.59401" lon="-3.03253">
        <ele>19.477732</ele>
        <time>2021-11-10T19:59:29.153Z</time>
      </trkpt>
      <trkpt lat="47.59395" lon="-3.03201">
        <ele>18.800703</ele>
        <time>2021-11-10T19:59:34.662Z</time>
      </trkpt>
      <trkpt lat="47.59388" lon="-3.03136">
        <ele>17.949652</ele>
        <time>2021-11-10T19:59:41.546Z</time>
      </trkpt>
      <trkpt lat="47.59383" lon="-3.03118">
        <ele>17.70675</ele>
        <time>2021-11-10T19:59:43.495Z</time>
      </trkpt>
      <trkpt lat="47.59375" lon="-3.03091">
        <ele>17.327681</ele>
        <time>2021-11-10T19:59:46.575Z</time>
      </trkpt>
      <trkpt lat="47.59386" lon="-3.03041">
        <ele>16.644624</ele>
        <time>2021-11-10T19:59:52.013Z</time>
      </trkpt>
      <trkpt lat="47.59403" lon="-3.02995">
        <ele>15.963266</ele>
        <time>2021-11-10T19:59:57.381Z</time>
      </trkpt>
      <trkpt lat="47.59417" lon="-3.02948">
        <ele>15.283811</ele>
        <time>2021-11-10T20:00:02.697Z</time>
      </trkpt>
      <trkpt lat="47.59422" lon="-3.02901">
        <ele>14.657188</ele>
        <time>2021-11-10T20:00:07.760Z</time>
      </trkpt>
      <trkpt lat="47.59421" lon="-3.02884">
        <ele>14.428595</ele>
        <time>2021-11-10T20:00:09.598Z</time>
      </trkpt>
      <trkpt lat="47.59408" lon="-3.02841">
        <ele>13.803057</ele>
        <time>2021-11-10T20:00:14.609Z</time>
      </trkpt>
      <trkpt lat="47.59404" lon="-3.02748">
        <ele>12.47403</ele>
        <time>2021-11-10T20:00:24.371Z</time>
      </trkpt>
      <trkpt lat="47.59391" lon="-3.0271">
        <ele>11.594852</ele>
        <time>2021-11-10T20:00:28.586Z</time>
      </trkpt>
      <trkpt lat="47.59385" lon="-3.027">
        <ele>11.300458</ele>
        <time>2021-11-10T20:00:29.994Z</time>
      </trkpt>
      <trkpt lat="47.59356" lon="-3.02657">
        <ele>10.027066</ele>
        <time>2021-11-10T20:00:35.671Z</time>
      </trkpt>
      <trkpt lat="47.59337" lon="-3.02589">
        <ele>8.467677</ele>
        <time>2021-11-10T20:00:42.437Z</time>
      </trkpt>
      <trkpt lat="47.59321" lon="-3.02511">
        <ele>7.116443</ele>
        <time>2021-11-10T20:00:50.478Z</time>
      </trkpt>
      <trkpt lat="47.59309" lon="-3.02485">
        <ele>7.191232</ele>
        <time>2021-11-10T20:00:53.466Z</time>
      </trkpt>
      <trkpt lat="47.593" lon="-3.02479">
        <ele>7.227996</ele>
        <time>2021-11-10T20:00:55.551Z</time>
      </trkpt>
      <trkpt lat="47.59295" lon="-3.02485">
        <ele>7.249108</ele>
        <time>2021-11-10T20:00:57.775Z</time>
      </trkpt>
      <trkpt lat="47.59289" lon="-3.02479">
        <ele>7.276281</ele>
        <time>2021-11-10T20:00:58.847Z</time>
      </trkpt>
      <trkpt lat="47.59291" lon="-3.0247">
        <ele>7.297501</ele>
        <time>2021-11-10T20:00:59.650Z</time>
      </trkpt>
      <trkpt lat="47.59266" lon="-3.02422">
        <ele>7.442524</ele>
        <time>2021-11-10T20:01:06.908Z</time>
      </trkpt>
      <trkpt lat="47.59237" lon="-3.02379">
        <ele>7.589057</ele>
        <time>2021-11-10T20:01:16.388Z</time>
      </trkpt>
      <trkpt lat="47.59228" lon="-3.02365">
        <ele>7.633366</ele>
        <time>2021-11-10T20:01:22.290Z</time>
      </trkpt>
      <trkpt lat="47.59116" lon="-3.022">
        <ele>10.322249</ele>
        <time>2021-11-10T20:02:10.178Z</time>
      </trkpt>
      <trkpt lat="47.59004" lon="-3.02035">
        <ele>9.779747</ele>
        <time>2021-11-10T20:02:34.672Z</time>
      </trkpt>
      <trkpt lat="47.58961" lon="-3.01973">
        <ele>9.038365</ele>
        <time>2021-11-10T20:02:43.577Z</time>
      </trkpt>
      <trkpt lat="47.5893" lon="-3.01925">
        <ele>8.721136</ele>
        <time>2021-11-10T20:02:50.749Z</time>
      </trkpt>
      <trkpt lat="47.58898" lon="-3.01862">
        <ele>8.402846</ele>
        <time>2021-11-10T20:02:58.964Z</time>
      </trkpt>
      <trkpt lat="47.58873" lon="-3.01789">
        <ele>8.062655</ele>
        <time>2021-11-10T20:03:08.448Z</time>
      </trkpt>
      <trkpt lat="47.5885" lon="-3.01702">
        <ele>7.840461</ele>
        <time>2021-11-10T20:03:21.202Z</time>
      </trkpt>
      <trkpt lat="47.58836" lon="-3.01667">
        <ele>7.82006</ele>
        <time>2021-11-10T20:03:26.555Z</time>
      </trkpt>
      <trkpt lat="47.58827" lon="-3.01651">
        <ele>7.810298</ele>
        <time>2021-11-10T20:03:29.116Z</time>
      </trkpt>
      <trkpt lat="47.58806" lon="-3.01646">
        <ele>7.7946</ele>
        <time>2021-11-10T20:03:32.904Z</time>
      </trkpt>
      <trkpt lat="47.58758" lon="-3.01635">
        <ele>7.759683</ele>
        <time>2021-11-10T20:03:41.102Z</time>
      </trkpt>
      <trkpt lat="47.58462" lon="-3.0156">
        <ele>6.904547</ele>
        <time>2021-11-10T20:04:31.622Z</time>
      </trkpt>
      <trkpt lat="47.58416" lon="-3.01524">
        <ele>6.872536</ele>
        <time>2021-11-10T20:04:40.785Z</time>
      </trkpt>
      <trkpt lat="47.58392" lon="-3.01491">
        <ele>6.85309</ele>
        <time>2021-11-10T20:04:47.012Z</time>
      </trkpt>
      <trkpt lat="47.58378" lon="-3.01457">
        <ele>7.001209</ele>
        <time>2021-11-10T20:04:52.454Z</time>
      </trkpt>
      <trkpt lat="47.58372" lon="-3.01439">
        <ele>7.15898</ele>
        <time>2021-11-10T20:04:55.474Z</time>
      </trkpt>
      <trkpt lat="47.58416" lon="-3.01263">
        <ele>8.621265</ele>
        <time>2021-11-10T20:05:24.066Z</time>
      </trkpt>
      <trkpt lat="47.58433" lon="-3.01188">
        <ele>9.238383</ele>
        <time>2021-11-10T20:05:37.540Z</time>
      </trkpt>
      <trkpt lat="47.58437" lon="-3.01096">
        <ele>9.965634</ele>
        <time>2021-11-10T20:05:52.133Z</time>
      </trkpt>
      <trkpt lat="47.58442" lon="-3.01068">
        <ele>10.195168</ele>
        <time>2021-11-10T20:05:56.379Z</time>
      </trkpt>
      <trkpt lat="47.58455" lon="-3.00999">
        <ele>10.762132</ele>
        <time>2021-11-10T20:06:06.343Z</time>
      </trkpt>
      <trkpt lat="47.58489" lon="-3.0082">
        <ele>12.106297</ele>
        <time>2021-11-10T20:06:32.876Z</time>
      </trkpt>
      <trkpt lat="47.58495" lon="-3.00793">
        <ele>12.302487</ele>
        <time>2021-11-10T20:06:37.163Z</time>
      </trkpt>
      <trkpt lat="47.58527" lon="-3.00643">
        <ele>13.395764</ele>
        <time>2021-11-10T20:07:01.938Z</time>
      </trkpt>
      <trkpt lat="47.58576" lon="-3.00521">
        <ele>14.357932</ele>
        <time>2021-11-10T20:07:22.969Z</time>
      </trkpt>
      <trkpt lat="47.5858" lon="-3.00503">
        <ele>14.484963</ele>
        <time>2021-11-10T20:07:25.595Z</time>
      </trkpt>
      <trkpt lat="47.5859" lon="-3.00507">
        <ele>14.591722</ele>
        <time>2021-11-10T20:07:29.089Z</time>
      </trkpt>
      <trkpt lat="47.58616" lon="-3.00538">
        <ele>14.770737</ele>
        <time>2021-11-10T20:07:39.232Z</time>
      </trkpt>
      <trkpt lat="47.58667" lon="-3.00554">
        <ele>14.914933</ele>
        <time>2021-11-10T20:07:55.465Z</time>
      </trkpt>
      <trkpt lat="47.5873" lon="-3.00583">
        <ele>15.09267</ele>
        <time>2021-11-10T20:08:15.571Z</time>
      </trkpt>
      <trkpt lat="47.58757" lon="-3.00577">
        <ele>15.168287</ele>
        <time>2021-11-10T20:08:23.810Z</time>
      </trkpt>
      <trkpt lat="47.58805" lon="-3.00595">
        <ele>15.233562</ele>
        <time>2021-11-10T20:08:38.558Z</time>
      </trkpt>
      <trkpt lat="47.58834" lon="-3.00591">
        <ele>15.256936</ele>
        <time>2021-11-10T20:08:47.484Z</time>
      </trkpt>
      <trkpt lat="47.58837" lon="-3.00589">
        <ele>15.259807</ele>
        <time>2021-11-10T20:08:48.614Z</time>
      </trkpt>
      <trkpt lat="47.58876" lon="-3.00571">
        <ele>15.293022</ele>
        <time>2021-11-10T20:09:01.188Z</time>
      </trkpt>
      <trkpt lat="47.58929" lon="-3.00506">
        <ele>15.347608</ele>
        <time>2021-11-10T20:09:21.541Z</time>
      </trkpt>
      <trkpt lat="47.58979" lon="-3.00484">
        <ele>15.135305</ele>
        <time>2021-11-10T20:09:36.739Z</time>
      </trkpt>
      <trkpt lat="47.58992" lon="-3.00472">
        <ele>15.067726</ele>
        <time>2021-11-10T20:09:41.324Z</time>
      </trkpt>
      <trkpt lat="47.59002" lon="-3.00458">
        <ele>15.008949</ele>
        <time>2021-11-10T20:09:45.204Z</time>
      </trkpt>
      <trkpt lat="47.59047" lon="-3.00453">
        <ele>14.816806</ele>
        <time>2021-11-10T20:09:57.993Z</time>
      </trkpt>
      <trkpt lat="47.59116" lon="-3.00453">
        <ele>14.50661</ele>
        <time>2021-11-10T20:10:17.478Z</time>
      </trkpt>
      <trkpt lat="47.59134" lon="-3.00356">
        <ele>14.133699</ele>
        <time>2021-11-10T20:10:36.670Z</time>
      </trkpt>
      <trkpt lat="47.5914" lon="-3.00348">
        <ele>14.088418</ele>
        <time>2021-11-10T20:10:39.143Z</time>
      </trkpt>
      <trkpt lat="47.59166" lon="-3.00348">
        <ele>13.944334</ele>
        <time>2021-11-10T20:10:46.540Z</time>
      </trkpt>
      <trkpt lat="47.59227" lon="-3.00376">
        <ele>13.591868</ele>
        <time>2021-11-10T20:11:04.582Z</time>
      </trkpt>
      <trkpt lat="47.59259" lon="-3.00376">
        <ele>13.328998</ele>
        <time>2021-11-10T20:11:13.548Z</time>
      </trkpt>
      <trkpt lat="47.59317" lon="-3.00402">
        <ele>12.823948</ele>
        <time>2021-11-10T20:11:30.736Z</time>
      </trkpt>
      <trkpt lat="47.59353" lon="-3.00412">
        <ele>12.521762</ele>
        <time>2021-11-10T20:11:40.842Z</time>
      </trkpt>
      <trkpt lat="47.59374" lon="-3.00401">
        <ele>12.337077</ele>
        <time>2021-11-10T20:11:46.937Z</time>
      </trkpt>
      <trkpt lat="47.59378" lon="-3.00387">
        <ele>12.251037</ele>
        <time>2021-11-10T20:11:49.780Z</time>
      </trkpt>
      <trkpt lat="47.59401" lon="-3.00377">
        <ele>12.070986</ele>
        <time>2021-11-10T20:11:56.431Z</time>
      </trkpt>
      <trkpt lat="47.59462" lon="-3.0035">
        <ele>11.804876</ele>
        <time>2021-11-10T20:12:13.948Z</time>
      </trkpt>
      <trkpt lat="47.59499" lon="-3.00233">
        <ele>11.440275</ele>
        <time>2021-11-10T20:12:38.705Z</time>
      </trkpt>
      <trkpt lat="47.59536" lon="-3.00214">
        <ele>11.557435</ele>
        <time>2021-11-10T20:12:51.227Z</time>
      </trkpt>
      <trkpt lat="47.59602" lon="-3.00179">
        <ele>12.570722</ele>
        <time>2021-11-10T20:13:15.362Z</time>
      </trkpt>
      <trkpt lat="47.59737" lon="-3.00123">
        <ele>14.570985</ele>
        <time>2021-11-10T20:14:08.176Z</time>
      </trkpt>
      <trkpt lat="47.59793" lon="-3.00128">
        <ele>15.365125</ele>
        <time>2021-11-10T20:14:28.799Z</time>
      </trkpt>
      <trkpt lat="47.59842" lon="-3.00105">
        <ele>16.093701</ele>
        <time>2021-11-10T20:14:40.830Z</time>
      </trkpt>
      <trkpt lat="47.59843" lon="-3.00091">
        <ele>16.226063</ele>
        <time>2021-11-10T20:14:42.941Z</time>
      </trkpt>
      <trkpt lat="47.59858" lon="-3.00101">
        <ele>16.460618</ele>
        <time>2021-11-10T20:14:46.687Z</time>
      </trkpt>
      <trkpt lat="47.59944" lon="-3.00119">
        <ele>16.41899</ele>
        <time>2021-11-10T20:15:03.315Z</time>
      </trkpt>
      <trkpt lat="47.59955" lon="-3.00129">
        <ele>16.412005</ele>
        <time>2021-11-10T20:15:05.461Z</time>
      </trkpt>
      <trkpt lat="47.59982" lon="-3.00127">
        <ele>16.397543</ele>
        <time>2021-11-10T20:15:13.173Z</time>
      </trkpt>
      <trkpt lat="47.60035" lon="-3.0011">
        <ele>16.363483</ele>
        <time>2021-11-10T20:15:29.131Z</time>
      </trkpt>
      <trkpt lat="47.60049" lon="-3.00112">
        <ele>16.211421</ele>
        <time>2021-11-10T20:15:33.103Z</time>
      </trkpt>
      <trkpt lat="47.60049" lon="-3.00113">
        <ele>16.205338</ele>
        <time>2021-11-10T20:15:33.218Z</time>
      </trkpt>
      <trkpt lat="47.60156" lon="-3.00187">
        <ele>14.878173</ele>
        <time>2021-11-10T20:16:05.607Z</time>
      </trkpt>
      <trkpt lat="47.60382" lon="-3.00258">
        <ele>11.616284</ele>
        <time>2021-11-10T20:17:06.728Z</time>
      </trkpt>
      <trkpt lat="47.60397" lon="-3.00162">
        <ele>11.991062</ele>
        <time>2021-11-10T20:17:21.926Z</time>
      </trkpt>
      <trkpt lat="47.60403" lon="-3.00147">
        <ele>12.057432</ele>
        <time>2021-11-10T20:17:24.807Z</time>
      </trkpt>
      <trkpt lat="47.60479" lon="-3.00158">
        <ele>12.487211</ele>
        <time>2021-11-10T20:17:42.640Z</time>
      </trkpt>
      <trkpt lat="47.60492" lon="-3.00153">
        <ele>12.559191</ele>
        <time>2021-11-10T20:17:46.103Z</time>
      </trkpt>
      <trkpt lat="47.60512" lon="-3.00145">
        <ele>12.85048</ele>
        <time>2021-11-10T20:17:51.556Z</time>
      </trkpt>
      <trkpt lat="47.60517" lon="-3.00128">
        <ele>13.095534</ele>
        <time>2021-11-10T20:17:55.075Z</time>
      </trkpt>
      <trkpt lat="47.60657" lon="-3.00196">
        <ele>16.059869</ele>
        <time>2021-11-10T20:18:51.991Z</time>
      </trkpt>
      <trkpt lat="47.60665" lon="-3.00251">
        <ele>16.46629</ele>
        <time>2021-11-10T20:19:03.097Z</time>
      </trkpt>
      <trkpt lat="47.60763" lon="-3.00294">
        <ele>17.274555</ele>
        <time>2021-11-10T20:19:36.497Z</time>
      </trkpt>
      <trkpt lat="47.60833" lon="-3.00298">
        <ele>17.694029</ele>
        <time>2021-11-10T20:19:57.233Z</time>
      </trkpt>
      <trkpt lat="47.60836" lon="-3.00298">
        <ele>17.699242</ele>
        <time>2021-11-10T20:19:58.279Z</time>
      </trkpt>
      <trkpt lat="47.60901" lon="-3.00284">
        <ele>17.796311</ele>
        <time>2021-11-10T20:20:17.713Z</time>
      </trkpt>
      <trkpt lat="47.60994" lon="-3.00279">
        <ele>17.936417</ele>
        <time>2021-11-10T20:20:46.291Z</time>
      </trkpt>
      <trkpt lat="47.61071" lon="-3.00275">
        <ele>18.121538</ele>
        <time>2021-11-10T20:21:10.288Z</time>
      </trkpt>
      <trkpt lat="47.61121" lon="-3.00257">
        <ele>18.244745</ele>
        <time>2021-11-10T20:21:25.887Z</time>
      </trkpt>
      <trkpt lat="47.61147" lon="-3.00258">
        <ele>18.305318</ele>
        <time>2021-11-10T20:21:33.624Z</time>
      </trkpt>
      <trkpt lat="47.61184" lon="-3.00244">
        <ele>18.461257</ele>
        <time>2021-11-10T20:21:45.177Z</time>
      </trkpt>
      <trkpt lat="47.61223" lon="-3.00215">
        <ele>18.739534</ele>
        <time>2021-11-10T20:21:58.076Z</time>
      </trkpt>
      <trkpt lat="47.61329" lon="-3.00181">
        <ele>19.44451</ele>
        <time>2021-11-10T20:22:33.330Z</time>
      </trkpt>
      <trkpt lat="47.61406" lon="-3.00138">
        <ele>21.061001</ele>
        <time>2021-11-10T20:23:03.602Z</time>
      </trkpt>
      <trkpt lat="47.6144" lon="-3.00126">
        <ele>21.833625</ele>
        <time>2021-11-10T20:23:13.316Z</time>
      </trkpt>
      <trkpt lat="47.61456" lon="-3.00121">
        <ele>22.190865</ele>
        <time>2021-11-10T20:23:18.083Z</time>
      </trkpt>
      <trkpt lat="47.61507" lon="-3.00095">
        <ele>23.358081</ele>
        <time>2021-11-10T20:23:33.898Z</time>
      </trkpt>
      <trkpt lat="47.61515" lon="-3.00093">
        <ele>23.518201</ele>
        <time>2021-11-10T20:23:36.507Z</time>
      </trkpt>
      <trkpt lat="47.61558" lon="-3.00067">
        <ele>24.27122</ele>
        <time>2021-11-10T20:23:50.243Z</time>
      </trkpt>
      <trkpt lat="47.6159" lon="-3.00061">
        <ele>24.793955</ele>
        <time>2021-11-10T20:23:59.552Z</time>
      </trkpt>
      <trkpt lat="47.6161" lon="-3.00057">
        <ele>25.132465</ele>
        <time>2021-11-10T20:24:05.048Z</time>
      </trkpt>
      <trkpt lat="47.6161" lon="-3.00106">
        <ele>25.669642</ele>
        <time>2021-11-10T20:24:12.781Z</time>
      </trkpt>
      <trkpt lat="47.61619" lon="-3.00106">
        <ele>25.824431</ele>
        <time>2021-11-10T20:24:14.784Z</time>
      </trkpt>
      <trkpt lat="47.61623" lon="-3.00103">
        <ele>25.902879</ele>
        <time>2021-11-10T20:24:15.711Z</time>
      </trkpt>
      <trkpt lat="47.61637" lon="-3.00099">
        <ele>26.131774</ele>
        <time>2021-11-10T20:24:18.238Z</time>
      </trkpt>
      <trkpt lat="47.61646" lon="-3.00096">
        <ele>26.282982</ele>
        <time>2021-11-10T20:24:19.887Z</time>
      </trkpt>
      <trkpt lat="47.61656" lon="-3.00093">
        <ele>26.343865</ele>
        <time>2021-11-10T20:24:21.635Z</time>
      </trkpt>
      <trkpt lat="47.61664" lon="-3.00087">
        <ele>26.238232</ele>
        <time>2021-11-10T20:24:23.065Z</time>
      </trkpt>
      <trkpt lat="47.61677" lon="-3.00097">
        <ele>26.051423</ele>
        <time>2021-11-10T20:24:25.777Z</time>
      </trkpt>
      <trkpt lat="47.61694" lon="-3.00096">
        <ele>25.841858</ele>
        <time>2021-11-10T20:24:28.762Z</time>
      </trkpt>
      <trkpt lat="47.61733" lon="-3.00071">
        <ele>25.326916</ele>
        <time>2021-11-10T20:24:35.852Z</time>
      </trkpt>
      <trkpt lat="47.61802" lon="-3.00107">
        <ele>24.429009</ele>
        <time>2021-11-10T20:24:47.104Z</time>
      </trkpt>
      <trkpt lat="47.61891" lon="-3.00131">
        <ele>23.332147</ele>
        <time>2021-11-10T20:25:00.982Z</time>
      </trkpt>
      <trkpt lat="47.61932" lon="-3.00152">
        <ele>22.810005</ele>
        <time>2021-11-10T20:25:08.050Z</time>
      </trkpt>
      <trkpt lat="47.61949" lon="-3.00164">
        <ele>22.588974</ele>
        <time>2021-11-10T20:25:11.229Z</time>
      </trkpt>
      <trkpt lat="47.61956" lon="-3.00153">
        <ele>22.460555</ele>
        <time>2021-11-10T20:25:13.288Z</time>
      </trkpt>
      <trkpt lat="47.61994" lon="-3.00157">
        <ele>22.027065</ele>
        <time>2021-11-10T20:25:20.526Z</time>
      </trkpt>
      <trkpt lat="47.62013" lon="-3.00153">
        <ele>22.068027</ele>
        <time>2021-11-10T20:25:24.443Z</time>
      </trkpt>
      <trkpt lat="47.62106" lon="-3.00137">
        <ele>22.260406</ele>
        <time>2021-11-10T20:25:44.028Z</time>
      </trkpt>
      <trkpt lat="47.62189" lon="-3.00144">
        <ele>22.415026</ele>
        <time>2021-11-10T20:26:01.941Z</time>
      </trkpt>
      <trkpt lat="47.62319" lon="-3.0008">
        <ele>22.574565</ele>
        <time>2021-11-10T20:26:29.239Z</time>
      </trkpt>
      <trkpt lat="47.62402" lon="-3.00091">
        <ele>22.819621</ele>
        <time>2021-11-10T20:26:45.886Z</time>
      </trkpt>
      <trkpt lat="47.62509" lon="-3.00045">
        <ele>23.231436</ele>
        <time>2021-11-10T20:27:09.868Z</time>
      </trkpt>
      <trkpt lat="47.6255" lon="-3.00015">
        <ele>23.698621</ele>
        <time>2021-11-10T20:27:20.281Z</time>
      </trkpt>
      <trkpt lat="47.62569" lon="-2.99995">
        <ele>23.978843</ele>
        <time>2021-11-10T20:27:25.756Z</time>
      </trkpt>
      <trkpt lat="47.62584" lon="-2.99979">
        <ele>24.195028</ele>
        <time>2021-11-10T20:27:30.147Z</time>
      </trkpt>
      <trkpt lat="47.62599" lon="-2.99986">
        <ele>24.384002</ele>
        <time>2021-11-10T20:27:34.063Z</time>
      </trkpt>
      <trkpt lat="47.62657" lon="-2.99955">
        <ele>25.118481</ele>
        <time>2021-11-10T20:27:49.649Z</time>
      </trkpt>
      <trkpt lat="47.62751" lon="-2.99942">
        <ele>26.65124</ele>
        <time>2021-11-10T20:28:14.560Z</time>
      </trkpt>
      <trkpt lat="47.6283" lon="-2.99955">
        <ele>28.065036</ele>
        <time>2021-11-10T20:28:36.798Z</time>
      </trkpt>
      <trkpt lat="47.62884" lon="-2.99947">
        <ele>28.953211</ele>
        <time>2021-11-10T20:28:51.547Z</time>
      </trkpt>
      <trkpt lat="47.62903" lon="-2.99944">
        <ele>29.222266</ele>
        <time>2021-11-10T20:28:56.042Z</time>
      </trkpt>
      <trkpt lat="47.62934" lon="-2.99954">
        <ele>29.676</ele>
        <time>2021-11-10T20:29:04.175Z</time>
      </trkpt>
      <trkpt lat="47.6297" lon="-2.99964">
        <ele>30.191674</ele>
        <time>2021-11-10T20:29:13.330Z</time>
      </trkpt>
      <trkpt lat="47.63054" lon="-2.99952">
        <ele>31.341809</ele>
        <time>2021-11-10T20:29:34.137Z</time>
      </trkpt>
      <trkpt lat="47.63141" lon="-2.99983">
        <ele>32.352432</ele>
        <time>2021-11-10T20:29:55.122Z</time>
      </trkpt>
      <trkpt lat="47.63276" lon="-3.00056">
        <ele>33.873233</ele>
        <time>2021-11-10T20:30:31.021Z</time>
      </trkpt>
      <trkpt lat="47.63325" lon="-3.00094">
        <ele>34.423727</ele>
        <time>2021-11-10T20:30:44.485Z</time>
      </trkpt>
      <trkpt lat="47.63287" lon="-3.00216">
        <ele>34.956057</ele>
        <time>2021-11-10T20:31:04.726Z</time>
      </trkpt>
      <trkpt lat="47.63247" lon="-3.00344">
        <ele>34.876453</ele>
        <time>2021-11-10T20:31:23.099Z</time>
      </trkpt>
      <trkpt lat="47.63249" lon="-3.00374">
        <ele>34.859416</ele>
        <time>2021-11-10T20:31:26.897Z</time>
      </trkpt>
      <trkpt lat="47.63223" lon="-3.00479">
        <ele>34.659537</ele>
        <time>2021-11-10T20:31:40.990Z</time>
      </trkpt>
      <trkpt lat="47.63245" lon="-3.00507">
        <ele>34.546826</ele>
        <time>2021-11-10T20:31:46.508Z</time>
      </trkpt>
      <trkpt lat="47.63342" lon="-3.00552">
        <ele>34.155505</ele>
        <time>2021-11-10T20:32:05.684Z</time>
      </trkpt>
      <trkpt lat="47.63492" lon="-3.00704">
        <ele>33.79092</ele>
        <time>2021-11-10T20:32:40.922Z</time>
      </trkpt>
      <trkpt lat="47.63495" lon="-3.00705">
        <ele>33.781722</ele>
        <time>2021-11-10T20:32:41.604Z</time>
      </trkpt>
      <trkpt lat="47.63544" lon="-3.00714">
        <ele>33.586735</ele>
        <time>2021-11-10T20:32:51.038Z</time>
      </trkpt>
      <trkpt lat="47.63548" lon="-3.00812">
        <ele>33.322101</ele>
        <time>2021-11-10T20:33:03.740Z</time>
      </trkpt>
      <trkpt lat="47.63768" lon="-3.00876">
        <ele>31.908784</ele>
        <time>2021-11-10T20:33:44.945Z</time>
      </trkpt>
      <trkpt lat="47.63735" lon="-3.01036">
        <ele>31.061041</ele>
        <time>2021-11-10T20:34:03.688Z</time>
      </trkpt>
      <trkpt lat="47.6374" lon="-3.01072">
        <ele>30.870227</ele>
        <time>2021-11-10T20:34:07.860Z</time>
      </trkpt>
      <trkpt lat="47.63742" lon="-3.01079">
        <ele>30.834115</ele>
        <time>2021-11-10T20:34:08.677Z</time>
      </trkpt>
      <trkpt lat="47.6376" lon="-3.01137">
        <ele>30.504284</ele>
        <time>2021-11-10T20:34:16.083Z</time>
      </trkpt>
      <trkpt lat="47.63782" lon="-3.01211">
        <ele>30.741768</ele>
        <time>2021-11-10T20:34:26.018Z</time>
      </trkpt>
      <trkpt lat="47.63796" lon="-3.01232">
        <ele>30.89621</ele>
        <time>2021-11-10T20:34:30.846Z</time>
      </trkpt>
      <trkpt lat="47.63801" lon="-3.01232">
        <ele>30.934411</ele>
        <time>2021-11-10T20:34:31.937Z</time>
      </trkpt>
      <trkpt lat="47.63833" lon="-3.01206">
        <ele>31.216096</ele>
        <time>2021-11-10T20:34:40.500Z</time>
      </trkpt>
      <trkpt lat="47.63856" lon="-3.01187">
        <ele>31.41944</ele>
        <time>2021-11-10T20:34:46.897Z</time>
      </trkpt>
      <trkpt lat="47.63883" lon="-3.01171">
        <ele>31.649338</ele>
        <time>2021-11-10T20:34:53.896Z</time>
      </trkpt>
      <trkpt lat="47.63886" lon="-3.01178">
        <ele>31.692504</ele>
        <time>2021-11-10T20:34:55.636Z</time>
      </trkpt>
      <trkpt lat="47.63931" lon="-3.01152">
        <ele>32.172341</ele>
        <time>2021-11-10T20:35:07.485Z</time>
      </trkpt>
      <trkpt lat="47.64187" lon="-3.01003">
        <ele>34.278233</ele>
        <time>2021-11-10T20:36:07.104Z</time>
      </trkpt>
      <trkpt lat="47.64231" lon="-3.0118">
        <ele>33.67737</ele>
        <time>2021-11-10T20:36:27.552Z</time>
      </trkpt>
      <trkpt lat="47.64252" lon="-3.01246">
        <ele>33.151989</ele>
        <time>2021-11-10T20:36:35.199Z</time>
      </trkpt>
      <trkpt lat="47.64278" lon="-3.01327">
        <ele>32.496621</ele>
        <time>2021-11-10T20:36:44.632Z</time>
      </trkpt>
      <trkpt lat="47.64299" lon="-3.01319">
        <ele>32.213569</ele>
        <time>2021-11-10T20:36:48.402Z</time>
      </trkpt>
      <trkpt lat="47.64336" lon="-3.01291">
        <ele>31.661589</ele>
        <time>2021-11-10T20:36:55.815Z</time>
      </trkpt>
      <trkpt lat="47.64388" lon="-3.01234">
        <ele>30.813813</ele>
        <time>2021-11-10T20:37:07.049Z</time>
      </trkpt>
      <trkpt lat="47.64487" lon="-3.01084">
        <ele>28.712974</ele>
        <time>2021-11-10T20:37:31.151Z</time>
      </trkpt>
      <trkpt lat="47.64514" lon="-3.01027">
        <ele>27.969897</ele>
        <time>2021-11-10T20:37:39.134Z</time>
      </trkpt>
      <trkpt lat="47.64573" lon="-3.01062">
        <ele>26.879865</ele>
        <time>2021-11-10T20:37:50.075Z</time>
      </trkpt>
      <trkpt lat="47.64627" lon="-3.01108">
        <ele>25.713933</ele>
        <time>2021-11-10T20:38:00.295Z</time>
      </trkpt>
      <trkpt lat="47.64677" lon="-3.01115">
        <ele>24.750283</ele>
        <time>2021-11-10T20:38:08.577Z</time>
      </trkpt>
      <trkpt lat="47.6482" lon="-3.01119">
        <ele>22.300724</ele>
        <time>2021-11-10T20:38:32.416Z</time>
      </trkpt>
      <trkpt lat="47.64822" lon="-3.01119">
        <ele>22.268431</ele>
        <time>2021-11-10T20:38:32.815Z</time>
      </trkpt>
      <trkpt lat="47.64884" lon="-3.01097">
        <ele>21.209366</ele>
        <time>2021-11-10T20:38:43.522Z</time>
      </trkpt>
      <trkpt lat="47.6489" lon="-3.01059">
        <ele>20.985397</ele>
        <time>2021-11-10T20:38:48.063Z</time>
      </trkpt>
      <trkpt lat="47.6485" lon="-3.00905">
        <ele>20.879674</ele>
        <time>2021-11-10T20:39:09.345Z</time>
      </trkpt>
      <trkpt lat="47.64857" lon="-3.00871">
        <ele>20.856812</ele>
        <time>2021-11-10T20:39:14.539Z</time>
      </trkpt>
      <trkpt lat="47.64881" lon="-3.0081">
        <ele>21.204791</ele>
        <time>2021-11-10T20:39:25.110Z</time>
      </trkpt>
      <trkpt lat="47.64967" lon="-3.00632">
        <ele>24.615718</ele>
        <time>2021-11-10T20:40:08.648Z</time>
      </trkpt>
      <trkpt lat="47.64994" lon="-3.00629">
        <ele>25.309698</ele>
        <time>2021-11-10T20:40:18.309Z</time>
      </trkpt>
      <trkpt lat="47.65033" lon="-3.00559">
        <ele>27.052462</ele>
        <time>2021-11-10T20:40:38.347Z</time>
      </trkpt>
      <trkpt lat="47.6506" lon="-3.00553">
        <ele>27.819125</ele>
        <time>2021-11-10T20:40:47.113Z</time>
      </trkpt>
      <trkpt lat="47.65116" lon="-3.00541">
        <ele>29.426657</ele>
        <time>2021-11-10T20:41:04.847Z</time>
      </trkpt>
      <trkpt lat="47.65129" lon="-3.00451">
        <ele>30.493147</ele>
        <time>2021-11-10T20:41:20.667Z</time>
      </trkpt>
      <trkpt lat="47.65132" lon="-3.00427">
        <ele>30.669058</ele>
        <time>2021-11-10T20:41:25.108Z</time>
      </trkpt>
      <trkpt lat="47.65176" lon="-3.00389">
        <ele>31.211201</ele>
        <time>2021-11-10T20:41:36.688Z</time>
      </trkpt>
      <trkpt lat="47.65194" lon="-3.00367">
        <ele>31.456683</ele>
        <time>2021-11-10T20:41:41.517Z</time>
      </trkpt>
      <trkpt lat="47.65244" lon="-3.00292">
        <ele>31.973994</ele>
        <time>2021-11-10T20:41:55.316Z</time>
      </trkpt>
      <trkpt lat="47.65406" lon="-3.00076">
        <ele>31.635263</ele>
        <time>2021-11-10T20:42:34.546Z</time>
      </trkpt>
      <trkpt lat="47.65428" lon="-3.00047">
        <ele>31.550128</ele>
        <time>2021-11-10T20:42:39.876Z</time>
      </trkpt>
      <trkpt lat="47.65485" lon="-2.99971">
        <ele>31.328511</ele>
        <time>2021-11-10T20:42:53.577Z</time>
      </trkpt>
      <trkpt lat="47.65489" lon="-2.99966">
        <ele>31.315384</ele>
        <time>2021-11-10T20:42:54.417Z</time>
      </trkpt>
      <trkpt lat="47.65529" lon="-2.99936">
        <ele>31.290935</ele>
        <time>2021-11-10T20:43:02.451Z</time>
      </trkpt>
      <trkpt lat="47.65578" lon="-2.99906">
        <ele>31.301821</ele>
        <time>2021-11-10T20:43:11.882Z</time>
      </trkpt>
      <trkpt lat="47.65682" lon="-2.99829">
        <ele>31.321775</ele>
        <time>2021-11-10T20:43:34.929Z</time>
      </trkpt>
      <trkpt lat="47.6569" lon="-2.99823">
        <ele>31.322127</ele>
        <time>2021-11-10T20:43:36.853Z</time>
      </trkpt>
      <trkpt lat="47.65708" lon="-2.9981">
        <ele>31.322887</ele>
        <time>2021-11-10T20:43:40.675Z</time>
      </trkpt>
      <trkpt lat="47.65712" lon="-2.99808">
        <ele>31.323057</ele>
        <time>2021-11-10T20:43:41.579Z</time>
      </trkpt>
      <trkpt lat="47.65766" lon="-2.99767">
        <ele>31.325386</ele>
        <time>2021-11-10T20:43:53.496Z</time>
      </trkpt>
      <trkpt lat="47.65817" lon="-2.99733">
        <ele>31.327537</ele>
        <time>2021-11-10T20:44:03.921Z</time>
      </trkpt>
      <trkpt lat="47.65782" lon="-2.99487">
        <ele>28.876339</ele>
        <time>2021-11-10T20:44:31.046Z</time>
      </trkpt>
      <trkpt lat="47.65759" lon="-2.99321">
        <ele>26.675081</ele>
        <time>2021-11-10T20:44:47.829Z</time>
      </trkpt>
      <trkpt lat="47.65786" lon="-2.9932">
        <ele>26.133524</ele>
        <time>2021-11-10T20:44:54.744Z</time>
      </trkpt>
      <trkpt lat="47.65836" lon="-2.99352">
        <ele>25.047079</ele>
        <time>2021-11-10T20:45:09.283Z</time>
      </trkpt>
      <trkpt lat="47.65845" lon="-2.99354">
        <ele>25.041021</ele>
        <time>2021-11-10T20:45:12.046Z</time>
      </trkpt>
      <trkpt lat="47.65869" lon="-2.99341">
        <ele>25.080865</ele>
        <time>2021-11-10T20:45:19.254Z</time>
      </trkpt>
      <trkpt lat="47.65909" lon="-2.99344">
        <ele>25.145928</ele>
        <time>2021-11-10T20:45:27.226Z</time>
      </trkpt>
      <trkpt lat="47.65958" lon="-2.9935">
        <ele>25.224179</ele>
        <time>2021-11-10T20:45:37.761Z</time>
      </trkpt>
      <trkpt lat="47.66024" lon="-2.99362">
        <ele>25.186496</ele>
        <time>2021-11-10T20:45:51.964Z</time>
      </trkpt>
      <trkpt lat="47.66028" lon="-2.99292">
        <ele>24.558633</ele>
        <time>2021-11-10T20:46:01.038Z</time>
      </trkpt>
      <trkpt lat="47.66009" lon="-2.99157">
        <ele>23.343678</ele>
        <time>2021-11-10T20:46:15.857Z</time>
      </trkpt>
      <trkpt lat="47.66005" lon="-2.99111">
        <ele>22.885601</ele>
        <time>2021-11-10T20:46:20.358Z</time>
      </trkpt>
      <trkpt lat="47.66006" lon="-2.99042">
        <ele>21.103394</ele>
        <time>2021-11-10T20:46:26.836Z</time>
      </trkpt>
      <trkpt lat="47.66006" lon="-2.98979">
        <ele>19.489341</ele>
        <time>2021-11-10T20:46:32.600Z</time>
      </trkpt>
      <trkpt lat="47.66013" lon="-2.98967">
        <ele>19.081247</ele>
        <time>2021-11-10T20:46:34.070Z</time>
      </trkpt>
      <trkpt lat="47.66022" lon="-2.98965">
        <ele>18.732413</ele>
        <time>2021-11-10T20:46:35.328Z</time>
      </trkpt>
      <trkpt lat="47.66101" lon="-2.98923">
        <ele>15.596732</ele>
        <time>2021-11-10T20:46:46.773Z</time>
      </trkpt>
      <trkpt lat="47.66177" lon="-2.98847">
        <ele>12.659142</ele>
        <time>2021-11-10T20:46:59.839Z</time>
      </trkpt>
      <trkpt lat="47.66143" lon="-2.9883">
        <ele>11.491893</ele>
        <time>2021-11-10T20:47:08.854Z</time>
      </trkpt>
      <trkpt lat="47.66066" lon="-2.98742">
        <ele>9.715092</ele>
        <time>2021-11-10T20:47:33.762Z</time>
      </trkpt>
      <trkpt lat="47.6605" lon="-2.98724">
        <ele>9.532262</ele>
        <time>2021-11-10T20:47:38.817Z</time>
      </trkpt>
      <trkpt lat="47.66023" lon="-2.98644">
        <ele>8.952238</ele>
        <time>2021-11-10T20:47:55.883Z</time>
      </trkpt>
      <trkpt lat="47.65994" lon="-2.98596">
        <ele>8.64321</ele>
        <time>2021-11-10T20:48:09.855Z</time>
      </trkpt>
      <trkpt lat="47.65987" lon="-2.98584">
        <ele>8.945757</ele>
        <time>2021-11-10T20:48:13.214Z</time>
      </trkpt>
      <trkpt lat="47.65979" lon="-2.98539">
        <ele>9.829423</ele>
        <time>2021-11-10T20:48:24.155Z</time>
      </trkpt>
      <trkpt lat="47.65982" lon="-2.9853">
        <ele>10.04769</ele>
        <time>2021-11-10T20:48:26.686Z</time>
      </trkpt>
      <trkpt lat="47.66029" lon="-2.98491">
        <ele>11.561944</ele>
        <time>2021-11-10T20:48:42.122Z</time>
      </trkpt>
      <trkpt lat="47.66016" lon="-2.98458">
        <ele>12.304547</ele>
        <time>2021-11-10T20:48:51.033Z</time>
      </trkpt>
      <trkpt lat="47.66007" lon="-2.9842">
        <ele>13.065745</ele>
        <time>2021-11-10T20:49:00.670Z</time>
      </trkpt>
      <trkpt lat="47.66009" lon="-2.98371">
        <ele>14.192813</ele>
        <time>2021-11-10T20:49:12.902Z</time>
      </trkpt>
      <trkpt lat="47.66009" lon="-2.98358">
        <ele>14.585816</ele>
        <time>2021-11-10T20:49:17.166Z</time>
      </trkpt>
      <trkpt lat="47.65971" lon="-2.98307">
        <ele>16.873447</ele>
        <time>2021-11-10T20:49:37.772Z</time>
      </trkpt>
      <trkpt lat="47.65977" lon="-2.98265">
        <ele>18.150075</ele>
        <time>2021-11-10T20:49:49.149Z</time>
      </trkpt>
      <trkpt lat="47.65994" lon="-2.98236">
        <ele>19.299793</ele>
        <time>2021-11-10T20:49:58.577Z</time>
      </trkpt>
      <trkpt lat="47.66027" lon="-2.98236">
        <ele>20.764375</ele>
        <time>2021-11-10T20:50:09.514Z</time>
      </trkpt>
      <trkpt lat="47.66032" lon="-2.98242">
        <ele>21.060218</ele>
        <time>2021-11-10T20:50:12.333Z</time>
      </trkpt>
      <trkpt lat="47.66031" lon="-2.98202">
        <ele>21.766916</ele>
        <time>2021-11-10T20:50:21.493Z</time>
      </trkpt>
      <trkpt lat="47.66037" lon="-2.9818">
        <ele>21.89704</ele>
        <time>2021-11-10T20:50:26.961Z</time>
      </trkpt>
      <trkpt lat="47.66039" lon="-2.98177">
        <ele>21.924405</ele>
        <time>2021-11-10T20:50:27.915Z</time>
      </trkpt>
      <trkpt lat="47.66048" lon="-2.98168">
        <ele>22.012731</ele>
        <time>2021-11-10T20:50:31.494Z</time>
      </trkpt>
      <trkpt lat="47.66076" lon="-2.98167">
        <ele>22.236604</ele>
        <time>2021-11-10T20:50:39.619Z</time>
      </trkpt>
      <trkpt lat="47.66075" lon="-2.9816">
        <ele>22.27775</ele>
        <time>2021-11-10T20:50:41.256Z</time>
      </trkpt>
      <trkpt lat="47.66069" lon="-2.9812">
        <ele>22.503992</ele>
        <time>2021-11-10T20:50:47.973Z</time>
      </trkpt>
      <trkpt lat="47.66053" lon="-2.98072">
        <ele>22.799521</ele>
        <time>2021-11-10T20:50:56.132Z</time>
      </trkpt>
      <trkpt lat="47.66053" lon="-2.98051">
        <ele>22.913287</ele>
        <time>2021-11-10T20:50:59.261Z</time>
      </trkpt>
      <trkpt lat="47.66061" lon="-2.97992">
        <ele>22.809291</ele>
        <time>2021-11-10T20:51:08.011Z</time>
      </trkpt>
      <trkpt lat="47.66007" lon="-2.97979">
        <ele>21.63082</ele>
        <time>2021-11-10T20:51:16.601Z</time>
      </trkpt>
      <trkpt lat="47.65963" lon="-2.97975">
        <ele>20.69629</ele>
        <time>2021-11-10T20:51:22.981Z</time>
      </trkpt>
      <trkpt lat="47.65928" lon="-2.97971">
        <ele>19.960987</ele>
        <time>2021-11-10T20:51:27.905Z</time>
      </trkpt>
      <trkpt lat="47.65888" lon="-2.97969">
        <ele>18.929255</ele>
        <time>2021-11-10T20:51:33.460Z</time>
      </trkpt>
      <trkpt lat="47.65891" lon="-2.97951">
        <ele>18.433178</ele>
        <time>2021-11-10T20:51:35.078Z</time>
      </trkpt>
      <trkpt lat="47.65918" lon="-2.97942">
        <ele>17.376844</ele>
        <time>2021-11-10T20:51:38.911Z</time>
      </trkpt>
      <trkpt lat="47.65925" lon="-2.9794">
        <ele>17.093741</ele>
        <time>2021-11-10T20:51:39.804Z</time>
      </trkpt>
      <trkpt lat="47.65933" lon="-2.97886">
        <ele>15.676685</ele>
        <time>2021-11-10T20:51:44.690Z</time>
      </trkpt>
      <trkpt lat="47.65891" lon="-2.97864">
        <ele>13.974704</ele>
        <time>2021-11-10T20:51:50.602Z</time>
      </trkpt>
      <trkpt lat="47.65872" lon="-2.97837">
        <ele>12.971669</ele>
        <time>2021-11-10T20:51:56.735Z</time>
      </trkpt>
      <trkpt lat="47.65875" lon="-2.97825">
        <ele>12.656407</ele>
        <time>2021-11-10T20:51:58.805Z</time>
      </trkpt>
      <trkpt lat="47.65909" lon="-2.97833">
        <ele>11.854847</ele>
        <time>2021-11-10T20:52:07.168Z</time>
      </trkpt>
      <trkpt lat="47.65922" lon="-2.97824">
        <ele>11.571831</ele>
        <time>2021-11-10T20:52:10.547Z</time>
      </trkpt>
      <trkpt lat="47.65927" lon="-2.97824">
        <ele>11.462683</ele>
        <time>2021-11-10T20:52:11.428Z</time>
      </trkpt>
      <trkpt lat="47.6598" lon="-2.97821">
        <ele>10.383308</ele>
        <time>2021-11-10T20:52:20.033Z</time>
      </trkpt>
      <trkpt lat="47.66065" lon="-2.97839">
        <ele>8.883843</ele>
        <time>2021-11-10T20:52:35.126Z</time>
      </trkpt>
      <trkpt lat="47.66158" lon="-2.97809">
        <ele>9.842732</ele>
        <time>2021-11-10T20:52:57.318Z</time>
      </trkpt>
      <trkpt lat="47.6619" lon="-2.97803">
        <ele>10.15727</ele>
        <time>2021-11-10T20:53:05.295Z</time>
      </trkpt>
      <trkpt lat="47.66214" lon="-2.97809">
        <ele>10.397837</ele>
        <time>2021-11-10T20:53:11.597Z</time>
      </trkpt>
      <trkpt lat="47.66368" lon="-2.97882">
        <ele>13.493392</ele>
        <time>2021-11-10T20:53:58.909Z</time>
      </trkpt>
      <trkpt lat="47.66489" lon="-2.97962">
        <ele>14.303137</ele>
        <time>2021-11-10T20:54:32.854Z</time>
      </trkpt>
      <trkpt lat="47.6651" lon="-2.97977">
        <ele>14.305934</ele>
        <time>2021-11-10T20:54:37.005Z</time>
      </trkpt>
      <trkpt lat="47.66575" lon="-2.97998">
        <ele>14.307197</ele>
        <time>2021-11-10T20:54:48.147Z</time>
      </trkpt>
      <trkpt lat="47.66606" lon="-2.98001">
        <ele>14.263639</ele>
        <time>2021-11-10T20:54:53.285Z</time>
      </trkpt>
      <trkpt lat="47.66625" lon="-2.98003">
        <ele>14.236597</ele>
        <time>2021-11-10T20:54:56.460Z</time>
      </trkpt>
      <trkpt lat="47.66659" lon="-2.97971">
        <ele>14.178474</ele>
        <time>2021-11-10T20:55:03.582Z</time>
      </trkpt>
      <trkpt lat="47.66663" lon="-2.97973">
        <ele>14.172616</ele>
        <time>2021-11-10T20:55:04.349Z</time>
      </trkpt>
      <trkpt lat="47.66672" lon="-2.97977">
        <ele>14.158261</ele>
        <time>2021-11-10T20:55:06.604Z</time>
      </trkpt>
      <trkpt lat="47.66685" lon="-2.97968">
        <ele>14.13812</ele>
        <time>2021-11-10T20:55:09.172Z</time>
      </trkpt>
      <trkpt lat="47.6669" lon="-2.97962">
        <ele>14.129137</ele>
        <time>2021-11-10T20:55:10.323Z</time>
      </trkpt>
      <trkpt lat="47.66694" lon="-2.97958">
        <ele>14.121478</ele>
        <time>2021-11-10T20:55:11.434Z</time>
      </trkpt>
      <trkpt lat="47.66699" lon="-2.97955">
        <ele>14.113476</ele>
        <time>2021-11-10T20:55:12.811Z</time>
      </trkpt>
      <trkpt lat="47.66702" lon="-2.97953">
        <ele>14.110282</ele>
        <time>2021-11-10T20:55:13.376Z</time>
      </trkpt>
      <trkpt lat="47.66734" lon="-2.97985">
        <ele>14.073894</ele>
        <time>2021-11-10T20:55:22.424Z</time>
      </trkpt>
      <trkpt lat="47.66764" lon="-2.98027">
        <ele>15.633576</ele>
        <time>2021-11-10T20:55:33.645Z</time>
      </trkpt>
      <trkpt lat="47.66783" lon="-2.98052">
        <ele>16.578284</ele>
        <time>2021-11-10T20:55:41.471Z</time>
      </trkpt>
      <trkpt lat="47.6679" lon="-2.98057">
        <ele>16.894058</ele>
        <time>2021-11-10T20:55:44.604Z</time>
      </trkpt>
      <trkpt lat="47.66809" lon="-2.98065">
        <ele>17.635098</ele>
        <time>2021-11-10T20:55:51.676Z</time>
      </trkpt>
      <trkpt lat="47.66833" lon="-2.98066">
        <ele>18.529867</ele>
        <time>2021-11-10T20:56:00.775Z</time>
      </trkpt>
      <trkpt lat="47.66852" lon="-2.98128">
        <ele>20.279555</ele>
        <time>2021-11-10T20:56:18.912Z</time>
      </trkpt>
      <trkpt lat="47.66856" lon="-2.98137">
        <ele>20.545017</ele>
        <time>2021-11-10T20:56:21.508Z</time>
      </trkpt>
      <trkpt lat="47.66868" lon="-2.98179">
        <ele>21.529161</ele>
        <time>2021-11-10T20:56:32.865Z</time>
      </trkpt>
      <trkpt lat="47.66937" lon="-2.98149">
        <ele>23.695026</ele>
        <time>2021-11-10T20:56:56.651Z</time>
      </trkpt>
      <trkpt lat="47.66975" lon="-2.98133">
        <ele>24.859526</ele>
        <time>2021-11-10T20:57:07.375Z</time>
      </trkpt>
      <trkpt lat="47.66991" lon="-2.98129">
        <ele>25.360624</ele>
        <time>2021-11-10T20:57:11.665Z</time>
      </trkpt>
      <trkpt lat="47.67022" lon="-2.98123">
        <ele>26.267212</ele>
        <time>2021-11-10T20:57:19.424Z</time>
      </trkpt>
      <trkpt lat="47.67036" lon="-2.98115">
        <ele>26.1244</ele>
        <time>2021-11-10T20:57:22.699Z</time>
      </trkpt>
      <trkpt lat="47.67054" lon="-2.98089">
        <ele>25.873505</ele>
        <time>2021-11-10T20:57:27.279Z</time>
      </trkpt>
      <trkpt lat="47.67056" lon="-2.98085">
        <ele>25.836241</ele>
        <time>2021-11-10T20:57:27.974Z</time>
      </trkpt>
      <trkpt lat="47.67061" lon="-2.98083">
        <ele>25.787668</ele>
        <time>2021-11-10T20:57:28.922Z</time>
      </trkpt>
      <trkpt lat="47.67065" lon="-2.98084">
        <ele>25.746152</ele>
        <time>2021-11-10T20:57:29.707Z</time>
      </trkpt>
      <trkpt lat="47.6708" lon="-2.9812">
        <ele>25.459616</ele>
        <time>2021-11-10T20:57:34.441Z</time>
      </trkpt>
      <trkpt lat="47.67082" lon="-2.98128">
        <ele>25.406634</ele>
        <time>2021-11-10T20:57:35.357Z</time>
      </trkpt>
      <trkpt lat="47.67095" lon="-2.98136">
        <ele>25.262133</ele>
        <time>2021-11-10T20:57:37.603Z</time>
      </trkpt>
      <trkpt lat="47.67094" lon="-2.98142">
        <ele>25.224091</ele>
        <time>2021-11-10T20:57:38.189Z</time>
      </trkpt>
      <trkpt lat="47.6711" lon="-2.98152">
        <ele>25.053028</ele>
        <time>2021-11-10T20:57:40.760Z</time>
      </trkpt>
      <trkpt lat="47.67127" lon="-2.98162">
        <ele>24.868596</ele>
        <time>2021-11-10T20:57:43.429Z</time>
      </trkpt>
      <trkpt lat="47.67145" lon="-2.98173">
        <ele>24.676898</ele>
        <time>2021-11-10T20:57:46.170Z</time>
      </trkpt>
      <trkpt lat="47.67168" lon="-2.98179">
        <ele>24.366564</ele>
        <time>2021-11-10T20:57:49.426Z</time>
      </trkpt>
      <trkpt lat="47.67223" lon="-2.98217">
        <ele>22.86972</ele>
        <time>2021-11-10T20:57:57.770Z</time>
      </trkpt>
      <trkpt lat="47.67232" lon="-2.98224">
        <ele>22.61232</ele>
        <time>2021-11-10T20:57:59.185Z</time>
      </trkpt>
      <trkpt lat="47.67266" lon="-2.9825">
        <ele>21.679646</ele>
        <time>2021-11-10T20:58:04.350Z</time>
      </trkpt>
      <trkpt lat="47.67283" lon="-2.98266">
        <ele>21.180215</ele>
        <time>2021-11-10T20:58:07.143Z</time>
      </trkpt>
      <trkpt lat="47.6729" lon="-2.98275">
        <ele>20.942237</ele>
        <time>2021-11-10T20:58:08.475Z</time>
      </trkpt>
      <trkpt lat="47.67293" lon="-2.98279">
        <ele>20.844548</ele>
        <time>2021-11-10T20:58:09.024Z</time>
      </trkpt>
      <trkpt lat="47.67307" lon="-2.98295">
        <ele>20.40684</ele>
        <time>2021-11-10T20:58:11.636Z</time>
      </trkpt>
      <trkpt lat="47.67361" lon="-2.98363">
        <ele>19.947784</ele>
        <time>2021-11-10T20:58:23.186Z</time>
      </trkpt>
      <trkpt lat="47.674" lon="-2.984">
        <ele>19.883192</ele>
        <time>2021-11-10T20:58:32.479Z</time>
      </trkpt>
      <trkpt lat="47.67428" lon="-2.98428">
        <ele>19.836834</ele>
        <time>2021-11-10T20:58:39.910Z</time>
      </trkpt>
      <trkpt lat="47.67475" lon="-2.98484">
        <ele>19.689275</ele>
        <time>2021-11-10T20:58:50.720Z</time>
      </trkpt>
      <trkpt lat="47.67484" lon="-2.98484">
        <ele>19.641183</ele>
        <time>2021-11-10T20:58:52.179Z</time>
      </trkpt>
      <trkpt lat="47.67493" lon="-2.98493">
        <ele>19.585439</ele>
        <time>2021-11-10T20:58:53.985Z</time>
      </trkpt>
      <trkpt lat="47.67504" lon="-2.98492">
        <ele>19.523925</ele>
        <time>2021-11-10T20:58:55.978Z</time>
      </trkpt>
      <trkpt lat="47.67542" lon="-2.98492">
        <ele>19.32314</ele>
        <time>2021-11-10T20:59:02.457Z</time>
      </trkpt>
      <trkpt lat="47.67573" lon="-2.98497">
        <ele>19.153406</ele>
        <time>2021-11-10T20:59:07.910Z</time>
      </trkpt>
      <trkpt lat="47.67612" lon="-2.98503">
        <ele>18.944453</ele>
        <time>2021-11-10T20:59:14.411Z</time>
      </trkpt>
      <trkpt lat="47.67691" lon="-2.98538">
        <ele>19.753895</ele>
        <time>2021-11-10T20:59:28.539Z</time>
      </trkpt>
      <trkpt lat="47.67707" lon="-2.98555">
        <ele>20.075001</ele>
        <time>2021-11-10T20:59:32.114Z</time>
      </trkpt>
      <trkpt lat="47.67737" lon="-2.98586">
        <ele>20.6742</ele>
        <time>2021-11-10T20:59:40.351Z</time>
      </trkpt>
      <trkpt lat="47.67759" lon="-2.98616">
        <ele>21.153948</ele>
        <time>2021-11-10T20:59:50.015Z</time>
      </trkpt>
      <trkpt lat="47.67784" lon="-2.9863">
        <ele>21.595774</ele>
        <time>2021-11-10T21:00:00.129Z</time>
      </trkpt>
      <trkpt lat="47.67796" lon="-2.98628">
        <ele>21.899675</ele>
        <time>2021-11-10T21:00:05.007Z</time>
      </trkpt>
      <trkpt lat="47.67848" lon="-2.98599">
        <ele>24.602466</ele>
        <time>2021-11-10T21:00:26.405Z</time>
      </trkpt>
      <trkpt lat="47.67873" lon="-2.98593">
        <ele>25.852698</ele>
        <time>2021-11-10T21:00:37.103Z</time>
      </trkpt>
      <trkpt lat="47.67892" lon="-2.9859">
        <ele>26.790024</ele>
        <time>2021-11-10T21:00:43.919Z</time>
      </trkpt>
      <trkpt lat="47.67907" lon="-2.98584">
        <ele>27.580297</ele>
        <time>2021-11-10T21:00:51.617Z</time>
      </trkpt>
      <trkpt lat="47.67935" lon="-2.9855">
        <ele>29.345713</ele>
        <time>2021-11-10T21:01:05.704Z</time>
      </trkpt>
      <trkpt lat="47.67986" lon="-2.98536">
        <ele>30.926368</ele>
        <time>2021-11-10T21:01:23.784Z</time>
      </trkpt>
      <trkpt lat="47.6799" lon="-2.9852">
        <ele>31.077018</ele>
        <time>2021-11-10T21:01:27.566Z</time>
      </trkpt>
      <trkpt lat="47.67985" lon="-2.98431">
        <ele>31.893914</ele>
        <time>2021-11-10T21:01:44.228Z</time>
      </trkpt>
      <trkpt lat="47.67991" lon="-2.98428">
        <ele>31.979401</ele>
        <time>2021-11-10T21:01:45.362Z</time>
      </trkpt>
      <trkpt lat="47.68011" lon="-2.98434">
        <ele>32.251929</ele>
        <time>2021-11-10T21:01:48.960Z</time>
      </trkpt>
      <trkpt lat="47.68062" lon="-2.9847">
        <ele>33.002472</ele>
        <time>2021-11-10T21:01:58.488Z</time>
      </trkpt>
      <trkpt lat="47.6811" lon="-2.98471">
        <ele>31.586335</ele>
        <time>2021-11-10T21:02:11.409Z</time>
      </trkpt>
      <trkpt lat="47.68179" lon="-2.98471">
        <ele>29.583328</ele>
        <time>2021-11-10T21:02:28.431Z</time>
      </trkpt>
      <trkpt lat="47.68245" lon="-2.98486">
        <ele>27.583719</ele>
        <time>2021-11-10T21:02:44.359Z</time>
      </trkpt>
      <trkpt lat="47.68287" lon="-2.98522">
        <ele>25.541854</ele>
        <time>2021-11-10T21:02:55.629Z</time>
      </trkpt>
      <trkpt lat="47.68344" lon="-2.98599">
        <ele>22.299253</ele>
        <time>2021-11-10T21:03:13.822Z</time>
      </trkpt>
      <trkpt lat="47.68374" lon="-2.9863">
        <ele>20.775853</ele>
        <time>2021-11-10T21:03:22.469Z</time>
      </trkpt>
      <trkpt lat="47.68403" lon="-2.98635">
        <ele>19.68817</ele>
        <time>2021-11-10T21:03:29.581Z</time>
      </trkpt>
      <trkpt lat="47.68404" lon="-2.98649">
        <ele>19.396943</ele>
        <time>2021-11-10T21:03:31.836Z</time>
      </trkpt>
      <trkpt lat="47.68384" lon="-2.98692">
        <ele>18.273023</ele>
        <time>2021-11-10T21:03:40.297Z</time>
      </trkpt>
      <trkpt lat="47.68378" lon="-2.98722">
        <ele>17.59775</ele>
        <time>2021-11-10T21:03:45.326Z</time>
      </trkpt>
      <trkpt lat="47.68382" lon="-2.98742">
        <ele>17.155135</ele>
        <time>2021-11-10T21:03:48.691Z</time>
      </trkpt>
      <trkpt lat="47.68414" lon="-2.98758">
        <ele>16.082538</ele>
        <time>2021-11-10T21:03:56.822Z</time>
      </trkpt>
      <trkpt lat="47.68435" lon="-2.98786">
        <ele>15.177176</ele>
        <time>2021-11-10T21:04:03.801Z</time>
      </trkpt>
      <trkpt lat="47.68474" lon="-2.98918">
        <ele>13.916211</ele>
        <time>2021-11-10T21:04:30.094Z</time>
      </trkpt>
      <trkpt lat="47.68509" lon="-2.99025">
        <ele>13.340284</ele>
        <time>2021-11-10T21:04:53.064Z</time>
      </trkpt>
      <trkpt lat="47.68515" lon="-2.99045">
        <ele>13.234765</ele>
        <time>2021-11-10T21:04:57.598Z</time>
      </trkpt>
      <trkpt lat="47.68539" lon="-2.99092">
        <ele>13.231923</ele>
        <time>2021-11-10T21:05:10.325Z</time>
      </trkpt>
      <trkpt lat="47.68581" lon="-2.99118">
        <ele>13.342245</ele>
        <time>2021-11-10T21:05:25.922Z</time>
      </trkpt>
      <trkpt lat="47.68703" lon="-2.9923">
        <ele>13.00801</ele>
        <time>2021-11-10T21:06:08.520Z</time>
      </trkpt>
      <trkpt lat="47.68742" lon="-2.9923">
        <ele>12.402675</ele>
        <time>2021-11-10T21:06:19.171Z</time>
      </trkpt>
      <trkpt lat="47.68914" lon="-2.99401">
        <ele>8.24219</ele>
        <time>2021-11-10T21:06:52.557Z</time>
      </trkpt>
      <trkpt lat="47.68916" lon="-2.99417">
        <ele>7.964381</ele>
        <time>2021-11-10T21:06:54.372Z</time>
      </trkpt>
      <trkpt lat="47.68933" lon="-2.99426">
        <ele>7.512492</ele>
        <time>2021-11-10T21:06:57.014Z</time>
      </trkpt>
      <trkpt lat="47.68935" lon="-2.9942">
        <ele>7.394103</ele>
        <time>2021-11-10T21:06:57.688Z</time>
      </trkpt>
      <trkpt lat="47.6896" lon="-2.99413">
        <ele>6.772788</ele>
        <time>2021-11-10T21:07:01.167Z</time>
      </trkpt>
      <trkpt lat="47.69018" lon="-2.9941">
        <ele>5.542313</ele>
        <time>2021-11-10T21:07:09.487Z</time>
      </trkpt>
      <trkpt lat="47.69057" lon="-2.99408">
        <ele>4.782783</ele>
        <time>2021-11-10T21:07:15.010Z</time>
      </trkpt>
      <trkpt lat="47.6913" lon="-2.9938">
        <ele>3.311095</ele>
        <time>2021-11-10T21:07:26.146Z</time>
      </trkpt>
      <trkpt lat="47.69198" lon="-2.99398">
        <ele>2.727282</ele>
        <time>2021-11-10T21:07:37.375Z</time>
      </trkpt>
      <trkpt lat="47.69264" lon="-2.99397">
        <ele>2.575062</ele>
        <time>2021-11-10T21:07:48.458Z</time>
      </trkpt>
      <trkpt lat="47.69281" lon="-2.9939">
        <ele>2.533686</ele>
        <time>2021-11-10T21:07:51.472Z</time>
      </trkpt>
      <trkpt lat="47.69305" lon="-2.99367">
        <ele>2.469515</ele>
        <time>2021-11-10T21:07:56.481Z</time>
      </trkpt>
      <trkpt lat="47.69343" lon="-2.99305">
        <ele>2.99462</ele>
        <time>2021-11-10T21:08:09.437Z</time>
      </trkpt>
      <trkpt lat="47.69357" lon="-2.99271">
        <ele>3.454483</ele>
        <time>2021-11-10T21:08:15.257Z</time>
      </trkpt>
      <trkpt lat="47.69376" lon="-2.99195">
        <ele>4.385404</ele>
        <time>2021-11-10T21:08:28.155Z</time>
      </trkpt>
      <trkpt lat="47.69387" lon="-2.99198">
        <ele>4.581535</ele>
        <time>2021-11-10T21:08:31.090Z</time>
      </trkpt>
      <trkpt lat="47.69389" lon="-2.99218">
        <ele>4.813824</ele>
        <time>2021-11-10T21:08:35.277Z</time>
      </trkpt>
      <trkpt lat="47.69431" lon="-2.99359">
        <ele>7.219074</ele>
        <time>2021-11-10T21:09:05.696Z</time>
      </trkpt>
      <trkpt lat="47.69512" lon="-2.99504">
        <ele>10.470353</ele>
        <time>2021-11-10T21:09:43.679Z</time>
      </trkpt>
      <trkpt lat="47.69567" lon="-2.99542">
        <ele>11.100948</ele>
        <time>2021-11-10T21:10:06.818Z</time>
      </trkpt>
      <trkpt lat="47.69591" lon="-2.99558">
        <ele>11.37062</ele>
        <time>2021-11-10T21:10:15.867Z</time>
      </trkpt>
      <trkpt lat="47.69602" lon="-2.99572">
        <ele>11.522398</ele>
        <time>2021-11-10T21:10:20.942Z</time>
      </trkpt>
      <trkpt lat="47.69655" lon="-2.99616">
        <ele>12.149633</ele>
        <time>2021-11-10T21:10:37.803Z</time>
      </trkpt>
      <trkpt lat="47.69662" lon="-2.99631">
        <ele>12.282996</ele>
        <time>2021-11-10T21:10:42.219Z</time>
      </trkpt>
      <trkpt lat="47.69664" lon="-2.99646">
        <ele>12.405089</ele>
        <time>2021-11-10T21:10:45.014Z</time>
      </trkpt>
      <trkpt lat="47.69656" lon="-2.99689">
        <ele>12.760083</ele>
        <time>2021-11-10T21:10:54.057Z</time>
      </trkpt>
      <trkpt lat="47.69648" lon="-2.99731">
        <ele>13.112021</ele>
        <time>2021-11-10T21:11:03.033Z</time>
      </trkpt>
      <trkpt lat="47.69654" lon="-2.99763">
        <ele>13.380062</ele>
        <time>2021-11-10T21:11:09.450Z</time>
      </trkpt>
      <trkpt lat="47.69716" lon="-2.99708">
        <ele>14.226623</ele>
        <time>2021-11-10T21:11:36.990Z</time>
      </trkpt>
      <trkpt lat="47.69771" lon="-2.99693">
        <ele>16.77298</ele>
        <time>2021-11-10T21:12:02.625Z</time>
      </trkpt>
      <trkpt lat="47.69813" lon="-2.997">
        <ele>18.923882</ele>
        <time>2021-11-10T21:12:23.881Z</time>
      </trkpt>
      <trkpt lat="47.69861" lon="-2.99722">
        <ele>21.526039</ele>
        <time>2021-11-10T21:12:51.688Z</time>
      </trkpt>
      <trkpt lat="47.69951" lon="-2.99803">
        <ele>27.556673</ele>
        <time>2021-11-10T21:13:48.299Z</time>
      </trkpt>
      <trkpt lat="47.70036" lon="-2.99791">
        <ele>32.745721</ele>
        <time>2021-11-10T21:14:35.692Z</time>
      </trkpt>
      <trkpt lat="47.70091" lon="-2.99767">
        <ele>35.914374</ele>
        <time>2021-11-10T21:15:05.080Z</time>
      </trkpt>
      <trkpt lat="47.70109" lon="-2.99759">
        <ele>36.819097</ele>
        <time>2021-11-10T21:15:15.187Z</time>
      </trkpt>
      <trkpt lat="47.70163" lon="-2.99729">
        <ele>39.608933</ele>
        <time>2021-11-10T21:15:43.746Z</time>
      </trkpt>
      <trkpt lat="47.70196" lon="-2.99695">
        <ele>41.585665</ele>
        <time>2021-11-10T21:16:03.924Z</time>
      </trkpt>
      <trkpt lat="47.7023" lon="-2.9967">
        <ele>43.353975</ele>
        <time>2021-11-10T21:16:21.494Z</time>
      </trkpt>
      <trkpt lat="47.70266" lon="-2.99684">
        <ele>44.280019</ele>
        <time>2021-11-10T21:16:36.985Z</time>
      </trkpt>
      <trkpt lat="47.70361" lon="-2.99767">
        <ele>47.052594</ele>
        <time>2021-11-10T21:17:19.556Z</time>
      </trkpt>
      <trkpt lat="47.7047" lon="-2.9985">
        <ele>49.111798</ele>
        <time>2021-11-10T21:18:04.638Z</time>
      </trkpt>
      <trkpt lat="47.70495" lon="-2.9989">
        <ele>49.632615</ele>
        <time>2021-11-10T21:18:17.359Z</time>
      </trkpt>
      <trkpt lat="47.70523" lon="-2.99921">
        <ele>50.124236</ele>
        <time>2021-11-10T21:18:29.056Z</time>
      </trkpt>
      <trkpt lat="47.70563" lon="-2.99941">
        <ele>50.513925</ele>
        <time>2021-11-10T21:18:42.662Z</time>
      </trkpt>
      <trkpt lat="47.70567" lon="-2.99952">
        <ele>50.567376</ele>
        <time>2021-11-10T21:18:45.368Z</time>
      </trkpt>
      <trkpt lat="47.70578" lon="-2.99954">
        <ele>50.636623</ele>
        <time>2021-11-10T21:18:48.877Z</time>
      </trkpt>
      <trkpt lat="47.70591" lon="-2.99972">
        <ele>50.746578</ele>
        <time>2021-11-10T21:18:54.349Z</time>
      </trkpt>
      <trkpt lat="47.70618" lon="-3.00028">
        <ele>51.040445</ele>
        <time>2021-11-10T21:19:09.106Z</time>
      </trkpt>
      <trkpt lat="47.70654" lon="-3.00063">
        <ele>51.309915</ele>
        <time>2021-11-10T21:19:22.691Z</time>
      </trkpt>
      <trkpt lat="47.70695" lon="-3.00142">
        <ele>51.814793</ele>
        <time>2021-11-10T21:19:44.230Z</time>
      </trkpt>
      <trkpt lat="47.70709" lon="-3.0015">
        <ele>51.943686</ele>
        <time>2021-11-10T21:19:49.218Z</time>
      </trkpt>
      <trkpt lat="47.70716" lon="-3.00165">
        <ele>52.048854</ele>
        <time>2021-11-10T21:19:53.576Z</time>
      </trkpt>
      <trkpt lat="47.70784" lon="-3.00169">
        <ele>52.624196</ele>
        <time>2021-11-10T21:20:16.449Z</time>
      </trkpt>
      <trkpt lat="47.70805" lon="-3.00112">
        <ele>52.992665</ele>
        <time>2021-11-10T21:20:31.199Z</time>
      </trkpt>
      <trkpt lat="47.70807" lon="-3.00095">
        <ele>53.030034</ele>
        <time>2021-11-10T21:20:34.785Z</time>
      </trkpt>
      <trkpt lat="47.70814" lon="-3.00084">
        <ele>53.058515</ele>
        <time>2021-11-10T21:20:38.453Z</time>
      </trkpt>
      <trkpt lat="47.70863" lon="-3.00102">
        <ele>53.199303</ele>
        <time>2021-11-10T21:20:54.041Z</time>
      </trkpt>
      <trkpt lat="47.70868" lon="-3.00103">
        <ele>53.212799</ele>
        <time>2021-11-10T21:20:55.523Z</time>
      </trkpt>
      <trkpt lat="47.70894" lon="-3.00126">
        <ele>53.298344</ele>
        <time>2021-11-10T21:21:04.752Z</time>
      </trkpt>
      <trkpt lat="47.70878" lon="-3.00155">
        <ele>53.370074</ele>
        <time>2021-11-10T21:21:12.822Z</time>
      </trkpt>
      <trkpt lat="47.70893" lon="-3.00171">
        <ele>53.42203</ele>
        <time>2021-11-10T21:21:18.064Z</time>
      </trkpt>
      <trkpt lat="47.7098" lon="-3.00206">
        <ele>53.323888</ele>
        <time>2021-11-10T21:21:44.791Z</time>
      </trkpt>
      <trkpt lat="47.70997" lon="-3.00233">
        <ele>53.250252</ele>
        <time>2021-11-10T21:21:51.937Z</time>
      </trkpt>
      <trkpt lat="47.71027" lon="-3.00328">
        <ele>53.042529</ele>
        <time>2021-11-10T21:22:12.163Z</time>
      </trkpt>
      <trkpt lat="47.71025" lon="-3.0034">
        <ele>53.017813</ele>
        <time>2021-11-10T21:22:14.597Z</time>
      </trkpt>
      <trkpt lat="47.70999" lon="-3.00376">
        <ele>52.872999</ele>
        <time>2021-11-10T21:22:24.905Z</time>
      </trkpt>
      <trkpt lat="47.71112" lon="-3.00483">
        <ele>52.224044</ele>
        <time>2021-11-10T21:23:03.025Z</time>
      </trkpt>
      <trkpt lat="47.71229" lon="-3.00593">
        <ele>51.813835</ele>
        <time>2021-11-10T21:23:42.801Z</time>
      </trkpt>
      <trkpt lat="47.71261" lon="-3.00615">
        <ele>51.725895</ele>
        <time>2021-11-10T21:23:52.917Z</time>
      </trkpt>
      <trkpt lat="47.71304" lon="-3.00629">
        <ele>51.732981</ele>
        <time>2021-11-10T21:24:06.115Z</time>
      </trkpt>
      <trkpt lat="47.71262" lon="-3.00785">
        <ele>52.488323</ele>
        <time>2021-11-10T21:24:29.201Z</time>
      </trkpt>
      <trkpt lat="47.7156" lon="-3.00915">
        <ele>54.669699</ele>
        <time>2021-11-10T21:25:37.135Z</time>
      </trkpt>
      <trkpt lat="47.71627" lon="-3.00944">
        <ele>54.70777</ele>
        <time>2021-11-10T21:25:48.916Z</time>
      </trkpt>
      <trkpt lat="47.71717" lon="-3.00983">
        <ele>54.030935</ele>
        <time>2021-11-10T21:26:03.989Z</time>
      </trkpt>
      <trkpt lat="47.71722" lon="-3.00975">
        <ele>53.955431</ele>
        <time>2021-11-10T21:26:05.008Z</time>
      </trkpt>
      <trkpt lat="47.71731" lon="-3.00975">
        <ele>53.85064</ele>
        <time>2021-11-10T21:26:06.411Z</time>
      </trkpt>
      <trkpt lat="47.71756" lon="-3.00894">
        <ele>53.163315</ele>
        <time>2021-11-10T21:26:15.645Z</time>
      </trkpt>
      <trkpt lat="47.71788" lon="-3.00792">
        <ele>52.591614</ele>
        <time>2021-11-10T21:26:27.446Z</time>
      </trkpt>
      <trkpt lat="47.71826" lon="-3.00675">
        <ele>52.364509</ele>
        <time>2021-11-10T21:26:42.080Z</time>
      </trkpt>
      <trkpt lat="47.71882" lon="-3.00485">
        <ele>52.223686</ele>
        <time>2021-11-10T21:27:10.546Z</time>
      </trkpt>
      <trkpt lat="47.71895" lon="-3.00321">
        <ele>51.982058</ele>
        <time>2021-11-10T21:27:30.142Z</time>
      </trkpt>
      <trkpt lat="47.71907" lon="-3.00242">
        <ele>50.776998</ele>
        <time>2021-11-10T21:27:38.021Z</time>
      </trkpt>
      <trkpt lat="47.71942" lon="-3.00147">
        <ele>49.176153</ele>
        <time>2021-11-10T21:27:48.110Z</time>
      </trkpt>
      <trkpt lat="47.71961" lon="-3.001">
        <ele>48.34918</ele>
        <time>2021-11-10T21:27:53.229Z</time>
      </trkpt>
      <trkpt lat="47.71983" lon="-3.00041">
        <ele>47.936756</ele>
        <time>2021-11-10T21:27:59.585Z</time>
      </trkpt>
      <trkpt lat="47.72032" lon="-2.99943">
        <ele>47.309409</ele>
        <time>2021-11-10T21:28:12.659Z</time>
      </trkpt>
      <trkpt lat="47.72038" lon="-2.99924">
        <ele>47.201805</ele>
        <time>2021-11-10T21:28:15.543Z</time>
      </trkpt>
      <trkpt lat="47.72052" lon="-2.99883">
        <ele>46.966577</ele>
        <time>2021-11-10T21:28:22.651Z</time>
      </trkpt>
      <trkpt lat="47.72064" lon="-2.99779">
        <ele>46.984163</ele>
        <time>2021-11-10T21:28:38.853Z</time>
      </trkpt>
      <trkpt lat="47.72064" lon="-2.99767">
        <ele>47.000147</ele>
        <time>2021-11-10T21:28:40.653Z</time>
      </trkpt>
      <trkpt lat="47.72067" lon="-2.99732">
        <ele>47.043939</ele>
        <time>2021-11-10T21:28:45.601Z</time>
      </trkpt>
      <trkpt lat="47.72075" lon="-2.9964">
        <ele>47.159657</ele>
        <time>2021-11-10T21:28:57.085Z</time>
      </trkpt>
      <trkpt lat="47.72073" lon="-2.99614">
        <ele>47.192747</ele>
        <time>2021-11-10T21:28:59.978Z</time>
      </trkpt>
      <trkpt lat="47.72074" lon="-2.99569">
        <ele>46.335429</ele>
        <time>2021-11-10T21:29:04.628Z</time>
      </trkpt>
      <trkpt lat="47.72067" lon="-2.99546">
        <ele>45.650797</ele>
        <time>2021-11-10T21:29:07.111Z</time>
      </trkpt>
      <trkpt lat="47.72049" lon="-2.99524">
        <ele>44.72411</ele>
        <time>2021-11-10T21:29:10.382Z</time>
      </trkpt>
      <trkpt lat="47.72043" lon="-2.9949">
        <ele>43.764863</ele>
        <time>2021-11-10T21:29:13.368Z</time>
      </trkpt>
      <trkpt lat="47.72039" lon="-2.99465">
        <ele>43.080147</ele>
        <time>2021-11-10T21:29:15.559Z</time>
      </trkpt>
      <trkpt lat="47.72029" lon="-2.99435">
        <ele>42.179669</ele>
        <time>2021-11-10T21:29:18.510Z</time>
      </trkpt>
      <trkpt lat="47.7198" lon="-2.99356">
        <ele>39.03612</ele>
        <time>2021-11-10T21:29:27.532Z</time>
      </trkpt>
      <trkpt lat="47.71975" lon="-2.99347">
        <ele>38.605053</ele>
        <time>2021-11-10T21:29:28.548Z</time>
      </trkpt>
      <trkpt lat="47.71966" lon="-2.99343">
        <ele>38.081075</ele>
        <time>2021-11-10T21:29:30.445Z</time>
      </trkpt>
      <trkpt lat="47.71949" lon="-2.99316">
        <ele>36.741485</ele>
        <time>2021-11-10T21:29:36.237Z</time>
      </trkpt>
      <trkpt lat="47.71935" lon="-2.99279">
        <ele>35.216673</ele>
        <time>2021-11-10T21:29:42.361Z</time>
      </trkpt>
      <trkpt lat="47.71931" lon="-2.99244">
        <ele>33.923701</ele>
        <time>2021-11-10T21:29:47.548Z</time>
      </trkpt>
      <trkpt lat="47.71933" lon="-2.99206">
        <ele>32.537705</ele>
        <time>2021-11-10T21:29:53.624Z</time>
      </trkpt>
      <trkpt lat="47.71965" lon="-2.99162">
        <ele>30.3173</ele>
        <time>2021-11-10T21:30:03.798Z</time>
      </trkpt>
      <trkpt lat="47.71927" lon="-2.99175">
        <ele>30.471574</ele>
        <time>2021-11-10T21:30:14.381Z</time>
      </trkpt>
      <trkpt lat="47.71917" lon="-2.99171">
        <ele>30.513699</ele>
        <time>2021-11-10T21:30:17.323Z</time>
      </trkpt>
      <trkpt lat="47.719" lon="-2.99148">
        <ele>30.604595</ele>
        <time>2021-11-10T21:30:23.395Z</time>
      </trkpt>
      <trkpt lat="47.71892" lon="-2.99121">
        <ele>30.685393</ele>
        <time>2021-11-10T21:30:37.403Z</time>
      </trkpt>
      <trkpt lat="47.71883" lon="-2.99088">
        <ele>30.780988</ele>
        <time>2021-11-10T21:30:44.887Z</time>
      </trkpt>
      <trkpt lat="47.71868" lon="-2.99037">
        <ele>30.931325</ele>
        <time>2021-11-10T21:30:59.311Z</time>
      </trkpt>
      <trkpt lat="47.71878" lon="-2.98991">
        <ele>31.418579</ele>
        <time>2021-11-10T21:31:14.536Z</time>
      </trkpt>
      <trkpt lat="47.71862" lon="-2.98972">
        <ele>32.437974</ele>
        <time>2021-11-10T21:31:24.722Z</time>
      </trkpt>
      <trkpt lat="47.71856" lon="-2.98956">
        <ele>33.061319</ele>
        <time>2021-11-10T21:31:30.966Z</time>
      </trkpt>
      <trkpt lat="47.71841" lon="-2.98876">
        <ele>35.820881</ele>
        <time>2021-11-10T21:32:00.181Z</time>
      </trkpt>
      <trkpt lat="47.71821" lon="-2.98795">
        <ele>38.685075</ele>
        <time>2021-11-10T21:32:28.726Z</time>
      </trkpt>
      <trkpt lat="47.7179" lon="-2.98745">
        <ele>40.750823</ele>
        <time>2021-11-10T21:32:52.153Z</time>
      </trkpt>
      <trkpt lat="47.71766" lon="-2.98677">
        <ele>42.870494</ele>
        <time>2021-11-10T21:33:18.510Z</time>
      </trkpt>
      <trkpt lat="47.7169" lon="-2.98498">
        <ele>47.822427</ele>
        <time>2021-11-10T21:34:19.996Z</time>
      </trkpt>
      <trkpt lat="47.71677" lon="-2.98477">
        <ele>48.138081</ele>
        <time>2021-11-10T21:34:26.371Z</time>
      </trkpt>
      <trkpt lat="47.71672" lon="-2.98465">
        <ele>48.297601</ele>
        <time>2021-11-10T21:34:29.896Z</time>
      </trkpt>
      <trkpt lat="47.71674" lon="-2.98456">
        <ele>48.404928</ele>
        <time>2021-11-10T21:34:32.719Z</time>
      </trkpt>
      <trkpt lat="47.71668" lon="-2.98452">
        <ele>48.514398</ele>
        <time>2021-11-10T21:34:34.590Z</time>
      </trkpt>
      <trkpt lat="47.71649" lon="-2.98394">
        <ele>49.231135</ele>
        <time>2021-11-10T21:34:49.085Z</time>
      </trkpt>
      <trkpt lat="47.71631" lon="-2.98375">
        <ele>49.608964</ele>
        <time>2021-11-10T21:34:57.231Z</time>
      </trkpt>
      <trkpt lat="47.71612" lon="-2.98367">
        <ele>49.936343</ele>
        <time>2021-11-10T21:35:03.186Z</time>
      </trkpt>
      <trkpt lat="47.71582" lon="-2.98338">
        <ele>50.437463</ele>
        <time>2021-11-10T21:35:15.286Z</time>
      </trkpt>
      <trkpt lat="47.71572" lon="-2.98337">
        <ele>50.554072</ele>
        <time>2021-11-10T21:35:18.918Z</time>
      </trkpt>
      <trkpt lat="47.71534" lon="-2.98357">
        <ele>51.017013</ele>
        <time>2021-11-10T21:35:33.365Z</time>
      </trkpt>
      <trkpt lat="47.7152" lon="-2.98356">
        <ele>51.170225</ele>
        <time>2021-11-10T21:35:38.135Z</time>
      </trkpt>
      <trkpt lat="47.7151" lon="-2.98347">
        <ele>51.304341</ele>
        <time>2021-11-10T21:35:42.049Z</time>
      </trkpt>
      <trkpt lat="47.71471" lon="-2.98269">
        <ele>52.046351</ele>
        <time>2021-11-10T21:36:04.765Z</time>
      </trkpt>
      <trkpt lat="47.7144" lon="-2.98288">
        <ele>52.279937</ele>
        <time>2021-11-10T21:36:12.400Z</time>
      </trkpt>
      <trkpt lat="47.71328" lon="-2.98187">
        <ele>52.191981</ele>
        <time>2021-11-10T21:36:51.945Z</time>
      </trkpt>
      <trkpt lat="47.71272" lon="-2.98119">
        <ele>51.956605</ele>
        <time>2021-11-10T21:37:11.471Z</time>
      </trkpt>
      <trkpt lat="47.71241" lon="-2.98081">
        <ele>51.723285</ele>
        <time>2021-11-10T21:37:22.514Z</time>
      </trkpt>
      <trkpt lat="47.71202" lon="-2.9806">
        <ele>51.480444</ele>
        <time>2021-11-10T21:37:34.243Z</time>
      </trkpt>
      <trkpt lat="47.71198" lon="-2.98058">
        <ele>51.457576</ele>
        <time>2021-11-10T21:37:35.876Z</time>
      </trkpt>
      <trkpt lat="47.71201" lon="-2.97902">
        <ele>51.265702</ele>
        <time>2021-11-10T21:38:06.571Z</time>
      </trkpt>
      <trkpt lat="47.71227" lon="-2.97707">
        <ele>51.662187</ele>
        <time>2021-11-10T21:38:49.594Z</time>
      </trkpt>
      <trkpt lat="47.7125" lon="-2.97286">
        <ele>51.391153</ele>
        <time>2021-11-10T21:39:39.988Z</time>
      </trkpt>
      <trkpt lat="47.71245" lon="-2.97283">
        <ele>51.368797</ele>
        <time>2021-11-10T21:39:40.946Z</time>
      </trkpt>
      <trkpt lat="47.71243" lon="-2.9716">
        <ele>50.990316</ele>
        <time>2021-11-10T21:40:04.143Z</time>
      </trkpt>
      <trkpt lat="47.71254" lon="-2.97038">
        <ele>50.362272</ele>
        <time>2021-11-10T21:40:26.863Z</time>
      </trkpt>
      <trkpt lat="47.71266" lon="-2.96895">
        <ele>49.682295</ele>
        <time>2021-11-10T21:40:54.418Z</time>
      </trkpt>
      <trkpt lat="47.71268" lon="-2.96728">
        <ele>49.305228</ele>
        <time>2021-11-10T21:41:26.735Z</time>
      </trkpt>
      <trkpt lat="47.71282" lon="-2.96556">
        <ele>49.333336</ele>
        <time>2021-11-10T21:42:01.038Z</time>
      </trkpt>
      <trkpt lat="47.71275" lon="-2.96476">
        <ele>49.509221</ele>
        <time>2021-11-10T21:42:17.683Z</time>
      </trkpt>
      <trkpt lat="47.71273" lon="-2.96349">
        <ele>49.964247</ele>
        <time>2021-11-10T21:42:45.654Z</time>
      </trkpt>
      <trkpt lat="47.71235" lon="-2.96157">
        <ele>51.413888</ele>
        <time>2021-11-10T21:43:32.263Z</time>
      </trkpt>
      <trkpt lat="47.71226" lon="-2.96031">
        <ele>51.750416</ele>
        <time>2021-11-10T21:44:00.737Z</time>
      </trkpt>
      <trkpt lat="47.71207" lon="-2.9596">
        <ele>51.834228</ele>
        <time>2021-11-10T21:44:16.476Z</time>
      </trkpt>
      <trkpt lat="47.71169" lon="-2.95877">
        <ele>51.913589</ele>
        <time>2021-11-10T21:44:35.731Z</time>
      </trkpt>
      <trkpt lat="47.71038" lon="-2.95636">
        <ele>49.735027</ele>
        <time>2021-11-10T21:45:32.575Z</time>
      </trkpt>
      <trkpt lat="47.70974" lon="-2.95556">
        <ele>49.041554</ele>
        <time>2021-11-10T21:45:46.469Z</time>
      </trkpt>
      <trkpt lat="47.70971" lon="-2.95545">
        <ele>48.971989</ele>
        <time>2021-11-10T21:45:47.931Z</time>
      </trkpt>
      <trkpt lat="47.70956" lon="-2.95544">
        <ele>48.844525</ele>
        <time>2021-11-10T21:45:50.401Z</time>
      </trkpt>
      <trkpt lat="47.70798" lon="-2.95532">
        <ele>47.895747</ele>
        <time>2021-11-10T21:46:16.807Z</time>
      </trkpt>
      <trkpt lat="47.70665" lon="-2.95522">
        <ele>47.109822</ele>
        <time>2021-11-10T21:46:39.125Z</time>
      </trkpt>
      <trkpt lat="47.70647" lon="-2.95528">
        <ele>46.994062</ele>
        <time>2021-11-10T21:46:42.068Z</time>
      </trkpt>
      <trkpt lat="47.7063" lon="-2.9554">
        <ele>46.868345</ele>
        <time>2021-11-10T21:46:45.139Z</time>
      </trkpt>
      <trkpt lat="47.7058" lon="-2.95577">
        <ele>46.50559</ele>
        <time>2021-11-10T21:46:54.018Z</time>
      </trkpt>
      <trkpt lat="47.70496" lon="-2.95646">
        <ele>46.512145</ele>
        <time>2021-11-10T21:47:10.573Z</time>
      </trkpt>
      <trkpt lat="47.70451" lon="-2.95677">
        <ele>46.587212</ele>
        <time>2021-11-10T21:47:20.149Z</time>
      </trkpt>
      <trkpt lat="47.70448" lon="-2.9566">
        <ele>46.60483</ele>
        <time>2021-11-10T21:47:22.386Z</time>
      </trkpt>
      <trkpt lat="47.70435" lon="-2.95659">
        <ele>46.62432</ele>
        <time>2021-11-10T21:47:24.958Z</time>
      </trkpt>
      <trkpt lat="47.70382" lon="-2.95657">
        <ele>46.666361</ele>
        <time>2021-11-10T21:47:35.735Z</time>
      </trkpt>
      <trkpt lat="47.70372" lon="-2.95651">
        <ele>46.666361</ele>
        <time>2021-11-10T21:47:38.022Z</time>
      </trkpt>
      <trkpt lat="47.70371" lon="-2.95627">
        <ele>46.666361</ele>
        <time>2021-11-10T21:47:41.545Z</time>
      </trkpt>
      <trkpt lat="47.70391" lon="-2.95499">
        <ele>46.666361</ele>
        <time>2021-11-10T21:48:01.701Z</time>
      </trkpt>
    </trkseg>
  </trk>
</gpx>